<?xml version="1.0"?>
<gpx xmlns="http://www.topografix.com/GPX/1/1" xmlns:xsi="http://www.w3.org/2001/XMLSchema-instance" version="1.1" creator="GPX RubyGem 1.0.0 -- http://dougfales.github.io/gpx/" xsi:schemaLocation="http://www.topografix.com/GPX/1/1 http://www.topografix.com/GPX/1/1/gpx.xsd">
  <metadata>
    <name/>
    <time>2026-05-08T02:38:45+00:00</time>
    <bound minlat="90.0" minlon="180.0" maxlat="-90.0" maxlon="-180.0"/>
  </metadata>
  <trk>
    <name/>
    <trkseg>
      <trkpt lat="46.059867" lon="7.935668">
        <time>1970-01-01T00:00:00+00:00</time>
        <ele>3012.0</ele>
      </trkpt>
      <trkpt lat="46.059867" lon="7.935668">
        <time>1970-01-01T00:00:00+00:00</time>
        <ele>3012.0</ele>
      </trkpt>
      <trkpt lat="46.059778" lon="7.935671">
        <time>1970-01-01T00:00:00+00:00</time>
        <ele>3008.0</ele>
      </trkpt>
      <trkpt lat="46.059778" lon="7.935671">
        <time>1970-01-01T00:00:00+00:00</time>
        <ele>3008.0</ele>
      </trkpt>
      <trkpt lat="46.059723" lon="7.935453">
        <time>1970-01-01T00:00:00+00:00</time>
        <ele>3007.0</ele>
      </trkpt>
      <trkpt lat="46.059723" lon="7.935453">
        <time>1970-01-01T00:00:00+00:00</time>
        <ele>3007.0</ele>
      </trkpt>
      <trkpt lat="46.05961951478238" lon="7.935240995148783">
        <time>1970-01-01T00:00:00+00:00</time>
        <ele>3004.0</ele>
      </trkpt>
      <trkpt lat="46.059538" lon="7.935074">
        <time>1970-01-01T00:00:00+00:00</time>
        <ele>3000.0</ele>
      </trkpt>
      <trkpt lat="46.059538" lon="7.935074">
        <time>1970-01-01T00:00:00+00:00</time>
        <ele>3000.0</ele>
      </trkpt>
      <trkpt lat="46.059478" lon="7.93508">
        <time>1970-01-01T00:00:00+00:00</time>
        <ele>2996.0</ele>
      </trkpt>
      <trkpt lat="46.059478" lon="7.93508">
        <time>1970-01-01T00:00:00+00:00</time>
        <ele>2996.0</ele>
      </trkpt>
      <trkpt lat="46.059418" lon="7.935102">
        <time>1970-01-01T00:00:00+00:00</time>
        <ele>2991.0</ele>
      </trkpt>
      <trkpt lat="46.059418" lon="7.935102">
        <time>1970-01-01T00:00:00+00:00</time>
        <ele>2991.0</ele>
      </trkpt>
      <trkpt lat="46.059374" lon="7.935074">
        <time>1970-01-01T00:00:00+00:00</time>
        <ele>2989.0</ele>
      </trkpt>
      <trkpt lat="46.059374" lon="7.935074">
        <time>1970-01-01T00:00:00+00:00</time>
        <ele>2989.0</ele>
      </trkpt>
      <trkpt lat="46.059294" lon="7.935107">
        <time>1970-01-01T00:00:00+00:00</time>
        <ele>2983.0</ele>
      </trkpt>
      <trkpt lat="46.059294" lon="7.935107">
        <time>1970-01-01T00:00:00+00:00</time>
        <ele>2983.0</ele>
      </trkpt>
      <trkpt lat="46.059228" lon="7.935065">
        <time>1970-01-01T00:00:00+00:00</time>
        <ele>2980.0</ele>
      </trkpt>
      <trkpt lat="46.059228" lon="7.935065">
        <time>1970-01-01T00:00:00+00:00</time>
        <ele>2980.0</ele>
      </trkpt>
      <trkpt lat="46.059188" lon="7.934931">
        <time>1970-01-01T00:00:00+00:00</time>
        <ele>2980.0</ele>
      </trkpt>
      <trkpt lat="46.059188" lon="7.934931">
        <time>1970-01-01T00:00:00+00:00</time>
        <ele>2980.0</ele>
      </trkpt>
      <trkpt lat="46.05909328031246" lon="7.934710652095298">
        <time>1970-01-01T00:00:00+00:00</time>
        <ele>2979.0</ele>
      </trkpt>
      <trkpt lat="46.058998560624914" lon="7.934490304190596">
        <time>1970-01-01T00:00:00+00:00</time>
        <ele>2975.0</ele>
      </trkpt>
      <trkpt lat="46.058903840937376" lon="7.934269956285894">
        <time>1970-01-01T00:00:00+00:00</time>
        <ele>2971.0</ele>
      </trkpt>
      <trkpt lat="46.058903" lon="7.934268">
        <time>1970-01-01T00:00:00+00:00</time>
        <ele>2971.0</ele>
      </trkpt>
      <trkpt lat="46.058903" lon="7.934268">
        <time>1970-01-01T00:00:00+00:00</time>
        <ele>2971.0</ele>
      </trkpt>
      <trkpt lat="46.058848" lon="7.934135">
        <time>1970-01-01T00:00:00+00:00</time>
        <ele>2967.0</ele>
      </trkpt>
      <trkpt lat="46.058848" lon="7.934135">
        <time>1970-01-01T00:00:00+00:00</time>
        <ele>2967.0</ele>
      </trkpt>
      <trkpt lat="46.058809" lon="7.934021">
        <time>1970-01-01T00:00:00+00:00</time>
        <ele>2964.0</ele>
      </trkpt>
      <trkpt lat="46.058809" lon="7.934021">
        <time>1970-01-01T00:00:00+00:00</time>
        <ele>2964.0</ele>
      </trkpt>
      <trkpt lat="46.058722" lon="7.933798">
        <time>1970-01-01T00:00:00+00:00</time>
        <ele>2958.0</ele>
      </trkpt>
      <trkpt lat="46.058722" lon="7.933798">
        <time>1970-01-01T00:00:00+00:00</time>
        <ele>2958.0</ele>
      </trkpt>
      <trkpt lat="46.058697" lon="7.933711">
        <time>1970-01-01T00:00:00+00:00</time>
        <ele>2957.0</ele>
      </trkpt>
      <trkpt lat="46.058697" lon="7.933711">
        <time>1970-01-01T00:00:00+00:00</time>
        <ele>2957.0</ele>
      </trkpt>
      <trkpt lat="46.058672" lon="7.933591">
        <time>1970-01-01T00:00:00+00:00</time>
        <ele>2957.0</ele>
      </trkpt>
      <trkpt lat="46.058672" lon="7.933591">
        <time>1970-01-01T00:00:00+00:00</time>
        <ele>2957.0</ele>
      </trkpt>
      <trkpt lat="46.05862660163403" lon="7.933340192633931">
        <time>1970-01-01T00:00:00+00:00</time>
        <ele>2957.0</ele>
      </trkpt>
      <trkpt lat="46.058611" lon="7.933254">
        <time>1970-01-01T00:00:00+00:00</time>
        <ele>2958.0</ele>
      </trkpt>
      <trkpt lat="46.058611" lon="7.933254">
        <time>1970-01-01T00:00:00+00:00</time>
        <ele>2958.0</ele>
      </trkpt>
      <trkpt lat="46.058556" lon="7.933087">
        <time>1970-01-01T00:00:00+00:00</time>
        <ele>2957.0</ele>
      </trkpt>
      <trkpt lat="46.058556" lon="7.933087">
        <time>1970-01-01T00:00:00+00:00</time>
        <ele>2957.0</ele>
      </trkpt>
      <trkpt lat="46.058506187816135" lon="7.932837939080679">
        <time>1970-01-01T00:00:00+00:00</time>
        <ele>2957.0</ele>
      </trkpt>
      <trkpt lat="46.05849" lon="7.932757">
        <time>1970-01-01T00:00:00+00:00</time>
        <ele>2957.0</ele>
      </trkpt>
      <trkpt lat="46.05849" lon="7.932757">
        <time>1970-01-01T00:00:00+00:00</time>
        <ele>2957.0</ele>
      </trkpt>
      <trkpt lat="46.05840864455809" lon="7.932525831488242">
        <time>1970-01-01T00:00:00+00:00</time>
        <ele>2953.0</ele>
      </trkpt>
      <trkpt lat="46.058408" lon="7.932524">
        <time>1970-01-01T00:00:00+00:00</time>
        <ele>2952.0</ele>
      </trkpt>
      <trkpt lat="46.058408" lon="7.932524">
        <time>1970-01-01T00:00:00+00:00</time>
        <ele>2952.0</ele>
      </trkpt>
      <trkpt lat="46.058348" lon="7.932468">
        <time>1970-01-01T00:00:00+00:00</time>
        <ele>2947.0</ele>
      </trkpt>
      <trkpt lat="46.058348" lon="7.932468">
        <time>1970-01-01T00:00:00+00:00</time>
        <ele>2947.0</ele>
      </trkpt>
      <trkpt lat="46.058301" lon="7.932424">
        <time>1970-01-01T00:00:00+00:00</time>
        <ele>2944.0</ele>
      </trkpt>
      <trkpt lat="46.058301" lon="7.932424">
        <time>1970-01-01T00:00:00+00:00</time>
        <ele>2944.0</ele>
      </trkpt>
      <trkpt lat="46.058249" lon="7.932414">
        <time>1970-01-01T00:00:00+00:00</time>
        <ele>2941.0</ele>
      </trkpt>
      <trkpt lat="46.058249" lon="7.932414">
        <time>1970-01-01T00:00:00+00:00</time>
        <ele>2941.0</ele>
      </trkpt>
      <trkpt lat="46.058198" lon="7.932491">
        <time>1970-01-01T00:00:00+00:00</time>
        <ele>2937.0</ele>
      </trkpt>
      <trkpt lat="46.058198" lon="7.932491">
        <time>1970-01-01T00:00:00+00:00</time>
        <ele>2937.0</ele>
      </trkpt>
      <trkpt lat="46.058147" lon="7.932541">
        <time>1970-01-01T00:00:00+00:00</time>
        <ele>2934.0</ele>
      </trkpt>
      <trkpt lat="46.058147" lon="7.932541">
        <time>1970-01-01T00:00:00+00:00</time>
        <ele>2934.0</ele>
      </trkpt>
      <trkpt lat="46.058111" lon="7.932431">
        <time>1970-01-01T00:00:00+00:00</time>
        <ele>2933.0</ele>
      </trkpt>
      <trkpt lat="46.058111" lon="7.932431">
        <time>1970-01-01T00:00:00+00:00</time>
        <ele>2933.0</ele>
      </trkpt>
      <trkpt lat="46.058099" lon="7.932204">
        <time>1970-01-01T00:00:00+00:00</time>
        <ele>2934.0</ele>
      </trkpt>
      <trkpt lat="46.058099" lon="7.932204">
        <time>1970-01-01T00:00:00+00:00</time>
        <ele>2934.0</ele>
      </trkpt>
      <trkpt lat="46.058069" lon="7.932139">
        <time>1970-01-01T00:00:00+00:00</time>
        <ele>2933.0</ele>
      </trkpt>
      <trkpt lat="46.058069" lon="7.932139">
        <time>1970-01-01T00:00:00+00:00</time>
        <ele>2933.0</ele>
      </trkpt>
      <trkpt lat="46.057999" lon="7.932183">
        <time>1970-01-01T00:00:00+00:00</time>
        <ele>2931.0</ele>
      </trkpt>
      <trkpt lat="46.057999" lon="7.932183">
        <time>1970-01-01T00:00:00+00:00</time>
        <ele>2931.0</ele>
      </trkpt>
      <trkpt lat="46.057948" lon="7.932216">
        <time>1970-01-01T00:00:00+00:00</time>
        <ele>2929.0</ele>
      </trkpt>
      <trkpt lat="46.057948" lon="7.932216">
        <time>1970-01-01T00:00:00+00:00</time>
        <ele>2929.0</ele>
      </trkpt>
      <trkpt lat="46.057875549889566" lon="7.931978761403082">
        <time>1970-01-01T00:00:00+00:00</time>
        <ele>2928.0</ele>
      </trkpt>
      <trkpt lat="46.05780309977913" lon="7.931741522806164">
        <time>1970-01-01T00:00:00+00:00</time>
        <ele>2927.0</ele>
      </trkpt>
      <trkpt lat="46.057795" lon="7.931715">
        <time>1970-01-01T00:00:00+00:00</time>
        <ele>2927.0</ele>
      </trkpt>
      <trkpt lat="46.057795" lon="7.931715">
        <time>1970-01-01T00:00:00+00:00</time>
        <ele>2927.0</ele>
      </trkpt>
      <trkpt lat="46.057754" lon="7.93166">
        <time>1970-01-01T00:00:00+00:00</time>
        <ele>2927.0</ele>
      </trkpt>
      <trkpt lat="46.057754" lon="7.93166">
        <time>1970-01-01T00:00:00+00:00</time>
        <ele>2927.0</ele>
      </trkpt>
      <trkpt lat="46.057671" lon="7.931652">
        <time>1970-01-01T00:00:00+00:00</time>
        <ele>2924.0</ele>
      </trkpt>
      <trkpt lat="46.057671" lon="7.931652">
        <time>1970-01-01T00:00:00+00:00</time>
        <ele>2924.0</ele>
      </trkpt>
      <trkpt lat="46.05751740940067" lon="7.931517115948016">
        <time>1970-01-01T00:00:00+00:00</time>
        <ele>2921.0</ele>
      </trkpt>
      <trkpt lat="46.057515" lon="7.931515">
        <time>1970-01-01T00:00:00+00:00</time>
        <ele>2921.0</ele>
      </trkpt>
      <trkpt lat="46.057515" lon="7.931515">
        <time>1970-01-01T00:00:00+00:00</time>
        <ele>2921.0</ele>
      </trkpt>
      <trkpt lat="46.057457" lon="7.93146">
        <time>1970-01-01T00:00:00+00:00</time>
        <ele>2921.0</ele>
      </trkpt>
      <trkpt lat="46.057457" lon="7.93146">
        <time>1970-01-01T00:00:00+00:00</time>
        <ele>2921.0</ele>
      </trkpt>
      <trkpt lat="46.057364" lon="7.931323">
        <time>1970-01-01T00:00:00+00:00</time>
        <ele>2923.0</ele>
      </trkpt>
      <trkpt lat="46.057364" lon="7.931323">
        <time>1970-01-01T00:00:00+00:00</time>
        <ele>2923.0</ele>
      </trkpt>
      <trkpt lat="46.05722996293602" lon="7.93115016273329">
        <time>1970-01-01T00:00:00+00:00</time>
        <ele>2923.0</ele>
      </trkpt>
      <trkpt lat="46.057212" lon="7.931127">
        <time>1970-01-01T00:00:00+00:00</time>
        <ele>2923.0</ele>
      </trkpt>
      <trkpt lat="46.057212" lon="7.931127">
        <time>1970-01-01T00:00:00+00:00</time>
        <ele>2923.0</ele>
      </trkpt>
      <trkpt lat="46.057165" lon="7.931077">
        <time>1970-01-01T00:00:00+00:00</time>
        <ele>2923.0</ele>
      </trkpt>
      <trkpt lat="46.057165" lon="7.931077">
        <time>1970-01-01T00:00:00+00:00</time>
        <ele>2923.0</ele>
      </trkpt>
      <trkpt lat="46.057057" lon="7.930997">
        <time>1970-01-01T00:00:00+00:00</time>
        <ele>2922.0</ele>
      </trkpt>
      <trkpt lat="46.057057" lon="7.930997">
        <time>1970-01-01T00:00:00+00:00</time>
        <ele>2922.0</ele>
      </trkpt>
      <trkpt lat="46.057001" lon="7.93096">
        <time>1970-01-01T00:00:00+00:00</time>
        <ele>2922.0</ele>
      </trkpt>
      <trkpt lat="46.057001" lon="7.93096">
        <time>1970-01-01T00:00:00+00:00</time>
        <ele>2922.0</ele>
      </trkpt>
      <trkpt lat="46.056946" lon="7.930934">
        <time>1970-01-01T00:00:00+00:00</time>
        <ele>2923.0</ele>
      </trkpt>
      <trkpt lat="46.056946" lon="7.930934">
        <time>1970-01-01T00:00:00+00:00</time>
        <ele>2923.0</ele>
      </trkpt>
      <trkpt lat="46.056882" lon="7.930915">
        <time>1970-01-01T00:00:00+00:00</time>
        <ele>2923.0</ele>
      </trkpt>
      <trkpt lat="46.056882" lon="7.930915">
        <time>1970-01-01T00:00:00+00:00</time>
        <ele>2923.0</ele>
      </trkpt>
      <trkpt lat="46.05670367056979" lon="7.930881211265854">
        <time>1970-01-01T00:00:00+00:00</time>
        <ele>2923.0</ele>
      </trkpt>
      <trkpt lat="46.056525341139576" lon="7.930847422531709">
        <time>1970-01-01T00:00:00+00:00</time>
        <ele>2922.0</ele>
      </trkpt>
      <trkpt lat="46.056502" lon="7.930843">
        <time>1970-01-01T00:00:00+00:00</time>
        <ele>2922.0</ele>
      </trkpt>
      <trkpt lat="46.056502" lon="7.930843">
        <time>1970-01-01T00:00:00+00:00</time>
        <ele>2922.0</ele>
      </trkpt>
      <trkpt lat="46.056399" lon="7.930802">
        <time>1970-01-01T00:00:00+00:00</time>
        <ele>2923.0</ele>
      </trkpt>
      <trkpt lat="46.056399" lon="7.930802">
        <time>1970-01-01T00:00:00+00:00</time>
        <ele>2923.0</ele>
      </trkpt>
      <trkpt lat="46.056244" lon="7.930756">
        <time>1970-01-01T00:00:00+00:00</time>
        <ele>2923.0</ele>
      </trkpt>
      <trkpt lat="46.056244" lon="7.930756">
        <time>1970-01-01T00:00:00+00:00</time>
        <ele>2923.0</ele>
      </trkpt>
      <trkpt lat="46.056128" lon="7.93075">
        <time>1970-01-01T00:00:00+00:00</time>
        <ele>2924.0</ele>
      </trkpt>
      <trkpt lat="46.056128" lon="7.93075">
        <time>1970-01-01T00:00:00+00:00</time>
        <ele>2924.0</ele>
      </trkpt>
      <trkpt lat="46.056044" lon="7.930735">
        <time>1970-01-01T00:00:00+00:00</time>
        <ele>2924.0</ele>
      </trkpt>
      <trkpt lat="46.056044" lon="7.930735">
        <time>1970-01-01T00:00:00+00:00</time>
        <ele>2924.0</ele>
      </trkpt>
      <trkpt lat="46.055943" lon="7.930723">
        <time>1970-01-01T00:00:00+00:00</time>
        <ele>2924.0</ele>
      </trkpt>
      <trkpt lat="46.055943" lon="7.930723">
        <time>1970-01-01T00:00:00+00:00</time>
        <ele>2924.0</ele>
      </trkpt>
      <trkpt lat="46.05582" lon="7.930675">
        <time>1970-01-01T00:00:00+00:00</time>
        <ele>2924.0</ele>
      </trkpt>
      <trkpt lat="46.05582" lon="7.930675">
        <time>1970-01-01T00:00:00+00:00</time>
        <ele>2924.0</ele>
      </trkpt>
      <trkpt lat="46.055774" lon="7.930676">
        <time>1970-01-01T00:00:00+00:00</time>
        <ele>2924.0</ele>
      </trkpt>
      <trkpt lat="46.055774" lon="7.930676">
        <time>1970-01-01T00:00:00+00:00</time>
        <ele>2924.0</ele>
      </trkpt>
      <trkpt lat="46.055616" lon="7.930658">
        <time>1970-01-01T00:00:00+00:00</time>
        <ele>2924.0</ele>
      </trkpt>
      <trkpt lat="46.055616" lon="7.930658">
        <time>1970-01-01T00:00:00+00:00</time>
        <ele>2924.0</ele>
      </trkpt>
      <trkpt lat="46.055478" lon="7.93062">
        <time>1970-01-01T00:00:00+00:00</time>
        <ele>2923.0</ele>
      </trkpt>
      <trkpt lat="46.055478" lon="7.93062">
        <time>1970-01-01T00:00:00+00:00</time>
        <ele>2923.0</ele>
      </trkpt>
      <trkpt lat="46.055401" lon="7.930575">
        <time>1970-01-01T00:00:00+00:00</time>
        <ele>2923.0</ele>
      </trkpt>
      <trkpt lat="46.055401" lon="7.930575">
        <time>1970-01-01T00:00:00+00:00</time>
        <ele>2923.0</ele>
      </trkpt>
      <trkpt lat="46.055318" lon="7.930501">
        <time>1970-01-01T00:00:00+00:00</time>
        <ele>2922.0</ele>
      </trkpt>
      <trkpt lat="46.055318" lon="7.930501">
        <time>1970-01-01T00:00:00+00:00</time>
        <ele>2922.0</ele>
      </trkpt>
      <trkpt lat="46.05517971049745" lon="7.930335272104087">
        <time>1970-01-01T00:00:00+00:00</time>
        <ele>2919.0</ele>
      </trkpt>
      <trkpt lat="46.0550414209949" lon="7.930169544208175">
        <time>1970-01-01T00:00:00+00:00</time>
        <ele>2917.0</ele>
      </trkpt>
      <trkpt lat="46.05494" lon="7.930048">
        <time>1970-01-01T00:00:00+00:00</time>
        <ele>2915.0</ele>
      </trkpt>
      <trkpt lat="46.05494" lon="7.930048">
        <time>1970-01-01T00:00:00+00:00</time>
        <ele>2915.0</ele>
      </trkpt>
      <trkpt lat="46.054882" lon="7.929979">
        <time>1970-01-01T00:00:00+00:00</time>
        <ele>2914.0</ele>
      </trkpt>
      <trkpt lat="46.054882" lon="7.929979">
        <time>1970-01-01T00:00:00+00:00</time>
        <ele>2914.0</ele>
      </trkpt>
      <trkpt lat="46.05473836387153" lon="7.929823001745717">
        <time>1970-01-01T00:00:00+00:00</time>
        <ele>2912.0</ele>
      </trkpt>
      <trkpt lat="46.054638" lon="7.929714">
        <time>1970-01-01T00:00:00+00:00</time>
        <ele>2911.0</ele>
      </trkpt>
      <trkpt lat="46.054638" lon="7.929714">
        <time>1970-01-01T00:00:00+00:00</time>
        <ele>2911.0</ele>
      </trkpt>
      <trkpt lat="46.054564" lon="7.929668">
        <time>1970-01-01T00:00:00+00:00</time>
        <ele>2910.0</ele>
      </trkpt>
      <trkpt lat="46.054564" lon="7.929668">
        <time>1970-01-01T00:00:00+00:00</time>
        <ele>2910.0</ele>
      </trkpt>
      <trkpt lat="46.054499" lon="7.92965">
        <time>1970-01-01T00:00:00+00:00</time>
        <ele>2909.0</ele>
      </trkpt>
      <trkpt lat="46.054499" lon="7.92965">
        <time>1970-01-01T00:00:00+00:00</time>
        <ele>2909.0</ele>
      </trkpt>
      <trkpt lat="46.054452" lon="7.929659">
        <time>1970-01-01T00:00:00+00:00</time>
        <ele>2909.0</ele>
      </trkpt>
      <trkpt lat="46.054452" lon="7.929659">
        <time>1970-01-01T00:00:00+00:00</time>
        <ele>2909.0</ele>
      </trkpt>
      <trkpt lat="46.054414" lon="7.929696">
        <time>1970-01-01T00:00:00+00:00</time>
        <ele>2908.0</ele>
      </trkpt>
      <trkpt lat="46.054414" lon="7.929696">
        <time>1970-01-01T00:00:00+00:00</time>
        <ele>2908.0</ele>
      </trkpt>
      <trkpt lat="46.054446" lon="7.929744">
        <time>1970-01-01T00:00:00+00:00</time>
        <ele>2909.0</ele>
      </trkpt>
      <trkpt lat="46.054446" lon="7.929744">
        <time>1970-01-01T00:00:00+00:00</time>
        <ele>2909.0</ele>
      </trkpt>
      <trkpt lat="46.054432" lon="7.929676">
        <time>1970-01-01T00:00:00+00:00</time>
        <ele>2909.0</ele>
      </trkpt>
      <trkpt lat="46.054432" lon="7.929676">
        <time>1970-01-01T00:00:00+00:00</time>
        <ele>2909.0</ele>
      </trkpt>
      <trkpt lat="46.05442" lon="7.92974">
        <time>1970-01-01T00:00:00+00:00</time>
        <ele>2908.0</ele>
      </trkpt>
      <trkpt lat="46.05442" lon="7.92974">
        <time>1970-01-01T00:00:00+00:00</time>
        <ele>2908.0</ele>
      </trkpt>
      <trkpt lat="46.054468" lon="7.929766">
        <time>1970-01-01T00:00:00+00:00</time>
        <ele>2909.0</ele>
      </trkpt>
      <trkpt lat="46.054468" lon="7.929766">
        <time>1970-01-01T00:00:00+00:00</time>
        <ele>2909.0</ele>
      </trkpt>
      <trkpt lat="46.054418" lon="7.929698">
        <time>1970-01-01T00:00:00+00:00</time>
        <ele>2908.0</ele>
      </trkpt>
      <trkpt lat="46.054418" lon="7.929698">
        <time>1970-01-01T00:00:00+00:00</time>
        <ele>2908.0</ele>
      </trkpt>
      <trkpt lat="46.054334" lon="7.929645">
        <time>1970-01-01T00:00:00+00:00</time>
        <ele>2908.0</ele>
      </trkpt>
      <trkpt lat="46.054334" lon="7.929645">
        <time>1970-01-01T00:00:00+00:00</time>
        <ele>2908.0</ele>
      </trkpt>
      <trkpt lat="46.054193" lon="7.929528">
        <time>1970-01-01T00:00:00+00:00</time>
        <ele>2909.0</ele>
      </trkpt>
      <trkpt lat="46.054193" lon="7.929528">
        <time>1970-01-01T00:00:00+00:00</time>
        <ele>2909.0</ele>
      </trkpt>
      <trkpt lat="46.054132" lon="7.929494">
        <time>1970-01-01T00:00:00+00:00</time>
        <ele>2910.0</ele>
      </trkpt>
      <trkpt lat="46.054132" lon="7.929494">
        <time>1970-01-01T00:00:00+00:00</time>
        <ele>2910.0</ele>
      </trkpt>
      <trkpt lat="46.054089" lon="7.929448">
        <time>1970-01-01T00:00:00+00:00</time>
        <ele>2911.0</ele>
      </trkpt>
      <trkpt lat="46.054089" lon="7.929448">
        <time>1970-01-01T00:00:00+00:00</time>
        <ele>2911.0</ele>
      </trkpt>
      <trkpt lat="46.053975" lon="7.929382">
        <time>1970-01-01T00:00:00+00:00</time>
        <ele>2912.0</ele>
      </trkpt>
      <trkpt lat="46.053975" lon="7.929382">
        <time>1970-01-01T00:00:00+00:00</time>
        <ele>2912.0</ele>
      </trkpt>
      <trkpt lat="46.053847" lon="7.929284">
        <time>1970-01-01T00:00:00+00:00</time>
        <ele>2915.0</ele>
      </trkpt>
      <trkpt lat="46.053847" lon="7.929284">
        <time>1970-01-01T00:00:00+00:00</time>
        <ele>2915.0</ele>
      </trkpt>
      <trkpt lat="46.053763" lon="7.929195">
        <time>1970-01-01T00:00:00+00:00</time>
        <ele>2917.0</ele>
      </trkpt>
      <trkpt lat="46.053763" lon="7.929195">
        <time>1970-01-01T00:00:00+00:00</time>
        <ele>2917.0</ele>
      </trkpt>
      <trkpt lat="46.053632" lon="7.92913">
        <time>1970-01-01T00:00:00+00:00</time>
        <ele>2921.0</ele>
      </trkpt>
      <trkpt lat="46.053632" lon="7.92913">
        <time>1970-01-01T00:00:00+00:00</time>
        <ele>2921.0</ele>
      </trkpt>
      <trkpt lat="46.053587" lon="7.929132">
        <time>1970-01-01T00:00:00+00:00</time>
        <ele>2923.0</ele>
      </trkpt>
      <trkpt lat="46.053587" lon="7.929132">
        <time>1970-01-01T00:00:00+00:00</time>
        <ele>2923.0</ele>
      </trkpt>
      <trkpt lat="46.053502" lon="7.929123">
        <time>1970-01-01T00:00:00+00:00</time>
        <ele>2926.0</ele>
      </trkpt>
      <trkpt lat="46.053502" lon="7.929123">
        <time>1970-01-01T00:00:00+00:00</time>
        <ele>2926.0</ele>
      </trkpt>
      <trkpt lat="46.05344" lon="7.929105">
        <time>1970-01-01T00:00:00+00:00</time>
        <ele>2928.0</ele>
      </trkpt>
      <trkpt lat="46.05344" lon="7.929105">
        <time>1970-01-01T00:00:00+00:00</time>
        <ele>2928.0</ele>
      </trkpt>
      <trkpt lat="46.053392" lon="7.929077">
        <time>1970-01-01T00:00:00+00:00</time>
        <ele>2929.0</ele>
      </trkpt>
      <trkpt lat="46.053392" lon="7.929077">
        <time>1970-01-01T00:00:00+00:00</time>
        <ele>2929.0</ele>
      </trkpt>
      <trkpt lat="46.053246" lon="7.928973">
        <time>1970-01-01T00:00:00+00:00</time>
        <ele>2933.0</ele>
      </trkpt>
      <trkpt lat="46.053246" lon="7.928973">
        <time>1970-01-01T00:00:00+00:00</time>
        <ele>2933.0</ele>
      </trkpt>
      <trkpt lat="46.053151" lon="7.928969">
        <time>1970-01-01T00:00:00+00:00</time>
        <ele>2933.0</ele>
      </trkpt>
      <trkpt lat="46.053151" lon="7.928969">
        <time>1970-01-01T00:00:00+00:00</time>
        <ele>2933.0</ele>
      </trkpt>
      <trkpt lat="46.053035" lon="7.928913">
        <time>1970-01-01T00:00:00+00:00</time>
        <ele>2933.0</ele>
      </trkpt>
      <trkpt lat="46.053035" lon="7.928913">
        <time>1970-01-01T00:00:00+00:00</time>
        <ele>2933.0</ele>
      </trkpt>
      <trkpt lat="46.052961" lon="7.92887">
        <time>1970-01-01T00:00:00+00:00</time>
        <ele>2933.0</ele>
      </trkpt>
      <trkpt lat="46.052961" lon="7.92887">
        <time>1970-01-01T00:00:00+00:00</time>
        <ele>2933.0</ele>
      </trkpt>
      <trkpt lat="46.05280564728549" lon="7.92873938497888">
        <time>1970-01-01T00:00:00+00:00</time>
        <ele>2933.0</ele>
      </trkpt>
      <trkpt lat="46.052804" lon="7.928738">
        <time>1970-01-01T00:00:00+00:00</time>
        <ele>2933.0</ele>
      </trkpt>
      <trkpt lat="46.052804" lon="7.928738">
        <time>1970-01-01T00:00:00+00:00</time>
        <ele>2933.0</ele>
      </trkpt>
      <trkpt lat="46.052672" lon="7.928687">
        <time>1970-01-01T00:00:00+00:00</time>
        <ele>2933.0</ele>
      </trkpt>
      <trkpt lat="46.052672" lon="7.928687">
        <time>1970-01-01T00:00:00+00:00</time>
        <ele>2933.0</ele>
      </trkpt>
      <trkpt lat="46.052554" lon="7.928624">
        <time>1970-01-01T00:00:00+00:00</time>
        <ele>2933.0</ele>
      </trkpt>
      <trkpt lat="46.052554" lon="7.928624">
        <time>1970-01-01T00:00:00+00:00</time>
        <ele>2933.0</ele>
      </trkpt>
      <trkpt lat="46.052428" lon="7.928525">
        <time>1970-01-01T00:00:00+00:00</time>
        <ele>2934.0</ele>
      </trkpt>
      <trkpt lat="46.052428" lon="7.928525">
        <time>1970-01-01T00:00:00+00:00</time>
        <ele>2934.0</ele>
      </trkpt>
      <trkpt lat="46.052325" lon="7.928428">
        <time>1970-01-01T00:00:00+00:00</time>
        <ele>2935.0</ele>
      </trkpt>
      <trkpt lat="46.052325" lon="7.928428">
        <time>1970-01-01T00:00:00+00:00</time>
        <ele>2935.0</ele>
      </trkpt>
      <trkpt lat="46.052224" lon="7.928379">
        <time>1970-01-01T00:00:00+00:00</time>
        <ele>2935.0</ele>
      </trkpt>
      <trkpt lat="46.052224" lon="7.928379">
        <time>1970-01-01T00:00:00+00:00</time>
        <ele>2935.0</ele>
      </trkpt>
      <trkpt lat="46.05214" lon="7.928306">
        <time>1970-01-01T00:00:00+00:00</time>
        <ele>2935.0</ele>
      </trkpt>
      <trkpt lat="46.05214" lon="7.928306">
        <time>1970-01-01T00:00:00+00:00</time>
        <ele>2935.0</ele>
      </trkpt>
      <trkpt lat="46.052094" lon="7.928275">
        <time>1970-01-01T00:00:00+00:00</time>
        <ele>2935.0</ele>
      </trkpt>
      <trkpt lat="46.052094" lon="7.928275">
        <time>1970-01-01T00:00:00+00:00</time>
        <ele>2935.0</ele>
      </trkpt>
      <trkpt lat="46.051999" lon="7.928254">
        <time>1970-01-01T00:00:00+00:00</time>
        <ele>2935.0</ele>
      </trkpt>
      <trkpt lat="46.051999" lon="7.928254">
        <time>1970-01-01T00:00:00+00:00</time>
        <ele>2935.0</ele>
      </trkpt>
      <trkpt lat="46.051903" lon="7.928201">
        <time>1970-01-01T00:00:00+00:00</time>
        <ele>2936.0</ele>
      </trkpt>
      <trkpt lat="46.051903" lon="7.928201">
        <time>1970-01-01T00:00:00+00:00</time>
        <ele>2936.0</ele>
      </trkpt>
      <trkpt lat="46.051771" lon="7.928143">
        <time>1970-01-01T00:00:00+00:00</time>
        <ele>2938.0</ele>
      </trkpt>
      <trkpt lat="46.051771" lon="7.928143">
        <time>1970-01-01T00:00:00+00:00</time>
        <ele>2938.0</ele>
      </trkpt>
      <trkpt lat="46.051704" lon="7.928037">
        <time>1970-01-01T00:00:00+00:00</time>
        <ele>2939.0</ele>
      </trkpt>
      <trkpt lat="46.051704" lon="7.928037">
        <time>1970-01-01T00:00:00+00:00</time>
        <ele>2939.0</ele>
      </trkpt>
      <trkpt lat="46.051685" lon="7.9278">
        <time>1970-01-01T00:00:00+00:00</time>
        <ele>2940.0</ele>
      </trkpt>
      <trkpt lat="46.051685" lon="7.9278">
        <time>1970-01-01T00:00:00+00:00</time>
        <ele>2940.0</ele>
      </trkpt>
      <trkpt lat="46.051647" lon="7.927587">
        <time>1970-01-01T00:00:00+00:00</time>
        <ele>2943.0</ele>
      </trkpt>
      <trkpt lat="46.051647" lon="7.927587">
        <time>1970-01-01T00:00:00+00:00</time>
        <ele>2943.0</ele>
      </trkpt>
      <trkpt lat="46.051628" lon="7.927482">
        <time>1970-01-01T00:00:00+00:00</time>
        <ele>2945.0</ele>
      </trkpt>
      <trkpt lat="46.051628" lon="7.927482">
        <time>1970-01-01T00:00:00+00:00</time>
        <ele>2945.0</ele>
      </trkpt>
      <trkpt lat="46.051583" lon="7.927361">
        <time>1970-01-01T00:00:00+00:00</time>
        <ele>2947.0</ele>
      </trkpt>
      <trkpt lat="46.051583" lon="7.927361">
        <time>1970-01-01T00:00:00+00:00</time>
        <ele>2947.0</ele>
      </trkpt>
      <trkpt lat="46.05147459824291" lon="7.927154190974072">
        <time>1970-01-01T00:00:00+00:00</time>
        <ele>2949.0</ele>
      </trkpt>
      <trkpt lat="46.051442" lon="7.927092">
        <time>1970-01-01T00:00:00+00:00</time>
        <ele>2949.0</ele>
      </trkpt>
      <trkpt lat="46.051442" lon="7.927092">
        <time>1970-01-01T00:00:00+00:00</time>
        <ele>2949.0</ele>
      </trkpt>
      <trkpt lat="46.051409" lon="7.926989">
        <time>1970-01-01T00:00:00+00:00</time>
        <ele>2950.0</ele>
      </trkpt>
      <trkpt lat="46.051409" lon="7.926989">
        <time>1970-01-01T00:00:00+00:00</time>
        <ele>2950.0</ele>
      </trkpt>
      <trkpt lat="46.05136" lon="7.926901">
        <time>1970-01-01T00:00:00+00:00</time>
        <ele>2950.0</ele>
      </trkpt>
      <trkpt lat="46.05136" lon="7.926901">
        <time>1970-01-01T00:00:00+00:00</time>
        <ele>2950.0</ele>
      </trkpt>
      <trkpt lat="46.051342" lon="7.926817">
        <time>1970-01-01T00:00:00+00:00</time>
        <ele>2950.0</ele>
      </trkpt>
      <trkpt lat="46.051342" lon="7.926817">
        <time>1970-01-01T00:00:00+00:00</time>
        <ele>2950.0</ele>
      </trkpt>
      <trkpt lat="46.051316" lon="7.926762">
        <time>1970-01-01T00:00:00+00:00</time>
        <ele>2950.0</ele>
      </trkpt>
      <trkpt lat="46.051316" lon="7.926762">
        <time>1970-01-01T00:00:00+00:00</time>
        <ele>2950.0</ele>
      </trkpt>
      <trkpt lat="46.051289" lon="7.926675">
        <time>1970-01-01T00:00:00+00:00</time>
        <ele>2951.0</ele>
      </trkpt>
      <trkpt lat="46.051289" lon="7.926675">
        <time>1970-01-01T00:00:00+00:00</time>
        <ele>2951.0</ele>
      </trkpt>
      <trkpt lat="46.051274" lon="7.926609">
        <time>1970-01-01T00:00:00+00:00</time>
        <ele>2951.0</ele>
      </trkpt>
      <trkpt lat="46.051274" lon="7.926609">
        <time>1970-01-01T00:00:00+00:00</time>
        <ele>2951.0</ele>
      </trkpt>
      <trkpt lat="46.051199" lon="7.926404">
        <time>1970-01-01T00:00:00+00:00</time>
        <ele>2953.0</ele>
      </trkpt>
      <trkpt lat="46.051199" lon="7.926404">
        <time>1970-01-01T00:00:00+00:00</time>
        <ele>2953.0</ele>
      </trkpt>
      <trkpt lat="46.051166" lon="7.926276">
        <time>1970-01-01T00:00:00+00:00</time>
        <ele>2955.0</ele>
      </trkpt>
      <trkpt lat="46.051166" lon="7.926276">
        <time>1970-01-01T00:00:00+00:00</time>
        <ele>2955.0</ele>
      </trkpt>
      <trkpt lat="46.051145" lon="7.926056">
        <time>1970-01-01T00:00:00+00:00</time>
        <ele>2957.0</ele>
      </trkpt>
      <trkpt lat="46.051145" lon="7.926056">
        <time>1970-01-01T00:00:00+00:00</time>
        <ele>2957.0</ele>
      </trkpt>
      <trkpt lat="46.051113" lon="7.925988">
        <time>1970-01-01T00:00:00+00:00</time>
        <ele>2958.0</ele>
      </trkpt>
      <trkpt lat="46.051113" lon="7.925988">
        <time>1970-01-01T00:00:00+00:00</time>
        <ele>2958.0</ele>
      </trkpt>
      <trkpt lat="46.050985355900345" lon="7.925805409764731">
        <time>1970-01-01T00:00:00+00:00</time>
        <ele>2959.0</ele>
      </trkpt>
      <trkpt lat="46.050962" lon="7.925772">
        <time>1970-01-01T00:00:00+00:00</time>
        <ele>2959.0</ele>
      </trkpt>
      <trkpt lat="46.050962" lon="7.925772">
        <time>1970-01-01T00:00:00+00:00</time>
        <ele>2959.0</ele>
      </trkpt>
      <trkpt lat="46.050932" lon="7.925663">
        <time>1970-01-01T00:00:00+00:00</time>
        <ele>2961.0</ele>
      </trkpt>
      <trkpt lat="46.050932" lon="7.925663">
        <time>1970-01-01T00:00:00+00:00</time>
        <ele>2961.0</ele>
      </trkpt>
      <trkpt lat="46.05083389965146" lon="7.92544577779966">
        <time>1970-01-01T00:00:00+00:00</time>
        <ele>2965.0</ele>
      </trkpt>
      <trkpt lat="46.05082" lon="7.925415">
        <time>1970-01-01T00:00:00+00:00</time>
        <ele>2966.0</ele>
      </trkpt>
      <trkpt lat="46.05082" lon="7.925415">
        <time>1970-01-01T00:00:00+00:00</time>
        <ele>2966.0</ele>
      </trkpt>
      <trkpt lat="46.050782" lon="7.925373">
        <time>1970-01-01T00:00:00+00:00</time>
        <ele>2966.0</ele>
      </trkpt>
      <trkpt lat="46.050782" lon="7.925373">
        <time>1970-01-01T00:00:00+00:00</time>
        <ele>2966.0</ele>
      </trkpt>
      <trkpt lat="46.050665" lon="7.925324">
        <time>1970-01-01T00:00:00+00:00</time>
        <ele>2964.0</ele>
      </trkpt>
      <trkpt lat="46.050665" lon="7.925324">
        <time>1970-01-01T00:00:00+00:00</time>
        <ele>2964.0</ele>
      </trkpt>
      <trkpt lat="46.050624" lon="7.92527">
        <time>1970-01-01T00:00:00+00:00</time>
        <ele>2965.0</ele>
      </trkpt>
      <trkpt lat="46.050624" lon="7.92527">
        <time>1970-01-01T00:00:00+00:00</time>
        <ele>2965.0</ele>
      </trkpt>
      <trkpt lat="46.05057" lon="7.925218">
        <time>1970-01-01T00:00:00+00:00</time>
        <ele>2966.0</ele>
      </trkpt>
      <trkpt lat="46.05057" lon="7.925218">
        <time>1970-01-01T00:00:00+00:00</time>
        <ele>2966.0</ele>
      </trkpt>
      <trkpt lat="46.050492" lon="7.925093">
        <time>1970-01-01T00:00:00+00:00</time>
        <ele>2968.0</ele>
      </trkpt>
      <trkpt lat="46.050492" lon="7.925093">
        <time>1970-01-01T00:00:00+00:00</time>
        <ele>2968.0</ele>
      </trkpt>
      <trkpt lat="46.050394" lon="7.925015">
        <time>1970-01-01T00:00:00+00:00</time>
        <ele>2970.0</ele>
      </trkpt>
      <trkpt lat="46.050394" lon="7.925015">
        <time>1970-01-01T00:00:00+00:00</time>
        <ele>2970.0</ele>
      </trkpt>
      <trkpt lat="46.050296" lon="7.924896">
        <time>1970-01-01T00:00:00+00:00</time>
        <ele>2973.0</ele>
      </trkpt>
      <trkpt lat="46.050296" lon="7.924896">
        <time>1970-01-01T00:00:00+00:00</time>
        <ele>2973.0</ele>
      </trkpt>
      <trkpt lat="46.050234" lon="7.924759">
        <time>1970-01-01T00:00:00+00:00</time>
        <ele>2975.0</ele>
      </trkpt>
      <trkpt lat="46.050234" lon="7.924759">
        <time>1970-01-01T00:00:00+00:00</time>
        <ele>2975.0</ele>
      </trkpt>
      <trkpt lat="46.05016326183171" lon="7.924520724064699">
        <time>1970-01-01T00:00:00+00:00</time>
        <ele>2980.0</ele>
      </trkpt>
      <trkpt lat="46.050158" lon="7.924503">
        <time>1970-01-01T00:00:00+00:00</time>
        <ele>2980.0</ele>
      </trkpt>
      <trkpt lat="46.050158" lon="7.924503">
        <time>1970-01-01T00:00:00+00:00</time>
        <ele>2980.0</ele>
      </trkpt>
      <trkpt lat="46.050111" lon="7.924414">
        <time>1970-01-01T00:00:00+00:00</time>
        <ele>2982.0</ele>
      </trkpt>
      <trkpt lat="46.050111" lon="7.924414">
        <time>1970-01-01T00:00:00+00:00</time>
        <ele>2982.0</ele>
      </trkpt>
      <trkpt lat="46.050105" lon="7.924294">
        <time>1970-01-01T00:00:00+00:00</time>
        <ele>2983.0</ele>
      </trkpt>
      <trkpt lat="46.050105" lon="7.924294">
        <time>1970-01-01T00:00:00+00:00</time>
        <ele>2983.0</ele>
      </trkpt>
      <trkpt lat="46.050058" lon="7.924046">
        <time>1970-01-01T00:00:00+00:00</time>
        <ele>2986.0</ele>
      </trkpt>
      <trkpt lat="46.050058" lon="7.924046">
        <time>1970-01-01T00:00:00+00:00</time>
        <ele>2986.0</ele>
      </trkpt>
      <trkpt lat="46.050015" lon="7.923953">
        <time>1970-01-01T00:00:00+00:00</time>
        <ele>2987.0</ele>
      </trkpt>
      <trkpt lat="46.050015" lon="7.923953">
        <time>1970-01-01T00:00:00+00:00</time>
        <ele>2987.0</ele>
      </trkpt>
      <trkpt lat="46.050029" lon="7.92386">
        <time>1970-01-01T00:00:00+00:00</time>
        <ele>2988.0</ele>
      </trkpt>
      <trkpt lat="46.050029" lon="7.92386">
        <time>1970-01-01T00:00:00+00:00</time>
        <ele>2988.0</ele>
      </trkpt>
      <trkpt lat="46.050011" lon="7.923747">
        <time>1970-01-01T00:00:00+00:00</time>
        <ele>2989.0</ele>
      </trkpt>
      <trkpt lat="46.050011" lon="7.923747">
        <time>1970-01-01T00:00:00+00:00</time>
        <ele>2989.0</ele>
      </trkpt>
      <trkpt lat="46.049982" lon="7.923647">
        <time>1970-01-01T00:00:00+00:00</time>
        <ele>2991.0</ele>
      </trkpt>
      <trkpt lat="46.049982" lon="7.923647">
        <time>1970-01-01T00:00:00+00:00</time>
        <ele>2991.0</ele>
      </trkpt>
      <trkpt lat="46.049956" lon="7.923485">
        <time>1970-01-01T00:00:00+00:00</time>
        <ele>2993.0</ele>
      </trkpt>
      <trkpt lat="46.049956" lon="7.923485">
        <time>1970-01-01T00:00:00+00:00</time>
        <ele>2993.0</ele>
      </trkpt>
      <trkpt lat="46.049912" lon="7.923314">
        <time>1970-01-01T00:00:00+00:00</time>
        <ele>2996.0</ele>
      </trkpt>
      <trkpt lat="46.049912" lon="7.923314">
        <time>1970-01-01T00:00:00+00:00</time>
        <ele>2996.0</ele>
      </trkpt>
      <trkpt lat="46.049903" lon="7.923201">
        <time>1970-01-01T00:00:00+00:00</time>
        <ele>2997.0</ele>
      </trkpt>
      <trkpt lat="46.049903" lon="7.923201">
        <time>1970-01-01T00:00:00+00:00</time>
        <ele>2997.0</ele>
      </trkpt>
      <trkpt lat="46.049918" lon="7.923085">
        <time>1970-01-01T00:00:00+00:00</time>
        <ele>2999.0</ele>
      </trkpt>
      <trkpt lat="46.049918" lon="7.923085">
        <time>1970-01-01T00:00:00+00:00</time>
        <ele>2999.0</ele>
      </trkpt>
      <trkpt lat="46.049897" lon="7.923001">
        <time>1970-01-01T00:00:00+00:00</time>
        <ele>3000.0</ele>
      </trkpt>
      <trkpt lat="46.049897" lon="7.923001">
        <time>1970-01-01T00:00:00+00:00</time>
        <ele>3000.0</ele>
      </trkpt>
      <trkpt lat="46.049882" lon="7.92286">
        <time>1970-01-01T00:00:00+00:00</time>
        <ele>3002.0</ele>
      </trkpt>
      <trkpt lat="46.049882" lon="7.92286">
        <time>1970-01-01T00:00:00+00:00</time>
        <ele>3002.0</ele>
      </trkpt>
      <trkpt lat="46.049857" lon="7.922709">
        <time>1970-01-01T00:00:00+00:00</time>
        <ele>3004.0</ele>
      </trkpt>
      <trkpt lat="46.049857" lon="7.922709">
        <time>1970-01-01T00:00:00+00:00</time>
        <ele>3004.0</ele>
      </trkpt>
      <trkpt lat="46.04982" lon="7.922629">
        <time>1970-01-01T00:00:00+00:00</time>
        <ele>3006.0</ele>
      </trkpt>
      <trkpt lat="46.04982" lon="7.922629">
        <time>1970-01-01T00:00:00+00:00</time>
        <ele>3006.0</ele>
      </trkpt>
      <trkpt lat="46.049805" lon="7.922535">
        <time>1970-01-01T00:00:00+00:00</time>
        <ele>3006.0</ele>
      </trkpt>
      <trkpt lat="46.049805" lon="7.922535">
        <time>1970-01-01T00:00:00+00:00</time>
        <ele>3006.0</ele>
      </trkpt>
      <trkpt lat="46.049783" lon="7.922472">
        <time>1970-01-01T00:00:00+00:00</time>
        <ele>3007.0</ele>
      </trkpt>
      <trkpt lat="46.049783" lon="7.922472">
        <time>1970-01-01T00:00:00+00:00</time>
        <ele>3007.0</ele>
      </trkpt>
      <trkpt lat="46.049773" lon="7.922366">
        <time>1970-01-01T00:00:00+00:00</time>
        <ele>3007.0</ele>
      </trkpt>
      <trkpt lat="46.049773" lon="7.922366">
        <time>1970-01-01T00:00:00+00:00</time>
        <ele>3007.0</ele>
      </trkpt>
      <trkpt lat="46.049734" lon="7.922252">
        <time>1970-01-01T00:00:00+00:00</time>
        <ele>3009.0</ele>
      </trkpt>
      <trkpt lat="46.049734" lon="7.922252">
        <time>1970-01-01T00:00:00+00:00</time>
        <ele>3009.0</ele>
      </trkpt>
      <trkpt lat="46.049705" lon="7.922103">
        <time>1970-01-01T00:00:00+00:00</time>
        <ele>3011.0</ele>
      </trkpt>
      <trkpt lat="46.049705" lon="7.922103">
        <time>1970-01-01T00:00:00+00:00</time>
        <ele>3011.0</ele>
      </trkpt>
      <trkpt lat="46.049638" lon="7.921958">
        <time>1970-01-01T00:00:00+00:00</time>
        <ele>3014.0</ele>
      </trkpt>
      <trkpt lat="46.049638" lon="7.921958">
        <time>1970-01-01T00:00:00+00:00</time>
        <ele>3014.0</ele>
      </trkpt>
      <trkpt lat="46.049598" lon="7.921796">
        <time>1970-01-01T00:00:00+00:00</time>
        <ele>3016.0</ele>
      </trkpt>
      <trkpt lat="46.049598" lon="7.921796">
        <time>1970-01-01T00:00:00+00:00</time>
        <ele>3016.0</ele>
      </trkpt>
      <trkpt lat="46.049591" lon="7.921726">
        <time>1970-01-01T00:00:00+00:00</time>
        <ele>3017.0</ele>
      </trkpt>
      <trkpt lat="46.049591" lon="7.921726">
        <time>1970-01-01T00:00:00+00:00</time>
        <ele>3017.0</ele>
      </trkpt>
      <trkpt lat="46.049558" lon="7.921664">
        <time>1970-01-01T00:00:00+00:00</time>
        <ele>3018.0</ele>
      </trkpt>
      <trkpt lat="46.049558" lon="7.921664">
        <time>1970-01-01T00:00:00+00:00</time>
        <ele>3018.0</ele>
      </trkpt>
      <trkpt lat="46.049608" lon="7.921709">
        <time>1970-01-01T00:00:00+00:00</time>
        <ele>3017.0</ele>
      </trkpt>
      <trkpt lat="46.049608" lon="7.921709">
        <time>1970-01-01T00:00:00+00:00</time>
        <ele>3017.0</ele>
      </trkpt>
      <trkpt lat="46.049497745566384" lon="7.9215042417661525">
        <time>1970-01-01T00:00:00+00:00</time>
        <ele>3019.0</ele>
      </trkpt>
      <trkpt lat="46.049496" lon="7.921501">
        <time>1970-01-01T00:00:00+00:00</time>
        <ele>3019.0</ele>
      </trkpt>
      <trkpt lat="46.049496" lon="7.921501">
        <time>1970-01-01T00:00:00+00:00</time>
        <ele>3019.0</ele>
      </trkpt>
      <trkpt lat="46.049443" lon="7.921334">
        <time>1970-01-01T00:00:00+00:00</time>
        <ele>3021.0</ele>
      </trkpt>
      <trkpt lat="46.049443" lon="7.921334">
        <time>1970-01-01T00:00:00+00:00</time>
        <ele>3021.0</ele>
      </trkpt>
      <trkpt lat="46.049399" lon="7.921115">
        <time>1970-01-01T00:00:00+00:00</time>
        <ele>3024.0</ele>
      </trkpt>
      <trkpt lat="46.049399" lon="7.921115">
        <time>1970-01-01T00:00:00+00:00</time>
        <ele>3024.0</ele>
      </trkpt>
      <trkpt lat="46.049315" lon="7.920898">
        <time>1970-01-01T00:00:00+00:00</time>
        <ele>3026.0</ele>
      </trkpt>
      <trkpt lat="46.049315" lon="7.920898">
        <time>1970-01-01T00:00:00+00:00</time>
        <ele>3026.0</ele>
      </trkpt>
      <trkpt lat="46.049279" lon="7.920842">
        <time>1970-01-01T00:00:00+00:00</time>
        <ele>3027.0</ele>
      </trkpt>
      <trkpt lat="46.049279" lon="7.920842">
        <time>1970-01-01T00:00:00+00:00</time>
        <ele>3027.0</ele>
      </trkpt>
      <trkpt lat="46.049265" lon="7.920738">
        <time>1970-01-01T00:00:00+00:00</time>
        <ele>3028.0</ele>
      </trkpt>
      <trkpt lat="46.049265" lon="7.920738">
        <time>1970-01-01T00:00:00+00:00</time>
        <ele>3028.0</ele>
      </trkpt>
      <trkpt lat="46.049241" lon="7.920673">
        <time>1970-01-01T00:00:00+00:00</time>
        <ele>3028.0</ele>
      </trkpt>
      <trkpt lat="46.049241" lon="7.920673">
        <time>1970-01-01T00:00:00+00:00</time>
        <ele>3028.0</ele>
      </trkpt>
      <trkpt lat="46.049231" lon="7.920554">
        <time>1970-01-01T00:00:00+00:00</time>
        <ele>3029.0</ele>
      </trkpt>
      <trkpt lat="46.049231" lon="7.920554">
        <time>1970-01-01T00:00:00+00:00</time>
        <ele>3029.0</ele>
      </trkpt>
      <trkpt lat="46.049138" lon="7.920358">
        <time>1970-01-01T00:00:00+00:00</time>
        <ele>3032.0</ele>
      </trkpt>
      <trkpt lat="46.049138" lon="7.920358">
        <time>1970-01-01T00:00:00+00:00</time>
        <ele>3032.0</ele>
      </trkpt>
      <trkpt lat="46.049067" lon="7.920123">
        <time>1970-01-01T00:00:00+00:00</time>
        <ele>3034.0</ele>
      </trkpt>
      <trkpt lat="46.049067" lon="7.920123">
        <time>1970-01-01T00:00:00+00:00</time>
        <ele>3034.0</ele>
      </trkpt>
      <trkpt lat="46.049002" lon="7.919994">
        <time>1970-01-01T00:00:00+00:00</time>
        <ele>3035.0</ele>
      </trkpt>
      <trkpt lat="46.049002" lon="7.919994">
        <time>1970-01-01T00:00:00+00:00</time>
        <ele>3035.0</ele>
      </trkpt>
      <trkpt lat="46.048937" lon="7.919798">
        <time>1970-01-01T00:00:00+00:00</time>
        <ele>3037.0</ele>
      </trkpt>
      <trkpt lat="46.048937" lon="7.919798">
        <time>1970-01-01T00:00:00+00:00</time>
        <ele>3037.0</ele>
      </trkpt>
      <trkpt lat="46.048918" lon="7.919709">
        <time>1970-01-01T00:00:00+00:00</time>
        <ele>3037.0</ele>
      </trkpt>
      <trkpt lat="46.048918" lon="7.919709">
        <time>1970-01-01T00:00:00+00:00</time>
        <ele>3037.0</ele>
      </trkpt>
      <trkpt lat="46.048893" lon="7.919635">
        <time>1970-01-01T00:00:00+00:00</time>
        <ele>3038.0</ele>
      </trkpt>
      <trkpt lat="46.048893" lon="7.919635">
        <time>1970-01-01T00:00:00+00:00</time>
        <ele>3038.0</ele>
      </trkpt>
      <trkpt lat="46.048826703803385" lon="7.9193940926939845">
        <time>1970-01-01T00:00:00+00:00</time>
        <ele>3039.0</ele>
      </trkpt>
      <trkpt lat="46.048822" lon="7.919377">
        <time>1970-01-01T00:00:00+00:00</time>
        <ele>3039.0</ele>
      </trkpt>
      <trkpt lat="46.048822" lon="7.919377">
        <time>1970-01-01T00:00:00+00:00</time>
        <ele>3039.0</ele>
      </trkpt>
      <trkpt lat="46.048796" lon="7.919318">
        <time>1970-01-01T00:00:00+00:00</time>
        <ele>3040.0</ele>
      </trkpt>
      <trkpt lat="46.048796" lon="7.919318">
        <time>1970-01-01T00:00:00+00:00</time>
        <ele>3040.0</ele>
      </trkpt>
      <trkpt lat="46.048771" lon="7.919174">
        <time>1970-01-01T00:00:00+00:00</time>
        <ele>3040.0</ele>
      </trkpt>
      <trkpt lat="46.048771" lon="7.919174">
        <time>1970-01-01T00:00:00+00:00</time>
        <ele>3040.0</ele>
      </trkpt>
      <trkpt lat="46.048742" lon="7.919057">
        <time>1970-01-01T00:00:00+00:00</time>
        <ele>3041.0</ele>
      </trkpt>
      <trkpt lat="46.048742" lon="7.919057">
        <time>1970-01-01T00:00:00+00:00</time>
        <ele>3041.0</ele>
      </trkpt>
      <trkpt lat="46.048698" lon="7.918945">
        <time>1970-01-01T00:00:00+00:00</time>
        <ele>3041.0</ele>
      </trkpt>
      <trkpt lat="46.048698" lon="7.918945">
        <time>1970-01-01T00:00:00+00:00</time>
        <ele>3041.0</ele>
      </trkpt>
      <trkpt lat="46.048642664292345" lon="7.918698416320249">
        <time>1970-01-01T00:00:00+00:00</time>
        <ele>3042.0</ele>
      </trkpt>
      <trkpt lat="46.048641" lon="7.918691">
        <time>1970-01-01T00:00:00+00:00</time>
        <ele>3042.0</ele>
      </trkpt>
      <trkpt lat="46.048641" lon="7.918691">
        <time>1970-01-01T00:00:00+00:00</time>
        <ele>3042.0</ele>
      </trkpt>
      <trkpt lat="46.04858" lon="7.918512">
        <time>1970-01-01T00:00:00+00:00</time>
        <ele>3043.0</ele>
      </trkpt>
      <trkpt lat="46.04858" lon="7.918512">
        <time>1970-01-01T00:00:00+00:00</time>
        <ele>3043.0</ele>
      </trkpt>
      <trkpt lat="46.048538" lon="7.918285">
        <time>1970-01-01T00:00:00+00:00</time>
        <ele>3046.0</ele>
      </trkpt>
      <trkpt lat="46.048538" lon="7.918285">
        <time>1970-01-01T00:00:00+00:00</time>
        <ele>3046.0</ele>
      </trkpt>
      <trkpt lat="46.048509" lon="7.918206">
        <time>1970-01-01T00:00:00+00:00</time>
        <ele>3046.0</ele>
      </trkpt>
      <trkpt lat="46.048509" lon="7.918206">
        <time>1970-01-01T00:00:00+00:00</time>
        <ele>3046.0</ele>
      </trkpt>
      <trkpt lat="46.048476462581235" lon="7.917951123552992">
        <time>1970-01-01T00:00:00+00:00</time>
        <ele>3049.0</ele>
      </trkpt>
      <trkpt lat="46.048467" lon="7.917877">
        <time>1970-01-01T00:00:00+00:00</time>
        <ele>3050.0</ele>
      </trkpt>
      <trkpt lat="46.048467" lon="7.917877">
        <time>1970-01-01T00:00:00+00:00</time>
        <ele>3050.0</ele>
      </trkpt>
      <trkpt lat="46.048447" lon="7.917785">
        <time>1970-01-01T00:00:00+00:00</time>
        <ele>3050.0</ele>
      </trkpt>
      <trkpt lat="46.048447" lon="7.917785">
        <time>1970-01-01T00:00:00+00:00</time>
        <ele>3050.0</ele>
      </trkpt>
      <trkpt lat="46.048406" lon="7.917696">
        <time>1970-01-01T00:00:00+00:00</time>
        <ele>3052.0</ele>
      </trkpt>
      <trkpt lat="46.048406" lon="7.917696">
        <time>1970-01-01T00:00:00+00:00</time>
        <ele>3052.0</ele>
      </trkpt>
      <trkpt lat="46.04838" lon="7.917571">
        <time>1970-01-01T00:00:00+00:00</time>
        <ele>3054.0</ele>
      </trkpt>
      <trkpt lat="46.04838" lon="7.917571">
        <time>1970-01-01T00:00:00+00:00</time>
        <ele>3054.0</ele>
      </trkpt>
      <trkpt lat="46.048301" lon="7.917363">
        <time>1970-01-01T00:00:00+00:00</time>
        <ele>3059.0</ele>
      </trkpt>
      <trkpt lat="46.048301" lon="7.917363">
        <time>1970-01-01T00:00:00+00:00</time>
        <ele>3059.0</ele>
      </trkpt>
      <trkpt lat="46.048293" lon="7.917268">
        <time>1970-01-01T00:00:00+00:00</time>
        <ele>3062.0</ele>
      </trkpt>
      <trkpt lat="46.048293" lon="7.917268">
        <time>1970-01-01T00:00:00+00:00</time>
        <ele>3062.0</ele>
      </trkpt>
      <trkpt lat="46.048263" lon="7.917178">
        <time>1970-01-01T00:00:00+00:00</time>
        <ele>3063.0</ele>
      </trkpt>
      <trkpt lat="46.048263" lon="7.917178">
        <time>1970-01-01T00:00:00+00:00</time>
        <ele>3063.0</ele>
      </trkpt>
      <trkpt lat="46.048239" lon="7.917111">
        <time>1970-01-01T00:00:00+00:00</time>
        <ele>3064.0</ele>
      </trkpt>
      <trkpt lat="46.048239" lon="7.917111">
        <time>1970-01-01T00:00:00+00:00</time>
        <ele>3064.0</ele>
      </trkpt>
      <trkpt lat="46.048212" lon="7.917026">
        <time>1970-01-01T00:00:00+00:00</time>
        <ele>3066.0</ele>
      </trkpt>
      <trkpt lat="46.048212" lon="7.917026">
        <time>1970-01-01T00:00:00+00:00</time>
        <ele>3066.0</ele>
      </trkpt>
      <trkpt lat="46.048191" lon="7.916901">
        <time>1970-01-01T00:00:00+00:00</time>
        <ele>3068.0</ele>
      </trkpt>
      <trkpt lat="46.048191" lon="7.916901">
        <time>1970-01-01T00:00:00+00:00</time>
        <ele>3068.0</ele>
      </trkpt>
      <trkpt lat="46.048124" lon="7.916804">
        <time>1970-01-01T00:00:00+00:00</time>
        <ele>3071.0</ele>
      </trkpt>
      <trkpt lat="46.048124" lon="7.916804">
        <time>1970-01-01T00:00:00+00:00</time>
        <ele>3071.0</ele>
      </trkpt>
      <trkpt lat="46.0481" lon="7.916712">
        <time>1970-01-01T00:00:00+00:00</time>
        <ele>3073.0</ele>
      </trkpt>
      <trkpt lat="46.0481" lon="7.916712">
        <time>1970-01-01T00:00:00+00:00</time>
        <ele>3073.0</ele>
      </trkpt>
      <trkpt lat="46.048061" lon="7.916618">
        <time>1970-01-01T00:00:00+00:00</time>
        <ele>3075.0</ele>
      </trkpt>
      <trkpt lat="46.048061" lon="7.916618">
        <time>1970-01-01T00:00:00+00:00</time>
        <ele>3075.0</ele>
      </trkpt>
      <trkpt lat="46.048045" lon="7.916534">
        <time>1970-01-01T00:00:00+00:00</time>
        <ele>3077.0</ele>
      </trkpt>
      <trkpt lat="46.048045" lon="7.916534">
        <time>1970-01-01T00:00:00+00:00</time>
        <ele>3077.0</ele>
      </trkpt>
      <trkpt lat="46.048001" lon="7.916426">
        <time>1970-01-01T00:00:00+00:00</time>
        <ele>3079.0</ele>
      </trkpt>
      <trkpt lat="46.048001" lon="7.916426">
        <time>1970-01-01T00:00:00+00:00</time>
        <ele>3079.0</ele>
      </trkpt>
      <trkpt lat="46.047944" lon="7.916368">
        <time>1970-01-01T00:00:00+00:00</time>
        <ele>3080.0</ele>
      </trkpt>
      <trkpt lat="46.047944" lon="7.916368">
        <time>1970-01-01T00:00:00+00:00</time>
        <ele>3080.0</ele>
      </trkpt>
      <trkpt lat="46.047897" lon="7.916271">
        <time>1970-01-01T00:00:00+00:00</time>
        <ele>3081.0</ele>
      </trkpt>
      <trkpt lat="46.047897" lon="7.916271">
        <time>1970-01-01T00:00:00+00:00</time>
        <ele>3081.0</ele>
      </trkpt>
      <trkpt lat="46.047776485167866" lon="7.916078625392182">
        <time>1970-01-01T00:00:00+00:00</time>
        <ele>3084.0</ele>
      </trkpt>
      <trkpt lat="46.047736" lon="7.916014">
        <time>1970-01-01T00:00:00+00:00</time>
        <ele>3086.0</ele>
      </trkpt>
      <trkpt lat="46.047736" lon="7.916014">
        <time>1970-01-01T00:00:00+00:00</time>
        <ele>3086.0</ele>
      </trkpt>
      <trkpt lat="46.047688" lon="7.915965">
        <time>1970-01-01T00:00:00+00:00</time>
        <ele>3087.0</ele>
      </trkpt>
      <trkpt lat="46.047688" lon="7.915965">
        <time>1970-01-01T00:00:00+00:00</time>
        <ele>3087.0</ele>
      </trkpt>
      <trkpt lat="46.047622" lon="7.915761">
        <time>1970-01-01T00:00:00+00:00</time>
        <ele>3091.0</ele>
      </trkpt>
      <trkpt lat="46.047622" lon="7.915761">
        <time>1970-01-01T00:00:00+00:00</time>
        <ele>3091.0</ele>
      </trkpt>
      <trkpt lat="46.047505855693174" lon="7.915563124514296">
        <time>1970-01-01T00:00:00+00:00</time>
        <ele>3095.0</ele>
      </trkpt>
      <trkpt lat="46.04738971138635" lon="7.915365249028593">
        <time>1970-01-01T00:00:00+00:00</time>
        <ele>3098.0</ele>
      </trkpt>
      <trkpt lat="46.047379" lon="7.915347">
        <time>1970-01-01T00:00:00+00:00</time>
        <ele>3099.0</ele>
      </trkpt>
      <trkpt lat="46.047379" lon="7.915347">
        <time>1970-01-01T00:00:00+00:00</time>
        <ele>3099.0</ele>
      </trkpt>
      <trkpt lat="46.047348" lon="7.915255">
        <time>1970-01-01T00:00:00+00:00</time>
        <ele>3100.0</ele>
      </trkpt>
      <trkpt lat="46.047348" lon="7.915255">
        <time>1970-01-01T00:00:00+00:00</time>
        <ele>3100.0</ele>
      </trkpt>
      <trkpt lat="46.047305" lon="7.915189">
        <time>1970-01-01T00:00:00+00:00</time>
        <ele>3102.0</ele>
      </trkpt>
      <trkpt lat="46.047305" lon="7.915189">
        <time>1970-01-01T00:00:00+00:00</time>
        <ele>3102.0</ele>
      </trkpt>
      <trkpt lat="46.047263" lon="7.915133">
        <time>1970-01-01T00:00:00+00:00</time>
        <ele>3103.0</ele>
      </trkpt>
      <trkpt lat="46.047263" lon="7.915133">
        <time>1970-01-01T00:00:00+00:00</time>
        <ele>3103.0</ele>
      </trkpt>
      <trkpt lat="46.047194" lon="7.915021">
        <time>1970-01-01T00:00:00+00:00</time>
        <ele>3105.0</ele>
      </trkpt>
      <trkpt lat="46.047194" lon="7.915021">
        <time>1970-01-01T00:00:00+00:00</time>
        <ele>3105.0</ele>
      </trkpt>
      <trkpt lat="46.047104" lon="7.914904">
        <time>1970-01-01T00:00:00+00:00</time>
        <ele>3107.0</ele>
      </trkpt>
      <trkpt lat="46.047104" lon="7.914904">
        <time>1970-01-01T00:00:00+00:00</time>
        <ele>3107.0</ele>
      </trkpt>
      <trkpt lat="46.047066" lon="7.914828">
        <time>1970-01-01T00:00:00+00:00</time>
        <ele>3109.0</ele>
      </trkpt>
      <trkpt lat="46.047066" lon="7.914828">
        <time>1970-01-01T00:00:00+00:00</time>
        <ele>3109.0</ele>
      </trkpt>
      <trkpt lat="46.046991" lon="7.914705">
        <time>1970-01-01T00:00:00+00:00</time>
        <ele>3111.0</ele>
      </trkpt>
      <trkpt lat="46.046991" lon="7.914705">
        <time>1970-01-01T00:00:00+00:00</time>
        <ele>3111.0</ele>
      </trkpt>
      <trkpt lat="46.04693" lon="7.914604">
        <time>1970-01-01T00:00:00+00:00</time>
        <ele>3112.0</ele>
      </trkpt>
      <trkpt lat="46.04693" lon="7.914604">
        <time>1970-01-01T00:00:00+00:00</time>
        <ele>3112.0</ele>
      </trkpt>
      <trkpt lat="46.046846" lon="7.914463">
        <time>1970-01-01T00:00:00+00:00</time>
        <ele>3115.0</ele>
      </trkpt>
      <trkpt lat="46.046846" lon="7.914463">
        <time>1970-01-01T00:00:00+00:00</time>
        <ele>3115.0</ele>
      </trkpt>
      <trkpt lat="46.046761" lon="7.914343">
        <time>1970-01-01T00:00:00+00:00</time>
        <ele>3117.0</ele>
      </trkpt>
      <trkpt lat="46.046761" lon="7.914343">
        <time>1970-01-01T00:00:00+00:00</time>
        <ele>3117.0</ele>
      </trkpt>
      <trkpt lat="46.04663989899543" lon="7.91415139498592">
        <time>1970-01-01T00:00:00+00:00</time>
        <ele>3119.0</ele>
      </trkpt>
      <trkpt lat="46.046615" lon="7.914112">
        <time>1970-01-01T00:00:00+00:00</time>
        <ele>3120.0</ele>
      </trkpt>
      <trkpt lat="46.046615" lon="7.914112">
        <time>1970-01-01T00:00:00+00:00</time>
        <ele>3120.0</ele>
      </trkpt>
      <trkpt lat="46.04654505492047" lon="7.913873254128565">
        <time>1970-01-01T00:00:00+00:00</time>
        <ele>3122.0</ele>
      </trkpt>
      <trkpt lat="46.04654" lon="7.913856">
        <time>1970-01-01T00:00:00+00:00</time>
        <ele>3122.0</ele>
      </trkpt>
      <trkpt lat="46.04654" lon="7.913856">
        <time>1970-01-01T00:00:00+00:00</time>
        <ele>3122.0</ele>
      </trkpt>
      <trkpt lat="46.046486" lon="7.913752">
        <time>1970-01-01T00:00:00+00:00</time>
        <ele>3123.0</ele>
      </trkpt>
      <trkpt lat="46.046486" lon="7.913752">
        <time>1970-01-01T00:00:00+00:00</time>
        <ele>3123.0</ele>
      </trkpt>
      <trkpt lat="46.046435" lon="7.913702">
        <time>1970-01-01T00:00:00+00:00</time>
        <ele>3123.0</ele>
      </trkpt>
      <trkpt lat="46.046435" lon="7.913702">
        <time>1970-01-01T00:00:00+00:00</time>
        <ele>3123.0</ele>
      </trkpt>
      <trkpt lat="46.04630934158293" lon="7.913516587930064">
        <time>1970-01-01T00:00:00+00:00</time>
        <ele>3125.0</ele>
      </trkpt>
      <trkpt lat="46.046292" lon="7.913491">
        <time>1970-01-01T00:00:00+00:00</time>
        <ele>3125.0</ele>
      </trkpt>
      <trkpt lat="46.046292" lon="7.913491">
        <time>1970-01-01T00:00:00+00:00</time>
        <ele>3125.0</ele>
      </trkpt>
      <trkpt lat="46.046193" lon="7.9134">
        <time>1970-01-01T00:00:00+00:00</time>
        <ele>3125.0</ele>
      </trkpt>
      <trkpt lat="46.046193" lon="7.9134">
        <time>1970-01-01T00:00:00+00:00</time>
        <ele>3125.0</ele>
      </trkpt>
      <trkpt lat="46.046088" lon="7.913222">
        <time>1970-01-01T00:00:00+00:00</time>
        <ele>3126.0</ele>
      </trkpt>
      <trkpt lat="46.046088" lon="7.913222">
        <time>1970-01-01T00:00:00+00:00</time>
        <ele>3126.0</ele>
      </trkpt>
      <trkpt lat="46.046056" lon="7.913153">
        <time>1970-01-01T00:00:00+00:00</time>
        <ele>3127.0</ele>
      </trkpt>
      <trkpt lat="46.046056" lon="7.913153">
        <time>1970-01-01T00:00:00+00:00</time>
        <ele>3127.0</ele>
      </trkpt>
      <trkpt lat="46.04591609592629" lon="7.912990137309066">
        <time>1970-01-01T00:00:00+00:00</time>
        <ele>3128.0</ele>
      </trkpt>
      <trkpt lat="46.045861" lon="7.912926">
        <time>1970-01-01T00:00:00+00:00</time>
        <ele>3129.0</ele>
      </trkpt>
      <trkpt lat="46.045861" lon="7.912926">
        <time>1970-01-01T00:00:00+00:00</time>
        <ele>3129.0</ele>
      </trkpt>
      <trkpt lat="46.045774" lon="7.912803">
        <time>1970-01-01T00:00:00+00:00</time>
        <ele>3130.0</ele>
      </trkpt>
      <trkpt lat="46.045774" lon="7.912803">
        <time>1970-01-01T00:00:00+00:00</time>
        <ele>3130.0</ele>
      </trkpt>
      <trkpt lat="46.04566238111546" lon="7.912599796389685">
        <time>1970-01-01T00:00:00+00:00</time>
        <ele>3131.0</ele>
      </trkpt>
      <trkpt lat="46.045657" lon="7.91259">
        <time>1970-01-01T00:00:00+00:00</time>
        <ele>3131.0</ele>
      </trkpt>
      <trkpt lat="46.045657" lon="7.91259">
        <time>1970-01-01T00:00:00+00:00</time>
        <ele>3131.0</ele>
      </trkpt>
      <trkpt lat="46.045595" lon="7.912536">
        <time>1970-01-01T00:00:00+00:00</time>
        <ele>3132.0</ele>
      </trkpt>
      <trkpt lat="46.045595" lon="7.912536">
        <time>1970-01-01T00:00:00+00:00</time>
        <ele>3132.0</ele>
      </trkpt>
      <trkpt lat="46.045554" lon="7.912487">
        <time>1970-01-01T00:00:00+00:00</time>
        <ele>3132.0</ele>
      </trkpt>
      <trkpt lat="46.045554" lon="7.912487">
        <time>1970-01-01T00:00:00+00:00</time>
        <ele>3132.0</ele>
      </trkpt>
      <trkpt lat="46.045519" lon="7.912417">
        <time>1970-01-01T00:00:00+00:00</time>
        <ele>3132.0</ele>
      </trkpt>
      <trkpt lat="46.045519" lon="7.912417">
        <time>1970-01-01T00:00:00+00:00</time>
        <ele>3132.0</ele>
      </trkpt>
      <trkpt lat="46.045466" lon="7.912337">
        <time>1970-01-01T00:00:00+00:00</time>
        <ele>3134.0</ele>
      </trkpt>
      <trkpt lat="46.045466" lon="7.912337">
        <time>1970-01-01T00:00:00+00:00</time>
        <ele>3134.0</ele>
      </trkpt>
      <trkpt lat="46.045435" lon="7.912263">
        <time>1970-01-01T00:00:00+00:00</time>
        <ele>3134.0</ele>
      </trkpt>
      <trkpt lat="46.045435" lon="7.912263">
        <time>1970-01-01T00:00:00+00:00</time>
        <ele>3134.0</ele>
      </trkpt>
      <trkpt lat="46.045336" lon="7.912148">
        <time>1970-01-01T00:00:00+00:00</time>
        <ele>3136.0</ele>
      </trkpt>
      <trkpt lat="46.045336" lon="7.912148">
        <time>1970-01-01T00:00:00+00:00</time>
        <ele>3136.0</ele>
      </trkpt>
      <trkpt lat="46.045234" lon="7.912033">
        <time>1970-01-01T00:00:00+00:00</time>
        <ele>3139.0</ele>
      </trkpt>
      <trkpt lat="46.045234" lon="7.912033">
        <time>1970-01-01T00:00:00+00:00</time>
        <ele>3139.0</ele>
      </trkpt>
      <trkpt lat="46.045169" lon="7.911948">
        <time>1970-01-01T00:00:00+00:00</time>
        <ele>3140.0</ele>
      </trkpt>
      <trkpt lat="46.045169" lon="7.911948">
        <time>1970-01-01T00:00:00+00:00</time>
        <ele>3140.0</ele>
      </trkpt>
      <trkpt lat="46.045102" lon="7.911831">
        <time>1970-01-01T00:00:00+00:00</time>
        <ele>3142.0</ele>
      </trkpt>
      <trkpt lat="46.045102" lon="7.911831">
        <time>1970-01-01T00:00:00+00:00</time>
        <ele>3142.0</ele>
      </trkpt>
      <trkpt lat="46.045054" lon="7.911715">
        <time>1970-01-01T00:00:00+00:00</time>
        <ele>3144.0</ele>
      </trkpt>
      <trkpt lat="46.045054" lon="7.911715">
        <time>1970-01-01T00:00:00+00:00</time>
        <ele>3144.0</ele>
      </trkpt>
      <trkpt lat="46.045018" lon="7.911667">
        <time>1970-01-01T00:00:00+00:00</time>
        <ele>3145.0</ele>
      </trkpt>
      <trkpt lat="46.045018" lon="7.911667">
        <time>1970-01-01T00:00:00+00:00</time>
        <ele>3145.0</ele>
      </trkpt>
      <trkpt lat="46.044959" lon="7.911546">
        <time>1970-01-01T00:00:00+00:00</time>
        <ele>3148.0</ele>
      </trkpt>
      <trkpt lat="46.044959" lon="7.911546">
        <time>1970-01-01T00:00:00+00:00</time>
        <ele>3148.0</ele>
      </trkpt>
      <trkpt lat="46.044918" lon="7.91144">
        <time>1970-01-01T00:00:00+00:00</time>
        <ele>3150.0</ele>
      </trkpt>
      <trkpt lat="46.044918" lon="7.91144">
        <time>1970-01-01T00:00:00+00:00</time>
        <ele>3150.0</ele>
      </trkpt>
      <trkpt lat="46.044863" lon="7.911337">
        <time>1970-01-01T00:00:00+00:00</time>
        <ele>3151.0</ele>
      </trkpt>
      <trkpt lat="46.044863" lon="7.911337">
        <time>1970-01-01T00:00:00+00:00</time>
        <ele>3151.0</ele>
      </trkpt>
      <trkpt lat="46.044822" lon="7.911274">
        <time>1970-01-01T00:00:00+00:00</time>
        <ele>3153.0</ele>
      </trkpt>
      <trkpt lat="46.044822" lon="7.911274">
        <time>1970-01-01T00:00:00+00:00</time>
        <ele>3153.0</ele>
      </trkpt>
      <trkpt lat="46.044765" lon="7.911223">
        <time>1970-01-01T00:00:00+00:00</time>
        <ele>3154.0</ele>
      </trkpt>
      <trkpt lat="46.044765" lon="7.911223">
        <time>1970-01-01T00:00:00+00:00</time>
        <ele>3154.0</ele>
      </trkpt>
      <trkpt lat="46.044735" lon="7.911148">
        <time>1970-01-01T00:00:00+00:00</time>
        <ele>3156.0</ele>
      </trkpt>
      <trkpt lat="46.044735" lon="7.911148">
        <time>1970-01-01T00:00:00+00:00</time>
        <ele>3156.0</ele>
      </trkpt>
      <trkpt lat="46.044652" lon="7.911009">
        <time>1970-01-01T00:00:00+00:00</time>
        <ele>3158.0</ele>
      </trkpt>
      <trkpt lat="46.044652" lon="7.911009">
        <time>1970-01-01T00:00:00+00:00</time>
        <ele>3158.0</ele>
      </trkpt>
      <trkpt lat="46.044574" lon="7.910795">
        <time>1970-01-01T00:00:00+00:00</time>
        <ele>3160.0</ele>
      </trkpt>
      <trkpt lat="46.044574" lon="7.910795">
        <time>1970-01-01T00:00:00+00:00</time>
        <ele>3160.0</ele>
      </trkpt>
      <trkpt lat="46.044527" lon="7.910688">
        <time>1970-01-01T00:00:00+00:00</time>
        <ele>3161.0</ele>
      </trkpt>
      <trkpt lat="46.044527" lon="7.910688">
        <time>1970-01-01T00:00:00+00:00</time>
        <ele>3161.0</ele>
      </trkpt>
      <trkpt lat="46.044487" lon="7.910646">
        <time>1970-01-01T00:00:00+00:00</time>
        <ele>3162.0</ele>
      </trkpt>
      <trkpt lat="46.044487" lon="7.910646">
        <time>1970-01-01T00:00:00+00:00</time>
        <ele>3162.0</ele>
      </trkpt>
      <trkpt lat="46.044458" lon="7.910588">
        <time>1970-01-01T00:00:00+00:00</time>
        <ele>3163.0</ele>
      </trkpt>
      <trkpt lat="46.044458" lon="7.910588">
        <time>1970-01-01T00:00:00+00:00</time>
        <ele>3163.0</ele>
      </trkpt>
      <trkpt lat="46.044403" lon="7.910474">
        <time>1970-01-01T00:00:00+00:00</time>
        <ele>3164.0</ele>
      </trkpt>
      <trkpt lat="46.044403" lon="7.910474">
        <time>1970-01-01T00:00:00+00:00</time>
        <ele>3164.0</ele>
      </trkpt>
      <trkpt lat="46.044389" lon="7.910412">
        <time>1970-01-01T00:00:00+00:00</time>
        <ele>3165.0</ele>
      </trkpt>
      <trkpt lat="46.044389" lon="7.910412">
        <time>1970-01-01T00:00:00+00:00</time>
        <ele>3165.0</ele>
      </trkpt>
      <trkpt lat="46.044344" lon="7.910369">
        <time>1970-01-01T00:00:00+00:00</time>
        <ele>3166.0</ele>
      </trkpt>
      <trkpt lat="46.044344" lon="7.910369">
        <time>1970-01-01T00:00:00+00:00</time>
        <ele>3166.0</ele>
      </trkpt>
      <trkpt lat="46.044249" lon="7.910241">
        <time>1970-01-01T00:00:00+00:00</time>
        <ele>3168.0</ele>
      </trkpt>
      <trkpt lat="46.044249" lon="7.910241">
        <time>1970-01-01T00:00:00+00:00</time>
        <ele>3168.0</ele>
      </trkpt>
      <trkpt lat="46.044185" lon="7.910198">
        <time>1970-01-01T00:00:00+00:00</time>
        <ele>3170.0</ele>
      </trkpt>
      <trkpt lat="46.044185" lon="7.910198">
        <time>1970-01-01T00:00:00+00:00</time>
        <ele>3170.0</ele>
      </trkpt>
      <trkpt lat="46.04415" lon="7.910145">
        <time>1970-01-01T00:00:00+00:00</time>
        <ele>3170.0</ele>
      </trkpt>
      <trkpt lat="46.04415" lon="7.910145">
        <time>1970-01-01T00:00:00+00:00</time>
        <ele>3170.0</ele>
      </trkpt>
      <trkpt lat="46.044106" lon="7.910108">
        <time>1970-01-01T00:00:00+00:00</time>
        <ele>3171.0</ele>
      </trkpt>
      <trkpt lat="46.044106" lon="7.910108">
        <time>1970-01-01T00:00:00+00:00</time>
        <ele>3171.0</ele>
      </trkpt>
      <trkpt lat="46.04403" lon="7.91006">
        <time>1970-01-01T00:00:00+00:00</time>
        <ele>3173.0</ele>
      </trkpt>
      <trkpt lat="46.04403" lon="7.91006">
        <time>1970-01-01T00:00:00+00:00</time>
        <ele>3173.0</ele>
      </trkpt>
      <trkpt lat="46.043946" lon="7.909976">
        <time>1970-01-01T00:00:00+00:00</time>
        <ele>3174.0</ele>
      </trkpt>
      <trkpt lat="46.043946" lon="7.909976">
        <time>1970-01-01T00:00:00+00:00</time>
        <ele>3174.0</ele>
      </trkpt>
      <trkpt lat="46.043884" lon="7.909917">
        <time>1970-01-01T00:00:00+00:00</time>
        <ele>3175.0</ele>
      </trkpt>
      <trkpt lat="46.043884" lon="7.909917">
        <time>1970-01-01T00:00:00+00:00</time>
        <ele>3175.0</ele>
      </trkpt>
      <trkpt lat="46.043844" lon="7.90988">
        <time>1970-01-01T00:00:00+00:00</time>
        <ele>3176.0</ele>
      </trkpt>
      <trkpt lat="46.043844" lon="7.90988">
        <time>1970-01-01T00:00:00+00:00</time>
        <ele>3176.0</ele>
      </trkpt>
      <trkpt lat="46.043778" lon="7.909855">
        <time>1970-01-01T00:00:00+00:00</time>
        <ele>3178.0</ele>
      </trkpt>
      <trkpt lat="46.043778" lon="7.909855">
        <time>1970-01-01T00:00:00+00:00</time>
        <ele>3178.0</ele>
      </trkpt>
      <trkpt lat="46.043686" lon="7.909791">
        <time>1970-01-01T00:00:00+00:00</time>
        <ele>3180.0</ele>
      </trkpt>
      <trkpt lat="46.043686" lon="7.909791">
        <time>1970-01-01T00:00:00+00:00</time>
        <ele>3180.0</ele>
      </trkpt>
      <trkpt lat="46.043629" lon="7.909691">
        <time>1970-01-01T00:00:00+00:00</time>
        <ele>3181.0</ele>
      </trkpt>
      <trkpt lat="46.043629" lon="7.909691">
        <time>1970-01-01T00:00:00+00:00</time>
        <ele>3181.0</ele>
      </trkpt>
      <trkpt lat="46.043577" lon="7.909617">
        <time>1970-01-01T00:00:00+00:00</time>
        <ele>3182.0</ele>
      </trkpt>
      <trkpt lat="46.043577" lon="7.909617">
        <time>1970-01-01T00:00:00+00:00</time>
        <ele>3182.0</ele>
      </trkpt>
      <trkpt lat="46.043524" lon="7.909522">
        <time>1970-01-01T00:00:00+00:00</time>
        <ele>3183.0</ele>
      </trkpt>
      <trkpt lat="46.043524" lon="7.909522">
        <time>1970-01-01T00:00:00+00:00</time>
        <ele>3183.0</ele>
      </trkpt>
      <trkpt lat="46.043444" lon="7.909444">
        <time>1970-01-01T00:00:00+00:00</time>
        <ele>3184.0</ele>
      </trkpt>
      <trkpt lat="46.043444" lon="7.909444">
        <time>1970-01-01T00:00:00+00:00</time>
        <ele>3184.0</ele>
      </trkpt>
      <trkpt lat="46.043321" lon="7.909274">
        <time>1970-01-01T00:00:00+00:00</time>
        <ele>3187.0</ele>
      </trkpt>
      <trkpt lat="46.043321" lon="7.909274">
        <time>1970-01-01T00:00:00+00:00</time>
        <ele>3187.0</ele>
      </trkpt>
      <trkpt lat="46.043238" lon="7.909233">
        <time>1970-01-01T00:00:00+00:00</time>
        <ele>3190.0</ele>
      </trkpt>
      <trkpt lat="46.043238" lon="7.909233">
        <time>1970-01-01T00:00:00+00:00</time>
        <ele>3190.0</ele>
      </trkpt>
      <trkpt lat="46.043136" lon="7.909111">
        <time>1970-01-01T00:00:00+00:00</time>
        <ele>3192.0</ele>
      </trkpt>
      <trkpt lat="46.043136" lon="7.909111">
        <time>1970-01-01T00:00:00+00:00</time>
        <ele>3192.0</ele>
      </trkpt>
      <trkpt lat="46.043112" lon="7.90904">
        <time>1970-01-01T00:00:00+00:00</time>
        <ele>3193.0</ele>
      </trkpt>
      <trkpt lat="46.043112" lon="7.90904">
        <time>1970-01-01T00:00:00+00:00</time>
        <ele>3193.0</ele>
      </trkpt>
      <trkpt lat="46.043016" lon="7.908963">
        <time>1970-01-01T00:00:00+00:00</time>
        <ele>3196.0</ele>
      </trkpt>
      <trkpt lat="46.043016" lon="7.908963">
        <time>1970-01-01T00:00:00+00:00</time>
        <ele>3196.0</ele>
      </trkpt>
      <trkpt lat="46.042973" lon="7.908886">
        <time>1970-01-01T00:00:00+00:00</time>
        <ele>3197.0</ele>
      </trkpt>
      <trkpt lat="46.042973" lon="7.908886">
        <time>1970-01-01T00:00:00+00:00</time>
        <ele>3197.0</ele>
      </trkpt>
      <trkpt lat="46.042936" lon="7.908846">
        <time>1970-01-01T00:00:00+00:00</time>
        <ele>3198.0</ele>
      </trkpt>
      <trkpt lat="46.042936" lon="7.908846">
        <time>1970-01-01T00:00:00+00:00</time>
        <ele>3198.0</ele>
      </trkpt>
      <trkpt lat="46.042888" lon="7.908768">
        <time>1970-01-01T00:00:00+00:00</time>
        <ele>3199.0</ele>
      </trkpt>
      <trkpt lat="46.042888" lon="7.908768">
        <time>1970-01-01T00:00:00+00:00</time>
        <ele>3199.0</ele>
      </trkpt>
      <trkpt lat="46.042842" lon="7.908717">
        <time>1970-01-01T00:00:00+00:00</time>
        <ele>3200.0</ele>
      </trkpt>
      <trkpt lat="46.042842" lon="7.908717">
        <time>1970-01-01T00:00:00+00:00</time>
        <ele>3200.0</ele>
      </trkpt>
      <trkpt lat="46.042792" lon="7.90861">
        <time>1970-01-01T00:00:00+00:00</time>
        <ele>3201.0</ele>
      </trkpt>
      <trkpt lat="46.042792" lon="7.90861">
        <time>1970-01-01T00:00:00+00:00</time>
        <ele>3201.0</ele>
      </trkpt>
      <trkpt lat="46.042741" lon="7.908527">
        <time>1970-01-01T00:00:00+00:00</time>
        <ele>3202.0</ele>
      </trkpt>
      <trkpt lat="46.042741" lon="7.908527">
        <time>1970-01-01T00:00:00+00:00</time>
        <ele>3202.0</ele>
      </trkpt>
      <trkpt lat="46.042703" lon="7.908436">
        <time>1970-01-01T00:00:00+00:00</time>
        <ele>3204.0</ele>
      </trkpt>
      <trkpt lat="46.042703" lon="7.908436">
        <time>1970-01-01T00:00:00+00:00</time>
        <ele>3204.0</ele>
      </trkpt>
      <trkpt lat="46.042649" lon="7.908361">
        <time>1970-01-01T00:00:00+00:00</time>
        <ele>3206.0</ele>
      </trkpt>
      <trkpt lat="46.042649" lon="7.908361">
        <time>1970-01-01T00:00:00+00:00</time>
        <ele>3206.0</ele>
      </trkpt>
      <trkpt lat="46.042558" lon="7.908195">
        <time>1970-01-01T00:00:00+00:00</time>
        <ele>3209.0</ele>
      </trkpt>
      <trkpt lat="46.042558" lon="7.908195">
        <time>1970-01-01T00:00:00+00:00</time>
        <ele>3209.0</ele>
      </trkpt>
      <trkpt lat="46.042508" lon="7.908085">
        <time>1970-01-01T00:00:00+00:00</time>
        <ele>3211.0</ele>
      </trkpt>
      <trkpt lat="46.042508" lon="7.908085">
        <time>1970-01-01T00:00:00+00:00</time>
        <ele>3211.0</ele>
      </trkpt>
      <trkpt lat="46.042482" lon="7.907971">
        <time>1970-01-01T00:00:00+00:00</time>
        <ele>3212.0</ele>
      </trkpt>
      <trkpt lat="46.042482" lon="7.907971">
        <time>1970-01-01T00:00:00+00:00</time>
        <ele>3212.0</ele>
      </trkpt>
      <trkpt lat="46.042441" lon="7.907927">
        <time>1970-01-01T00:00:00+00:00</time>
        <ele>3214.0</ele>
      </trkpt>
      <trkpt lat="46.042441" lon="7.907927">
        <time>1970-01-01T00:00:00+00:00</time>
        <ele>3214.0</ele>
      </trkpt>
      <trkpt lat="46.042412" lon="7.907872">
        <time>1970-01-01T00:00:00+00:00</time>
        <ele>3215.0</ele>
      </trkpt>
      <trkpt lat="46.042412" lon="7.907872">
        <time>1970-01-01T00:00:00+00:00</time>
        <ele>3215.0</ele>
      </trkpt>
      <trkpt lat="46.042354" lon="7.907757">
        <time>1970-01-01T00:00:00+00:00</time>
        <ele>3217.0</ele>
      </trkpt>
      <trkpt lat="46.042354" lon="7.907757">
        <time>1970-01-01T00:00:00+00:00</time>
        <ele>3217.0</ele>
      </trkpt>
      <trkpt lat="46.042334" lon="7.907663">
        <time>1970-01-01T00:00:00+00:00</time>
        <ele>3217.0</ele>
      </trkpt>
      <trkpt lat="46.042334" lon="7.907663">
        <time>1970-01-01T00:00:00+00:00</time>
        <ele>3217.0</ele>
      </trkpt>
      <trkpt lat="46.042304" lon="7.907589">
        <time>1970-01-01T00:00:00+00:00</time>
        <ele>3218.0</ele>
      </trkpt>
      <trkpt lat="46.042304" lon="7.907589">
        <time>1970-01-01T00:00:00+00:00</time>
        <ele>3218.0</ele>
      </trkpt>
      <trkpt lat="46.042263" lon="7.907423">
        <time>1970-01-01T00:00:00+00:00</time>
        <ele>3221.0</ele>
      </trkpt>
      <trkpt lat="46.042263" lon="7.907423">
        <time>1970-01-01T00:00:00+00:00</time>
        <ele>3221.0</ele>
      </trkpt>
      <trkpt lat="46.042232" lon="7.9073">
        <time>1970-01-01T00:00:00+00:00</time>
        <ele>3223.0</ele>
      </trkpt>
      <trkpt lat="46.042232" lon="7.9073">
        <time>1970-01-01T00:00:00+00:00</time>
        <ele>3223.0</ele>
      </trkpt>
      <trkpt lat="46.042198" lon="7.907184">
        <time>1970-01-01T00:00:00+00:00</time>
        <ele>3226.0</ele>
      </trkpt>
      <trkpt lat="46.042198" lon="7.907184">
        <time>1970-01-01T00:00:00+00:00</time>
        <ele>3226.0</ele>
      </trkpt>
      <trkpt lat="46.042191" lon="7.906997">
        <time>1970-01-01T00:00:00+00:00</time>
        <ele>3228.0</ele>
      </trkpt>
      <trkpt lat="46.042191" lon="7.906997">
        <time>1970-01-01T00:00:00+00:00</time>
        <ele>3228.0</ele>
      </trkpt>
      <trkpt lat="46.042176" lon="7.906898">
        <time>1970-01-01T00:00:00+00:00</time>
        <ele>3230.0</ele>
      </trkpt>
      <trkpt lat="46.042176" lon="7.906898">
        <time>1970-01-01T00:00:00+00:00</time>
        <ele>3230.0</ele>
      </trkpt>
      <trkpt lat="46.042116" lon="7.906745">
        <time>1970-01-01T00:00:00+00:00</time>
        <ele>3231.0</ele>
      </trkpt>
      <trkpt lat="46.042116" lon="7.906745">
        <time>1970-01-01T00:00:00+00:00</time>
        <ele>3231.0</ele>
      </trkpt>
      <trkpt lat="46.042094" lon="7.906605">
        <time>1970-01-01T00:00:00+00:00</time>
        <ele>3233.0</ele>
      </trkpt>
      <trkpt lat="46.042094" lon="7.906605">
        <time>1970-01-01T00:00:00+00:00</time>
        <ele>3233.0</ele>
      </trkpt>
      <trkpt lat="46.04207" lon="7.906535">
        <time>1970-01-01T00:00:00+00:00</time>
        <ele>3233.0</ele>
      </trkpt>
      <trkpt lat="46.04207" lon="7.906535">
        <time>1970-01-01T00:00:00+00:00</time>
        <ele>3233.0</ele>
      </trkpt>
      <trkpt lat="46.042031" lon="7.906387">
        <time>1970-01-01T00:00:00+00:00</time>
        <ele>3234.0</ele>
      </trkpt>
      <trkpt lat="46.042031" lon="7.906387">
        <time>1970-01-01T00:00:00+00:00</time>
        <ele>3234.0</ele>
      </trkpt>
      <trkpt lat="46.041996" lon="7.906325">
        <time>1970-01-01T00:00:00+00:00</time>
        <ele>3234.0</ele>
      </trkpt>
      <trkpt lat="46.041996" lon="7.906325">
        <time>1970-01-01T00:00:00+00:00</time>
        <ele>3234.0</ele>
      </trkpt>
      <trkpt lat="46.04196" lon="7.90617">
        <time>1970-01-01T00:00:00+00:00</time>
        <ele>3234.0</ele>
      </trkpt>
      <trkpt lat="46.04196" lon="7.90617">
        <time>1970-01-01T00:00:00+00:00</time>
        <ele>3234.0</ele>
      </trkpt>
      <trkpt lat="46.041929" lon="7.906097">
        <time>1970-01-01T00:00:00+00:00</time>
        <ele>3235.0</ele>
      </trkpt>
      <trkpt lat="46.041929" lon="7.906097">
        <time>1970-01-01T00:00:00+00:00</time>
        <ele>3235.0</ele>
      </trkpt>
      <trkpt lat="46.041887" lon="7.90596">
        <time>1970-01-01T00:00:00+00:00</time>
        <ele>3236.0</ele>
      </trkpt>
      <trkpt lat="46.041887" lon="7.90596">
        <time>1970-01-01T00:00:00+00:00</time>
        <ele>3236.0</ele>
      </trkpt>
      <trkpt lat="46.04186" lon="7.905891">
        <time>1970-01-01T00:00:00+00:00</time>
        <ele>3237.0</ele>
      </trkpt>
      <trkpt lat="46.04186" lon="7.905891">
        <time>1970-01-01T00:00:00+00:00</time>
        <ele>3237.0</ele>
      </trkpt>
      <trkpt lat="46.041845" lon="7.905804">
        <time>1970-01-01T00:00:00+00:00</time>
        <ele>3237.0</ele>
      </trkpt>
      <trkpt lat="46.041845" lon="7.905804">
        <time>1970-01-01T00:00:00+00:00</time>
        <ele>3237.0</ele>
      </trkpt>
      <trkpt lat="46.041823" lon="7.905702">
        <time>1970-01-01T00:00:00+00:00</time>
        <ele>3238.0</ele>
      </trkpt>
      <trkpt lat="46.041823" lon="7.905702">
        <time>1970-01-01T00:00:00+00:00</time>
        <ele>3238.0</ele>
      </trkpt>
      <trkpt lat="46.04173" lon="7.90553">
        <time>1970-01-01T00:00:00+00:00</time>
        <ele>3238.0</ele>
      </trkpt>
      <trkpt lat="46.04173" lon="7.90553">
        <time>1970-01-01T00:00:00+00:00</time>
        <ele>3238.0</ele>
      </trkpt>
      <trkpt lat="46.041689" lon="7.905494">
        <time>1970-01-01T00:00:00+00:00</time>
        <ele>3238.0</ele>
      </trkpt>
      <trkpt lat="46.041689" lon="7.905494">
        <time>1970-01-01T00:00:00+00:00</time>
        <ele>3238.0</ele>
      </trkpt>
      <trkpt lat="46.04166" lon="7.905443">
        <time>1970-01-01T00:00:00+00:00</time>
        <ele>3238.0</ele>
      </trkpt>
      <trkpt lat="46.04166" lon="7.905443">
        <time>1970-01-01T00:00:00+00:00</time>
        <ele>3238.0</ele>
      </trkpt>
      <trkpt lat="46.041645" lon="7.90536">
        <time>1970-01-01T00:00:00+00:00</time>
        <ele>3239.0</ele>
      </trkpt>
      <trkpt lat="46.041645" lon="7.90536">
        <time>1970-01-01T00:00:00+00:00</time>
        <ele>3239.0</ele>
      </trkpt>
      <trkpt lat="46.04159" lon="7.905219">
        <time>1970-01-01T00:00:00+00:00</time>
        <ele>3239.0</ele>
      </trkpt>
      <trkpt lat="46.04159" lon="7.905219">
        <time>1970-01-01T00:00:00+00:00</time>
        <ele>3239.0</ele>
      </trkpt>
      <trkpt lat="46.041555" lon="7.905081">
        <time>1970-01-01T00:00:00+00:00</time>
        <ele>3240.0</ele>
      </trkpt>
      <trkpt lat="46.041555" lon="7.905081">
        <time>1970-01-01T00:00:00+00:00</time>
        <ele>3240.0</ele>
      </trkpt>
      <trkpt lat="46.04152" lon="7.904972">
        <time>1970-01-01T00:00:00+00:00</time>
        <ele>3240.0</ele>
      </trkpt>
      <trkpt lat="46.04152" lon="7.904972">
        <time>1970-01-01T00:00:00+00:00</time>
        <ele>3240.0</ele>
      </trkpt>
      <trkpt lat="46.041504" lon="7.904781">
        <time>1970-01-01T00:00:00+00:00</time>
        <ele>3241.0</ele>
      </trkpt>
      <trkpt lat="46.041504" lon="7.904781">
        <time>1970-01-01T00:00:00+00:00</time>
        <ele>3241.0</ele>
      </trkpt>
      <trkpt lat="46.041427" lon="7.904621">
        <time>1970-01-01T00:00:00+00:00</time>
        <ele>3242.0</ele>
      </trkpt>
      <trkpt lat="46.041427" lon="7.904621">
        <time>1970-01-01T00:00:00+00:00</time>
        <ele>3242.0</ele>
      </trkpt>
      <trkpt lat="46.041381" lon="7.904461">
        <time>1970-01-01T00:00:00+00:00</time>
        <ele>3244.0</ele>
      </trkpt>
      <trkpt lat="46.041381" lon="7.904461">
        <time>1970-01-01T00:00:00+00:00</time>
        <ele>3244.0</ele>
      </trkpt>
      <trkpt lat="46.041276517927095" lon="7.904250082918244">
        <time>1970-01-01T00:00:00+00:00</time>
        <ele>3245.0</ele>
      </trkpt>
      <trkpt lat="46.041274" lon="7.904245">
        <time>1970-01-01T00:00:00+00:00</time>
        <ele>3245.0</ele>
      </trkpt>
      <trkpt lat="46.041274" lon="7.904245">
        <time>1970-01-01T00:00:00+00:00</time>
        <ele>3245.0</ele>
      </trkpt>
      <trkpt lat="46.041245" lon="7.90415">
        <time>1970-01-01T00:00:00+00:00</time>
        <ele>3245.0</ele>
      </trkpt>
      <trkpt lat="46.041245" lon="7.90415">
        <time>1970-01-01T00:00:00+00:00</time>
        <ele>3245.0</ele>
      </trkpt>
      <trkpt lat="46.041217" lon="7.904088">
        <time>1970-01-01T00:00:00+00:00</time>
        <ele>3246.0</ele>
      </trkpt>
      <trkpt lat="46.041217" lon="7.904088">
        <time>1970-01-01T00:00:00+00:00</time>
        <ele>3246.0</ele>
      </trkpt>
      <trkpt lat="46.04117425921722" lon="7.903836304279201">
        <time>1970-01-01T00:00:00+00:00</time>
        <ele>3247.0</ele>
      </trkpt>
      <trkpt lat="46.041163" lon="7.90377">
        <time>1970-01-01T00:00:00+00:00</time>
        <ele>3248.0</ele>
      </trkpt>
      <trkpt lat="46.041163" lon="7.90377">
        <time>1970-01-01T00:00:00+00:00</time>
        <ele>3248.0</ele>
      </trkpt>
      <trkpt lat="46.04115261482008" lon="7.903511314609293">
        <time>1970-01-01T00:00:00+00:00</time>
        <ele>3250.0</ele>
      </trkpt>
      <trkpt lat="46.041152" lon="7.903496">
        <time>1970-01-01T00:00:00+00:00</time>
        <ele>3250.0</ele>
      </trkpt>
      <trkpt lat="46.041152" lon="7.903496">
        <time>1970-01-01T00:00:00+00:00</time>
        <ele>3250.0</ele>
      </trkpt>
      <trkpt lat="46.041129" lon="7.903413">
        <time>1970-01-01T00:00:00+00:00</time>
        <ele>3250.0</ele>
      </trkpt>
      <trkpt lat="46.041129" lon="7.903413">
        <time>1970-01-01T00:00:00+00:00</time>
        <ele>3250.0</ele>
      </trkpt>
      <trkpt lat="46.041098" lon="7.903363">
        <time>1970-01-01T00:00:00+00:00</time>
        <ele>3250.0</ele>
      </trkpt>
      <trkpt lat="46.041098" lon="7.903363">
        <time>1970-01-01T00:00:00+00:00</time>
        <ele>3250.0</ele>
      </trkpt>
      <trkpt lat="46.041039" lon="7.903186">
        <time>1970-01-01T00:00:00+00:00</time>
        <ele>3251.0</ele>
      </trkpt>
      <trkpt lat="46.041039" lon="7.903186">
        <time>1970-01-01T00:00:00+00:00</time>
        <ele>3251.0</ele>
      </trkpt>
      <trkpt lat="46.041027" lon="7.903092">
        <time>1970-01-01T00:00:00+00:00</time>
        <ele>3251.0</ele>
      </trkpt>
      <trkpt lat="46.041027" lon="7.903092">
        <time>1970-01-01T00:00:00+00:00</time>
        <ele>3251.0</ele>
      </trkpt>
      <trkpt lat="46.041024" lon="7.902993">
        <time>1970-01-01T00:00:00+00:00</time>
        <ele>3251.0</ele>
      </trkpt>
      <trkpt lat="46.041024" lon="7.902993">
        <time>1970-01-01T00:00:00+00:00</time>
        <ele>3251.0</ele>
      </trkpt>
      <trkpt lat="46.041003" lon="7.902851">
        <time>1970-01-01T00:00:00+00:00</time>
        <ele>3252.0</ele>
      </trkpt>
      <trkpt lat="46.041003" lon="7.902851">
        <time>1970-01-01T00:00:00+00:00</time>
        <ele>3252.0</ele>
      </trkpt>
      <trkpt lat="46.040999" lon="7.902733">
        <time>1970-01-01T00:00:00+00:00</time>
        <ele>3253.0</ele>
      </trkpt>
      <trkpt lat="46.040999" lon="7.902733">
        <time>1970-01-01T00:00:00+00:00</time>
        <ele>3253.0</ele>
      </trkpt>
      <trkpt lat="46.040978" lon="7.90263">
        <time>1970-01-01T00:00:00+00:00</time>
        <ele>3254.0</ele>
      </trkpt>
      <trkpt lat="46.040978" lon="7.90263">
        <time>1970-01-01T00:00:00+00:00</time>
        <ele>3254.0</ele>
      </trkpt>
      <trkpt lat="46.040941" lon="7.902532">
        <time>1970-01-01T00:00:00+00:00</time>
        <ele>3254.0</ele>
      </trkpt>
      <trkpt lat="46.040941" lon="7.902532">
        <time>1970-01-01T00:00:00+00:00</time>
        <ele>3254.0</ele>
      </trkpt>
      <trkpt lat="46.040943" lon="7.902467">
        <time>1970-01-01T00:00:00+00:00</time>
        <ele>3255.0</ele>
      </trkpt>
      <trkpt lat="46.040943" lon="7.902467">
        <time>1970-01-01T00:00:00+00:00</time>
        <ele>3255.0</ele>
      </trkpt>
      <trkpt lat="46.040926" lon="7.902375">
        <time>1970-01-01T00:00:00+00:00</time>
        <ele>3256.0</ele>
      </trkpt>
      <trkpt lat="46.040926" lon="7.902375">
        <time>1970-01-01T00:00:00+00:00</time>
        <ele>3256.0</ele>
      </trkpt>
      <trkpt lat="46.040924" lon="7.902173">
        <time>1970-01-01T00:00:00+00:00</time>
        <ele>3257.0</ele>
      </trkpt>
      <trkpt lat="46.040924" lon="7.902173">
        <time>1970-01-01T00:00:00+00:00</time>
        <ele>3257.0</ele>
      </trkpt>
      <trkpt lat="46.040955" lon="7.90212">
        <time>1970-01-01T00:00:00+00:00</time>
        <ele>3258.0</ele>
      </trkpt>
      <trkpt lat="46.040955" lon="7.90212">
        <time>1970-01-01T00:00:00+00:00</time>
        <ele>3258.0</ele>
      </trkpt>
      <trkpt lat="46.040921" lon="7.901888">
        <time>1970-01-01T00:00:00+00:00</time>
        <ele>3260.0</ele>
      </trkpt>
      <trkpt lat="46.040921" lon="7.901888">
        <time>1970-01-01T00:00:00+00:00</time>
        <ele>3260.0</ele>
      </trkpt>
      <trkpt lat="46.040895" lon="7.901821">
        <time>1970-01-01T00:00:00+00:00</time>
        <ele>3261.0</ele>
      </trkpt>
      <trkpt lat="46.040895" lon="7.901821">
        <time>1970-01-01T00:00:00+00:00</time>
        <ele>3261.0</ele>
      </trkpt>
      <trkpt lat="46.040879" lon="7.901746">
        <time>1970-01-01T00:00:00+00:00</time>
        <ele>3262.0</ele>
      </trkpt>
      <trkpt lat="46.040879" lon="7.901746">
        <time>1970-01-01T00:00:00+00:00</time>
        <ele>3262.0</ele>
      </trkpt>
      <trkpt lat="46.040854" lon="7.90169">
        <time>1970-01-01T00:00:00+00:00</time>
        <ele>3262.0</ele>
      </trkpt>
      <trkpt lat="46.040854" lon="7.90169">
        <time>1970-01-01T00:00:00+00:00</time>
        <ele>3262.0</ele>
      </trkpt>
      <trkpt lat="46.040851" lon="7.901604">
        <time>1970-01-01T00:00:00+00:00</time>
        <ele>3263.0</ele>
      </trkpt>
      <trkpt lat="46.040851" lon="7.901604">
        <time>1970-01-01T00:00:00+00:00</time>
        <ele>3263.0</ele>
      </trkpt>
      <trkpt lat="46.040852" lon="7.901495">
        <time>1970-01-01T00:00:00+00:00</time>
        <ele>3264.0</ele>
      </trkpt>
      <trkpt lat="46.040852" lon="7.901495">
        <time>1970-01-01T00:00:00+00:00</time>
        <ele>3264.0</ele>
      </trkpt>
      <trkpt lat="46.04084" lon="7.901336">
        <time>1970-01-01T00:00:00+00:00</time>
        <ele>3265.0</ele>
      </trkpt>
      <trkpt lat="46.04084" lon="7.901336">
        <time>1970-01-01T00:00:00+00:00</time>
        <ele>3265.0</ele>
      </trkpt>
      <trkpt lat="46.040812" lon="7.901199">
        <time>1970-01-01T00:00:00+00:00</time>
        <ele>3268.0</ele>
      </trkpt>
      <trkpt lat="46.040812" lon="7.901199">
        <time>1970-01-01T00:00:00+00:00</time>
        <ele>3268.0</ele>
      </trkpt>
      <trkpt lat="46.04081285234587" lon="7.900939886854415">
        <time>1970-01-01T00:00:00+00:00</time>
        <ele>3272.0</ele>
      </trkpt>
      <trkpt lat="46.040813" lon="7.900895">
        <time>1970-01-01T00:00:00+00:00</time>
        <ele>3273.0</ele>
      </trkpt>
      <trkpt lat="46.040813" lon="7.900895">
        <time>1970-01-01T00:00:00+00:00</time>
        <ele>3273.0</ele>
      </trkpt>
      <trkpt lat="46.040804" lon="7.900739">
        <time>1970-01-01T00:00:00+00:00</time>
        <ele>3276.0</ele>
      </trkpt>
      <trkpt lat="46.040804" lon="7.900739">
        <time>1970-01-01T00:00:00+00:00</time>
        <ele>3276.0</ele>
      </trkpt>
      <trkpt lat="46.040791" lon="7.900669">
        <time>1970-01-01T00:00:00+00:00</time>
        <ele>3276.0</ele>
      </trkpt>
      <trkpt lat="46.040791" lon="7.900669">
        <time>1970-01-01T00:00:00+00:00</time>
        <ele>3276.0</ele>
      </trkpt>
      <trkpt lat="46.040777" lon="7.900605">
        <time>1970-01-01T00:00:00+00:00</time>
        <ele>3277.0</ele>
      </trkpt>
      <trkpt lat="46.040777" lon="7.900605">
        <time>1970-01-01T00:00:00+00:00</time>
        <ele>3277.0</ele>
      </trkpt>
      <trkpt lat="46.04079" lon="7.90046">
        <time>1970-01-01T00:00:00+00:00</time>
        <ele>3279.0</ele>
      </trkpt>
      <trkpt lat="46.04079" lon="7.90046">
        <time>1970-01-01T00:00:00+00:00</time>
        <ele>3279.0</ele>
      </trkpt>
      <trkpt lat="46.04075" lon="7.900285">
        <time>1970-01-01T00:00:00+00:00</time>
        <ele>3281.0</ele>
      </trkpt>
      <trkpt lat="46.04075" lon="7.900285">
        <time>1970-01-01T00:00:00+00:00</time>
        <ele>3281.0</ele>
      </trkpt>
      <trkpt lat="46.040707" lon="7.90021">
        <time>1970-01-01T00:00:00+00:00</time>
        <ele>3282.0</ele>
      </trkpt>
      <trkpt lat="46.040707" lon="7.90021">
        <time>1970-01-01T00:00:00+00:00</time>
        <ele>3282.0</ele>
      </trkpt>
      <trkpt lat="46.040688" lon="7.900138">
        <time>1970-01-01T00:00:00+00:00</time>
        <ele>3282.0</ele>
      </trkpt>
      <trkpt lat="46.040688" lon="7.900138">
        <time>1970-01-01T00:00:00+00:00</time>
        <ele>3282.0</ele>
      </trkpt>
      <trkpt lat="46.040705" lon="7.900047">
        <time>1970-01-01T00:00:00+00:00</time>
        <ele>3283.0</ele>
      </trkpt>
      <trkpt lat="46.040705" lon="7.900047">
        <time>1970-01-01T00:00:00+00:00</time>
        <ele>3283.0</ele>
      </trkpt>
      <trkpt lat="46.040656" lon="7.899885">
        <time>1970-01-01T00:00:00+00:00</time>
        <ele>3285.0</ele>
      </trkpt>
      <trkpt lat="46.040656" lon="7.899885">
        <time>1970-01-01T00:00:00+00:00</time>
        <ele>3285.0</ele>
      </trkpt>
      <trkpt lat="46.040649" lon="7.899664">
        <time>1970-01-01T00:00:00+00:00</time>
        <ele>3288.0</ele>
      </trkpt>
      <trkpt lat="46.040649" lon="7.899664">
        <time>1970-01-01T00:00:00+00:00</time>
        <ele>3288.0</ele>
      </trkpt>
      <trkpt lat="46.0406696670829" lon="7.899406600876694">
        <time>1970-01-01T00:00:00+00:00</time>
        <ele>3292.0</ele>
      </trkpt>
      <trkpt lat="46.040671" lon="7.89939">
        <time>1970-01-01T00:00:00+00:00</time>
        <ele>3292.0</ele>
      </trkpt>
      <trkpt lat="46.040671" lon="7.89939">
        <time>1970-01-01T00:00:00+00:00</time>
        <ele>3292.0</ele>
      </trkpt>
      <trkpt lat="46.040652" lon="7.89929">
        <time>1970-01-01T00:00:00+00:00</time>
        <ele>3293.0</ele>
      </trkpt>
      <trkpt lat="46.040652" lon="7.89929">
        <time>1970-01-01T00:00:00+00:00</time>
        <ele>3293.0</ele>
      </trkpt>
      <trkpt lat="46.040622" lon="7.899233">
        <time>1970-01-01T00:00:00+00:00</time>
        <ele>3293.0</ele>
      </trkpt>
      <trkpt lat="46.040622" lon="7.899233">
        <time>1970-01-01T00:00:00+00:00</time>
        <ele>3293.0</ele>
      </trkpt>
      <trkpt lat="46.040607" lon="7.899109">
        <time>1970-01-01T00:00:00+00:00</time>
        <ele>3295.0</ele>
      </trkpt>
      <trkpt lat="46.040607" lon="7.899109">
        <time>1970-01-01T00:00:00+00:00</time>
        <ele>3295.0</ele>
      </trkpt>
      <trkpt lat="46.040584" lon="7.89904">
        <time>1970-01-01T00:00:00+00:00</time>
        <ele>3296.0</ele>
      </trkpt>
      <trkpt lat="46.040584" lon="7.89904">
        <time>1970-01-01T00:00:00+00:00</time>
        <ele>3296.0</ele>
      </trkpt>
      <trkpt lat="46.040598" lon="7.898943">
        <time>1970-01-01T00:00:00+00:00</time>
        <ele>3298.0</ele>
      </trkpt>
      <trkpt lat="46.040598" lon="7.898943">
        <time>1970-01-01T00:00:00+00:00</time>
        <ele>3298.0</ele>
      </trkpt>
      <trkpt lat="46.040598" lon="7.898872">
        <time>1970-01-01T00:00:00+00:00</time>
        <ele>3299.0</ele>
      </trkpt>
      <trkpt lat="46.040598" lon="7.898872">
        <time>1970-01-01T00:00:00+00:00</time>
        <ele>3299.0</ele>
      </trkpt>
      <trkpt lat="46.040594" lon="7.898802">
        <time>1970-01-01T00:00:00+00:00</time>
        <ele>3300.0</ele>
      </trkpt>
      <trkpt lat="46.040594" lon="7.898802">
        <time>1970-01-01T00:00:00+00:00</time>
        <ele>3300.0</ele>
      </trkpt>
      <trkpt lat="46.040567" lon="7.898726">
        <time>1970-01-01T00:00:00+00:00</time>
        <ele>3300.0</ele>
      </trkpt>
      <trkpt lat="46.040567" lon="7.898726">
        <time>1970-01-01T00:00:00+00:00</time>
        <ele>3300.0</ele>
      </trkpt>
      <trkpt lat="46.040575" lon="7.898615">
        <time>1970-01-01T00:00:00+00:00</time>
        <ele>3302.0</ele>
      </trkpt>
      <trkpt lat="46.040575" lon="7.898615">
        <time>1970-01-01T00:00:00+00:00</time>
        <ele>3302.0</ele>
      </trkpt>
      <trkpt lat="46.040564" lon="7.898552">
        <time>1970-01-01T00:00:00+00:00</time>
        <ele>3303.0</ele>
      </trkpt>
      <trkpt lat="46.040564" lon="7.898552">
        <time>1970-01-01T00:00:00+00:00</time>
        <ele>3303.0</ele>
      </trkpt>
      <trkpt lat="46.040569" lon="7.898483">
        <time>1970-01-01T00:00:00+00:00</time>
        <ele>3305.0</ele>
      </trkpt>
      <trkpt lat="46.040569" lon="7.898483">
        <time>1970-01-01T00:00:00+00:00</time>
        <ele>3305.0</ele>
      </trkpt>
      <trkpt lat="46.040534" lon="7.89825">
        <time>1970-01-01T00:00:00+00:00</time>
        <ele>3310.0</ele>
      </trkpt>
      <trkpt lat="46.040534" lon="7.89825">
        <time>1970-01-01T00:00:00+00:00</time>
        <ele>3310.0</ele>
      </trkpt>
      <trkpt lat="46.040545" lon="7.898172">
        <time>1970-01-01T00:00:00+00:00</time>
        <ele>3312.0</ele>
      </trkpt>
      <trkpt lat="46.040545" lon="7.898172">
        <time>1970-01-01T00:00:00+00:00</time>
        <ele>3312.0</ele>
      </trkpt>
      <trkpt lat="46.040552" lon="7.898022">
        <time>1970-01-01T00:00:00+00:00</time>
        <ele>3317.0</ele>
      </trkpt>
      <trkpt lat="46.040552" lon="7.898022">
        <time>1970-01-01T00:00:00+00:00</time>
        <ele>3317.0</ele>
      </trkpt>
      <trkpt lat="46.040555" lon="7.897954">
        <time>1970-01-01T00:00:00+00:00</time>
        <ele>3320.0</ele>
      </trkpt>
      <trkpt lat="46.040555" lon="7.897954">
        <time>1970-01-01T00:00:00+00:00</time>
        <ele>3320.0</ele>
      </trkpt>
      <trkpt lat="46.040544" lon="7.897861">
        <time>1970-01-01T00:00:00+00:00</time>
        <ele>3324.0</ele>
      </trkpt>
      <trkpt lat="46.040544" lon="7.897861">
        <time>1970-01-01T00:00:00+00:00</time>
        <ele>3324.0</ele>
      </trkpt>
      <trkpt lat="46.040556" lon="7.897743">
        <time>1970-01-01T00:00:00+00:00</time>
        <ele>3329.0</ele>
      </trkpt>
      <trkpt lat="46.040556" lon="7.897743">
        <time>1970-01-01T00:00:00+00:00</time>
        <ele>3329.0</ele>
      </trkpt>
      <trkpt lat="46.040511" lon="7.897671">
        <time>1970-01-01T00:00:00+00:00</time>
        <ele>3330.0</ele>
      </trkpt>
      <trkpt lat="46.040511" lon="7.897671">
        <time>1970-01-01T00:00:00+00:00</time>
        <ele>3330.0</ele>
      </trkpt>
      <trkpt lat="46.040506" lon="7.89758">
        <time>1970-01-01T00:00:00+00:00</time>
        <ele>3333.0</ele>
      </trkpt>
      <trkpt lat="46.040506" lon="7.89758">
        <time>1970-01-01T00:00:00+00:00</time>
        <ele>3333.0</ele>
      </trkpt>
      <trkpt lat="46.040556" lon="7.897574">
        <time>1970-01-01T00:00:00+00:00</time>
        <ele>3334.0</ele>
      </trkpt>
      <trkpt lat="46.040556" lon="7.897574">
        <time>1970-01-01T00:00:00+00:00</time>
        <ele>3334.0</ele>
      </trkpt>
      <trkpt lat="46.040512" lon="7.897617">
        <time>1970-01-01T00:00:00+00:00</time>
        <ele>3332.0</ele>
      </trkpt>
      <trkpt lat="46.040512" lon="7.897617">
        <time>1970-01-01T00:00:00+00:00</time>
        <ele>3332.0</ele>
      </trkpt>
      <trkpt lat="46.040488" lon="7.897553">
        <time>1970-01-01T00:00:00+00:00</time>
        <ele>3334.0</ele>
      </trkpt>
      <trkpt lat="46.040488" lon="7.897553">
        <time>1970-01-01T00:00:00+00:00</time>
        <ele>3334.0</ele>
      </trkpt>
      <trkpt lat="46.040446" lon="7.897579">
        <time>1970-01-01T00:00:00+00:00</time>
        <ele>3332.0</ele>
      </trkpt>
      <trkpt lat="46.040446" lon="7.897579">
        <time>1970-01-01T00:00:00+00:00</time>
        <ele>3332.0</ele>
      </trkpt>
      <trkpt lat="46.040397" lon="7.897593">
        <time>1970-01-01T00:00:00+00:00</time>
        <ele>3330.0</ele>
      </trkpt>
      <trkpt lat="46.040397" lon="7.897593">
        <time>1970-01-01T00:00:00+00:00</time>
        <ele>3330.0</ele>
      </trkpt>
      <trkpt lat="46.040442" lon="7.897535">
        <time>1970-01-01T00:00:00+00:00</time>
        <ele>3334.0</ele>
      </trkpt>
      <trkpt lat="46.040442" lon="7.897535">
        <time>1970-01-01T00:00:00+00:00</time>
        <ele>3334.0</ele>
      </trkpt>
      <trkpt lat="46.040494" lon="7.897568">
        <time>1970-01-01T00:00:00+00:00</time>
        <ele>3333.0</ele>
      </trkpt>
      <trkpt lat="46.040494" lon="7.897568">
        <time>1970-01-01T00:00:00+00:00</time>
        <ele>3333.0</ele>
      </trkpt>
      <trkpt lat="46.040487" lon="7.89749">
        <time>1970-01-01T00:00:00+00:00</time>
        <ele>3337.0</ele>
      </trkpt>
      <trkpt lat="46.040487" lon="7.89749">
        <time>1970-01-01T00:00:00+00:00</time>
        <ele>3337.0</ele>
      </trkpt>
      <trkpt lat="46.040443" lon="7.89755">
        <time>1970-01-01T00:00:00+00:00</time>
        <ele>3333.0</ele>
      </trkpt>
      <trkpt lat="46.040443" lon="7.89755">
        <time>1970-01-01T00:00:00+00:00</time>
        <ele>3333.0</ele>
      </trkpt>
      <trkpt lat="46.040499" lon="7.897528">
        <time>1970-01-01T00:00:00+00:00</time>
        <ele>3335.0</ele>
      </trkpt>
      <trkpt lat="46.040499" lon="7.897528">
        <time>1970-01-01T00:00:00+00:00</time>
        <ele>3335.0</ele>
      </trkpt>
      <trkpt lat="46.040439" lon="7.897461">
        <time>1970-01-01T00:00:00+00:00</time>
        <ele>3337.0</ele>
      </trkpt>
      <trkpt lat="46.040439" lon="7.897461">
        <time>1970-01-01T00:00:00+00:00</time>
        <ele>3337.0</ele>
      </trkpt>
      <trkpt lat="46.040376" lon="7.897388">
        <time>1970-01-01T00:00:00+00:00</time>
        <ele>3339.0</ele>
      </trkpt>
      <trkpt lat="46.040376" lon="7.897388">
        <time>1970-01-01T00:00:00+00:00</time>
        <ele>3339.0</ele>
      </trkpt>
      <trkpt lat="46.040326" lon="7.897342">
        <time>1970-01-01T00:00:00+00:00</time>
        <ele>3340.0</ele>
      </trkpt>
      <trkpt lat="46.040326" lon="7.897342">
        <time>1970-01-01T00:00:00+00:00</time>
        <ele>3340.0</ele>
      </trkpt>
      <trkpt lat="46.040261" lon="7.897244">
        <time>1970-01-01T00:00:00+00:00</time>
        <ele>3344.0</ele>
      </trkpt>
      <trkpt lat="46.040261" lon="7.897244">
        <time>1970-01-01T00:00:00+00:00</time>
        <ele>3344.0</ele>
      </trkpt>
      <trkpt lat="46.040202" lon="7.897224">
        <time>1970-01-01T00:00:00+00:00</time>
        <ele>3344.0</ele>
      </trkpt>
      <trkpt lat="46.040202" lon="7.897224">
        <time>1970-01-01T00:00:00+00:00</time>
        <ele>3344.0</ele>
      </trkpt>
      <trkpt lat="46.040134" lon="7.897151">
        <time>1970-01-01T00:00:00+00:00</time>
        <ele>3347.0</ele>
      </trkpt>
      <trkpt lat="46.040134" lon="7.897151">
        <time>1970-01-01T00:00:00+00:00</time>
        <ele>3347.0</ele>
      </trkpt>
      <trkpt lat="46.040091" lon="7.897098">
        <time>1970-01-01T00:00:00+00:00</time>
        <ele>3349.0</ele>
      </trkpt>
      <trkpt lat="46.040091" lon="7.897098">
        <time>1970-01-01T00:00:00+00:00</time>
        <ele>3349.0</ele>
      </trkpt>
      <trkpt lat="46.040043" lon="7.897086">
        <time>1970-01-01T00:00:00+00:00</time>
        <ele>3349.0</ele>
      </trkpt>
      <trkpt lat="46.040043" lon="7.897086">
        <time>1970-01-01T00:00:00+00:00</time>
        <ele>3349.0</ele>
      </trkpt>
      <trkpt lat="46.039983" lon="7.896999">
        <time>1970-01-01T00:00:00+00:00</time>
        <ele>3351.0</ele>
      </trkpt>
      <trkpt lat="46.039983" lon="7.896999">
        <time>1970-01-01T00:00:00+00:00</time>
        <ele>3351.0</ele>
      </trkpt>
      <trkpt lat="46.039939" lon="7.896913">
        <time>1970-01-01T00:00:00+00:00</time>
        <ele>3353.0</ele>
      </trkpt>
      <trkpt lat="46.039939" lon="7.896913">
        <time>1970-01-01T00:00:00+00:00</time>
        <ele>3353.0</ele>
      </trkpt>
      <trkpt lat="46.039941" lon="7.896793">
        <time>1970-01-01T00:00:00+00:00</time>
        <ele>3355.0</ele>
      </trkpt>
      <trkpt lat="46.039941" lon="7.896793">
        <time>1970-01-01T00:00:00+00:00</time>
        <ele>3355.0</ele>
      </trkpt>
      <trkpt lat="46.039877" lon="7.896714">
        <time>1970-01-01T00:00:00+00:00</time>
        <ele>3358.0</ele>
      </trkpt>
      <trkpt lat="46.039877" lon="7.896714">
        <time>1970-01-01T00:00:00+00:00</time>
        <ele>3358.0</ele>
      </trkpt>
      <trkpt lat="46.039873" lon="7.896631">
        <time>1970-01-01T00:00:00+00:00</time>
        <ele>3361.0</ele>
      </trkpt>
      <trkpt lat="46.039873" lon="7.896631">
        <time>1970-01-01T00:00:00+00:00</time>
        <ele>3361.0</ele>
      </trkpt>
      <trkpt lat="46.039874" lon="7.896532">
        <time>1970-01-01T00:00:00+00:00</time>
        <ele>3365.0</ele>
      </trkpt>
      <trkpt lat="46.039874" lon="7.896532">
        <time>1970-01-01T00:00:00+00:00</time>
        <ele>3365.0</ele>
      </trkpt>
      <trkpt lat="46.039835" lon="7.896467">
        <time>1970-01-01T00:00:00+00:00</time>
        <ele>3367.0</ele>
      </trkpt>
      <trkpt lat="46.039835" lon="7.896467">
        <time>1970-01-01T00:00:00+00:00</time>
        <ele>3367.0</ele>
      </trkpt>
      <trkpt lat="46.039837" lon="7.896367">
        <time>1970-01-01T00:00:00+00:00</time>
        <ele>3371.0</ele>
      </trkpt>
      <trkpt lat="46.039837" lon="7.896367">
        <time>1970-01-01T00:00:00+00:00</time>
        <ele>3371.0</ele>
      </trkpt>
      <trkpt lat="46.039771" lon="7.896308">
        <time>1970-01-01T00:00:00+00:00</time>
        <ele>3373.0</ele>
      </trkpt>
      <trkpt lat="46.039771" lon="7.896308">
        <time>1970-01-01T00:00:00+00:00</time>
        <ele>3373.0</ele>
      </trkpt>
      <trkpt lat="46.039754" lon="7.896224">
        <time>1970-01-01T00:00:00+00:00</time>
        <ele>3376.0</ele>
      </trkpt>
      <trkpt lat="46.039754" lon="7.896224">
        <time>1970-01-01T00:00:00+00:00</time>
        <ele>3376.0</ele>
      </trkpt>
      <trkpt lat="46.039703" lon="7.896132">
        <time>1970-01-01T00:00:00+00:00</time>
        <ele>3379.0</ele>
      </trkpt>
      <trkpt lat="46.039703" lon="7.896132">
        <time>1970-01-01T00:00:00+00:00</time>
        <ele>3379.0</ele>
      </trkpt>
      <trkpt lat="46.039679" lon="7.896056">
        <time>1970-01-01T00:00:00+00:00</time>
        <ele>3380.0</ele>
      </trkpt>
      <trkpt lat="46.039679" lon="7.896056">
        <time>1970-01-01T00:00:00+00:00</time>
        <ele>3380.0</ele>
      </trkpt>
      <trkpt lat="46.039653" lon="7.895931">
        <time>1970-01-01T00:00:00+00:00</time>
        <ele>3384.0</ele>
      </trkpt>
      <trkpt lat="46.039653" lon="7.895931">
        <time>1970-01-01T00:00:00+00:00</time>
        <ele>3384.0</ele>
      </trkpt>
      <trkpt lat="46.039621" lon="7.895869">
        <time>1970-01-01T00:00:00+00:00</time>
        <ele>3386.0</ele>
      </trkpt>
      <trkpt lat="46.039621" lon="7.895869">
        <time>1970-01-01T00:00:00+00:00</time>
        <ele>3386.0</ele>
      </trkpt>
      <trkpt lat="46.039588" lon="7.895821">
        <time>1970-01-01T00:00:00+00:00</time>
        <ele>3387.0</ele>
      </trkpt>
      <trkpt lat="46.039588" lon="7.895821">
        <time>1970-01-01T00:00:00+00:00</time>
        <ele>3387.0</ele>
      </trkpt>
      <trkpt lat="46.039528" lon="7.895773">
        <time>1970-01-01T00:00:00+00:00</time>
        <ele>3388.0</ele>
      </trkpt>
      <trkpt lat="46.039528" lon="7.895773">
        <time>1970-01-01T00:00:00+00:00</time>
        <ele>3388.0</ele>
      </trkpt>
      <trkpt lat="46.039534" lon="7.895706">
        <time>1970-01-01T00:00:00+00:00</time>
        <ele>3390.0</ele>
      </trkpt>
      <trkpt lat="46.039534" lon="7.895706">
        <time>1970-01-01T00:00:00+00:00</time>
        <ele>3390.0</ele>
      </trkpt>
      <trkpt lat="46.03949" lon="7.895596">
        <time>1970-01-01T00:00:00+00:00</time>
        <ele>3393.0</ele>
      </trkpt>
      <trkpt lat="46.03949" lon="7.895596">
        <time>1970-01-01T00:00:00+00:00</time>
        <ele>3393.0</ele>
      </trkpt>
      <trkpt lat="46.039418" lon="7.895506">
        <time>1970-01-01T00:00:00+00:00</time>
        <ele>3394.0</ele>
      </trkpt>
      <trkpt lat="46.039418" lon="7.895506">
        <time>1970-01-01T00:00:00+00:00</time>
        <ele>3394.0</ele>
      </trkpt>
      <trkpt lat="46.039406" lon="7.89542">
        <time>1970-01-01T00:00:00+00:00</time>
        <ele>3396.0</ele>
      </trkpt>
      <trkpt lat="46.039406" lon="7.89542">
        <time>1970-01-01T00:00:00+00:00</time>
        <ele>3396.0</ele>
      </trkpt>
      <trkpt lat="46.039382" lon="7.895364">
        <time>1970-01-01T00:00:00+00:00</time>
        <ele>3396.0</ele>
      </trkpt>
      <trkpt lat="46.039382" lon="7.895364">
        <time>1970-01-01T00:00:00+00:00</time>
        <ele>3396.0</ele>
      </trkpt>
      <trkpt lat="46.039378" lon="7.895296">
        <time>1970-01-01T00:00:00+00:00</time>
        <ele>3397.0</ele>
      </trkpt>
      <trkpt lat="46.039378" lon="7.895296">
        <time>1970-01-01T00:00:00+00:00</time>
        <ele>3397.0</ele>
      </trkpt>
      <trkpt lat="46.039329" lon="7.895218">
        <time>1970-01-01T00:00:00+00:00</time>
        <ele>3397.0</ele>
      </trkpt>
      <trkpt lat="46.039329" lon="7.895218">
        <time>1970-01-01T00:00:00+00:00</time>
        <ele>3397.0</ele>
      </trkpt>
      <trkpt lat="46.03933" lon="7.89514">
        <time>1970-01-01T00:00:00+00:00</time>
        <ele>3398.0</ele>
      </trkpt>
      <trkpt lat="46.03933" lon="7.89514">
        <time>1970-01-01T00:00:00+00:00</time>
        <ele>3398.0</ele>
      </trkpt>
      <trkpt lat="46.039301" lon="7.895074">
        <time>1970-01-01T00:00:00+00:00</time>
        <ele>3399.0</ele>
      </trkpt>
      <trkpt lat="46.039301" lon="7.895074">
        <time>1970-01-01T00:00:00+00:00</time>
        <ele>3399.0</ele>
      </trkpt>
      <trkpt lat="46.039279" lon="7.895007">
        <time>1970-01-01T00:00:00+00:00</time>
        <ele>3399.0</ele>
      </trkpt>
      <trkpt lat="46.039279" lon="7.895007">
        <time>1970-01-01T00:00:00+00:00</time>
        <ele>3399.0</ele>
      </trkpt>
      <trkpt lat="46.039262" lon="7.894941">
        <time>1970-01-01T00:00:00+00:00</time>
        <ele>3400.0</ele>
      </trkpt>
      <trkpt lat="46.039262" lon="7.894941">
        <time>1970-01-01T00:00:00+00:00</time>
        <ele>3400.0</ele>
      </trkpt>
      <trkpt lat="46.039187" lon="7.894765">
        <time>1970-01-01T00:00:00+00:00</time>
        <ele>3403.0</ele>
      </trkpt>
      <trkpt lat="46.039187" lon="7.894765">
        <time>1970-01-01T00:00:00+00:00</time>
        <ele>3403.0</ele>
      </trkpt>
      <trkpt lat="46.039137" lon="7.894636">
        <time>1970-01-01T00:00:00+00:00</time>
        <ele>3405.0</ele>
      </trkpt>
      <trkpt lat="46.039137" lon="7.894636">
        <time>1970-01-01T00:00:00+00:00</time>
        <ele>3405.0</ele>
      </trkpt>
      <trkpt lat="46.03913" lon="7.894565">
        <time>1970-01-01T00:00:00+00:00</time>
        <ele>3406.0</ele>
      </trkpt>
      <trkpt lat="46.03913" lon="7.894565">
        <time>1970-01-01T00:00:00+00:00</time>
        <ele>3406.0</ele>
      </trkpt>
      <trkpt lat="46.03901719501791" lon="7.894363184836732">
        <time>1970-01-01T00:00:00+00:00</time>
        <ele>3411.0</ele>
      </trkpt>
      <trkpt lat="46.039002" lon="7.894336">
        <time>1970-01-01T00:00:00+00:00</time>
        <ele>3412.0</ele>
      </trkpt>
      <trkpt lat="46.039002" lon="7.894336">
        <time>1970-01-01T00:00:00+00:00</time>
        <ele>3412.0</ele>
      </trkpt>
      <trkpt lat="46.03899" lon="7.89426">
        <time>1970-01-01T00:00:00+00:00</time>
        <ele>3413.0</ele>
      </trkpt>
      <trkpt lat="46.03899" lon="7.89426">
        <time>1970-01-01T00:00:00+00:00</time>
        <ele>3413.0</ele>
      </trkpt>
      <trkpt lat="46.038951" lon="7.894172">
        <time>1970-01-01T00:00:00+00:00</time>
        <ele>3415.0</ele>
      </trkpt>
      <trkpt lat="46.038951" lon="7.894172">
        <time>1970-01-01T00:00:00+00:00</time>
        <ele>3415.0</ele>
      </trkpt>
      <trkpt lat="46.038917" lon="7.894099">
        <time>1970-01-01T00:00:00+00:00</time>
        <ele>3417.0</ele>
      </trkpt>
      <trkpt lat="46.038917" lon="7.894099">
        <time>1970-01-01T00:00:00+00:00</time>
        <ele>3417.0</ele>
      </trkpt>
      <trkpt lat="46.038836" lon="7.894">
        <time>1970-01-01T00:00:00+00:00</time>
        <ele>3419.0</ele>
      </trkpt>
      <trkpt lat="46.038836" lon="7.894">
        <time>1970-01-01T00:00:00+00:00</time>
        <ele>3419.0</ele>
      </trkpt>
      <trkpt lat="46.038796" lon="7.893969">
        <time>1970-01-01T00:00:00+00:00</time>
        <ele>3419.0</ele>
      </trkpt>
      <trkpt lat="46.038796" lon="7.893969">
        <time>1970-01-01T00:00:00+00:00</time>
        <ele>3419.0</ele>
      </trkpt>
      <trkpt lat="46.0386820677075" lon="7.893768504624918">
        <time>1970-01-01T00:00:00+00:00</time>
        <ele>3423.0</ele>
      </trkpt>
      <trkpt lat="46.038617" lon="7.893654">
        <time>1970-01-01T00:00:00+00:00</time>
        <ele>3424.0</ele>
      </trkpt>
      <trkpt lat="46.038617" lon="7.893654">
        <time>1970-01-01T00:00:00+00:00</time>
        <ele>3424.0</ele>
      </trkpt>
      <trkpt lat="46.03857" lon="7.893588">
        <time>1970-01-01T00:00:00+00:00</time>
        <ele>3425.0</ele>
      </trkpt>
      <trkpt lat="46.03857" lon="7.893588">
        <time>1970-01-01T00:00:00+00:00</time>
        <ele>3425.0</ele>
      </trkpt>
      <trkpt lat="46.038501" lon="7.893427">
        <time>1970-01-01T00:00:00+00:00</time>
        <ele>3428.0</ele>
      </trkpt>
      <trkpt lat="46.038501" lon="7.893427">
        <time>1970-01-01T00:00:00+00:00</time>
        <ele>3428.0</ele>
      </trkpt>
      <trkpt lat="46.038487" lon="7.89336">
        <time>1970-01-01T00:00:00+00:00</time>
        <ele>3429.0</ele>
      </trkpt>
      <trkpt lat="46.038487" lon="7.89336">
        <time>1970-01-01T00:00:00+00:00</time>
        <ele>3429.0</ele>
      </trkpt>
      <trkpt lat="46.038452" lon="7.89327">
        <time>1970-01-01T00:00:00+00:00</time>
        <ele>3430.0</ele>
      </trkpt>
      <trkpt lat="46.038452" lon="7.89327">
        <time>1970-01-01T00:00:00+00:00</time>
        <ele>3430.0</ele>
      </trkpt>
      <trkpt lat="46.038439" lon="7.893203">
        <time>1970-01-01T00:00:00+00:00</time>
        <ele>3432.0</ele>
      </trkpt>
      <trkpt lat="46.038439" lon="7.893203">
        <time>1970-01-01T00:00:00+00:00</time>
        <ele>3432.0</ele>
      </trkpt>
      <trkpt lat="46.038375" lon="7.893066">
        <time>1970-01-01T00:00:00+00:00</time>
        <ele>3434.0</ele>
      </trkpt>
      <trkpt lat="46.038375" lon="7.893066">
        <time>1970-01-01T00:00:00+00:00</time>
        <ele>3434.0</ele>
      </trkpt>
      <trkpt lat="46.038307" lon="7.892962">
        <time>1970-01-01T00:00:00+00:00</time>
        <ele>3436.0</ele>
      </trkpt>
      <trkpt lat="46.038307" lon="7.892962">
        <time>1970-01-01T00:00:00+00:00</time>
        <ele>3436.0</ele>
      </trkpt>
      <trkpt lat="46.03828" lon="7.892863">
        <time>1970-01-01T00:00:00+00:00</time>
        <ele>3438.0</ele>
      </trkpt>
      <trkpt lat="46.03828" lon="7.892863">
        <time>1970-01-01T00:00:00+00:00</time>
        <ele>3438.0</ele>
      </trkpt>
      <trkpt lat="46.038236" lon="7.892774">
        <time>1970-01-01T00:00:00+00:00</time>
        <ele>3440.0</ele>
      </trkpt>
      <trkpt lat="46.038236" lon="7.892774">
        <time>1970-01-01T00:00:00+00:00</time>
        <ele>3440.0</ele>
      </trkpt>
      <trkpt lat="46.038181" lon="7.892641">
        <time>1970-01-01T00:00:00+00:00</time>
        <ele>3442.0</ele>
      </trkpt>
      <trkpt lat="46.038181" lon="7.892641">
        <time>1970-01-01T00:00:00+00:00</time>
        <ele>3442.0</ele>
      </trkpt>
      <trkpt lat="46.03815" lon="7.892566">
        <time>1970-01-01T00:00:00+00:00</time>
        <ele>3443.0</ele>
      </trkpt>
      <trkpt lat="46.03815" lon="7.892566">
        <time>1970-01-01T00:00:00+00:00</time>
        <ele>3443.0</ele>
      </trkpt>
      <trkpt lat="46.03809" lon="7.892433">
        <time>1970-01-01T00:00:00+00:00</time>
        <ele>3446.0</ele>
      </trkpt>
      <trkpt lat="46.03809" lon="7.892433">
        <time>1970-01-01T00:00:00+00:00</time>
        <ele>3446.0</ele>
      </trkpt>
      <trkpt lat="46.038068" lon="7.892368">
        <time>1970-01-01T00:00:00+00:00</time>
        <ele>3447.0</ele>
      </trkpt>
      <trkpt lat="46.038068" lon="7.892368">
        <time>1970-01-01T00:00:00+00:00</time>
        <ele>3447.0</ele>
      </trkpt>
      <trkpt lat="46.03807" lon="7.892301">
        <time>1970-01-01T00:00:00+00:00</time>
        <ele>3448.0</ele>
      </trkpt>
      <trkpt lat="46.03807" lon="7.892301">
        <time>1970-01-01T00:00:00+00:00</time>
        <ele>3448.0</ele>
      </trkpt>
      <trkpt lat="46.038046" lon="7.892232">
        <time>1970-01-01T00:00:00+00:00</time>
        <ele>3449.0</ele>
      </trkpt>
      <trkpt lat="46.038046" lon="7.892232">
        <time>1970-01-01T00:00:00+00:00</time>
        <ele>3449.0</ele>
      </trkpt>
      <trkpt lat="46.037961" lon="7.892043">
        <time>1970-01-01T00:00:00+00:00</time>
        <ele>3452.0</ele>
      </trkpt>
      <trkpt lat="46.037961" lon="7.892043">
        <time>1970-01-01T00:00:00+00:00</time>
        <ele>3452.0</ele>
      </trkpt>
      <trkpt lat="46.037954" lon="7.891976">
        <time>1970-01-01T00:00:00+00:00</time>
        <ele>3453.0</ele>
      </trkpt>
      <trkpt lat="46.037954" lon="7.891976">
        <time>1970-01-01T00:00:00+00:00</time>
        <ele>3453.0</ele>
      </trkpt>
      <trkpt lat="46.037893" lon="7.891838">
        <time>1970-01-01T00:00:00+00:00</time>
        <ele>3456.0</ele>
      </trkpt>
      <trkpt lat="46.037893" lon="7.891838">
        <time>1970-01-01T00:00:00+00:00</time>
        <ele>3456.0</ele>
      </trkpt>
      <trkpt lat="46.037848" lon="7.891762">
        <time>1970-01-01T00:00:00+00:00</time>
        <ele>3458.0</ele>
      </trkpt>
      <trkpt lat="46.037848" lon="7.891762">
        <time>1970-01-01T00:00:00+00:00</time>
        <ele>3458.0</ele>
      </trkpt>
      <trkpt lat="46.0378" lon="7.891609">
        <time>1970-01-01T00:00:00+00:00</time>
        <ele>3460.0</ele>
      </trkpt>
      <trkpt lat="46.0378" lon="7.891609">
        <time>1970-01-01T00:00:00+00:00</time>
        <ele>3460.0</ele>
      </trkpt>
      <trkpt lat="46.037761" lon="7.891547">
        <time>1970-01-01T00:00:00+00:00</time>
        <ele>3461.0</ele>
      </trkpt>
      <trkpt lat="46.037761" lon="7.891547">
        <time>1970-01-01T00:00:00+00:00</time>
        <ele>3461.0</ele>
      </trkpt>
      <trkpt lat="46.037708" lon="7.891504">
        <time>1970-01-01T00:00:00+00:00</time>
        <ele>3463.0</ele>
      </trkpt>
      <trkpt lat="46.037708" lon="7.891504">
        <time>1970-01-01T00:00:00+00:00</time>
        <ele>3463.0</ele>
      </trkpt>
      <trkpt lat="46.037618" lon="7.891314">
        <time>1970-01-01T00:00:00+00:00</time>
        <ele>3470.0</ele>
      </trkpt>
      <trkpt lat="46.037618" lon="7.891314">
        <time>1970-01-01T00:00:00+00:00</time>
        <ele>3470.0</ele>
      </trkpt>
      <trkpt lat="46.037541" lon="7.891205">
        <time>1970-01-01T00:00:00+00:00</time>
        <ele>3475.0</ele>
      </trkpt>
      <trkpt lat="46.037541" lon="7.891205">
        <time>1970-01-01T00:00:00+00:00</time>
        <ele>3475.0</ele>
      </trkpt>
      <trkpt lat="46.037498" lon="7.891087">
        <time>1970-01-01T00:00:00+00:00</time>
        <ele>3480.0</ele>
      </trkpt>
      <trkpt lat="46.037498" lon="7.891087">
        <time>1970-01-01T00:00:00+00:00</time>
        <ele>3480.0</ele>
      </trkpt>
      <trkpt lat="46.037431" lon="7.891001">
        <time>1970-01-01T00:00:00+00:00</time>
        <ele>3484.0</ele>
      </trkpt>
      <trkpt lat="46.037431" lon="7.891001">
        <time>1970-01-01T00:00:00+00:00</time>
        <ele>3484.0</ele>
      </trkpt>
      <trkpt lat="46.037373" lon="7.890957">
        <time>1970-01-01T00:00:00+00:00</time>
        <ele>3487.0</ele>
      </trkpt>
      <trkpt lat="46.037373" lon="7.890957">
        <time>1970-01-01T00:00:00+00:00</time>
        <ele>3487.0</ele>
      </trkpt>
      <trkpt lat="46.037339" lon="7.890905">
        <time>1970-01-01T00:00:00+00:00</time>
        <ele>3489.0</ele>
      </trkpt>
      <trkpt lat="46.037339" lon="7.890905">
        <time>1970-01-01T00:00:00+00:00</time>
        <ele>3489.0</ele>
      </trkpt>
      <trkpt lat="46.037304" lon="7.890776">
        <time>1970-01-01T00:00:00+00:00</time>
        <ele>3494.0</ele>
      </trkpt>
      <trkpt lat="46.037304" lon="7.890776">
        <time>1970-01-01T00:00:00+00:00</time>
        <ele>3494.0</ele>
      </trkpt>
      <trkpt lat="46.037226" lon="7.890714">
        <time>1970-01-01T00:00:00+00:00</time>
        <ele>3497.0</ele>
      </trkpt>
      <trkpt lat="46.037226" lon="7.890714">
        <time>1970-01-01T00:00:00+00:00</time>
        <ele>3497.0</ele>
      </trkpt>
      <trkpt lat="46.037197" lon="7.890659">
        <time>1970-01-01T00:00:00+00:00</time>
        <ele>3499.0</ele>
      </trkpt>
      <trkpt lat="46.037197" lon="7.890659">
        <time>1970-01-01T00:00:00+00:00</time>
        <ele>3499.0</ele>
      </trkpt>
      <trkpt lat="46.037142" lon="7.890594">
        <time>1970-01-01T00:00:00+00:00</time>
        <ele>3503.0</ele>
      </trkpt>
      <trkpt lat="46.037142" lon="7.890594">
        <time>1970-01-01T00:00:00+00:00</time>
        <ele>3503.0</ele>
      </trkpt>
      <trkpt lat="46.037089" lon="7.890556">
        <time>1970-01-01T00:00:00+00:00</time>
        <ele>3505.0</ele>
      </trkpt>
      <trkpt lat="46.037089" lon="7.890556">
        <time>1970-01-01T00:00:00+00:00</time>
        <ele>3505.0</ele>
      </trkpt>
      <trkpt lat="46.037046" lon="7.890424">
        <time>1970-01-01T00:00:00+00:00</time>
        <ele>3510.0</ele>
      </trkpt>
      <trkpt lat="46.037046" lon="7.890424">
        <time>1970-01-01T00:00:00+00:00</time>
        <ele>3510.0</ele>
      </trkpt>
      <trkpt lat="46.037015" lon="7.890343">
        <time>1970-01-01T00:00:00+00:00</time>
        <ele>3513.0</ele>
      </trkpt>
      <trkpt lat="46.037015" lon="7.890343">
        <time>1970-01-01T00:00:00+00:00</time>
        <ele>3513.0</ele>
      </trkpt>
      <trkpt lat="46.036981" lon="7.890209">
        <time>1970-01-01T00:00:00+00:00</time>
        <ele>3518.0</ele>
      </trkpt>
      <trkpt lat="46.036981" lon="7.890209">
        <time>1970-01-01T00:00:00+00:00</time>
        <ele>3518.0</ele>
      </trkpt>
      <trkpt lat="46.03694" lon="7.890134">
        <time>1970-01-01T00:00:00+00:00</time>
        <ele>3521.0</ele>
      </trkpt>
      <trkpt lat="46.03694" lon="7.890134">
        <time>1970-01-01T00:00:00+00:00</time>
        <ele>3521.0</ele>
      </trkpt>
      <trkpt lat="46.036902" lon="7.89005">
        <time>1970-01-01T00:00:00+00:00</time>
        <ele>3524.0</ele>
      </trkpt>
      <trkpt lat="46.036902" lon="7.89005">
        <time>1970-01-01T00:00:00+00:00</time>
        <ele>3524.0</ele>
      </trkpt>
      <trkpt lat="46.036853" lon="7.889982">
        <time>1970-01-01T00:00:00+00:00</time>
        <ele>3527.0</ele>
      </trkpt>
      <trkpt lat="46.036853" lon="7.889982">
        <time>1970-01-01T00:00:00+00:00</time>
        <ele>3527.0</ele>
      </trkpt>
      <trkpt lat="46.036781" lon="7.889846">
        <time>1970-01-01T00:00:00+00:00</time>
        <ele>3532.0</ele>
      </trkpt>
      <trkpt lat="46.036781" lon="7.889846">
        <time>1970-01-01T00:00:00+00:00</time>
        <ele>3532.0</ele>
      </trkpt>
      <trkpt lat="46.036733" lon="7.889764">
        <time>1970-01-01T00:00:00+00:00</time>
        <ele>3536.0</ele>
      </trkpt>
      <trkpt lat="46.036733" lon="7.889764">
        <time>1970-01-01T00:00:00+00:00</time>
        <ele>3536.0</ele>
      </trkpt>
      <trkpt lat="46.036668" lon="7.889623">
        <time>1970-01-01T00:00:00+00:00</time>
        <ele>3543.0</ele>
      </trkpt>
      <trkpt lat="46.036668" lon="7.889623">
        <time>1970-01-01T00:00:00+00:00</time>
        <ele>3543.0</ele>
      </trkpt>
      <trkpt lat="46.036654" lon="7.889508">
        <time>1970-01-01T00:00:00+00:00</time>
        <ele>3547.0</ele>
      </trkpt>
      <trkpt lat="46.036654" lon="7.889508">
        <time>1970-01-01T00:00:00+00:00</time>
        <ele>3547.0</ele>
      </trkpt>
      <trkpt lat="46.036601" lon="7.889414">
        <time>1970-01-01T00:00:00+00:00</time>
        <ele>3552.0</ele>
      </trkpt>
      <trkpt lat="46.036601" lon="7.889414">
        <time>1970-01-01T00:00:00+00:00</time>
        <ele>3552.0</ele>
      </trkpt>
      <trkpt lat="46.036588" lon="7.889334">
        <time>1970-01-01T00:00:00+00:00</time>
        <ele>3554.0</ele>
      </trkpt>
      <trkpt lat="46.036588" lon="7.889334">
        <time>1970-01-01T00:00:00+00:00</time>
        <ele>3554.0</ele>
      </trkpt>
      <trkpt lat="46.036574" lon="7.889197">
        <time>1970-01-01T00:00:00+00:00</time>
        <ele>3558.0</ele>
      </trkpt>
      <trkpt lat="46.036574" lon="7.889197">
        <time>1970-01-01T00:00:00+00:00</time>
        <ele>3558.0</ele>
      </trkpt>
      <trkpt lat="46.036532" lon="7.889036">
        <time>1970-01-01T00:00:00+00:00</time>
        <ele>3561.0</ele>
      </trkpt>
      <trkpt lat="46.036532" lon="7.889036">
        <time>1970-01-01T00:00:00+00:00</time>
        <ele>3561.0</ele>
      </trkpt>
      <trkpt lat="46.036539" lon="7.88895">
        <time>1970-01-01T00:00:00+00:00</time>
        <ele>3562.0</ele>
      </trkpt>
      <trkpt lat="46.036539" lon="7.88895">
        <time>1970-01-01T00:00:00+00:00</time>
        <ele>3562.0</ele>
      </trkpt>
      <trkpt lat="46.036522" lon="7.888872">
        <time>1970-01-01T00:00:00+00:00</time>
        <ele>3564.0</ele>
      </trkpt>
      <trkpt lat="46.036522" lon="7.888872">
        <time>1970-01-01T00:00:00+00:00</time>
        <ele>3564.0</ele>
      </trkpt>
      <trkpt lat="46.036491" lon="7.888811">
        <time>1970-01-01T00:00:00+00:00</time>
        <ele>3566.0</ele>
      </trkpt>
      <trkpt lat="46.036491" lon="7.888811">
        <time>1970-01-01T00:00:00+00:00</time>
        <ele>3566.0</ele>
      </trkpt>
      <trkpt lat="46.036478" lon="7.888693">
        <time>1970-01-01T00:00:00+00:00</time>
        <ele>3568.0</ele>
      </trkpt>
      <trkpt lat="46.036478" lon="7.888693">
        <time>1970-01-01T00:00:00+00:00</time>
        <ele>3568.0</ele>
      </trkpt>
      <trkpt lat="46.036489" lon="7.888475">
        <time>1970-01-01T00:00:00+00:00</time>
        <ele>3573.0</ele>
      </trkpt>
      <trkpt lat="46.036489" lon="7.888475">
        <time>1970-01-01T00:00:00+00:00</time>
        <ele>3573.0</ele>
      </trkpt>
      <trkpt lat="46.036508" lon="7.888332">
        <time>1970-01-01T00:00:00+00:00</time>
        <ele>3575.0</ele>
      </trkpt>
      <trkpt lat="46.036508" lon="7.888332">
        <time>1970-01-01T00:00:00+00:00</time>
        <ele>3575.0</ele>
      </trkpt>
      <trkpt lat="46.03648744724964" lon="7.888074601269298">
        <time>1970-01-01T00:00:00+00:00</time>
        <ele>3580.0</ele>
      </trkpt>
      <trkpt lat="46.036487" lon="7.888069">
        <time>1970-01-01T00:00:00+00:00</time>
        <ele>3580.0</ele>
      </trkpt>
      <trkpt lat="46.036487" lon="7.888069">
        <time>1970-01-01T00:00:00+00:00</time>
        <ele>3580.0</ele>
      </trkpt>
      <trkpt lat="46.036458" lon="7.888">
        <time>1970-01-01T00:00:00+00:00</time>
        <ele>3582.0</ele>
      </trkpt>
      <trkpt lat="46.036458" lon="7.888">
        <time>1970-01-01T00:00:00+00:00</time>
        <ele>3582.0</ele>
      </trkpt>
      <trkpt lat="46.036468" lon="7.887817">
        <time>1970-01-01T00:00:00+00:00</time>
        <ele>3583.0</ele>
      </trkpt>
      <trkpt lat="46.036468" lon="7.887817">
        <time>1970-01-01T00:00:00+00:00</time>
        <ele>3583.0</ele>
      </trkpt>
      <trkpt lat="46.036461" lon="7.887732">
        <time>1970-01-01T00:00:00+00:00</time>
        <ele>3584.0</ele>
      </trkpt>
      <trkpt lat="46.036461" lon="7.887732">
        <time>1970-01-01T00:00:00+00:00</time>
        <ele>3584.0</ele>
      </trkpt>
      <trkpt lat="46.036484" lon="7.887541">
        <time>1970-01-01T00:00:00+00:00</time>
        <ele>3585.0</ele>
      </trkpt>
      <trkpt lat="46.036484" lon="7.887541">
        <time>1970-01-01T00:00:00+00:00</time>
        <ele>3585.0</ele>
      </trkpt>
      <trkpt lat="46.036443" lon="7.88741">
        <time>1970-01-01T00:00:00+00:00</time>
        <ele>3586.0</ele>
      </trkpt>
      <trkpt lat="46.036443" lon="7.88741">
        <time>1970-01-01T00:00:00+00:00</time>
        <ele>3586.0</ele>
      </trkpt>
      <trkpt lat="46.036433" lon="7.88734">
        <time>1970-01-01T00:00:00+00:00</time>
        <ele>3587.0</ele>
      </trkpt>
      <trkpt lat="46.036433" lon="7.88734">
        <time>1970-01-01T00:00:00+00:00</time>
        <ele>3587.0</ele>
      </trkpt>
      <trkpt lat="46.03648023180993" lon="7.887089997143964">
        <time>1970-01-01T00:00:00+00:00</time>
        <ele>3587.0</ele>
      </trkpt>
      <trkpt lat="46.036491" lon="7.887033">
        <time>1970-01-01T00:00:00+00:00</time>
        <ele>3586.0</ele>
      </trkpt>
      <trkpt lat="46.036491" lon="7.887033">
        <time>1970-01-01T00:00:00+00:00</time>
        <ele>3586.0</ele>
      </trkpt>
      <trkpt lat="46.036491" lon="7.886954">
        <time>1970-01-01T00:00:00+00:00</time>
        <ele>3587.0</ele>
      </trkpt>
      <trkpt lat="46.036491" lon="7.886954">
        <time>1970-01-01T00:00:00+00:00</time>
        <ele>3587.0</ele>
      </trkpt>
      <trkpt lat="46.036515" lon="7.886832">
        <time>1970-01-01T00:00:00+00:00</time>
        <ele>3587.0</ele>
      </trkpt>
      <trkpt lat="46.036515" lon="7.886832">
        <time>1970-01-01T00:00:00+00:00</time>
        <ele>3587.0</ele>
      </trkpt>
      <trkpt lat="46.03653" lon="7.88668">
        <time>1970-01-01T00:00:00+00:00</time>
        <ele>3586.0</ele>
      </trkpt>
      <trkpt lat="46.03653" lon="7.88668">
        <time>1970-01-01T00:00:00+00:00</time>
        <ele>3586.0</ele>
      </trkpt>
      <trkpt lat="46.036525" lon="7.886569">
        <time>1970-01-01T00:00:00+00:00</time>
        <ele>3586.0</ele>
      </trkpt>
      <trkpt lat="46.036525" lon="7.886569">
        <time>1970-01-01T00:00:00+00:00</time>
        <ele>3586.0</ele>
      </trkpt>
      <trkpt lat="46.036524" lon="7.886479">
        <time>1970-01-01T00:00:00+00:00</time>
        <ele>3587.0</ele>
      </trkpt>
      <trkpt lat="46.036524" lon="7.886479">
        <time>1970-01-01T00:00:00+00:00</time>
        <ele>3587.0</ele>
      </trkpt>
      <trkpt lat="46.036525" lon="7.886348">
        <time>1970-01-01T00:00:00+00:00</time>
        <ele>3587.0</ele>
      </trkpt>
      <trkpt lat="46.036525" lon="7.886348">
        <time>1970-01-01T00:00:00+00:00</time>
        <ele>3587.0</ele>
      </trkpt>
      <trkpt lat="46.036499" lon="7.886283">
        <time>1970-01-01T00:00:00+00:00</time>
        <ele>3587.0</ele>
      </trkpt>
      <trkpt lat="46.036499" lon="7.886283">
        <time>1970-01-01T00:00:00+00:00</time>
        <ele>3587.0</ele>
      </trkpt>
      <trkpt lat="46.036514" lon="7.886061">
        <time>1970-01-01T00:00:00+00:00</time>
        <ele>3587.0</ele>
      </trkpt>
      <trkpt lat="46.036514" lon="7.886061">
        <time>1970-01-01T00:00:00+00:00</time>
        <ele>3587.0</ele>
      </trkpt>
      <trkpt lat="46.03650901929758" lon="7.8858020034743035">
        <time>1970-01-01T00:00:00+00:00</time>
        <ele>3588.0</ele>
      </trkpt>
      <trkpt lat="46.036508" lon="7.885749">
        <time>1970-01-01T00:00:00+00:00</time>
        <ele>3588.0</ele>
      </trkpt>
      <trkpt lat="46.036508" lon="7.885749">
        <time>1970-01-01T00:00:00+00:00</time>
        <ele>3588.0</ele>
      </trkpt>
      <trkpt lat="46.036487" lon="7.885619">
        <time>1970-01-01T00:00:00+00:00</time>
        <ele>3589.0</ele>
      </trkpt>
      <trkpt lat="46.036487" lon="7.885619">
        <time>1970-01-01T00:00:00+00:00</time>
        <ele>3589.0</ele>
      </trkpt>
      <trkpt lat="46.036486" lon="7.88552">
        <time>1970-01-01T00:00:00+00:00</time>
        <ele>3589.0</ele>
      </trkpt>
      <trkpt lat="46.036486" lon="7.88552">
        <time>1970-01-01T00:00:00+00:00</time>
        <ele>3589.0</ele>
      </trkpt>
      <trkpt lat="46.036471" lon="7.885453">
        <time>1970-01-01T00:00:00+00:00</time>
        <ele>3589.0</ele>
      </trkpt>
      <trkpt lat="46.036471" lon="7.885453">
        <time>1970-01-01T00:00:00+00:00</time>
        <ele>3589.0</ele>
      </trkpt>
      <trkpt lat="46.036386132580574" lon="7.885224559878542">
        <time>1970-01-01T00:00:00+00:00</time>
        <ele>3592.0</ele>
      </trkpt>
      <trkpt lat="46.036338" lon="7.885095">
        <time>1970-01-01T00:00:00+00:00</time>
        <ele>3594.0</ele>
      </trkpt>
      <trkpt lat="46.036338" lon="7.885095">
        <time>1970-01-01T00:00:00+00:00</time>
        <ele>3594.0</ele>
      </trkpt>
      <trkpt lat="46.036327" lon="7.884996">
        <time>1970-01-01T00:00:00+00:00</time>
        <ele>3594.0</ele>
      </trkpt>
      <trkpt lat="46.036327" lon="7.884996">
        <time>1970-01-01T00:00:00+00:00</time>
        <ele>3594.0</ele>
      </trkpt>
      <trkpt lat="46.036278" lon="7.884774">
        <time>1970-01-01T00:00:00+00:00</time>
        <ele>3595.0</ele>
      </trkpt>
      <trkpt lat="46.036278" lon="7.884774">
        <time>1970-01-01T00:00:00+00:00</time>
        <ele>3595.0</ele>
      </trkpt>
      <trkpt lat="46.036261" lon="7.884705">
        <time>1970-01-01T00:00:00+00:00</time>
        <ele>3595.0</ele>
      </trkpt>
      <trkpt lat="46.036261" lon="7.884705">
        <time>1970-01-01T00:00:00+00:00</time>
        <ele>3595.0</ele>
      </trkpt>
      <trkpt lat="46.036227" lon="7.884649">
        <time>1970-01-01T00:00:00+00:00</time>
        <ele>3596.0</ele>
      </trkpt>
      <trkpt lat="46.036227" lon="7.884649">
        <time>1970-01-01T00:00:00+00:00</time>
        <ele>3596.0</ele>
      </trkpt>
      <trkpt lat="46.036183" lon="7.884463">
        <time>1970-01-01T00:00:00+00:00</time>
        <ele>3598.0</ele>
      </trkpt>
      <trkpt lat="46.036183" lon="7.884463">
        <time>1970-01-01T00:00:00+00:00</time>
        <ele>3598.0</ele>
      </trkpt>
      <trkpt lat="46.036157" lon="7.884396">
        <time>1970-01-01T00:00:00+00:00</time>
        <ele>3598.0</ele>
      </trkpt>
      <trkpt lat="46.036157" lon="7.884396">
        <time>1970-01-01T00:00:00+00:00</time>
        <ele>3598.0</ele>
      </trkpt>
      <trkpt lat="46.036044" lon="7.88422">
        <time>1970-01-01T00:00:00+00:00</time>
        <ele>3602.0</ele>
      </trkpt>
      <trkpt lat="46.036044" lon="7.88422">
        <time>1970-01-01T00:00:00+00:00</time>
        <ele>3602.0</ele>
      </trkpt>
      <trkpt lat="46.035992" lon="7.884115">
        <time>1970-01-01T00:00:00+00:00</time>
        <ele>3603.0</ele>
      </trkpt>
      <trkpt lat="46.035992" lon="7.884115">
        <time>1970-01-01T00:00:00+00:00</time>
        <ele>3603.0</ele>
      </trkpt>
      <trkpt lat="46.035911984995266" lon="7.883882956486276">
        <time>1970-01-01T00:00:00+00:00</time>
        <ele>3605.0</ele>
      </trkpt>
      <trkpt lat="46.035892" lon="7.883825">
        <time>1970-01-01T00:00:00+00:00</time>
        <ele>3605.0</ele>
      </trkpt>
      <trkpt lat="46.035892" lon="7.883825">
        <time>1970-01-01T00:00:00+00:00</time>
        <ele>3605.0</ele>
      </trkpt>
      <trkpt lat="46.035812" lon="7.883617">
        <time>1970-01-01T00:00:00+00:00</time>
        <ele>3609.0</ele>
      </trkpt>
      <trkpt lat="46.035812" lon="7.883617">
        <time>1970-01-01T00:00:00+00:00</time>
        <ele>3609.0</ele>
      </trkpt>
      <trkpt lat="46.03570422076346" lon="7.88340957580893">
        <time>1970-01-01T00:00:00+00:00</time>
        <ele>3612.0</ele>
      </trkpt>
      <trkpt lat="46.035653" lon="7.883311">
        <time>1970-01-01T00:00:00+00:00</time>
        <ele>3613.0</ele>
      </trkpt>
      <trkpt lat="46.035653" lon="7.883311">
        <time>1970-01-01T00:00:00+00:00</time>
        <ele>3613.0</ele>
      </trkpt>
      <trkpt lat="46.035628" lon="7.883232">
        <time>1970-01-01T00:00:00+00:00</time>
        <ele>3613.0</ele>
      </trkpt>
      <trkpt lat="46.035628" lon="7.883232">
        <time>1970-01-01T00:00:00+00:00</time>
        <ele>3613.0</ele>
      </trkpt>
      <trkpt lat="46.035529" lon="7.883057">
        <time>1970-01-01T00:00:00+00:00</time>
        <ele>3614.0</ele>
      </trkpt>
      <trkpt lat="46.035529" lon="7.883057">
        <time>1970-01-01T00:00:00+00:00</time>
        <ele>3614.0</ele>
      </trkpt>
      <trkpt lat="46.035518" lon="7.882992">
        <time>1970-01-01T00:00:00+00:00</time>
        <ele>3613.0</ele>
      </trkpt>
      <trkpt lat="46.035518" lon="7.882992">
        <time>1970-01-01T00:00:00+00:00</time>
        <ele>3613.0</ele>
      </trkpt>
      <trkpt lat="46.035461" lon="7.882889">
        <time>1970-01-01T00:00:00+00:00</time>
        <ele>3614.0</ele>
      </trkpt>
      <trkpt lat="46.035461" lon="7.882889">
        <time>1970-01-01T00:00:00+00:00</time>
        <ele>3614.0</ele>
      </trkpt>
      <trkpt lat="46.035393" lon="7.882806">
        <time>1970-01-01T00:00:00+00:00</time>
        <ele>3615.0</ele>
      </trkpt>
      <trkpt lat="46.035393" lon="7.882806">
        <time>1970-01-01T00:00:00+00:00</time>
        <ele>3615.0</ele>
      </trkpt>
      <trkpt lat="46.035254" lon="7.882672">
        <time>1970-01-01T00:00:00+00:00</time>
        <ele>3618.0</ele>
      </trkpt>
      <trkpt lat="46.035254" lon="7.882672">
        <time>1970-01-01T00:00:00+00:00</time>
        <ele>3618.0</ele>
      </trkpt>
      <trkpt lat="46.03519" lon="7.882623">
        <time>1970-01-01T00:00:00+00:00</time>
        <ele>3619.0</ele>
      </trkpt>
      <trkpt lat="46.03519" lon="7.882623">
        <time>1970-01-01T00:00:00+00:00</time>
        <ele>3619.0</ele>
      </trkpt>
      <trkpt lat="46.035128" lon="7.882596">
        <time>1970-01-01T00:00:00+00:00</time>
        <ele>3621.0</ele>
      </trkpt>
      <trkpt lat="46.035128" lon="7.882596">
        <time>1970-01-01T00:00:00+00:00</time>
        <ele>3621.0</ele>
      </trkpt>
      <trkpt lat="46.03497" lon="7.882543">
        <time>1970-01-01T00:00:00+00:00</time>
        <ele>3627.0</ele>
      </trkpt>
      <trkpt lat="46.03497" lon="7.882543">
        <time>1970-01-01T00:00:00+00:00</time>
        <ele>3627.0</ele>
      </trkpt>
      <trkpt lat="46.034867" lon="7.882444">
        <time>1970-01-01T00:00:00+00:00</time>
        <ele>3628.0</ele>
      </trkpt>
      <trkpt lat="46.034867" lon="7.882444">
        <time>1970-01-01T00:00:00+00:00</time>
        <ele>3628.0</ele>
      </trkpt>
      <trkpt lat="46.034805" lon="7.882401">
        <time>1970-01-01T00:00:00+00:00</time>
        <ele>3629.0</ele>
      </trkpt>
      <trkpt lat="46.034805" lon="7.882401">
        <time>1970-01-01T00:00:00+00:00</time>
        <ele>3629.0</ele>
      </trkpt>
      <trkpt lat="46.034765" lon="7.882357">
        <time>1970-01-01T00:00:00+00:00</time>
        <ele>3630.0</ele>
      </trkpt>
      <trkpt lat="46.034765" lon="7.882357">
        <time>1970-01-01T00:00:00+00:00</time>
        <ele>3630.0</ele>
      </trkpt>
      <trkpt lat="46.034718" lon="7.882326">
        <time>1970-01-01T00:00:00+00:00</time>
        <ele>3631.0</ele>
      </trkpt>
      <trkpt lat="46.034718" lon="7.882326">
        <time>1970-01-01T00:00:00+00:00</time>
        <ele>3631.0</ele>
      </trkpt>
      <trkpt lat="46.03457" lon="7.882206">
        <time>1970-01-01T00:00:00+00:00</time>
        <ele>3637.0</ele>
      </trkpt>
      <trkpt lat="46.03457" lon="7.882206">
        <time>1970-01-01T00:00:00+00:00</time>
        <ele>3637.0</ele>
      </trkpt>
      <trkpt lat="46.034482" lon="7.882125">
        <time>1970-01-01T00:00:00+00:00</time>
        <ele>3641.0</ele>
      </trkpt>
      <trkpt lat="46.034482" lon="7.882125">
        <time>1970-01-01T00:00:00+00:00</time>
        <ele>3641.0</ele>
      </trkpt>
      <trkpt lat="46.03441" lon="7.882097">
        <time>1970-01-01T00:00:00+00:00</time>
        <ele>3646.0</ele>
      </trkpt>
      <trkpt lat="46.03441" lon="7.882097">
        <time>1970-01-01T00:00:00+00:00</time>
        <ele>3646.0</ele>
      </trkpt>
      <trkpt lat="46.034367" lon="7.882069">
        <time>1970-01-01T00:00:00+00:00</time>
        <ele>3648.0</ele>
      </trkpt>
      <trkpt lat="46.034367" lon="7.882069">
        <time>1970-01-01T00:00:00+00:00</time>
        <ele>3648.0</ele>
      </trkpt>
      <trkpt lat="46.034338" lon="7.882019">
        <time>1970-01-01T00:00:00+00:00</time>
        <ele>3649.0</ele>
      </trkpt>
      <trkpt lat="46.034338" lon="7.882019">
        <time>1970-01-01T00:00:00+00:00</time>
        <ele>3649.0</ele>
      </trkpt>
      <trkpt lat="46.034293" lon="7.882013">
        <time>1970-01-01T00:00:00+00:00</time>
        <ele>3651.0</ele>
      </trkpt>
      <trkpt lat="46.034293" lon="7.882013">
        <time>1970-01-01T00:00:00+00:00</time>
        <ele>3651.0</ele>
      </trkpt>
      <trkpt lat="46.034276" lon="7.881948">
        <time>1970-01-01T00:00:00+00:00</time>
        <ele>3651.0</ele>
      </trkpt>
      <trkpt lat="46.034276" lon="7.881948">
        <time>1970-01-01T00:00:00+00:00</time>
        <ele>3651.0</ele>
      </trkpt>
      <trkpt lat="46.034302" lon="7.882001">
        <time>1970-01-01T00:00:00+00:00</time>
        <ele>3650.0</ele>
      </trkpt>
      <trkpt lat="46.034302" lon="7.882001">
        <time>1970-01-01T00:00:00+00:00</time>
        <ele>3650.0</ele>
      </trkpt>
      <trkpt lat="46.034245" lon="7.882009">
        <time>1970-01-01T00:00:00+00:00</time>
        <ele>3653.0</ele>
      </trkpt>
      <trkpt lat="46.034245" lon="7.882009">
        <time>1970-01-01T00:00:00+00:00</time>
        <ele>3653.0</ele>
      </trkpt>
      <trkpt lat="46.03429" lon="7.882033">
        <time>1970-01-01T00:00:00+00:00</time>
        <ele>3651.0</ele>
      </trkpt>
      <trkpt lat="46.03429" lon="7.882033">
        <time>1970-01-01T00:00:00+00:00</time>
        <ele>3651.0</ele>
      </trkpt>
      <trkpt lat="46.034272" lon="7.88197">
        <time>1970-01-01T00:00:00+00:00</time>
        <ele>3651.0</ele>
      </trkpt>
      <trkpt lat="46.034272" lon="7.88197">
        <time>1970-01-01T00:00:00+00:00</time>
        <ele>3651.0</ele>
      </trkpt>
      <trkpt lat="46.034298" lon="7.881856">
        <time>1970-01-01T00:00:00+00:00</time>
        <ele>3649.0</ele>
      </trkpt>
      <trkpt lat="46.034298" lon="7.881856">
        <time>1970-01-01T00:00:00+00:00</time>
        <ele>3649.0</ele>
      </trkpt>
      <trkpt lat="46.034343" lon="7.881843">
        <time>1970-01-01T00:00:00+00:00</time>
        <ele>3647.0</ele>
      </trkpt>
      <trkpt lat="46.034343" lon="7.881843">
        <time>1970-01-01T00:00:00+00:00</time>
        <ele>3647.0</ele>
      </trkpt>
      <trkpt lat="46.03448331172119" lon="7.882005099255537">
        <time>1970-01-01T00:00:00+00:00</time>
        <ele>3641.0</ele>
      </trkpt>
      <trkpt lat="46.034504" lon="7.882029">
        <time>1970-01-01T00:00:00+00:00</time>
        <ele>3639.0</ele>
      </trkpt>
      <trkpt lat="46.034504" lon="7.882029">
        <time>1970-01-01T00:00:00+00:00</time>
        <ele>3639.0</ele>
      </trkpt>
      <trkpt lat="46.034577" lon="7.882064">
        <time>1970-01-01T00:00:00+00:00</time>
        <ele>3635.0</ele>
      </trkpt>
      <trkpt lat="46.034577" lon="7.882064">
        <time>1970-01-01T00:00:00+00:00</time>
        <ele>3635.0</ele>
      </trkpt>
      <trkpt lat="46.034643" lon="7.882024">
        <time>1970-01-01T00:00:00+00:00</time>
        <ele>3632.0</ele>
      </trkpt>
      <trkpt lat="46.034643" lon="7.882024">
        <time>1970-01-01T00:00:00+00:00</time>
        <ele>3632.0</ele>
      </trkpt>
      <trkpt lat="46.034695458850685" lon="7.8817761771536405">
        <time>1970-01-01T00:00:00+00:00</time>
        <ele>3625.0</ele>
      </trkpt>
      <trkpt lat="46.034701" lon="7.88175">
        <time>1970-01-01T00:00:00+00:00</time>
        <ele>3625.0</ele>
      </trkpt>
      <trkpt lat="46.034701" lon="7.88175">
        <time>1970-01-01T00:00:00+00:00</time>
        <ele>3625.0</ele>
      </trkpt>
      <trkpt lat="46.034711" lon="7.881683">
        <time>1970-01-01T00:00:00+00:00</time>
        <ele>3623.0</ele>
      </trkpt>
      <trkpt lat="46.034711" lon="7.881683">
        <time>1970-01-01T00:00:00+00:00</time>
        <ele>3623.0</ele>
      </trkpt>
      <trkpt lat="46.034713" lon="7.881563">
        <time>1970-01-01T00:00:00+00:00</time>
        <ele>3621.0</ele>
      </trkpt>
      <trkpt lat="46.034713" lon="7.881563">
        <time>1970-01-01T00:00:00+00:00</time>
        <ele>3621.0</ele>
      </trkpt>
      <trkpt lat="46.034734" lon="7.881483">
        <time>1970-01-01T00:00:00+00:00</time>
        <ele>3618.0</ele>
      </trkpt>
      <trkpt lat="46.034734" lon="7.881483">
        <time>1970-01-01T00:00:00+00:00</time>
        <ele>3618.0</ele>
      </trkpt>
      <trkpt lat="46.034807" lon="7.88148">
        <time>1970-01-01T00:00:00+00:00</time>
        <ele>3614.0</ele>
      </trkpt>
      <trkpt lat="46.034807" lon="7.88148">
        <time>1970-01-01T00:00:00+00:00</time>
        <ele>3614.0</ele>
      </trkpt>
      <trkpt lat="46.034872" lon="7.881448">
        <time>1970-01-01T00:00:00+00:00</time>
        <ele>3611.0</ele>
      </trkpt>
      <trkpt lat="46.034872" lon="7.881448">
        <time>1970-01-01T00:00:00+00:00</time>
        <ele>3611.0</ele>
      </trkpt>
      <trkpt lat="46.0349" lon="7.881352">
        <time>1970-01-01T00:00:00+00:00</time>
        <ele>3609.0</ele>
      </trkpt>
      <trkpt lat="46.0349" lon="7.881352">
        <time>1970-01-01T00:00:00+00:00</time>
        <ele>3609.0</ele>
      </trkpt>
      <trkpt lat="46.034925" lon="7.881169">
        <time>1970-01-01T00:00:00+00:00</time>
        <ele>3606.0</ele>
      </trkpt>
      <trkpt lat="46.034925" lon="7.881169">
        <time>1970-01-01T00:00:00+00:00</time>
        <ele>3606.0</ele>
      </trkpt>
      <trkpt lat="46.03494" lon="7.88094">
        <time>1970-01-01T00:00:00+00:00</time>
        <ele>3602.0</ele>
      </trkpt>
      <trkpt lat="46.03494" lon="7.88094">
        <time>1970-01-01T00:00:00+00:00</time>
        <ele>3602.0</ele>
      </trkpt>
      <trkpt lat="46.034957" lon="7.880745">
        <time>1970-01-01T00:00:00+00:00</time>
        <ele>3598.0</ele>
      </trkpt>
      <trkpt lat="46.034957" lon="7.880745">
        <time>1970-01-01T00:00:00+00:00</time>
        <ele>3598.0</ele>
      </trkpt>
      <trkpt lat="46.034957" lon="7.880567">
        <time>1970-01-01T00:00:00+00:00</time>
        <ele>3595.0</ele>
      </trkpt>
      <trkpt lat="46.034957" lon="7.880567">
        <time>1970-01-01T00:00:00+00:00</time>
        <ele>3595.0</ele>
      </trkpt>
      <trkpt lat="46.034941" lon="7.880362">
        <time>1970-01-01T00:00:00+00:00</time>
        <ele>3589.0</ele>
      </trkpt>
      <trkpt lat="46.034941" lon="7.880362">
        <time>1970-01-01T00:00:00+00:00</time>
        <ele>3589.0</ele>
      </trkpt>
      <trkpt lat="46.034961" lon="7.880261">
        <time>1970-01-01T00:00:00+00:00</time>
        <ele>3585.0</ele>
      </trkpt>
      <trkpt lat="46.034961" lon="7.880261">
        <time>1970-01-01T00:00:00+00:00</time>
        <ele>3585.0</ele>
      </trkpt>
      <trkpt lat="46.034944" lon="7.880093">
        <time>1970-01-01T00:00:00+00:00</time>
        <ele>3580.0</ele>
      </trkpt>
      <trkpt lat="46.034944" lon="7.880093">
        <time>1970-01-01T00:00:00+00:00</time>
        <ele>3580.0</ele>
      </trkpt>
      <trkpt lat="46.034964" lon="7.87993">
        <time>1970-01-01T00:00:00+00:00</time>
        <ele>3574.0</ele>
      </trkpt>
      <trkpt lat="46.034964" lon="7.87993">
        <time>1970-01-01T00:00:00+00:00</time>
        <ele>3574.0</ele>
      </trkpt>
      <trkpt lat="46.034974" lon="7.879807">
        <time>1970-01-01T00:00:00+00:00</time>
        <ele>3569.0</ele>
      </trkpt>
      <trkpt lat="46.034974" lon="7.879807">
        <time>1970-01-01T00:00:00+00:00</time>
        <ele>3569.0</ele>
      </trkpt>
      <trkpt lat="46.034991" lon="7.879744">
        <time>1970-01-01T00:00:00+00:00</time>
        <ele>3566.0</ele>
      </trkpt>
      <trkpt lat="46.034991" lon="7.879744">
        <time>1970-01-01T00:00:00+00:00</time>
        <ele>3566.0</ele>
      </trkpt>
      <trkpt lat="46.035026" lon="7.87969">
        <time>1970-01-01T00:00:00+00:00</time>
        <ele>3562.0</ele>
      </trkpt>
      <trkpt lat="46.035026" lon="7.87969">
        <time>1970-01-01T00:00:00+00:00</time>
        <ele>3562.0</ele>
      </trkpt>
      <trkpt lat="46.035095" lon="7.879735">
        <time>1970-01-01T00:00:00+00:00</time>
        <ele>3561.0</ele>
      </trkpt>
      <trkpt lat="46.035095" lon="7.879735">
        <time>1970-01-01T00:00:00+00:00</time>
        <ele>3561.0</ele>
      </trkpt>
      <trkpt lat="46.03514" lon="7.87969">
        <time>1970-01-01T00:00:00+00:00</time>
        <ele>3557.0</ele>
      </trkpt>
      <trkpt lat="46.03514" lon="7.87969">
        <time>1970-01-01T00:00:00+00:00</time>
        <ele>3557.0</ele>
      </trkpt>
      <trkpt lat="46.03513" lon="7.879511">
        <time>1970-01-01T00:00:00+00:00</time>
        <ele>3550.0</ele>
      </trkpt>
      <trkpt lat="46.03513" lon="7.879511">
        <time>1970-01-01T00:00:00+00:00</time>
        <ele>3550.0</ele>
      </trkpt>
      <trkpt lat="46.03511" lon="7.879444">
        <time>1970-01-01T00:00:00+00:00</time>
        <ele>3548.0</ele>
      </trkpt>
      <trkpt lat="46.03511" lon="7.879444">
        <time>1970-01-01T00:00:00+00:00</time>
        <ele>3548.0</ele>
      </trkpt>
      <trkpt lat="46.035076" lon="7.879401">
        <time>1970-01-01T00:00:00+00:00</time>
        <ele>3548.0</ele>
      </trkpt>
      <trkpt lat="46.035076" lon="7.879401">
        <time>1970-01-01T00:00:00+00:00</time>
        <ele>3548.0</ele>
      </trkpt>
      <trkpt lat="46.03513" lon="7.879432">
        <time>1970-01-01T00:00:00+00:00</time>
        <ele>3547.0</ele>
      </trkpt>
      <trkpt lat="46.03513" lon="7.879432">
        <time>1970-01-01T00:00:00+00:00</time>
        <ele>3547.0</ele>
      </trkpt>
      <trkpt lat="46.035183" lon="7.879458">
        <time>1970-01-01T00:00:00+00:00</time>
        <ele>3546.0</ele>
      </trkpt>
      <trkpt lat="46.035183" lon="7.879458">
        <time>1970-01-01T00:00:00+00:00</time>
        <ele>3546.0</ele>
      </trkpt>
      <trkpt lat="46.035204" lon="7.879394">
        <time>1970-01-01T00:00:00+00:00</time>
        <ele>3543.0</ele>
      </trkpt>
      <trkpt lat="46.035204" lon="7.879394">
        <time>1970-01-01T00:00:00+00:00</time>
        <ele>3543.0</ele>
      </trkpt>
      <trkpt lat="46.035145" lon="7.879282">
        <time>1970-01-01T00:00:00+00:00</time>
        <ele>3541.0</ele>
      </trkpt>
      <trkpt lat="46.035145" lon="7.879282">
        <time>1970-01-01T00:00:00+00:00</time>
        <ele>3541.0</ele>
      </trkpt>
      <trkpt lat="46.035289" lon="7.87931">
        <time>1970-01-01T00:00:00+00:00</time>
        <ele>3537.0</ele>
      </trkpt>
      <trkpt lat="46.035289" lon="7.87931">
        <time>1970-01-01T00:00:00+00:00</time>
        <ele>3537.0</ele>
      </trkpt>
      <trkpt lat="46.03545258061339" lon="7.879417723818574">
        <time>1970-01-01T00:00:00+00:00</time>
        <ele>3536.0</ele>
      </trkpt>
      <trkpt lat="46.035453" lon="7.879418">
        <time>1970-01-01T00:00:00+00:00</time>
        <ele>3536.0</ele>
      </trkpt>
      <trkpt lat="46.035453" lon="7.879418">
        <time>1970-01-01T00:00:00+00:00</time>
        <ele>3536.0</ele>
      </trkpt>
      <trkpt lat="46.035473" lon="7.879353">
        <time>1970-01-01T00:00:00+00:00</time>
        <ele>3534.0</ele>
      </trkpt>
      <trkpt lat="46.035473" lon="7.879353">
        <time>1970-01-01T00:00:00+00:00</time>
        <ele>3534.0</ele>
      </trkpt>
      <trkpt lat="46.03545" lon="7.87926">
        <time>1970-01-01T00:00:00+00:00</time>
        <ele>3531.0</ele>
      </trkpt>
      <trkpt lat="46.03545" lon="7.87926">
        <time>1970-01-01T00:00:00+00:00</time>
        <ele>3531.0</ele>
      </trkpt>
      <trkpt lat="46.035428" lon="7.879187">
        <time>1970-01-01T00:00:00+00:00</time>
        <ele>3530.0</ele>
      </trkpt>
      <trkpt lat="46.035428" lon="7.879187">
        <time>1970-01-01T00:00:00+00:00</time>
        <ele>3530.0</ele>
      </trkpt>
      <trkpt lat="46.035504" lon="7.879176">
        <time>1970-01-01T00:00:00+00:00</time>
        <ele>3528.0</ele>
      </trkpt>
      <trkpt lat="46.035504" lon="7.879176">
        <time>1970-01-01T00:00:00+00:00</time>
        <ele>3528.0</ele>
      </trkpt>
      <trkpt lat="46.035554" lon="7.879131">
        <time>1970-01-01T00:00:00+00:00</time>
        <ele>3526.0</ele>
      </trkpt>
      <trkpt lat="46.035554" lon="7.879131">
        <time>1970-01-01T00:00:00+00:00</time>
        <ele>3526.0</ele>
      </trkpt>
      <trkpt lat="46.03548771763413" lon="7.8788901429522085">
        <time>1970-01-01T00:00:00+00:00</time>
        <ele>3522.0</ele>
      </trkpt>
      <trkpt lat="46.035483" lon="7.878873">
        <time>1970-01-01T00:00:00+00:00</time>
        <ele>3521.0</ele>
      </trkpt>
      <trkpt lat="46.035483" lon="7.878873">
        <time>1970-01-01T00:00:00+00:00</time>
        <ele>3521.0</ele>
      </trkpt>
      <trkpt lat="46.0354032957599" lon="7.878640736862824">
        <time>1970-01-01T00:00:00+00:00</time>
        <ele>3517.0</ele>
      </trkpt>
      <trkpt lat="46.035355" lon="7.8785">
        <time>1970-01-01T00:00:00+00:00</time>
        <ele>3516.0</ele>
      </trkpt>
      <trkpt lat="46.035355" lon="7.8785">
        <time>1970-01-01T00:00:00+00:00</time>
        <ele>3516.0</ele>
      </trkpt>
      <trkpt lat="46.035293" lon="7.878493">
        <time>1970-01-01T00:00:00+00:00</time>
        <ele>3518.0</ele>
      </trkpt>
      <trkpt lat="46.035293" lon="7.878493">
        <time>1970-01-01T00:00:00+00:00</time>
        <ele>3518.0</ele>
      </trkpt>
      <trkpt lat="46.03532119969739" lon="7.878237113856965">
        <time>1970-01-01T00:00:00+00:00</time>
        <ele>3515.0</ele>
      </trkpt>
      <trkpt lat="46.035347" lon="7.878003">
        <time>1970-01-01T00:00:00+00:00</time>
        <ele>3513.0</ele>
      </trkpt>
      <trkpt lat="46.035347" lon="7.878003">
        <time>1970-01-01T00:00:00+00:00</time>
        <ele>3513.0</ele>
      </trkpt>
      <trkpt lat="46.035366406561224" lon="7.877745422005555">
        <time>1970-01-01T00:00:00+00:00</time>
        <ele>3511.0</ele>
      </trkpt>
      <trkpt lat="46.03538" lon="7.877565">
        <time>1970-01-01T00:00:00+00:00</time>
        <ele>3511.0</ele>
      </trkpt>
      <trkpt lat="46.03538" lon="7.877565">
        <time>1970-01-01T00:00:00+00:00</time>
        <ele>3511.0</ele>
      </trkpt>
      <trkpt lat="46.035429" lon="7.877547">
        <time>1970-01-01T00:00:00+00:00</time>
        <ele>3510.0</ele>
      </trkpt>
      <trkpt lat="46.035429" lon="7.877547">
        <time>1970-01-01T00:00:00+00:00</time>
        <ele>3510.0</ele>
      </trkpt>
      <trkpt lat="46.035381" lon="7.877549">
        <time>1970-01-01T00:00:00+00:00</time>
        <ele>3511.0</ele>
      </trkpt>
      <trkpt lat="46.035381" lon="7.877549">
        <time>1970-01-01T00:00:00+00:00</time>
        <ele>3511.0</ele>
      </trkpt>
      <trkpt lat="46.03536" lon="7.877489">
        <time>1970-01-01T00:00:00+00:00</time>
        <ele>3511.0</ele>
      </trkpt>
      <trkpt lat="46.03536" lon="7.877489">
        <time>1970-01-01T00:00:00+00:00</time>
        <ele>3511.0</ele>
      </trkpt>
      <trkpt lat="46.035406" lon="7.877533">
        <time>1970-01-01T00:00:00+00:00</time>
        <ele>3510.0</ele>
      </trkpt>
      <trkpt lat="46.035406" lon="7.877533">
        <time>1970-01-01T00:00:00+00:00</time>
        <ele>3510.0</ele>
      </trkpt>
      <trkpt lat="46.03538" lon="7.877592">
        <time>1970-01-01T00:00:00+00:00</time>
        <ele>3511.0</ele>
      </trkpt>
      <trkpt lat="46.03538" lon="7.877592">
        <time>1970-01-01T00:00:00+00:00</time>
        <ele>3511.0</ele>
      </trkpt>
      <trkpt lat="46.035327" lon="7.877561">
        <time>1970-01-01T00:00:00+00:00</time>
        <ele>3511.0</ele>
      </trkpt>
      <trkpt lat="46.035327" lon="7.877561">
        <time>1970-01-01T00:00:00+00:00</time>
        <ele>3511.0</ele>
      </trkpt>
      <trkpt lat="46.035226" lon="7.877546">
        <time>1970-01-01T00:00:00+00:00</time>
        <ele>3515.0</ele>
      </trkpt>
      <trkpt lat="46.035226" lon="7.877546">
        <time>1970-01-01T00:00:00+00:00</time>
        <ele>3515.0</ele>
      </trkpt>
      <trkpt lat="46.035155" lon="7.877508">
        <time>1970-01-01T00:00:00+00:00</time>
        <ele>3517.0</ele>
      </trkpt>
      <trkpt lat="46.035155" lon="7.877508">
        <time>1970-01-01T00:00:00+00:00</time>
        <ele>3517.0</ele>
      </trkpt>
      <trkpt lat="46.035088" lon="7.877498">
        <time>1970-01-01T00:00:00+00:00</time>
        <ele>3520.0</ele>
      </trkpt>
      <trkpt lat="46.035088" lon="7.877498">
        <time>1970-01-01T00:00:00+00:00</time>
        <ele>3520.0</ele>
      </trkpt>
      <trkpt lat="46.034971" lon="7.877458">
        <time>1970-01-01T00:00:00+00:00</time>
        <ele>3524.0</ele>
      </trkpt>
      <trkpt lat="46.034971" lon="7.877458">
        <time>1970-01-01T00:00:00+00:00</time>
        <ele>3524.0</ele>
      </trkpt>
      <trkpt lat="46.034895" lon="7.877437">
        <time>1970-01-01T00:00:00+00:00</time>
        <ele>3526.0</ele>
      </trkpt>
      <trkpt lat="46.034895" lon="7.877437">
        <time>1970-01-01T00:00:00+00:00</time>
        <ele>3526.0</ele>
      </trkpt>
      <trkpt lat="46.03471753891321" lon="7.8773947883822695">
        <time>1970-01-01T00:00:00+00:00</time>
        <ele>3531.0</ele>
      </trkpt>
      <trkpt lat="46.034689" lon="7.877388">
        <time>1970-01-01T00:00:00+00:00</time>
        <ele>3532.0</ele>
      </trkpt>
      <trkpt lat="46.034689" lon="7.877388">
        <time>1970-01-01T00:00:00+00:00</time>
        <ele>3532.0</ele>
      </trkpt>
      <trkpt lat="46.03453098493744" lon="7.877264234507649">
        <time>1970-01-01T00:00:00+00:00</time>
        <ele>3537.0</ele>
      </trkpt>
      <trkpt lat="46.034486" lon="7.877229">
        <time>1970-01-01T00:00:00+00:00</time>
        <ele>3539.0</ele>
      </trkpt>
      <trkpt lat="46.034486" lon="7.877229">
        <time>1970-01-01T00:00:00+00:00</time>
        <ele>3539.0</ele>
      </trkpt>
      <trkpt lat="46.0343513223153" lon="7.877057271249215">
        <time>1970-01-01T00:00:00+00:00</time>
        <ele>3540.0</ele>
      </trkpt>
      <trkpt lat="46.034257" lon="7.876937">
        <time>1970-01-01T00:00:00+00:00</time>
        <ele>3539.0</ele>
      </trkpt>
      <trkpt lat="46.034257" lon="7.876937">
        <time>1970-01-01T00:00:00+00:00</time>
        <ele>3539.0</ele>
      </trkpt>
      <trkpt lat="46.03409339830278" lon="7.876829344997166">
        <time>1970-01-01T00:00:00+00:00</time>
        <ele>3542.0</ele>
      </trkpt>
      <trkpt lat="46.034064" lon="7.87681">
        <time>1970-01-01T00:00:00+00:00</time>
        <ele>3543.0</ele>
      </trkpt>
      <trkpt lat="46.034064" lon="7.87681">
        <time>1970-01-01T00:00:00+00:00</time>
        <ele>3543.0</ele>
      </trkpt>
      <trkpt lat="46.034005" lon="7.876734">
        <time>1970-01-01T00:00:00+00:00</time>
        <ele>3544.0</ele>
      </trkpt>
      <trkpt lat="46.034005" lon="7.876734">
        <time>1970-01-01T00:00:00+00:00</time>
        <ele>3544.0</ele>
      </trkpt>
      <trkpt lat="46.033941" lon="7.876678">
        <time>1970-01-01T00:00:00+00:00</time>
        <ele>3546.0</ele>
      </trkpt>
      <trkpt lat="46.033941" lon="7.876678">
        <time>1970-01-01T00:00:00+00:00</time>
        <ele>3546.0</ele>
      </trkpt>
      <trkpt lat="46.033888" lon="7.876679">
        <time>1970-01-01T00:00:00+00:00</time>
        <ele>3549.0</ele>
      </trkpt>
      <trkpt lat="46.033888" lon="7.876679">
        <time>1970-01-01T00:00:00+00:00</time>
        <ele>3549.0</ele>
      </trkpt>
      <trkpt lat="46.033837" lon="7.876716">
        <time>1970-01-01T00:00:00+00:00</time>
        <ele>3552.0</ele>
      </trkpt>
      <trkpt lat="46.033837" lon="7.876716">
        <time>1970-01-01T00:00:00+00:00</time>
        <ele>3552.0</ele>
      </trkpt>
      <trkpt lat="46.033733" lon="7.876702">
        <time>1970-01-01T00:00:00+00:00</time>
        <ele>3556.0</ele>
      </trkpt>
      <trkpt lat="46.033733" lon="7.876702">
        <time>1970-01-01T00:00:00+00:00</time>
        <ele>3556.0</ele>
      </trkpt>
      <trkpt lat="46.03364" lon="7.876686">
        <time>1970-01-01T00:00:00+00:00</time>
        <ele>3559.0</ele>
      </trkpt>
      <trkpt lat="46.03364" lon="7.876686">
        <time>1970-01-01T00:00:00+00:00</time>
        <ele>3559.0</ele>
      </trkpt>
      <trkpt lat="46.033484" lon="7.876695">
        <time>1970-01-01T00:00:00+00:00</time>
        <ele>3567.0</ele>
      </trkpt>
      <trkpt lat="46.033484" lon="7.876695">
        <time>1970-01-01T00:00:00+00:00</time>
        <ele>3567.0</ele>
      </trkpt>
      <trkpt lat="46.033419" lon="7.876714">
        <time>1970-01-01T00:00:00+00:00</time>
        <ele>3570.0</ele>
      </trkpt>
      <trkpt lat="46.033419" lon="7.876714">
        <time>1970-01-01T00:00:00+00:00</time>
        <ele>3570.0</ele>
      </trkpt>
      <trkpt lat="46.033376" lon="7.876753">
        <time>1970-01-01T00:00:00+00:00</time>
        <ele>3572.0</ele>
      </trkpt>
      <trkpt lat="46.033376" lon="7.876753">
        <time>1970-01-01T00:00:00+00:00</time>
        <ele>3572.0</ele>
      </trkpt>
      <trkpt lat="46.033328" lon="7.876766">
        <time>1970-01-01T00:00:00+00:00</time>
        <ele>3573.0</ele>
      </trkpt>
      <trkpt lat="46.033328" lon="7.876766">
        <time>1970-01-01T00:00:00+00:00</time>
        <ele>3573.0</ele>
      </trkpt>
      <trkpt lat="46.033271" lon="7.876778">
        <time>1970-01-01T00:00:00+00:00</time>
        <ele>3575.0</ele>
      </trkpt>
      <trkpt lat="46.033271" lon="7.876778">
        <time>1970-01-01T00:00:00+00:00</time>
        <ele>3575.0</ele>
      </trkpt>
      <trkpt lat="46.033192" lon="7.876776">
        <time>1970-01-01T00:00:00+00:00</time>
        <ele>3577.0</ele>
      </trkpt>
      <trkpt lat="46.033192" lon="7.876776">
        <time>1970-01-01T00:00:00+00:00</time>
        <ele>3577.0</ele>
      </trkpt>
      <trkpt lat="46.03309" lon="7.876803">
        <time>1970-01-01T00:00:00+00:00</time>
        <ele>3578.0</ele>
      </trkpt>
      <trkpt lat="46.03309" lon="7.876803">
        <time>1970-01-01T00:00:00+00:00</time>
        <ele>3578.0</ele>
      </trkpt>
      <trkpt lat="46.033035" lon="7.876807">
        <time>1970-01-01T00:00:00+00:00</time>
        <ele>3579.0</ele>
      </trkpt>
      <trkpt lat="46.033035" lon="7.876807">
        <time>1970-01-01T00:00:00+00:00</time>
        <ele>3579.0</ele>
      </trkpt>
      <trkpt lat="46.032969" lon="7.876818">
        <time>1970-01-01T00:00:00+00:00</time>
        <ele>3580.0</ele>
      </trkpt>
      <trkpt lat="46.032969" lon="7.876818">
        <time>1970-01-01T00:00:00+00:00</time>
        <ele>3580.0</ele>
      </trkpt>
      <trkpt lat="46.032925" lon="7.876876">
        <time>1970-01-01T00:00:00+00:00</time>
        <ele>3580.0</ele>
      </trkpt>
      <trkpt lat="46.032925" lon="7.876876">
        <time>1970-01-01T00:00:00+00:00</time>
        <ele>3580.0</ele>
      </trkpt>
      <trkpt lat="46.032803" lon="7.87703">
        <time>1970-01-01T00:00:00+00:00</time>
        <ele>3580.0</ele>
      </trkpt>
      <trkpt lat="46.032803" lon="7.87703">
        <time>1970-01-01T00:00:00+00:00</time>
        <ele>3580.0</ele>
      </trkpt>
      <trkpt lat="46.032719" lon="7.877141">
        <time>1970-01-01T00:00:00+00:00</time>
        <ele>3581.0</ele>
      </trkpt>
      <trkpt lat="46.032719" lon="7.877141">
        <time>1970-01-01T00:00:00+00:00</time>
        <ele>3581.0</ele>
      </trkpt>
      <trkpt lat="46.032563" lon="7.877234">
        <time>1970-01-01T00:00:00+00:00</time>
        <ele>3584.0</ele>
      </trkpt>
      <trkpt lat="46.032563" lon="7.877234">
        <time>1970-01-01T00:00:00+00:00</time>
        <ele>3584.0</ele>
      </trkpt>
      <trkpt lat="46.032489" lon="7.877253">
        <time>1970-01-01T00:00:00+00:00</time>
        <ele>3585.0</ele>
      </trkpt>
      <trkpt lat="46.032489" lon="7.877253">
        <time>1970-01-01T00:00:00+00:00</time>
        <ele>3585.0</ele>
      </trkpt>
      <trkpt lat="46.032366" lon="7.877307">
        <time>1970-01-01T00:00:00+00:00</time>
        <ele>3589.0</ele>
      </trkpt>
      <trkpt lat="46.032366" lon="7.877307">
        <time>1970-01-01T00:00:00+00:00</time>
        <ele>3589.0</ele>
      </trkpt>
      <trkpt lat="46.032325" lon="7.877347">
        <time>1970-01-01T00:00:00+00:00</time>
        <ele>3590.0</ele>
      </trkpt>
      <trkpt lat="46.032325" lon="7.877347">
        <time>1970-01-01T00:00:00+00:00</time>
        <ele>3590.0</ele>
      </trkpt>
      <trkpt lat="46.03215" lon="7.877381">
        <time>1970-01-01T00:00:00+00:00</time>
        <ele>3593.0</ele>
      </trkpt>
      <trkpt lat="46.03215" lon="7.877381">
        <time>1970-01-01T00:00:00+00:00</time>
        <ele>3593.0</ele>
      </trkpt>
      <trkpt lat="46.032028" lon="7.877434">
        <time>1970-01-01T00:00:00+00:00</time>
        <ele>3598.0</ele>
      </trkpt>
      <trkpt lat="46.032028" lon="7.877434">
        <time>1970-01-01T00:00:00+00:00</time>
        <ele>3598.0</ele>
      </trkpt>
      <trkpt lat="46.031908" lon="7.877475">
        <time>1970-01-01T00:00:00+00:00</time>
        <ele>3602.0</ele>
      </trkpt>
      <trkpt lat="46.031908" lon="7.877475">
        <time>1970-01-01T00:00:00+00:00</time>
        <ele>3602.0</ele>
      </trkpt>
      <trkpt lat="46.031867" lon="7.877508">
        <time>1970-01-01T00:00:00+00:00</time>
        <ele>3604.0</ele>
      </trkpt>
      <trkpt lat="46.031867" lon="7.877508">
        <time>1970-01-01T00:00:00+00:00</time>
        <ele>3604.0</ele>
      </trkpt>
      <trkpt lat="46.031803" lon="7.87754">
        <time>1970-01-01T00:00:00+00:00</time>
        <ele>3606.0</ele>
      </trkpt>
      <trkpt lat="46.031803" lon="7.87754">
        <time>1970-01-01T00:00:00+00:00</time>
        <ele>3606.0</ele>
      </trkpt>
      <trkpt lat="46.031671" lon="7.877577">
        <time>1970-01-01T00:00:00+00:00</time>
        <ele>3607.0</ele>
      </trkpt>
      <trkpt lat="46.031671" lon="7.877577">
        <time>1970-01-01T00:00:00+00:00</time>
        <ele>3607.0</ele>
      </trkpt>
      <trkpt lat="46.031579" lon="7.877598">
        <time>1970-01-01T00:00:00+00:00</time>
        <ele>3607.0</ele>
      </trkpt>
      <trkpt lat="46.031579" lon="7.877598">
        <time>1970-01-01T00:00:00+00:00</time>
        <ele>3607.0</ele>
      </trkpt>
      <trkpt lat="46.031504" lon="7.877605">
        <time>1970-01-01T00:00:00+00:00</time>
        <ele>3607.0</ele>
      </trkpt>
      <trkpt lat="46.031504" lon="7.877605">
        <time>1970-01-01T00:00:00+00:00</time>
        <ele>3607.0</ele>
      </trkpt>
      <trkpt lat="46.031444" lon="7.877607">
        <time>1970-01-01T00:00:00+00:00</time>
        <ele>3607.0</ele>
      </trkpt>
      <trkpt lat="46.031444" lon="7.877607">
        <time>1970-01-01T00:00:00+00:00</time>
        <ele>3607.0</ele>
      </trkpt>
      <trkpt lat="46.031393" lon="7.87761">
        <time>1970-01-01T00:00:00+00:00</time>
        <ele>3607.0</ele>
      </trkpt>
      <trkpt lat="46.031393" lon="7.87761">
        <time>1970-01-01T00:00:00+00:00</time>
        <ele>3607.0</ele>
      </trkpt>
      <trkpt lat="46.03126" lon="7.877644">
        <time>1970-01-01T00:00:00+00:00</time>
        <ele>3608.0</ele>
      </trkpt>
      <trkpt lat="46.03126" lon="7.877644">
        <time>1970-01-01T00:00:00+00:00</time>
        <ele>3608.0</ele>
      </trkpt>
      <trkpt lat="46.031153" lon="7.877646">
        <time>1970-01-01T00:00:00+00:00</time>
        <ele>3609.0</ele>
      </trkpt>
      <trkpt lat="46.031153" lon="7.877646">
        <time>1970-01-01T00:00:00+00:00</time>
        <ele>3609.0</ele>
      </trkpt>
      <trkpt lat="46.031085" lon="7.877633">
        <time>1970-01-01T00:00:00+00:00</time>
        <ele>3609.0</ele>
      </trkpt>
      <trkpt lat="46.031085" lon="7.877633">
        <time>1970-01-01T00:00:00+00:00</time>
        <ele>3609.0</ele>
      </trkpt>
      <trkpt lat="46.031021" lon="7.877632">
        <time>1970-01-01T00:00:00+00:00</time>
        <ele>3610.0</ele>
      </trkpt>
      <trkpt lat="46.031021" lon="7.877632">
        <time>1970-01-01T00:00:00+00:00</time>
        <ele>3610.0</ele>
      </trkpt>
      <trkpt lat="46.030923" lon="7.877587">
        <time>1970-01-01T00:00:00+00:00</time>
        <ele>3611.0</ele>
      </trkpt>
      <trkpt lat="46.030923" lon="7.877587">
        <time>1970-01-01T00:00:00+00:00</time>
        <ele>3611.0</ele>
      </trkpt>
      <trkpt lat="46.030827" lon="7.877527">
        <time>1970-01-01T00:00:00+00:00</time>
        <ele>3613.0</ele>
      </trkpt>
      <trkpt lat="46.030827" lon="7.877527">
        <time>1970-01-01T00:00:00+00:00</time>
        <ele>3613.0</ele>
      </trkpt>
      <trkpt lat="46.030788" lon="7.87748">
        <time>1970-01-01T00:00:00+00:00</time>
        <ele>3614.0</ele>
      </trkpt>
      <trkpt lat="46.030788" lon="7.87748">
        <time>1970-01-01T00:00:00+00:00</time>
        <ele>3614.0</ele>
      </trkpt>
      <trkpt lat="46.030724" lon="7.877437">
        <time>1970-01-01T00:00:00+00:00</time>
        <ele>3616.0</ele>
      </trkpt>
      <trkpt lat="46.030724" lon="7.877437">
        <time>1970-01-01T00:00:00+00:00</time>
        <ele>3616.0</ele>
      </trkpt>
      <trkpt lat="46.030571116836455" lon="7.877300523810106">
        <time>1970-01-01T00:00:00+00:00</time>
        <ele>3619.0</ele>
      </trkpt>
      <trkpt lat="46.030519" lon="7.877254">
        <time>1970-01-01T00:00:00+00:00</time>
        <ele>3619.0</ele>
      </trkpt>
      <trkpt lat="46.030519" lon="7.877254">
        <time>1970-01-01T00:00:00+00:00</time>
        <ele>3619.0</ele>
      </trkpt>
      <trkpt lat="46.030381616385945" lon="7.877086789680257">
        <time>1970-01-01T00:00:00+00:00</time>
        <ele>3621.0</ele>
      </trkpt>
      <trkpt lat="46.030367" lon="7.877069">
        <time>1970-01-01T00:00:00+00:00</time>
        <ele>3621.0</ele>
      </trkpt>
      <trkpt lat="46.030367" lon="7.877069">
        <time>1970-01-01T00:00:00+00:00</time>
        <ele>3621.0</ele>
      </trkpt>
      <trkpt lat="46.030264" lon="7.876997">
        <time>1970-01-01T00:00:00+00:00</time>
        <ele>3625.0</ele>
      </trkpt>
      <trkpt lat="46.030264" lon="7.876997">
        <time>1970-01-01T00:00:00+00:00</time>
        <ele>3625.0</ele>
      </trkpt>
      <trkpt lat="46.030184" lon="7.876885">
        <time>1970-01-01T00:00:00+00:00</time>
        <ele>3626.0</ele>
      </trkpt>
      <trkpt lat="46.030184" lon="7.876885">
        <time>1970-01-01T00:00:00+00:00</time>
        <ele>3626.0</ele>
      </trkpt>
      <trkpt lat="46.030159" lon="7.876829">
        <time>1970-01-01T00:00:00+00:00</time>
        <ele>3625.0</ele>
      </trkpt>
      <trkpt lat="46.030159" lon="7.876829">
        <time>1970-01-01T00:00:00+00:00</time>
        <ele>3625.0</ele>
      </trkpt>
      <trkpt lat="46.030121" lon="7.876735">
        <time>1970-01-01T00:00:00+00:00</time>
        <ele>3625.0</ele>
      </trkpt>
      <trkpt lat="46.030121" lon="7.876735">
        <time>1970-01-01T00:00:00+00:00</time>
        <ele>3625.0</ele>
      </trkpt>
      <trkpt lat="46.030105" lon="7.876673">
        <time>1970-01-01T00:00:00+00:00</time>
        <ele>3624.0</ele>
      </trkpt>
      <trkpt lat="46.030105" lon="7.876673">
        <time>1970-01-01T00:00:00+00:00</time>
        <ele>3624.0</ele>
      </trkpt>
      <trkpt lat="46.030037" lon="7.876527">
        <time>1970-01-01T00:00:00+00:00</time>
        <ele>3622.0</ele>
      </trkpt>
      <trkpt lat="46.030037" lon="7.876527">
        <time>1970-01-01T00:00:00+00:00</time>
        <ele>3622.0</ele>
      </trkpt>
      <trkpt lat="46.0298936193427" lon="7.87637058473749">
        <time>1970-01-01T00:00:00+00:00</time>
        <ele>3622.0</ele>
      </trkpt>
      <trkpt lat="46.029883" lon="7.876359">
        <time>1970-01-01T00:00:00+00:00</time>
        <ele>3622.0</ele>
      </trkpt>
      <trkpt lat="46.029883" lon="7.876359">
        <time>1970-01-01T00:00:00+00:00</time>
        <ele>3622.0</ele>
      </trkpt>
      <trkpt lat="46.029808" lon="7.876375">
        <time>1970-01-01T00:00:00+00:00</time>
        <ele>3626.0</ele>
      </trkpt>
      <trkpt lat="46.029808" lon="7.876375">
        <time>1970-01-01T00:00:00+00:00</time>
        <ele>3626.0</ele>
      </trkpt>
      <trkpt lat="46.029837" lon="7.876206">
        <time>1970-01-01T00:00:00+00:00</time>
        <ele>3620.0</ele>
      </trkpt>
      <trkpt lat="46.029837" lon="7.876206">
        <time>1970-01-01T00:00:00+00:00</time>
        <ele>3620.0</ele>
      </trkpt>
      <trkpt lat="46.029785" lon="7.876281">
        <time>1970-01-01T00:00:00+00:00</time>
        <ele>3624.0</ele>
      </trkpt>
      <trkpt lat="46.029785" lon="7.876281">
        <time>1970-01-01T00:00:00+00:00</time>
        <ele>3624.0</ele>
      </trkpt>
      <trkpt lat="46.029728" lon="7.876398">
        <time>1970-01-01T00:00:00+00:00</time>
        <ele>3630.0</ele>
      </trkpt>
      <trkpt lat="46.029728" lon="7.876398">
        <time>1970-01-01T00:00:00+00:00</time>
        <ele>3630.0</ele>
      </trkpt>
      <trkpt lat="46.029685" lon="7.876435">
        <time>1970-01-01T00:00:00+00:00</time>
        <ele>3632.0</ele>
      </trkpt>
      <trkpt lat="46.029685" lon="7.876435">
        <time>1970-01-01T00:00:00+00:00</time>
        <ele>3632.0</ele>
      </trkpt>
      <trkpt lat="46.029616" lon="7.876527">
        <time>1970-01-01T00:00:00+00:00</time>
        <ele>3637.0</ele>
      </trkpt>
      <trkpt lat="46.029616" lon="7.876527">
        <time>1970-01-01T00:00:00+00:00</time>
        <ele>3637.0</ele>
      </trkpt>
      <trkpt lat="46.029568" lon="7.876672">
        <time>1970-01-01T00:00:00+00:00</time>
        <ele>3641.0</ele>
      </trkpt>
      <trkpt lat="46.029568" lon="7.876672">
        <time>1970-01-01T00:00:00+00:00</time>
        <ele>3641.0</ele>
      </trkpt>
      <trkpt lat="46.029577" lon="7.876741">
        <time>1970-01-01T00:00:00+00:00</time>
        <ele>3642.0</ele>
      </trkpt>
      <trkpt lat="46.029577" lon="7.876741">
        <time>1970-01-01T00:00:00+00:00</time>
        <ele>3642.0</ele>
      </trkpt>
      <trkpt lat="46.029537" lon="7.876783">
        <time>1970-01-01T00:00:00+00:00</time>
        <ele>3644.0</ele>
      </trkpt>
      <trkpt lat="46.029537" lon="7.876783">
        <time>1970-01-01T00:00:00+00:00</time>
        <ele>3644.0</ele>
      </trkpt>
      <trkpt lat="46.029496" lon="7.876843">
        <time>1970-01-01T00:00:00+00:00</time>
        <ele>3646.0</ele>
      </trkpt>
      <trkpt lat="46.029496" lon="7.876843">
        <time>1970-01-01T00:00:00+00:00</time>
        <ele>3646.0</ele>
      </trkpt>
      <trkpt lat="46.029447" lon="7.87687">
        <time>1970-01-01T00:00:00+00:00</time>
        <ele>3648.0</ele>
      </trkpt>
      <trkpt lat="46.029447" lon="7.87687">
        <time>1970-01-01T00:00:00+00:00</time>
        <ele>3648.0</ele>
      </trkpt>
      <trkpt lat="46.02936" lon="7.876971">
        <time>1970-01-01T00:00:00+00:00</time>
        <ele>3650.0</ele>
      </trkpt>
      <trkpt lat="46.02936" lon="7.876971">
        <time>1970-01-01T00:00:00+00:00</time>
        <ele>3650.0</ele>
      </trkpt>
      <trkpt lat="46.029298" lon="7.877026">
        <time>1970-01-01T00:00:00+00:00</time>
        <ele>3651.0</ele>
      </trkpt>
      <trkpt lat="46.029298" lon="7.877026">
        <time>1970-01-01T00:00:00+00:00</time>
        <ele>3651.0</ele>
      </trkpt>
      <trkpt lat="46.029238" lon="7.877078">
        <time>1970-01-01T00:00:00+00:00</time>
        <ele>3652.0</ele>
      </trkpt>
      <trkpt lat="46.029238" lon="7.877078">
        <time>1970-01-01T00:00:00+00:00</time>
        <ele>3652.0</ele>
      </trkpt>
      <trkpt lat="46.029214" lon="7.877139">
        <time>1970-01-01T00:00:00+00:00</time>
        <ele>3653.0</ele>
      </trkpt>
      <trkpt lat="46.029214" lon="7.877139">
        <time>1970-01-01T00:00:00+00:00</time>
        <ele>3653.0</ele>
      </trkpt>
      <trkpt lat="46.029159" lon="7.877189">
        <time>1970-01-01T00:00:00+00:00</time>
        <ele>3654.0</ele>
      </trkpt>
      <trkpt lat="46.029159" lon="7.877189">
        <time>1970-01-01T00:00:00+00:00</time>
        <ele>3654.0</ele>
      </trkpt>
      <trkpt lat="46.02904" lon="7.877318">
        <time>1970-01-01T00:00:00+00:00</time>
        <ele>3654.0</ele>
      </trkpt>
      <trkpt lat="46.02904" lon="7.877318">
        <time>1970-01-01T00:00:00+00:00</time>
        <ele>3654.0</ele>
      </trkpt>
      <trkpt lat="46.028941" lon="7.877396">
        <time>1970-01-01T00:00:00+00:00</time>
        <ele>3654.0</ele>
      </trkpt>
      <trkpt lat="46.028941" lon="7.877396">
        <time>1970-01-01T00:00:00+00:00</time>
        <ele>3654.0</ele>
      </trkpt>
      <trkpt lat="46.028895" lon="7.877421">
        <time>1970-01-01T00:00:00+00:00</time>
        <ele>3654.0</ele>
      </trkpt>
      <trkpt lat="46.028895" lon="7.877421">
        <time>1970-01-01T00:00:00+00:00</time>
        <ele>3654.0</ele>
      </trkpt>
      <trkpt lat="46.028773" lon="7.87755">
        <time>1970-01-01T00:00:00+00:00</time>
        <ele>3656.0</ele>
      </trkpt>
      <trkpt lat="46.028773" lon="7.87755">
        <time>1970-01-01T00:00:00+00:00</time>
        <ele>3656.0</ele>
      </trkpt>
      <trkpt lat="46.028678" lon="7.877677">
        <time>1970-01-01T00:00:00+00:00</time>
        <ele>3658.0</ele>
      </trkpt>
      <trkpt lat="46.028678" lon="7.877677">
        <time>1970-01-01T00:00:00+00:00</time>
        <ele>3658.0</ele>
      </trkpt>
      <trkpt lat="46.028629" lon="7.877779">
        <time>1970-01-01T00:00:00+00:00</time>
        <ele>3660.0</ele>
      </trkpt>
      <trkpt lat="46.028629" lon="7.877779">
        <time>1970-01-01T00:00:00+00:00</time>
        <ele>3660.0</ele>
      </trkpt>
      <trkpt lat="46.028559" lon="7.877887">
        <time>1970-01-01T00:00:00+00:00</time>
        <ele>3662.0</ele>
      </trkpt>
      <trkpt lat="46.028559" lon="7.877887">
        <time>1970-01-01T00:00:00+00:00</time>
        <ele>3662.0</ele>
      </trkpt>
      <trkpt lat="46.028516" lon="7.877927">
        <time>1970-01-01T00:00:00+00:00</time>
        <ele>3663.0</ele>
      </trkpt>
      <trkpt lat="46.028516" lon="7.877927">
        <time>1970-01-01T00:00:00+00:00</time>
        <ele>3663.0</ele>
      </trkpt>
      <trkpt lat="46.028487" lon="7.877984">
        <time>1970-01-01T00:00:00+00:00</time>
        <ele>3664.0</ele>
      </trkpt>
      <trkpt lat="46.028487" lon="7.877984">
        <time>1970-01-01T00:00:00+00:00</time>
        <ele>3664.0</ele>
      </trkpt>
      <trkpt lat="46.028378" lon="7.878149">
        <time>1970-01-01T00:00:00+00:00</time>
        <ele>3668.0</ele>
      </trkpt>
      <trkpt lat="46.028378" lon="7.878149">
        <time>1970-01-01T00:00:00+00:00</time>
        <ele>3668.0</ele>
      </trkpt>
      <trkpt lat="46.028347" lon="7.878211">
        <time>1970-01-01T00:00:00+00:00</time>
        <ele>3669.0</ele>
      </trkpt>
      <trkpt lat="46.028347" lon="7.878211">
        <time>1970-01-01T00:00:00+00:00</time>
        <ele>3669.0</ele>
      </trkpt>
      <trkpt lat="46.028306" lon="7.878256">
        <time>1970-01-01T00:00:00+00:00</time>
        <ele>3670.0</ele>
      </trkpt>
      <trkpt lat="46.028306" lon="7.878256">
        <time>1970-01-01T00:00:00+00:00</time>
        <ele>3670.0</ele>
      </trkpt>
      <trkpt lat="46.028242" lon="7.878279">
        <time>1970-01-01T00:00:00+00:00</time>
        <ele>3670.0</ele>
      </trkpt>
      <trkpt lat="46.028242" lon="7.878279">
        <time>1970-01-01T00:00:00+00:00</time>
        <ele>3670.0</ele>
      </trkpt>
      <trkpt lat="46.02811712051918" lon="7.878465439788268">
        <time>1970-01-01T00:00:00+00:00</time>
        <ele>3673.0</ele>
      </trkpt>
      <trkpt lat="46.028029" lon="7.878597">
        <time>1970-01-01T00:00:00+00:00</time>
        <ele>3677.0</ele>
      </trkpt>
      <trkpt lat="46.028029" lon="7.878597">
        <time>1970-01-01T00:00:00+00:00</time>
        <ele>3677.0</ele>
      </trkpt>
      <trkpt lat="46.027934" lon="7.878674">
        <time>1970-01-01T00:00:00+00:00</time>
        <ele>3679.0</ele>
      </trkpt>
      <trkpt lat="46.027934" lon="7.878674">
        <time>1970-01-01T00:00:00+00:00</time>
        <ele>3679.0</ele>
      </trkpt>
      <trkpt lat="46.0279" lon="7.878726">
        <time>1970-01-01T00:00:00+00:00</time>
        <ele>3681.0</ele>
      </trkpt>
      <trkpt lat="46.0279" lon="7.878726">
        <time>1970-01-01T00:00:00+00:00</time>
        <ele>3681.0</ele>
      </trkpt>
      <trkpt lat="46.027829" lon="7.878793">
        <time>1970-01-01T00:00:00+00:00</time>
        <ele>3683.0</ele>
      </trkpt>
      <trkpt lat="46.027829" lon="7.878793">
        <time>1970-01-01T00:00:00+00:00</time>
        <ele>3683.0</ele>
      </trkpt>
      <trkpt lat="46.027761" lon="7.87894">
        <time>1970-01-01T00:00:00+00:00</time>
        <ele>3687.0</ele>
      </trkpt>
      <trkpt lat="46.027761" lon="7.87894">
        <time>1970-01-01T00:00:00+00:00</time>
        <ele>3687.0</ele>
      </trkpt>
      <trkpt lat="46.027734" lon="7.878996">
        <time>1970-01-01T00:00:00+00:00</time>
        <ele>3688.0</ele>
      </trkpt>
      <trkpt lat="46.027734" lon="7.878996">
        <time>1970-01-01T00:00:00+00:00</time>
        <ele>3688.0</ele>
      </trkpt>
      <trkpt lat="46.02765" lon="7.879052">
        <time>1970-01-01T00:00:00+00:00</time>
        <ele>3690.0</ele>
      </trkpt>
      <trkpt lat="46.02765" lon="7.879052">
        <time>1970-01-01T00:00:00+00:00</time>
        <ele>3690.0</ele>
      </trkpt>
      <trkpt lat="46.027577" lon="7.879084">
        <time>1970-01-01T00:00:00+00:00</time>
        <ele>3691.0</ele>
      </trkpt>
      <trkpt lat="46.027577" lon="7.879084">
        <time>1970-01-01T00:00:00+00:00</time>
        <ele>3691.0</ele>
      </trkpt>
      <trkpt lat="46.027538" lon="7.879166">
        <time>1970-01-01T00:00:00+00:00</time>
        <ele>3693.0</ele>
      </trkpt>
      <trkpt lat="46.027538" lon="7.879166">
        <time>1970-01-01T00:00:00+00:00</time>
        <ele>3693.0</ele>
      </trkpt>
      <trkpt lat="46.027566" lon="7.879219">
        <time>1970-01-01T00:00:00+00:00</time>
        <ele>3693.0</ele>
      </trkpt>
      <trkpt lat="46.027566" lon="7.879219">
        <time>1970-01-01T00:00:00+00:00</time>
        <ele>3693.0</ele>
      </trkpt>
      <trkpt lat="46.027607" lon="7.879356">
        <time>1970-01-01T00:00:00+00:00</time>
        <ele>3696.0</ele>
      </trkpt>
      <trkpt lat="46.027607" lon="7.879356">
        <time>1970-01-01T00:00:00+00:00</time>
        <ele>3696.0</ele>
      </trkpt>
      <trkpt lat="46.02761" lon="7.879449">
        <time>1970-01-01T00:00:00+00:00</time>
        <ele>3698.0</ele>
      </trkpt>
      <trkpt lat="46.02761" lon="7.879449">
        <time>1970-01-01T00:00:00+00:00</time>
        <ele>3698.0</ele>
      </trkpt>
      <trkpt lat="46.027598" lon="7.879515">
        <time>1970-01-01T00:00:00+00:00</time>
        <ele>3699.0</ele>
      </trkpt>
      <trkpt lat="46.027598" lon="7.879515">
        <time>1970-01-01T00:00:00+00:00</time>
        <ele>3699.0</ele>
      </trkpt>
      <trkpt lat="46.02755" lon="7.879512">
        <time>1970-01-01T00:00:00+00:00</time>
        <ele>3700.0</ele>
      </trkpt>
      <trkpt lat="46.02755" lon="7.879512">
        <time>1970-01-01T00:00:00+00:00</time>
        <ele>3700.0</ele>
      </trkpt>
      <trkpt lat="46.027513" lon="7.87956">
        <time>1970-01-01T00:00:00+00:00</time>
        <ele>3702.0</ele>
      </trkpt>
      <trkpt lat="46.027513" lon="7.87956">
        <time>1970-01-01T00:00:00+00:00</time>
        <ele>3702.0</ele>
      </trkpt>
      <trkpt lat="46.027399" lon="7.879634">
        <time>1970-01-01T00:00:00+00:00</time>
        <ele>3707.0</ele>
      </trkpt>
      <trkpt lat="46.027399" lon="7.879634">
        <time>1970-01-01T00:00:00+00:00</time>
        <ele>3707.0</ele>
      </trkpt>
      <trkpt lat="46.027352" lon="7.879648">
        <time>1970-01-01T00:00:00+00:00</time>
        <ele>3708.0</ele>
      </trkpt>
      <trkpt lat="46.027352" lon="7.879648">
        <time>1970-01-01T00:00:00+00:00</time>
        <ele>3708.0</ele>
      </trkpt>
      <trkpt lat="46.027291" lon="7.879668">
        <time>1970-01-01T00:00:00+00:00</time>
        <ele>3710.0</ele>
      </trkpt>
      <trkpt lat="46.027291" lon="7.879668">
        <time>1970-01-01T00:00:00+00:00</time>
        <ele>3710.0</ele>
      </trkpt>
      <trkpt lat="46.027222" lon="7.879657">
        <time>1970-01-01T00:00:00+00:00</time>
        <ele>3712.0</ele>
      </trkpt>
      <trkpt lat="46.027222" lon="7.879657">
        <time>1970-01-01T00:00:00+00:00</time>
        <ele>3712.0</ele>
      </trkpt>
      <trkpt lat="46.02733987342546" lon="7.879852669886257">
        <time>1970-01-01T00:00:00+00:00</time>
        <ele>3714.0</ele>
      </trkpt>
      <trkpt lat="46.027372" lon="7.879906">
        <time>1970-01-01T00:00:00+00:00</time>
        <ele>3714.0</ele>
      </trkpt>
      <trkpt lat="46.027372" lon="7.879906">
        <time>1970-01-01T00:00:00+00:00</time>
        <ele>3714.0</ele>
      </trkpt>
      <trkpt lat="46.027384" lon="7.879977">
        <time>1970-01-01T00:00:00+00:00</time>
        <ele>3716.0</ele>
      </trkpt>
      <trkpt lat="46.027384" lon="7.879977">
        <time>1970-01-01T00:00:00+00:00</time>
        <ele>3716.0</ele>
      </trkpt>
      <trkpt lat="46.027314" lon="7.879965">
        <time>1970-01-01T00:00:00+00:00</time>
        <ele>3717.0</ele>
      </trkpt>
      <trkpt lat="46.027314" lon="7.879965">
        <time>1970-01-01T00:00:00+00:00</time>
        <ele>3717.0</ele>
      </trkpt>
      <trkpt lat="46.027252" lon="7.879949">
        <time>1970-01-01T00:00:00+00:00</time>
        <ele>3718.0</ele>
      </trkpt>
      <trkpt lat="46.027252" lon="7.879949">
        <time>1970-01-01T00:00:00+00:00</time>
        <ele>3718.0</ele>
      </trkpt>
      <trkpt lat="46.02716" lon="7.879949">
        <time>1970-01-01T00:00:00+00:00</time>
        <ele>3722.0</ele>
      </trkpt>
      <trkpt lat="46.02716" lon="7.879949">
        <time>1970-01-01T00:00:00+00:00</time>
        <ele>3722.0</ele>
      </trkpt>
      <trkpt lat="46.027086" lon="7.879962">
        <time>1970-01-01T00:00:00+00:00</time>
        <ele>3726.0</ele>
      </trkpt>
      <trkpt lat="46.027086" lon="7.879962">
        <time>1970-01-01T00:00:00+00:00</time>
        <ele>3726.0</ele>
      </trkpt>
      <trkpt lat="46.026994" lon="7.879951">
        <time>1970-01-01T00:00:00+00:00</time>
        <ele>3730.0</ele>
      </trkpt>
      <trkpt lat="46.026994" lon="7.879951">
        <time>1970-01-01T00:00:00+00:00</time>
        <ele>3730.0</ele>
      </trkpt>
      <trkpt lat="46.026947" lon="7.879957">
        <time>1970-01-01T00:00:00+00:00</time>
        <ele>3732.0</ele>
      </trkpt>
      <trkpt lat="46.026947" lon="7.879957">
        <time>1970-01-01T00:00:00+00:00</time>
        <ele>3732.0</ele>
      </trkpt>
      <trkpt lat="46.026879" lon="7.879949">
        <time>1970-01-01T00:00:00+00:00</time>
        <ele>3735.0</ele>
      </trkpt>
      <trkpt lat="46.026879" lon="7.879949">
        <time>1970-01-01T00:00:00+00:00</time>
        <ele>3735.0</ele>
      </trkpt>
      <trkpt lat="46.026814" lon="7.879961">
        <time>1970-01-01T00:00:00+00:00</time>
        <ele>3737.0</ele>
      </trkpt>
      <trkpt lat="46.026814" lon="7.879961">
        <time>1970-01-01T00:00:00+00:00</time>
        <ele>3737.0</ele>
      </trkpt>
      <trkpt lat="46.026751" lon="7.87995">
        <time>1970-01-01T00:00:00+00:00</time>
        <ele>3739.0</ele>
      </trkpt>
      <trkpt lat="46.026751" lon="7.87995">
        <time>1970-01-01T00:00:00+00:00</time>
        <ele>3739.0</ele>
      </trkpt>
      <trkpt lat="46.026719" lon="7.88001">
        <time>1970-01-01T00:00:00+00:00</time>
        <ele>3742.0</ele>
      </trkpt>
      <trkpt lat="46.026719" lon="7.88001">
        <time>1970-01-01T00:00:00+00:00</time>
        <ele>3742.0</ele>
      </trkpt>
      <trkpt lat="46.026677" lon="7.880051">
        <time>1970-01-01T00:00:00+00:00</time>
        <ele>3745.0</ele>
      </trkpt>
      <trkpt lat="46.026677" lon="7.880051">
        <time>1970-01-01T00:00:00+00:00</time>
        <ele>3745.0</ele>
      </trkpt>
      <trkpt lat="46.026632" lon="7.880052">
        <time>1970-01-01T00:00:00+00:00</time>
        <ele>3747.0</ele>
      </trkpt>
      <trkpt lat="46.026632" lon="7.880052">
        <time>1970-01-01T00:00:00+00:00</time>
        <ele>3747.0</ele>
      </trkpt>
      <trkpt lat="46.026604" lon="7.880106">
        <time>1970-01-01T00:00:00+00:00</time>
        <ele>3749.0</ele>
      </trkpt>
      <trkpt lat="46.026604" lon="7.880106">
        <time>1970-01-01T00:00:00+00:00</time>
        <ele>3749.0</ele>
      </trkpt>
      <trkpt lat="46.026617" lon="7.88021">
        <time>1970-01-01T00:00:00+00:00</time>
        <ele>3750.0</ele>
      </trkpt>
      <trkpt lat="46.026617" lon="7.88021">
        <time>1970-01-01T00:00:00+00:00</time>
        <ele>3750.0</ele>
      </trkpt>
      <trkpt lat="46.026613" lon="7.880275">
        <time>1970-01-01T00:00:00+00:00</time>
        <ele>3751.0</ele>
      </trkpt>
      <trkpt lat="46.026613" lon="7.880275">
        <time>1970-01-01T00:00:00+00:00</time>
        <ele>3751.0</ele>
      </trkpt>
      <trkpt lat="46.026641" lon="7.880417">
        <time>1970-01-01T00:00:00+00:00</time>
        <ele>3752.0</ele>
      </trkpt>
      <trkpt lat="46.026641" lon="7.880417">
        <time>1970-01-01T00:00:00+00:00</time>
        <ele>3752.0</ele>
      </trkpt>
      <trkpt lat="46.026638" lon="7.88052">
        <time>1970-01-01T00:00:00+00:00</time>
        <ele>3753.0</ele>
      </trkpt>
      <trkpt lat="46.026638" lon="7.88052">
        <time>1970-01-01T00:00:00+00:00</time>
        <ele>3753.0</ele>
      </trkpt>
      <trkpt lat="46.026634" lon="7.880624">
        <time>1970-01-01T00:00:00+00:00</time>
        <ele>3755.0</ele>
      </trkpt>
      <trkpt lat="46.026634" lon="7.880624">
        <time>1970-01-01T00:00:00+00:00</time>
        <ele>3755.0</ele>
      </trkpt>
      <trkpt lat="46.026652" lon="7.880728">
        <time>1970-01-01T00:00:00+00:00</time>
        <ele>3756.0</ele>
      </trkpt>
      <trkpt lat="46.026652" lon="7.880728">
        <time>1970-01-01T00:00:00+00:00</time>
        <ele>3756.0</ele>
      </trkpt>
      <trkpt lat="46.026641" lon="7.880797">
        <time>1970-01-01T00:00:00+00:00</time>
        <ele>3758.0</ele>
      </trkpt>
      <trkpt lat="46.026641" lon="7.880797">
        <time>1970-01-01T00:00:00+00:00</time>
        <ele>3758.0</ele>
      </trkpt>
      <trkpt lat="46.026596" lon="7.880778">
        <time>1970-01-01T00:00:00+00:00</time>
        <ele>3760.0</ele>
      </trkpt>
      <trkpt lat="46.026596" lon="7.880778">
        <time>1970-01-01T00:00:00+00:00</time>
        <ele>3760.0</ele>
      </trkpt>
      <trkpt lat="46.026546" lon="7.880762">
        <time>1970-01-01T00:00:00+00:00</time>
        <ele>3762.0</ele>
      </trkpt>
      <trkpt lat="46.026546" lon="7.880762">
        <time>1970-01-01T00:00:00+00:00</time>
        <ele>3762.0</ele>
      </trkpt>
      <trkpt lat="46.026479" lon="7.880692">
        <time>1970-01-01T00:00:00+00:00</time>
        <ele>3763.0</ele>
      </trkpt>
      <trkpt lat="46.026479" lon="7.880692">
        <time>1970-01-01T00:00:00+00:00</time>
        <ele>3763.0</ele>
      </trkpt>
      <trkpt lat="46.026427" lon="7.880684">
        <time>1970-01-01T00:00:00+00:00</time>
        <ele>3766.0</ele>
      </trkpt>
      <trkpt lat="46.026427" lon="7.880684">
        <time>1970-01-01T00:00:00+00:00</time>
        <ele>3766.0</ele>
      </trkpt>
      <trkpt lat="46.026378" lon="7.880641">
        <time>1970-01-01T00:00:00+00:00</time>
        <ele>3767.0</ele>
      </trkpt>
      <trkpt lat="46.026378" lon="7.880641">
        <time>1970-01-01T00:00:00+00:00</time>
        <ele>3767.0</ele>
      </trkpt>
      <trkpt lat="46.026313" lon="7.88061">
        <time>1970-01-01T00:00:00+00:00</time>
        <ele>3769.0</ele>
      </trkpt>
      <trkpt lat="46.026313" lon="7.88061">
        <time>1970-01-01T00:00:00+00:00</time>
        <ele>3769.0</ele>
      </trkpt>
      <trkpt lat="46.026268" lon="7.880513">
        <time>1970-01-01T00:00:00+00:00</time>
        <ele>3770.0</ele>
      </trkpt>
      <trkpt lat="46.026268" lon="7.880513">
        <time>1970-01-01T00:00:00+00:00</time>
        <ele>3770.0</ele>
      </trkpt>
      <trkpt lat="46.026249" lon="7.880405">
        <time>1970-01-01T00:00:00+00:00</time>
        <ele>3770.0</ele>
      </trkpt>
      <trkpt lat="46.026249" lon="7.880405">
        <time>1970-01-01T00:00:00+00:00</time>
        <ele>3770.0</ele>
      </trkpt>
      <trkpt lat="46.02628" lon="7.880344">
        <time>1970-01-01T00:00:00+00:00</time>
        <ele>3768.0</ele>
      </trkpt>
      <trkpt lat="46.02628" lon="7.880344">
        <time>1970-01-01T00:00:00+00:00</time>
        <ele>3768.0</ele>
      </trkpt>
      <trkpt lat="46.026244" lon="7.880296">
        <time>1970-01-01T00:00:00+00:00</time>
        <ele>3769.0</ele>
      </trkpt>
      <trkpt lat="46.026244" lon="7.880296">
        <time>1970-01-01T00:00:00+00:00</time>
        <ele>3769.0</ele>
      </trkpt>
      <trkpt lat="46.026195" lon="7.880242">
        <time>1970-01-01T00:00:00+00:00</time>
        <ele>3770.0</ele>
      </trkpt>
      <trkpt lat="46.026195" lon="7.880242">
        <time>1970-01-01T00:00:00+00:00</time>
        <ele>3770.0</ele>
      </trkpt>
      <trkpt lat="46.02616" lon="7.880192">
        <time>1970-01-01T00:00:00+00:00</time>
        <ele>3771.0</ele>
      </trkpt>
      <trkpt lat="46.02616" lon="7.880192">
        <time>1970-01-01T00:00:00+00:00</time>
        <ele>3771.0</ele>
      </trkpt>
      <trkpt lat="46.026121" lon="7.880159">
        <time>1970-01-01T00:00:00+00:00</time>
        <ele>3772.0</ele>
      </trkpt>
      <trkpt lat="46.026121" lon="7.880159">
        <time>1970-01-01T00:00:00+00:00</time>
        <ele>3772.0</ele>
      </trkpt>
      <trkpt lat="46.026141" lon="7.880219">
        <time>1970-01-01T00:00:00+00:00</time>
        <ele>3772.0</ele>
      </trkpt>
      <trkpt lat="46.026141" lon="7.880219">
        <time>1970-01-01T00:00:00+00:00</time>
        <ele>3772.0</ele>
      </trkpt>
      <trkpt lat="46.026095" lon="7.880183">
        <time>1970-01-01T00:00:00+00:00</time>
        <ele>3774.0</ele>
      </trkpt>
      <trkpt lat="46.026095" lon="7.880183">
        <time>1970-01-01T00:00:00+00:00</time>
        <ele>3774.0</ele>
      </trkpt>
      <trkpt lat="46.02605" lon="7.880199">
        <time>1970-01-01T00:00:00+00:00</time>
        <ele>3776.0</ele>
      </trkpt>
      <trkpt lat="46.02605" lon="7.880199">
        <time>1970-01-01T00:00:00+00:00</time>
        <ele>3776.0</ele>
      </trkpt>
      <trkpt lat="46.025973" lon="7.880078">
        <time>1970-01-01T00:00:00+00:00</time>
        <ele>3778.0</ele>
      </trkpt>
      <trkpt lat="46.025973" lon="7.880078">
        <time>1970-01-01T00:00:00+00:00</time>
        <ele>3778.0</ele>
      </trkpt>
      <trkpt lat="46.025907" lon="7.880071">
        <time>1970-01-01T00:00:00+00:00</time>
        <ele>3781.0</ele>
      </trkpt>
      <trkpt lat="46.025907" lon="7.880071">
        <time>1970-01-01T00:00:00+00:00</time>
        <ele>3781.0</ele>
      </trkpt>
      <trkpt lat="46.02587" lon="7.880031">
        <time>1970-01-01T00:00:00+00:00</time>
        <ele>3781.0</ele>
      </trkpt>
      <trkpt lat="46.02587" lon="7.880031">
        <time>1970-01-01T00:00:00+00:00</time>
        <ele>3781.0</ele>
      </trkpt>
      <trkpt lat="46.025777" lon="7.879966">
        <time>1970-01-01T00:00:00+00:00</time>
        <ele>3784.0</ele>
      </trkpt>
      <trkpt lat="46.025777" lon="7.879966">
        <time>1970-01-01T00:00:00+00:00</time>
        <ele>3784.0</ele>
      </trkpt>
      <trkpt lat="46.025709" lon="7.879905">
        <time>1970-01-01T00:00:00+00:00</time>
        <ele>3785.0</ele>
      </trkpt>
      <trkpt lat="46.025709" lon="7.879905">
        <time>1970-01-01T00:00:00+00:00</time>
        <ele>3785.0</ele>
      </trkpt>
      <trkpt lat="46.02565" lon="7.879922">
        <time>1970-01-01T00:00:00+00:00</time>
        <ele>3787.0</ele>
      </trkpt>
      <trkpt lat="46.02565" lon="7.879922">
        <time>1970-01-01T00:00:00+00:00</time>
        <ele>3787.0</ele>
      </trkpt>
      <trkpt lat="46.025564" lon="7.87994">
        <time>1970-01-01T00:00:00+00:00</time>
        <ele>3790.0</ele>
      </trkpt>
      <trkpt lat="46.025564" lon="7.87994">
        <time>1970-01-01T00:00:00+00:00</time>
        <ele>3790.0</ele>
      </trkpt>
      <trkpt lat="46.025501" lon="7.879925">
        <time>1970-01-01T00:00:00+00:00</time>
        <ele>3793.0</ele>
      </trkpt>
      <trkpt lat="46.025501" lon="7.879925">
        <time>1970-01-01T00:00:00+00:00</time>
        <ele>3793.0</ele>
      </trkpt>
      <trkpt lat="46.025452" lon="7.879921">
        <time>1970-01-01T00:00:00+00:00</time>
        <ele>3795.0</ele>
      </trkpt>
      <trkpt lat="46.025452" lon="7.879921">
        <time>1970-01-01T00:00:00+00:00</time>
        <ele>3795.0</ele>
      </trkpt>
      <trkpt lat="46.025407" lon="7.879973">
        <time>1970-01-01T00:00:00+00:00</time>
        <ele>3798.0</ele>
      </trkpt>
      <trkpt lat="46.025407" lon="7.879973">
        <time>1970-01-01T00:00:00+00:00</time>
        <ele>3798.0</ele>
      </trkpt>
      <trkpt lat="46.025441" lon="7.880173">
        <time>1970-01-01T00:00:00+00:00</time>
        <ele>3801.0</ele>
      </trkpt>
      <trkpt lat="46.025441" lon="7.880173">
        <time>1970-01-01T00:00:00+00:00</time>
        <ele>3801.0</ele>
      </trkpt>
      <trkpt lat="46.025434" lon="7.880357">
        <time>1970-01-01T00:00:00+00:00</time>
        <ele>3807.0</ele>
      </trkpt>
      <trkpt lat="46.025434" lon="7.880357">
        <time>1970-01-01T00:00:00+00:00</time>
        <ele>3807.0</ele>
      </trkpt>
      <trkpt lat="46.025372" lon="7.880362">
        <time>1970-01-01T00:00:00+00:00</time>
        <ele>3811.0</ele>
      </trkpt>
      <trkpt lat="46.025372" lon="7.880362">
        <time>1970-01-01T00:00:00+00:00</time>
        <ele>3811.0</ele>
      </trkpt>
      <trkpt lat="46.025334" lon="7.880322">
        <time>1970-01-01T00:00:00+00:00</time>
        <ele>3812.0</ele>
      </trkpt>
      <trkpt lat="46.025334" lon="7.880322">
        <time>1970-01-01T00:00:00+00:00</time>
        <ele>3812.0</ele>
      </trkpt>
      <trkpt lat="46.025287" lon="7.880334">
        <time>1970-01-01T00:00:00+00:00</time>
        <ele>3815.0</ele>
      </trkpt>
      <trkpt lat="46.025287" lon="7.880334">
        <time>1970-01-01T00:00:00+00:00</time>
        <ele>3815.0</ele>
      </trkpt>
      <trkpt lat="46.025292" lon="7.880452">
        <time>1970-01-01T00:00:00+00:00</time>
        <ele>3818.0</ele>
      </trkpt>
      <trkpt lat="46.025292" lon="7.880452">
        <time>1970-01-01T00:00:00+00:00</time>
        <ele>3818.0</ele>
      </trkpt>
      <trkpt lat="46.025246" lon="7.880441">
        <time>1970-01-01T00:00:00+00:00</time>
        <ele>3821.0</ele>
      </trkpt>
      <trkpt lat="46.025246" lon="7.880441">
        <time>1970-01-01T00:00:00+00:00</time>
        <ele>3821.0</ele>
      </trkpt>
      <trkpt lat="46.02518" lon="7.880378">
        <time>1970-01-01T00:00:00+00:00</time>
        <ele>3822.0</ele>
      </trkpt>
      <trkpt lat="46.02518" lon="7.880378">
        <time>1970-01-01T00:00:00+00:00</time>
        <ele>3822.0</ele>
      </trkpt>
      <trkpt lat="46.025143" lon="7.880423">
        <time>1970-01-01T00:00:00+00:00</time>
        <ele>3825.0</ele>
      </trkpt>
      <trkpt lat="46.025143" lon="7.880423">
        <time>1970-01-01T00:00:00+00:00</time>
        <ele>3825.0</ele>
      </trkpt>
      <trkpt lat="46.025102" lon="7.880395">
        <time>1970-01-01T00:00:00+00:00</time>
        <ele>3826.0</ele>
      </trkpt>
      <trkpt lat="46.025102" lon="7.880395">
        <time>1970-01-01T00:00:00+00:00</time>
        <ele>3826.0</ele>
      </trkpt>
      <trkpt lat="46.025097" lon="7.880143">
        <time>1970-01-01T00:00:00+00:00</time>
        <ele>3819.0</ele>
      </trkpt>
      <trkpt lat="46.025097" lon="7.880143">
        <time>1970-01-01T00:00:00+00:00</time>
        <ele>3819.0</ele>
      </trkpt>
      <trkpt lat="46.025108" lon="7.880077">
        <time>1970-01-01T00:00:00+00:00</time>
        <ele>3817.0</ele>
      </trkpt>
      <trkpt lat="46.025108" lon="7.880077">
        <time>1970-01-01T00:00:00+00:00</time>
        <ele>3817.0</ele>
      </trkpt>
      <trkpt lat="46.025108" lon="7.880336042434832">
        <time>1970-01-01T00:00:00+00:00</time>
        <ele>3824.0</ele>
      </trkpt>
      <trkpt lat="46.025108" lon="7.880416">
        <time>1970-01-01T00:00:00+00:00</time>
        <ele>3826.0</ele>
      </trkpt>
      <trkpt lat="46.025108" lon="7.880416">
        <time>1970-01-01T00:00:00+00:00</time>
        <ele>3826.0</ele>
      </trkpt>
      <trkpt lat="46.025091" lon="7.880477">
        <time>1970-01-01T00:00:00+00:00</time>
        <ele>3828.0</ele>
      </trkpt>
      <trkpt lat="46.025091" lon="7.880477">
        <time>1970-01-01T00:00:00+00:00</time>
        <ele>3828.0</ele>
      </trkpt>
      <trkpt lat="46.025085" lon="7.880564">
        <time>1970-01-01T00:00:00+00:00</time>
        <ele>3831.0</ele>
      </trkpt>
      <trkpt lat="46.025085" lon="7.880564">
        <time>1970-01-01T00:00:00+00:00</time>
        <ele>3831.0</ele>
      </trkpt>
      <trkpt lat="46.02508" lon="7.880644">
        <time>1970-01-01T00:00:00+00:00</time>
        <ele>3832.0</ele>
      </trkpt>
      <trkpt lat="46.02508" lon="7.880644">
        <time>1970-01-01T00:00:00+00:00</time>
        <ele>3832.0</ele>
      </trkpt>
      <trkpt lat="46.025058" lon="7.880779">
        <time>1970-01-01T00:00:00+00:00</time>
        <ele>3835.0</ele>
      </trkpt>
      <trkpt lat="46.025058" lon="7.880779">
        <time>1970-01-01T00:00:00+00:00</time>
        <ele>3835.0</ele>
      </trkpt>
      <trkpt lat="46.025063" lon="7.880849">
        <time>1970-01-01T00:00:00+00:00</time>
        <ele>3835.0</ele>
      </trkpt>
      <trkpt lat="46.025063" lon="7.880849">
        <time>1970-01-01T00:00:00+00:00</time>
        <ele>3835.0</ele>
      </trkpt>
      <trkpt lat="46.025059" lon="7.880922">
        <time>1970-01-01T00:00:00+00:00</time>
        <ele>3836.0</ele>
      </trkpt>
      <trkpt lat="46.025059" lon="7.880922">
        <time>1970-01-01T00:00:00+00:00</time>
        <ele>3836.0</ele>
      </trkpt>
      <trkpt lat="46.02508" lon="7.881026">
        <time>1970-01-01T00:00:00+00:00</time>
        <ele>3837.0</ele>
      </trkpt>
      <trkpt lat="46.02508" lon="7.881026">
        <time>1970-01-01T00:00:00+00:00</time>
        <ele>3837.0</ele>
      </trkpt>
      <trkpt lat="46.025034" lon="7.881077">
        <time>1970-01-01T00:00:00+00:00</time>
        <ele>3839.0</ele>
      </trkpt>
      <trkpt lat="46.025034" lon="7.881077">
        <time>1970-01-01T00:00:00+00:00</time>
        <ele>3839.0</ele>
      </trkpt>
      <trkpt lat="46.024973" lon="7.88108">
        <time>1970-01-01T00:00:00+00:00</time>
        <ele>3842.0</ele>
      </trkpt>
      <trkpt lat="46.024973" lon="7.88108">
        <time>1970-01-01T00:00:00+00:00</time>
        <ele>3842.0</ele>
      </trkpt>
      <trkpt lat="46.024929" lon="7.881052">
        <time>1970-01-01T00:00:00+00:00</time>
        <ele>3844.0</ele>
      </trkpt>
      <trkpt lat="46.024929" lon="7.881052">
        <time>1970-01-01T00:00:00+00:00</time>
        <ele>3844.0</ele>
      </trkpt>
      <trkpt lat="46.024864" lon="7.880972">
        <time>1970-01-01T00:00:00+00:00</time>
        <ele>3846.0</ele>
      </trkpt>
      <trkpt lat="46.024864" lon="7.880972">
        <time>1970-01-01T00:00:00+00:00</time>
        <ele>3846.0</ele>
      </trkpt>
      <trkpt lat="46.024828" lon="7.880922">
        <time>1970-01-01T00:00:00+00:00</time>
        <ele>3847.0</ele>
      </trkpt>
      <trkpt lat="46.024828" lon="7.880922">
        <time>1970-01-01T00:00:00+00:00</time>
        <ele>3847.0</ele>
      </trkpt>
      <trkpt lat="46.024795" lon="7.880872">
        <time>1970-01-01T00:00:00+00:00</time>
        <ele>3848.0</ele>
      </trkpt>
      <trkpt lat="46.024795" lon="7.880872">
        <time>1970-01-01T00:00:00+00:00</time>
        <ele>3848.0</ele>
      </trkpt>
      <trkpt lat="46.024751" lon="7.880843">
        <time>1970-01-01T00:00:00+00:00</time>
        <ele>3850.0</ele>
      </trkpt>
      <trkpt lat="46.024751" lon="7.880843">
        <time>1970-01-01T00:00:00+00:00</time>
        <ele>3850.0</ele>
      </trkpt>
      <trkpt lat="46.024705" lon="7.880812">
        <time>1970-01-01T00:00:00+00:00</time>
        <ele>3852.0</ele>
      </trkpt>
      <trkpt lat="46.024705" lon="7.880812">
        <time>1970-01-01T00:00:00+00:00</time>
        <ele>3852.0</ele>
      </trkpt>
      <trkpt lat="46.024652" lon="7.880771">
        <time>1970-01-01T00:00:00+00:00</time>
        <ele>3854.0</ele>
      </trkpt>
      <trkpt lat="46.024652" lon="7.880771">
        <time>1970-01-01T00:00:00+00:00</time>
        <ele>3854.0</ele>
      </trkpt>
      <trkpt lat="46.024575" lon="7.880709">
        <time>1970-01-01T00:00:00+00:00</time>
        <ele>3856.0</ele>
      </trkpt>
      <trkpt lat="46.024575" lon="7.880709">
        <time>1970-01-01T00:00:00+00:00</time>
        <ele>3856.0</ele>
      </trkpt>
      <trkpt lat="46.024519" lon="7.880714">
        <time>1970-01-01T00:00:00+00:00</time>
        <ele>3858.0</ele>
      </trkpt>
      <trkpt lat="46.024519" lon="7.880714">
        <time>1970-01-01T00:00:00+00:00</time>
        <ele>3858.0</ele>
      </trkpt>
      <trkpt lat="46.024423" lon="7.880587">
        <time>1970-01-01T00:00:00+00:00</time>
        <ele>3861.0</ele>
      </trkpt>
      <trkpt lat="46.024423" lon="7.880587">
        <time>1970-01-01T00:00:00+00:00</time>
        <ele>3861.0</ele>
      </trkpt>
      <trkpt lat="46.024377" lon="7.880563">
        <time>1970-01-01T00:00:00+00:00</time>
        <ele>3864.0</ele>
      </trkpt>
      <trkpt lat="46.024377" lon="7.880563">
        <time>1970-01-01T00:00:00+00:00</time>
        <ele>3864.0</ele>
      </trkpt>
      <trkpt lat="46.024339" lon="7.880521">
        <time>1970-01-01T00:00:00+00:00</time>
        <ele>3866.0</ele>
      </trkpt>
      <trkpt lat="46.024339" lon="7.880521">
        <time>1970-01-01T00:00:00+00:00</time>
        <ele>3866.0</ele>
      </trkpt>
      <trkpt lat="46.024295" lon="7.880503">
        <time>1970-01-01T00:00:00+00:00</time>
        <ele>3869.0</ele>
      </trkpt>
      <trkpt lat="46.024295" lon="7.880503">
        <time>1970-01-01T00:00:00+00:00</time>
        <ele>3869.0</ele>
      </trkpt>
      <trkpt lat="46.024247" lon="7.880441">
        <time>1970-01-01T00:00:00+00:00</time>
        <ele>3872.0</ele>
      </trkpt>
      <trkpt lat="46.024247" lon="7.880441">
        <time>1970-01-01T00:00:00+00:00</time>
        <ele>3872.0</ele>
      </trkpt>
      <trkpt lat="46.024194" lon="7.880368">
        <time>1970-01-01T00:00:00+00:00</time>
        <ele>3876.0</ele>
      </trkpt>
      <trkpt lat="46.024194" lon="7.880368">
        <time>1970-01-01T00:00:00+00:00</time>
        <ele>3876.0</ele>
      </trkpt>
      <trkpt lat="46.024187" lon="7.880277">
        <time>1970-01-01T00:00:00+00:00</time>
        <ele>3876.0</ele>
      </trkpt>
      <trkpt lat="46.024187" lon="7.880277">
        <time>1970-01-01T00:00:00+00:00</time>
        <ele>3876.0</ele>
      </trkpt>
      <trkpt lat="46.02413" lon="7.880203">
        <time>1970-01-01T00:00:00+00:00</time>
        <ele>3880.0</ele>
      </trkpt>
      <trkpt lat="46.02413" lon="7.880203">
        <time>1970-01-01T00:00:00+00:00</time>
        <ele>3880.0</ele>
      </trkpt>
      <trkpt lat="46.024091" lon="7.880135">
        <time>1970-01-01T00:00:00+00:00</time>
        <ele>3883.0</ele>
      </trkpt>
      <trkpt lat="46.024091" lon="7.880135">
        <time>1970-01-01T00:00:00+00:00</time>
        <ele>3883.0</ele>
      </trkpt>
      <trkpt lat="46.024044" lon="7.880061">
        <time>1970-01-01T00:00:00+00:00</time>
        <ele>3885.0</ele>
      </trkpt>
      <trkpt lat="46.024044" lon="7.880061">
        <time>1970-01-01T00:00:00+00:00</time>
        <ele>3885.0</ele>
      </trkpt>
      <trkpt lat="46.024007" lon="7.880014">
        <time>1970-01-01T00:00:00+00:00</time>
        <ele>3887.0</ele>
      </trkpt>
      <trkpt lat="46.024007" lon="7.880014">
        <time>1970-01-01T00:00:00+00:00</time>
        <ele>3887.0</ele>
      </trkpt>
      <trkpt lat="46.023952" lon="7.879858">
        <time>1970-01-01T00:00:00+00:00</time>
        <ele>3890.0</ele>
      </trkpt>
      <trkpt lat="46.023952" lon="7.879858">
        <time>1970-01-01T00:00:00+00:00</time>
        <ele>3890.0</ele>
      </trkpt>
      <trkpt lat="46.023896" lon="7.879729">
        <time>1970-01-01T00:00:00+00:00</time>
        <ele>3892.0</ele>
      </trkpt>
      <trkpt lat="46.023896" lon="7.879729">
        <time>1970-01-01T00:00:00+00:00</time>
        <ele>3892.0</ele>
      </trkpt>
      <trkpt lat="46.023869" lon="7.879666">
        <time>1970-01-01T00:00:00+00:00</time>
        <ele>3894.0</ele>
      </trkpt>
      <trkpt lat="46.023869" lon="7.879666">
        <time>1970-01-01T00:00:00+00:00</time>
        <ele>3894.0</ele>
      </trkpt>
      <trkpt lat="46.023858" lon="7.879597">
        <time>1970-01-01T00:00:00+00:00</time>
        <ele>3894.0</ele>
      </trkpt>
      <trkpt lat="46.023858" lon="7.879597">
        <time>1970-01-01T00:00:00+00:00</time>
        <ele>3894.0</ele>
      </trkpt>
      <trkpt lat="46.023791" lon="7.879444">
        <time>1970-01-01T00:00:00+00:00</time>
        <ele>3898.0</ele>
      </trkpt>
      <trkpt lat="46.023791" lon="7.879444">
        <time>1970-01-01T00:00:00+00:00</time>
        <ele>3898.0</ele>
      </trkpt>
      <trkpt lat="46.023728" lon="7.879376">
        <time>1970-01-01T00:00:00+00:00</time>
        <ele>3902.0</ele>
      </trkpt>
      <trkpt lat="46.023728" lon="7.879376">
        <time>1970-01-01T00:00:00+00:00</time>
        <ele>3902.0</ele>
      </trkpt>
      <trkpt lat="46.02368" lon="7.879411">
        <time>1970-01-01T00:00:00+00:00</time>
        <ele>3905.0</ele>
      </trkpt>
      <trkpt lat="46.02368" lon="7.879411">
        <time>1970-01-01T00:00:00+00:00</time>
        <ele>3905.0</ele>
      </trkpt>
      <trkpt lat="46.023631" lon="7.879473">
        <time>1970-01-01T00:00:00+00:00</time>
        <ele>3908.0</ele>
      </trkpt>
      <trkpt lat="46.023631" lon="7.879473">
        <time>1970-01-01T00:00:00+00:00</time>
        <ele>3908.0</ele>
      </trkpt>
      <trkpt lat="46.023503" lon="7.879376">
        <time>1970-01-01T00:00:00+00:00</time>
        <ele>3916.0</ele>
      </trkpt>
      <trkpt lat="46.023503" lon="7.879376">
        <time>1970-01-01T00:00:00+00:00</time>
        <ele>3916.0</ele>
      </trkpt>
      <trkpt lat="46.023453" lon="7.879363">
        <time>1970-01-01T00:00:00+00:00</time>
        <ele>3919.0</ele>
      </trkpt>
      <trkpt lat="46.023453" lon="7.879363">
        <time>1970-01-01T00:00:00+00:00</time>
        <ele>3919.0</ele>
      </trkpt>
      <trkpt lat="46.023432" lon="7.879257">
        <time>1970-01-01T00:00:00+00:00</time>
        <ele>3920.0</ele>
      </trkpt>
      <trkpt lat="46.023432" lon="7.879257">
        <time>1970-01-01T00:00:00+00:00</time>
        <ele>3920.0</ele>
      </trkpt>
      <trkpt lat="46.023412" lon="7.879161">
        <time>1970-01-01T00:00:00+00:00</time>
        <ele>3921.0</ele>
      </trkpt>
      <trkpt lat="46.023412" lon="7.879161">
        <time>1970-01-01T00:00:00+00:00</time>
        <ele>3921.0</ele>
      </trkpt>
      <trkpt lat="46.023288" lon="7.879331">
        <time>1970-01-01T00:00:00+00:00</time>
        <ele>3928.0</ele>
      </trkpt>
      <trkpt lat="46.023288" lon="7.879331">
        <time>1970-01-01T00:00:00+00:00</time>
        <ele>3928.0</ele>
      </trkpt>
      <trkpt lat="46.023241" lon="7.87937">
        <time>1970-01-01T00:00:00+00:00</time>
        <ele>3930.0</ele>
      </trkpt>
      <trkpt lat="46.023241" lon="7.87937">
        <time>1970-01-01T00:00:00+00:00</time>
        <ele>3930.0</ele>
      </trkpt>
      <trkpt lat="46.023181" lon="7.879383">
        <time>1970-01-01T00:00:00+00:00</time>
        <ele>3933.0</ele>
      </trkpt>
      <trkpt lat="46.023181" lon="7.879383">
        <time>1970-01-01T00:00:00+00:00</time>
        <ele>3933.0</ele>
      </trkpt>
      <trkpt lat="46.023121" lon="7.879442">
        <time>1970-01-01T00:00:00+00:00</time>
        <ele>3936.0</ele>
      </trkpt>
      <trkpt lat="46.023121" lon="7.879442">
        <time>1970-01-01T00:00:00+00:00</time>
        <ele>3936.0</ele>
      </trkpt>
      <trkpt lat="46.023045" lon="7.87952">
        <time>1970-01-01T00:00:00+00:00</time>
        <ele>3939.0</ele>
      </trkpt>
      <trkpt lat="46.023045" lon="7.87952">
        <time>1970-01-01T00:00:00+00:00</time>
        <ele>3939.0</ele>
      </trkpt>
      <trkpt lat="46.022984" lon="7.879566">
        <time>1970-01-01T00:00:00+00:00</time>
        <ele>3941.0</ele>
      </trkpt>
      <trkpt lat="46.022984" lon="7.879566">
        <time>1970-01-01T00:00:00+00:00</time>
        <ele>3941.0</ele>
      </trkpt>
      <trkpt lat="46.02291" lon="7.879526">
        <time>1970-01-01T00:00:00+00:00</time>
        <ele>3946.0</ele>
      </trkpt>
      <trkpt lat="46.02291" lon="7.879526">
        <time>1970-01-01T00:00:00+00:00</time>
        <ele>3946.0</ele>
      </trkpt>
      <trkpt lat="46.022863" lon="7.879537">
        <time>1970-01-01T00:00:00+00:00</time>
        <ele>3949.0</ele>
      </trkpt>
      <trkpt lat="46.022863" lon="7.879537">
        <time>1970-01-01T00:00:00+00:00</time>
        <ele>3949.0</ele>
      </trkpt>
      <trkpt lat="46.022792" lon="7.879553">
        <time>1970-01-01T00:00:00+00:00</time>
        <ele>3954.0</ele>
      </trkpt>
      <trkpt lat="46.022792" lon="7.879553">
        <time>1970-01-01T00:00:00+00:00</time>
        <ele>3954.0</ele>
      </trkpt>
      <trkpt lat="46.022692" lon="7.879601">
        <time>1970-01-01T00:00:00+00:00</time>
        <ele>3959.0</ele>
      </trkpt>
      <trkpt lat="46.022692" lon="7.879601">
        <time>1970-01-01T00:00:00+00:00</time>
        <ele>3959.0</ele>
      </trkpt>
      <trkpt lat="46.022626" lon="7.879659">
        <time>1970-01-01T00:00:00+00:00</time>
        <ele>3962.0</ele>
      </trkpt>
      <trkpt lat="46.022626" lon="7.879659">
        <time>1970-01-01T00:00:00+00:00</time>
        <ele>3962.0</ele>
      </trkpt>
      <trkpt lat="46.022594" lon="7.879718">
        <time>1970-01-01T00:00:00+00:00</time>
        <ele>3963.0</ele>
      </trkpt>
      <trkpt lat="46.022594" lon="7.879718">
        <time>1970-01-01T00:00:00+00:00</time>
        <ele>3963.0</ele>
      </trkpt>
      <trkpt lat="46.022504" lon="7.87979">
        <time>1970-01-01T00:00:00+00:00</time>
        <ele>3966.0</ele>
      </trkpt>
      <trkpt lat="46.022504" lon="7.87979">
        <time>1970-01-01T00:00:00+00:00</time>
        <ele>3966.0</ele>
      </trkpt>
      <trkpt lat="46.022451" lon="7.879865">
        <time>1970-01-01T00:00:00+00:00</time>
        <ele>3967.0</ele>
      </trkpt>
      <trkpt lat="46.022451" lon="7.879865">
        <time>1970-01-01T00:00:00+00:00</time>
        <ele>3967.0</ele>
      </trkpt>
      <trkpt lat="46.022357" lon="7.879921">
        <time>1970-01-01T00:00:00+00:00</time>
        <ele>3971.0</ele>
      </trkpt>
      <trkpt lat="46.022357" lon="7.879921">
        <time>1970-01-01T00:00:00+00:00</time>
        <ele>3971.0</ele>
      </trkpt>
      <trkpt lat="46.0223" lon="7.87996">
        <time>1970-01-01T00:00:00+00:00</time>
        <ele>3973.0</ele>
      </trkpt>
      <trkpt lat="46.0223" lon="7.87996">
        <time>1970-01-01T00:00:00+00:00</time>
        <ele>3973.0</ele>
      </trkpt>
      <trkpt lat="46.022225" lon="7.880006">
        <time>1970-01-01T00:00:00+00:00</time>
        <ele>3976.0</ele>
      </trkpt>
      <trkpt lat="46.022225" lon="7.880006">
        <time>1970-01-01T00:00:00+00:00</time>
        <ele>3976.0</ele>
      </trkpt>
      <trkpt lat="46.02216" lon="7.880074">
        <time>1970-01-01T00:00:00+00:00</time>
        <ele>3978.0</ele>
      </trkpt>
      <trkpt lat="46.02216" lon="7.880074">
        <time>1970-01-01T00:00:00+00:00</time>
        <ele>3978.0</ele>
      </trkpt>
      <trkpt lat="46.022084" lon="7.88015">
        <time>1970-01-01T00:00:00+00:00</time>
        <ele>3980.0</ele>
      </trkpt>
      <trkpt lat="46.022084" lon="7.88015">
        <time>1970-01-01T00:00:00+00:00</time>
        <ele>3980.0</ele>
      </trkpt>
      <trkpt lat="46.022034" lon="7.880149">
        <time>1970-01-01T00:00:00+00:00</time>
        <ele>3981.0</ele>
      </trkpt>
      <trkpt lat="46.022034" lon="7.880149">
        <time>1970-01-01T00:00:00+00:00</time>
        <ele>3981.0</ele>
      </trkpt>
      <trkpt lat="46.02195" lon="7.880087">
        <time>1970-01-01T00:00:00+00:00</time>
        <ele>3984.0</ele>
      </trkpt>
      <trkpt lat="46.02195" lon="7.880087">
        <time>1970-01-01T00:00:00+00:00</time>
        <ele>3984.0</ele>
      </trkpt>
      <trkpt lat="46.021897" lon="7.880037">
        <time>1970-01-01T00:00:00+00:00</time>
        <ele>3986.0</ele>
      </trkpt>
      <trkpt lat="46.021897" lon="7.880037">
        <time>1970-01-01T00:00:00+00:00</time>
        <ele>3986.0</ele>
      </trkpt>
      <trkpt lat="46.021793" lon="7.879949">
        <time>1970-01-01T00:00:00+00:00</time>
        <ele>3990.0</ele>
      </trkpt>
      <trkpt lat="46.021793" lon="7.879949">
        <time>1970-01-01T00:00:00+00:00</time>
        <ele>3990.0</ele>
      </trkpt>
      <trkpt lat="46.021706" lon="7.879853">
        <time>1970-01-01T00:00:00+00:00</time>
        <ele>3992.0</ele>
      </trkpt>
      <trkpt lat="46.021706" lon="7.879853">
        <time>1970-01-01T00:00:00+00:00</time>
        <ele>3992.0</ele>
      </trkpt>
      <trkpt lat="46.021675" lon="7.879773">
        <time>1970-01-01T00:00:00+00:00</time>
        <ele>3993.0</ele>
      </trkpt>
      <trkpt lat="46.021675" lon="7.879773">
        <time>1970-01-01T00:00:00+00:00</time>
        <ele>3993.0</ele>
      </trkpt>
      <trkpt lat="46.021628" lon="7.879714">
        <time>1970-01-01T00:00:00+00:00</time>
        <ele>3995.0</ele>
      </trkpt>
      <trkpt lat="46.021628" lon="7.879714">
        <time>1970-01-01T00:00:00+00:00</time>
        <ele>3995.0</ele>
      </trkpt>
      <trkpt lat="46.021563" lon="7.879739">
        <time>1970-01-01T00:00:00+00:00</time>
        <ele>3995.0</ele>
      </trkpt>
      <trkpt lat="46.021563" lon="7.879739">
        <time>1970-01-01T00:00:00+00:00</time>
        <ele>3995.0</ele>
      </trkpt>
      <trkpt lat="46.021516" lon="7.879706">
        <time>1970-01-01T00:00:00+00:00</time>
        <ele>3996.0</ele>
      </trkpt>
      <trkpt lat="46.021516" lon="7.879706">
        <time>1970-01-01T00:00:00+00:00</time>
        <ele>3996.0</ele>
      </trkpt>
      <trkpt lat="46.021426" lon="7.879655">
        <time>1970-01-01T00:00:00+00:00</time>
        <ele>3996.0</ele>
      </trkpt>
      <trkpt lat="46.021426" lon="7.879655">
        <time>1970-01-01T00:00:00+00:00</time>
        <ele>3996.0</ele>
      </trkpt>
      <trkpt lat="46.021324" lon="7.879637">
        <time>1970-01-01T00:00:00+00:00</time>
        <ele>3995.0</ele>
      </trkpt>
      <trkpt lat="46.021324" lon="7.879637">
        <time>1970-01-01T00:00:00+00:00</time>
        <ele>3995.0</ele>
      </trkpt>
      <trkpt lat="46.021274" lon="7.87962">
        <time>1970-01-01T00:00:00+00:00</time>
        <ele>3994.0</ele>
      </trkpt>
      <trkpt lat="46.021274" lon="7.87962">
        <time>1970-01-01T00:00:00+00:00</time>
        <ele>3994.0</ele>
      </trkpt>
      <trkpt lat="46.021227" lon="7.879664">
        <time>1970-01-01T00:00:00+00:00</time>
        <ele>3991.0</ele>
      </trkpt>
      <trkpt lat="46.021227" lon="7.879664">
        <time>1970-01-01T00:00:00+00:00</time>
        <ele>3991.0</ele>
      </trkpt>
      <trkpt lat="46.021197" lon="7.879604">
        <time>1970-01-01T00:00:00+00:00</time>
        <ele>3989.0</ele>
      </trkpt>
      <trkpt lat="46.021197" lon="7.879604">
        <time>1970-01-01T00:00:00+00:00</time>
        <ele>3989.0</ele>
      </trkpt>
      <trkpt lat="46.021245" lon="7.879627">
        <time>1970-01-01T00:00:00+00:00</time>
        <ele>3992.0</ele>
      </trkpt>
      <trkpt lat="46.021245" lon="7.879627">
        <time>1970-01-01T00:00:00+00:00</time>
        <ele>3992.0</ele>
      </trkpt>
      <trkpt lat="46.021246" lon="7.879558">
        <time>1970-01-01T00:00:00+00:00</time>
        <ele>3992.0</ele>
      </trkpt>
      <trkpt lat="46.021246" lon="7.879558">
        <time>1970-01-01T00:00:00+00:00</time>
        <ele>3992.0</ele>
      </trkpt>
      <trkpt lat="46.021238" lon="7.879639">
        <time>1970-01-01T00:00:00+00:00</time>
        <ele>3992.0</ele>
      </trkpt>
      <trkpt lat="46.021238" lon="7.879639">
        <time>1970-01-01T00:00:00+00:00</time>
        <ele>3992.0</ele>
      </trkpt>
      <trkpt lat="46.021263" lon="7.879515">
        <time>1970-01-01T00:00:00+00:00</time>
        <ele>3993.0</ele>
      </trkpt>
      <trkpt lat="46.021263" lon="7.879515">
        <time>1970-01-01T00:00:00+00:00</time>
        <ele>3993.0</ele>
      </trkpt>
      <trkpt lat="46.021244" lon="7.879617">
        <time>1970-01-01T00:00:00+00:00</time>
        <ele>3992.0</ele>
      </trkpt>
      <trkpt lat="46.021244" lon="7.879617">
        <time>1970-01-01T00:00:00+00:00</time>
        <ele>3992.0</ele>
      </trkpt>
      <trkpt lat="46.021254" lon="7.879547">
        <time>1970-01-01T00:00:00+00:00</time>
        <ele>3992.0</ele>
      </trkpt>
      <trkpt lat="46.021254" lon="7.879547">
        <time>1970-01-01T00:00:00+00:00</time>
        <ele>3992.0</ele>
      </trkpt>
      <trkpt lat="46.021257" lon="7.879623">
        <time>1970-01-01T00:00:00+00:00</time>
        <ele>3993.0</ele>
      </trkpt>
      <trkpt lat="46.021257" lon="7.879623">
        <time>1970-01-01T00:00:00+00:00</time>
        <ele>3993.0</ele>
      </trkpt>
      <trkpt lat="46.021252" lon="7.879557">
        <time>1970-01-01T00:00:00+00:00</time>
        <ele>3992.0</ele>
      </trkpt>
      <trkpt lat="46.021252" lon="7.879557">
        <time>1970-01-01T00:00:00+00:00</time>
        <ele>3992.0</ele>
      </trkpt>
      <trkpt lat="46.021221" lon="7.879624">
        <time>1970-01-01T00:00:00+00:00</time>
        <ele>3991.0</ele>
      </trkpt>
      <trkpt lat="46.021221" lon="7.879624">
        <time>1970-01-01T00:00:00+00:00</time>
        <ele>3991.0</ele>
      </trkpt>
      <trkpt lat="46.021206" lon="7.879562">
        <time>1970-01-01T00:00:00+00:00</time>
        <ele>3990.0</ele>
      </trkpt>
      <trkpt lat="46.021206" lon="7.879562">
        <time>1970-01-01T00:00:00+00:00</time>
        <ele>3990.0</ele>
      </trkpt>
      <trkpt lat="46.021259" lon="7.87961">
        <time>1970-01-01T00:00:00+00:00</time>
        <ele>3993.0</ele>
      </trkpt>
      <trkpt lat="46.021259" lon="7.87961">
        <time>1970-01-01T00:00:00+00:00</time>
        <ele>3993.0</ele>
      </trkpt>
      <trkpt lat="46.021307" lon="7.879613">
        <time>1970-01-01T00:00:00+00:00</time>
        <ele>3995.0</ele>
      </trkpt>
      <trkpt lat="46.021307" lon="7.879613">
        <time>1970-01-01T00:00:00+00:00</time>
        <ele>3995.0</ele>
      </trkpt>
      <trkpt lat="46.021275" lon="7.879661">
        <time>1970-01-01T00:00:00+00:00</time>
        <ele>3994.0</ele>
      </trkpt>
      <trkpt lat="46.021275" lon="7.879661">
        <time>1970-01-01T00:00:00+00:00</time>
        <ele>3994.0</ele>
      </trkpt>
      <trkpt lat="46.02128" lon="7.879589">
        <time>1970-01-01T00:00:00+00:00</time>
        <ele>3994.0</ele>
      </trkpt>
      <trkpt lat="46.02128" lon="7.879589">
        <time>1970-01-01T00:00:00+00:00</time>
        <ele>3994.0</ele>
      </trkpt>
      <trkpt lat="46.02125" lon="7.879682">
        <time>1970-01-01T00:00:00+00:00</time>
        <ele>3992.0</ele>
      </trkpt>
      <trkpt lat="46.02125" lon="7.879682">
        <time>1970-01-01T00:00:00+00:00</time>
        <ele>3992.0</ele>
      </trkpt>
      <trkpt lat="46.021289" lon="7.879624">
        <time>1970-01-01T00:00:00+00:00</time>
        <ele>3994.0</ele>
      </trkpt>
      <trkpt lat="46.021289" lon="7.879624">
        <time>1970-01-01T00:00:00+00:00</time>
        <ele>3994.0</ele>
      </trkpt>
      <trkpt lat="46.021247" lon="7.879598">
        <time>1970-01-01T00:00:00+00:00</time>
        <ele>3992.0</ele>
      </trkpt>
      <trkpt lat="46.021247" lon="7.879598">
        <time>1970-01-01T00:00:00+00:00</time>
        <ele>3992.0</ele>
      </trkpt>
      <trkpt lat="46.021293" lon="7.879627">
        <time>1970-01-01T00:00:00+00:00</time>
        <ele>3995.0</ele>
      </trkpt>
      <trkpt lat="46.021293" lon="7.879627">
        <time>1970-01-01T00:00:00+00:00</time>
        <ele>3995.0</ele>
      </trkpt>
      <trkpt lat="46.02124" lon="7.879649">
        <time>1970-01-01T00:00:00+00:00</time>
        <ele>3992.0</ele>
      </trkpt>
      <trkpt lat="46.02124" lon="7.879649">
        <time>1970-01-01T00:00:00+00:00</time>
        <ele>3992.0</ele>
      </trkpt>
      <trkpt lat="46.021286" lon="7.87967">
        <time>1970-01-01T00:00:00+00:00</time>
        <ele>3994.0</ele>
      </trkpt>
      <trkpt lat="46.021286" lon="7.87967">
        <time>1970-01-01T00:00:00+00:00</time>
        <ele>3994.0</ele>
      </trkpt>
      <trkpt lat="46.021242" lon="7.879687">
        <time>1970-01-01T00:00:00+00:00</time>
        <ele>3992.0</ele>
      </trkpt>
      <trkpt lat="46.021242" lon="7.879687">
        <time>1970-01-01T00:00:00+00:00</time>
        <ele>3992.0</ele>
      </trkpt>
      <trkpt lat="46.021294" lon="7.879639">
        <time>1970-01-01T00:00:00+00:00</time>
        <ele>3995.0</ele>
      </trkpt>
      <trkpt lat="46.021294" lon="7.879639">
        <time>1970-01-01T00:00:00+00:00</time>
        <ele>3995.0</ele>
      </trkpt>
      <trkpt lat="46.021342" lon="7.879641">
        <time>1970-01-01T00:00:00+00:00</time>
        <ele>3995.0</ele>
      </trkpt>
      <trkpt lat="46.021342" lon="7.879641">
        <time>1970-01-01T00:00:00+00:00</time>
        <ele>3995.0</ele>
      </trkpt>
      <trkpt lat="46.0214" lon="7.879736">
        <time>1970-01-01T00:00:00+00:00</time>
        <ele>3996.0</ele>
      </trkpt>
      <trkpt lat="46.0214" lon="7.879736">
        <time>1970-01-01T00:00:00+00:00</time>
        <ele>3996.0</ele>
      </trkpt>
      <trkpt lat="46.021427" lon="7.879919">
        <time>1970-01-01T00:00:00+00:00</time>
        <ele>3995.0</ele>
      </trkpt>
      <trkpt lat="46.021427" lon="7.879919">
        <time>1970-01-01T00:00:00+00:00</time>
        <ele>3995.0</ele>
      </trkpt>
      <trkpt lat="46.021443" lon="7.879983">
        <time>1970-01-01T00:00:00+00:00</time>
        <ele>3994.0</ele>
      </trkpt>
      <trkpt lat="46.021443" lon="7.879983">
        <time>1970-01-01T00:00:00+00:00</time>
        <ele>3994.0</ele>
      </trkpt>
      <trkpt lat="46.021497" lon="7.88">
        <time>1970-01-01T00:00:00+00:00</time>
        <ele>3994.0</ele>
      </trkpt>
      <trkpt lat="46.021497" lon="7.88">
        <time>1970-01-01T00:00:00+00:00</time>
        <ele>3994.0</ele>
      </trkpt>
      <trkpt lat="46.021535" lon="7.880077">
        <time>1970-01-01T00:00:00+00:00</time>
        <ele>3993.0</ele>
      </trkpt>
      <trkpt lat="46.021535" lon="7.880077">
        <time>1970-01-01T00:00:00+00:00</time>
        <ele>3993.0</ele>
      </trkpt>
      <trkpt lat="46.021578" lon="7.880325">
        <time>1970-01-01T00:00:00+00:00</time>
        <ele>3988.0</ele>
      </trkpt>
      <trkpt lat="46.021578" lon="7.880325">
        <time>1970-01-01T00:00:00+00:00</time>
        <ele>3988.0</ele>
      </trkpt>
      <trkpt lat="46.0216374166057" lon="7.880569484721814">
        <time>1970-01-01T00:00:00+00:00</time>
        <ele>3984.0</ele>
      </trkpt>
      <trkpt lat="46.021639" lon="7.880576">
        <time>1970-01-01T00:00:00+00:00</time>
        <ele>3984.0</ele>
      </trkpt>
      <trkpt lat="46.021639" lon="7.880576">
        <time>1970-01-01T00:00:00+00:00</time>
        <ele>3984.0</ele>
      </trkpt>
      <trkpt lat="46.02169" lon="7.880617">
        <time>1970-01-01T00:00:00+00:00</time>
        <ele>3983.0</ele>
      </trkpt>
      <trkpt lat="46.02169" lon="7.880617">
        <time>1970-01-01T00:00:00+00:00</time>
        <ele>3983.0</ele>
      </trkpt>
      <trkpt lat="46.021739" lon="7.880559">
        <time>1970-01-01T00:00:00+00:00</time>
        <ele>3982.0</ele>
      </trkpt>
      <trkpt lat="46.021739" lon="7.880559">
        <time>1970-01-01T00:00:00+00:00</time>
        <ele>3982.0</ele>
      </trkpt>
      <trkpt lat="46.021861" lon="7.880704">
        <time>1970-01-01T00:00:00+00:00</time>
        <ele>3981.0</ele>
      </trkpt>
      <trkpt lat="46.021861" lon="7.880704">
        <time>1970-01-01T00:00:00+00:00</time>
        <ele>3981.0</ele>
      </trkpt>
      <trkpt lat="46.021907" lon="7.880678">
        <time>1970-01-01T00:00:00+00:00</time>
        <ele>3979.0</ele>
      </trkpt>
      <trkpt lat="46.021907" lon="7.880678">
        <time>1970-01-01T00:00:00+00:00</time>
        <ele>3979.0</ele>
      </trkpt>
      <trkpt lat="46.021938" lon="7.880588">
        <time>1970-01-01T00:00:00+00:00</time>
        <ele>3977.0</ele>
      </trkpt>
      <trkpt lat="46.021938" lon="7.880588">
        <time>1970-01-01T00:00:00+00:00</time>
        <ele>3977.0</ele>
      </trkpt>
      <trkpt lat="46.021967" lon="7.880368">
        <time>1970-01-01T00:00:00+00:00</time>
        <ele>3980.0</ele>
      </trkpt>
      <trkpt lat="46.021967" lon="7.880368">
        <time>1970-01-01T00:00:00+00:00</time>
        <ele>3980.0</ele>
      </trkpt>
      <trkpt lat="46.021969" lon="7.880204">
        <time>1970-01-01T00:00:00+00:00</time>
        <ele>3982.0</ele>
      </trkpt>
      <trkpt lat="46.021969" lon="7.880204">
        <time>1970-01-01T00:00:00+00:00</time>
        <ele>3982.0</ele>
      </trkpt>
      <trkpt lat="46.022027" lon="7.880212">
        <time>1970-01-01T00:00:00+00:00</time>
        <ele>3981.0</ele>
      </trkpt>
      <trkpt lat="46.022027" lon="7.880212">
        <time>1970-01-01T00:00:00+00:00</time>
        <ele>3981.0</ele>
      </trkpt>
      <trkpt lat="46.022069" lon="7.880187">
        <time>1970-01-01T00:00:00+00:00</time>
        <ele>3980.0</ele>
      </trkpt>
      <trkpt lat="46.022069" lon="7.880187">
        <time>1970-01-01T00:00:00+00:00</time>
        <ele>3980.0</ele>
      </trkpt>
      <trkpt lat="46.02214" lon="7.88019">
        <time>1970-01-01T00:00:00+00:00</time>
        <ele>3977.0</ele>
      </trkpt>
      <trkpt lat="46.02214" lon="7.88019">
        <time>1970-01-01T00:00:00+00:00</time>
        <ele>3977.0</ele>
      </trkpt>
      <trkpt lat="46.022199" lon="7.880233">
        <time>1970-01-01T00:00:00+00:00</time>
        <ele>3974.0</ele>
      </trkpt>
      <trkpt lat="46.022199" lon="7.880233">
        <time>1970-01-01T00:00:00+00:00</time>
        <ele>3974.0</ele>
      </trkpt>
      <trkpt lat="46.022251" lon="7.880195">
        <time>1970-01-01T00:00:00+00:00</time>
        <ele>3973.0</ele>
      </trkpt>
      <trkpt lat="46.022251" lon="7.880195">
        <time>1970-01-01T00:00:00+00:00</time>
        <ele>3973.0</ele>
      </trkpt>
      <trkpt lat="46.022274" lon="7.880075">
        <time>1970-01-01T00:00:00+00:00</time>
        <ele>3973.0</ele>
      </trkpt>
      <trkpt lat="46.022274" lon="7.880075">
        <time>1970-01-01T00:00:00+00:00</time>
        <ele>3973.0</ele>
      </trkpt>
      <trkpt lat="46.022318" lon="7.880054">
        <time>1970-01-01T00:00:00+00:00</time>
        <ele>3971.0</ele>
      </trkpt>
      <trkpt lat="46.022318" lon="7.880054">
        <time>1970-01-01T00:00:00+00:00</time>
        <ele>3971.0</ele>
      </trkpt>
      <trkpt lat="46.022382" lon="7.880125">
        <time>1970-01-01T00:00:00+00:00</time>
        <ele>3968.0</ele>
      </trkpt>
      <trkpt lat="46.022382" lon="7.880125">
        <time>1970-01-01T00:00:00+00:00</time>
        <ele>3968.0</ele>
      </trkpt>
      <trkpt lat="46.022439" lon="7.880142">
        <time>1970-01-01T00:00:00+00:00</time>
        <ele>3965.0</ele>
      </trkpt>
      <trkpt lat="46.022439" lon="7.880142">
        <time>1970-01-01T00:00:00+00:00</time>
        <ele>3965.0</ele>
      </trkpt>
      <trkpt lat="46.022528" lon="7.880012">
        <time>1970-01-01T00:00:00+00:00</time>
        <ele>3962.0</ele>
      </trkpt>
      <trkpt lat="46.022528" lon="7.880012">
        <time>1970-01-01T00:00:00+00:00</time>
        <ele>3962.0</ele>
      </trkpt>
      <trkpt lat="46.022586" lon="7.880035">
        <time>1970-01-01T00:00:00+00:00</time>
        <ele>3959.0</ele>
      </trkpt>
      <trkpt lat="46.022586" lon="7.880035">
        <time>1970-01-01T00:00:00+00:00</time>
        <ele>3959.0</ele>
      </trkpt>
      <trkpt lat="46.02265" lon="7.880064">
        <time>1970-01-01T00:00:00+00:00</time>
        <ele>3956.0</ele>
      </trkpt>
      <trkpt lat="46.02265" lon="7.880064">
        <time>1970-01-01T00:00:00+00:00</time>
        <ele>3956.0</ele>
      </trkpt>
      <trkpt lat="46.022708" lon="7.880023">
        <time>1970-01-01T00:00:00+00:00</time>
        <ele>3953.0</ele>
      </trkpt>
      <trkpt lat="46.022708" lon="7.880023">
        <time>1970-01-01T00:00:00+00:00</time>
        <ele>3953.0</ele>
      </trkpt>
      <trkpt lat="46.022735" lon="7.879811">
        <time>1970-01-01T00:00:00+00:00</time>
        <ele>3953.0</ele>
      </trkpt>
      <trkpt lat="46.022735" lon="7.879811">
        <time>1970-01-01T00:00:00+00:00</time>
        <ele>3953.0</ele>
      </trkpt>
      <trkpt lat="46.022803" lon="7.879628">
        <time>1970-01-01T00:00:00+00:00</time>
        <ele>3952.0</ele>
      </trkpt>
      <trkpt lat="46.022803" lon="7.879628">
        <time>1970-01-01T00:00:00+00:00</time>
        <ele>3952.0</ele>
      </trkpt>
      <trkpt lat="46.022866" lon="7.879539">
        <time>1970-01-01T00:00:00+00:00</time>
        <ele>3949.0</ele>
      </trkpt>
      <trkpt lat="46.022866" lon="7.879539">
        <time>1970-01-01T00:00:00+00:00</time>
        <ele>3949.0</ele>
      </trkpt>
      <trkpt lat="46.023015" lon="7.879396">
        <time>1970-01-01T00:00:00+00:00</time>
        <ele>3941.0</ele>
      </trkpt>
      <trkpt lat="46.023015" lon="7.879396">
        <time>1970-01-01T00:00:00+00:00</time>
        <ele>3941.0</ele>
      </trkpt>
      <trkpt lat="46.023051" lon="7.87945">
        <time>1970-01-01T00:00:00+00:00</time>
        <ele>3939.0</ele>
      </trkpt>
      <trkpt lat="46.023051" lon="7.87945">
        <time>1970-01-01T00:00:00+00:00</time>
        <ele>3939.0</ele>
      </trkpt>
      <trkpt lat="46.023108" lon="7.879479">
        <time>1970-01-01T00:00:00+00:00</time>
        <ele>3936.0</ele>
      </trkpt>
      <trkpt lat="46.023108" lon="7.879479">
        <time>1970-01-01T00:00:00+00:00</time>
        <ele>3936.0</ele>
      </trkpt>
      <trkpt lat="46.023161" lon="7.879461">
        <time>1970-01-01T00:00:00+00:00</time>
        <ele>3934.0</ele>
      </trkpt>
      <trkpt lat="46.023161" lon="7.879461">
        <time>1970-01-01T00:00:00+00:00</time>
        <ele>3934.0</ele>
      </trkpt>
      <trkpt lat="46.023197" lon="7.879389">
        <time>1970-01-01T00:00:00+00:00</time>
        <ele>3932.0</ele>
      </trkpt>
      <trkpt lat="46.023197" lon="7.879389">
        <time>1970-01-01T00:00:00+00:00</time>
        <ele>3932.0</ele>
      </trkpt>
      <trkpt lat="46.023237" lon="7.879345">
        <time>1970-01-01T00:00:00+00:00</time>
        <ele>3930.0</ele>
      </trkpt>
      <trkpt lat="46.023237" lon="7.879345">
        <time>1970-01-01T00:00:00+00:00</time>
        <ele>3930.0</ele>
      </trkpt>
      <trkpt lat="46.023278" lon="7.879472">
        <time>1970-01-01T00:00:00+00:00</time>
        <ele>3928.0</ele>
      </trkpt>
      <trkpt lat="46.023278" lon="7.879472">
        <time>1970-01-01T00:00:00+00:00</time>
        <ele>3928.0</ele>
      </trkpt>
      <trkpt lat="46.023321" lon="7.879531">
        <time>1970-01-01T00:00:00+00:00</time>
        <ele>3926.0</ele>
      </trkpt>
      <trkpt lat="46.023321" lon="7.879531">
        <time>1970-01-01T00:00:00+00:00</time>
        <ele>3926.0</ele>
      </trkpt>
      <trkpt lat="46.023476" lon="7.879485">
        <time>1970-01-01T00:00:00+00:00</time>
        <ele>3918.0</ele>
      </trkpt>
      <trkpt lat="46.023476" lon="7.879485">
        <time>1970-01-01T00:00:00+00:00</time>
        <ele>3918.0</ele>
      </trkpt>
      <trkpt lat="46.023566829351296" lon="7.879261420058364">
        <time>1970-01-01T00:00:00+00:00</time>
        <ele>3912.0</ele>
      </trkpt>
      <trkpt lat="46.02358" lon="7.879229">
        <time>1970-01-01T00:00:00+00:00</time>
        <ele>3911.0</ele>
      </trkpt>
      <trkpt lat="46.02358" lon="7.879229">
        <time>1970-01-01T00:00:00+00:00</time>
        <ele>3911.0</ele>
      </trkpt>
      <trkpt lat="46.02363" lon="7.879399">
        <time>1970-01-01T00:00:00+00:00</time>
        <ele>3908.0</ele>
      </trkpt>
      <trkpt lat="46.02363" lon="7.879399">
        <time>1970-01-01T00:00:00+00:00</time>
        <ele>3908.0</ele>
      </trkpt>
      <trkpt lat="46.023653" lon="7.879464">
        <time>1970-01-01T00:00:00+00:00</time>
        <ele>3907.0</ele>
      </trkpt>
      <trkpt lat="46.023653" lon="7.879464">
        <time>1970-01-01T00:00:00+00:00</time>
        <ele>3907.0</ele>
      </trkpt>
      <trkpt lat="46.023705" lon="7.879488">
        <time>1970-01-01T00:00:00+00:00</time>
        <ele>3904.0</ele>
      </trkpt>
      <trkpt lat="46.023705" lon="7.879488">
        <time>1970-01-01T00:00:00+00:00</time>
        <ele>3904.0</ele>
      </trkpt>
      <trkpt lat="46.023752" lon="7.879449">
        <time>1970-01-01T00:00:00+00:00</time>
        <ele>3901.0</ele>
      </trkpt>
      <trkpt lat="46.023752" lon="7.879449">
        <time>1970-01-01T00:00:00+00:00</time>
        <ele>3901.0</ele>
      </trkpt>
      <trkpt lat="46.023818" lon="7.879481">
        <time>1970-01-01T00:00:00+00:00</time>
        <ele>3896.0</ele>
      </trkpt>
      <trkpt lat="46.023818" lon="7.879481">
        <time>1970-01-01T00:00:00+00:00</time>
        <ele>3896.0</ele>
      </trkpt>
      <trkpt lat="46.023864" lon="7.879482">
        <time>1970-01-01T00:00:00+00:00</time>
        <ele>3894.0</ele>
      </trkpt>
      <trkpt lat="46.023864" lon="7.879482">
        <time>1970-01-01T00:00:00+00:00</time>
        <ele>3894.0</ele>
      </trkpt>
      <trkpt lat="46.023921" lon="7.879504">
        <time>1970-01-01T00:00:00+00:00</time>
        <ele>3890.0</ele>
      </trkpt>
      <trkpt lat="46.023921" lon="7.879504">
        <time>1970-01-01T00:00:00+00:00</time>
        <ele>3890.0</ele>
      </trkpt>
      <trkpt lat="46.023967" lon="7.879727">
        <time>1970-01-01T00:00:00+00:00</time>
        <ele>3889.0</ele>
      </trkpt>
      <trkpt lat="46.023967" lon="7.879727">
        <time>1970-01-01T00:00:00+00:00</time>
        <ele>3889.0</ele>
      </trkpt>
      <trkpt lat="46.024019" lon="7.879867">
        <time>1970-01-01T00:00:00+00:00</time>
        <ele>3887.0</ele>
      </trkpt>
      <trkpt lat="46.024019" lon="7.879867">
        <time>1970-01-01T00:00:00+00:00</time>
        <ele>3887.0</ele>
      </trkpt>
      <trkpt lat="46.02408716828606" lon="7.880106712654253">
        <time>1970-01-01T00:00:00+00:00</time>
        <ele>3883.0</ele>
      </trkpt>
      <trkpt lat="46.02411" lon="7.880187">
        <time>1970-01-01T00:00:00+00:00</time>
        <ele>3882.0</ele>
      </trkpt>
      <trkpt lat="46.02411" lon="7.880187">
        <time>1970-01-01T00:00:00+00:00</time>
        <ele>3882.0</ele>
      </trkpt>
      <trkpt lat="46.024151" lon="7.880275">
        <time>1970-01-01T00:00:00+00:00</time>
        <ele>3879.0</ele>
      </trkpt>
      <trkpt lat="46.024151" lon="7.880275">
        <time>1970-01-01T00:00:00+00:00</time>
        <ele>3879.0</ele>
      </trkpt>
      <trkpt lat="46.024257" lon="7.880265">
        <time>1970-01-01T00:00:00+00:00</time>
        <ele>3872.0</ele>
      </trkpt>
      <trkpt lat="46.024257" lon="7.880265">
        <time>1970-01-01T00:00:00+00:00</time>
        <ele>3872.0</ele>
      </trkpt>
      <trkpt lat="46.024341" lon="7.880336">
        <time>1970-01-01T00:00:00+00:00</time>
        <ele>3866.0</ele>
      </trkpt>
      <trkpt lat="46.024341" lon="7.880336">
        <time>1970-01-01T00:00:00+00:00</time>
        <ele>3866.0</ele>
      </trkpt>
      <trkpt lat="46.024412" lon="7.880498">
        <time>1970-01-01T00:00:00+00:00</time>
        <ele>3861.0</ele>
      </trkpt>
      <trkpt lat="46.024412" lon="7.880498">
        <time>1970-01-01T00:00:00+00:00</time>
        <ele>3861.0</ele>
      </trkpt>
      <trkpt lat="46.02444" lon="7.880556">
        <time>1970-01-01T00:00:00+00:00</time>
        <ele>3860.0</ele>
      </trkpt>
      <trkpt lat="46.02444" lon="7.880556">
        <time>1970-01-01T00:00:00+00:00</time>
        <ele>3860.0</ele>
      </trkpt>
      <trkpt lat="46.024505" lon="7.880663">
        <time>1970-01-01T00:00:00+00:00</time>
        <ele>3858.0</ele>
      </trkpt>
      <trkpt lat="46.024505" lon="7.880663">
        <time>1970-01-01T00:00:00+00:00</time>
        <ele>3858.0</ele>
      </trkpt>
      <trkpt lat="46.024584" lon="7.880686">
        <time>1970-01-01T00:00:00+00:00</time>
        <ele>3855.0</ele>
      </trkpt>
      <trkpt lat="46.024584" lon="7.880686">
        <time>1970-01-01T00:00:00+00:00</time>
        <ele>3855.0</ele>
      </trkpt>
      <trkpt lat="46.024648" lon="7.88062">
        <time>1970-01-01T00:00:00+00:00</time>
        <ele>3852.0</ele>
      </trkpt>
      <trkpt lat="46.024648" lon="7.88062">
        <time>1970-01-01T00:00:00+00:00</time>
        <ele>3852.0</ele>
      </trkpt>
      <trkpt lat="46.024806" lon="7.880694">
        <time>1970-01-01T00:00:00+00:00</time>
        <ele>3846.0</ele>
      </trkpt>
      <trkpt lat="46.024806" lon="7.880694">
        <time>1970-01-01T00:00:00+00:00</time>
        <ele>3846.0</ele>
      </trkpt>
      <trkpt lat="46.024887" lon="7.880794">
        <time>1970-01-01T00:00:00+00:00</time>
        <ele>3843.0</ele>
      </trkpt>
      <trkpt lat="46.024887" lon="7.880794">
        <time>1970-01-01T00:00:00+00:00</time>
        <ele>3843.0</ele>
      </trkpt>
      <trkpt lat="46.024926" lon="7.880866">
        <time>1970-01-01T00:00:00+00:00</time>
        <ele>3842.0</ele>
      </trkpt>
      <trkpt lat="46.024926" lon="7.880866">
        <time>1970-01-01T00:00:00+00:00</time>
        <ele>3842.0</ele>
      </trkpt>
      <trkpt lat="46.024994" lon="7.880917">
        <time>1970-01-01T00:00:00+00:00</time>
        <ele>3839.0</ele>
      </trkpt>
      <trkpt lat="46.024994" lon="7.880917">
        <time>1970-01-01T00:00:00+00:00</time>
        <ele>3839.0</ele>
      </trkpt>
      <trkpt lat="46.025044" lon="7.880928">
        <time>1970-01-01T00:00:00+00:00</time>
        <ele>3837.0</ele>
      </trkpt>
      <trkpt lat="46.025044" lon="7.880928">
        <time>1970-01-01T00:00:00+00:00</time>
        <ele>3837.0</ele>
      </trkpt>
      <trkpt lat="46.025069" lon="7.880841">
        <time>1970-01-01T00:00:00+00:00</time>
        <ele>3835.0</ele>
      </trkpt>
      <trkpt lat="46.025069" lon="7.880841">
        <time>1970-01-01T00:00:00+00:00</time>
        <ele>3835.0</ele>
      </trkpt>
      <trkpt lat="46.025145" lon="7.880835">
        <time>1970-01-01T00:00:00+00:00</time>
        <ele>3832.0</ele>
      </trkpt>
      <trkpt lat="46.025145" lon="7.880835">
        <time>1970-01-01T00:00:00+00:00</time>
        <ele>3832.0</ele>
      </trkpt>
      <trkpt lat="46.025211" lon="7.880781">
        <time>1970-01-01T00:00:00+00:00</time>
        <ele>3829.0</ele>
      </trkpt>
      <trkpt lat="46.025211" lon="7.880781">
        <time>1970-01-01T00:00:00+00:00</time>
        <ele>3829.0</ele>
      </trkpt>
      <trkpt lat="46.025259" lon="7.880761">
        <time>1970-01-01T00:00:00+00:00</time>
        <ele>3826.0</ele>
      </trkpt>
      <trkpt lat="46.025259" lon="7.880761">
        <time>1970-01-01T00:00:00+00:00</time>
        <ele>3826.0</ele>
      </trkpt>
      <trkpt lat="46.025365" lon="7.88083">
        <time>1970-01-01T00:00:00+00:00</time>
        <ele>3821.0</ele>
      </trkpt>
      <trkpt lat="46.025365" lon="7.88083">
        <time>1970-01-01T00:00:00+00:00</time>
        <ele>3821.0</ele>
      </trkpt>
      <trkpt lat="46.025452" lon="7.880873">
        <time>1970-01-01T00:00:00+00:00</time>
        <ele>3817.0</ele>
      </trkpt>
      <trkpt lat="46.025452" lon="7.880873">
        <time>1970-01-01T00:00:00+00:00</time>
        <ele>3817.0</ele>
      </trkpt>
      <trkpt lat="46.025499" lon="7.880876">
        <time>1970-01-01T00:00:00+00:00</time>
        <ele>3815.0</ele>
      </trkpt>
      <trkpt lat="46.025499" lon="7.880876">
        <time>1970-01-01T00:00:00+00:00</time>
        <ele>3815.0</ele>
      </trkpt>
      <trkpt lat="46.02556" lon="7.880775">
        <time>1970-01-01T00:00:00+00:00</time>
        <ele>3810.0</ele>
      </trkpt>
      <trkpt lat="46.02556" lon="7.880775">
        <time>1970-01-01T00:00:00+00:00</time>
        <ele>3810.0</ele>
      </trkpt>
      <trkpt lat="46.025611" lon="7.880765">
        <time>1970-01-01T00:00:00+00:00</time>
        <ele>3808.0</ele>
      </trkpt>
      <trkpt lat="46.025611" lon="7.880765">
        <time>1970-01-01T00:00:00+00:00</time>
        <ele>3808.0</ele>
      </trkpt>
      <trkpt lat="46.025665" lon="7.880806">
        <time>1970-01-01T00:00:00+00:00</time>
        <ele>3806.0</ele>
      </trkpt>
      <trkpt lat="46.025665" lon="7.880806">
        <time>1970-01-01T00:00:00+00:00</time>
        <ele>3806.0</ele>
      </trkpt>
      <trkpt lat="46.025686" lon="7.880746">
        <time>1970-01-01T00:00:00+00:00</time>
        <ele>3805.0</ele>
      </trkpt>
      <trkpt lat="46.025686" lon="7.880746">
        <time>1970-01-01T00:00:00+00:00</time>
        <ele>3805.0</ele>
      </trkpt>
      <trkpt lat="46.025732" lon="7.880715">
        <time>1970-01-01T00:00:00+00:00</time>
        <ele>3802.0</ele>
      </trkpt>
      <trkpt lat="46.025732" lon="7.880715">
        <time>1970-01-01T00:00:00+00:00</time>
        <ele>3802.0</ele>
      </trkpt>
      <trkpt lat="46.025767" lon="7.880763">
        <time>1970-01-01T00:00:00+00:00</time>
        <ele>3802.0</ele>
      </trkpt>
      <trkpt lat="46.025767" lon="7.880763">
        <time>1970-01-01T00:00:00+00:00</time>
        <ele>3802.0</ele>
      </trkpt>
      <trkpt lat="46.025807" lon="7.880793">
        <time>1970-01-01T00:00:00+00:00</time>
        <ele>3801.0</ele>
      </trkpt>
      <trkpt lat="46.025807" lon="7.880793">
        <time>1970-01-01T00:00:00+00:00</time>
        <ele>3801.0</ele>
      </trkpt>
      <trkpt lat="46.02589" lon="7.880882">
        <time>1970-01-01T00:00:00+00:00</time>
        <ele>3798.0</ele>
      </trkpt>
      <trkpt lat="46.02589" lon="7.880882">
        <time>1970-01-01T00:00:00+00:00</time>
        <ele>3798.0</ele>
      </trkpt>
      <trkpt lat="46.025923" lon="7.880834">
        <time>1970-01-01T00:00:00+00:00</time>
        <ele>3795.0</ele>
      </trkpt>
      <trkpt lat="46.025923" lon="7.880834">
        <time>1970-01-01T00:00:00+00:00</time>
        <ele>3795.0</ele>
      </trkpt>
      <trkpt lat="46.02597" lon="7.880843">
        <time>1970-01-01T00:00:00+00:00</time>
        <ele>3792.0</ele>
      </trkpt>
      <trkpt lat="46.02597" lon="7.880843">
        <time>1970-01-01T00:00:00+00:00</time>
        <ele>3792.0</ele>
      </trkpt>
      <trkpt lat="46.026025" lon="7.880884">
        <time>1970-01-01T00:00:00+00:00</time>
        <ele>3790.0</ele>
      </trkpt>
      <trkpt lat="46.026025" lon="7.880884">
        <time>1970-01-01T00:00:00+00:00</time>
        <ele>3790.0</ele>
      </trkpt>
      <trkpt lat="46.026051" lon="7.880829">
        <time>1970-01-01T00:00:00+00:00</time>
        <ele>3787.0</ele>
      </trkpt>
      <trkpt lat="46.026051" lon="7.880829">
        <time>1970-01-01T00:00:00+00:00</time>
        <ele>3787.0</ele>
      </trkpt>
      <trkpt lat="46.026092" lon="7.880774">
        <time>1970-01-01T00:00:00+00:00</time>
        <ele>3783.0</ele>
      </trkpt>
      <trkpt lat="46.026092" lon="7.880774">
        <time>1970-01-01T00:00:00+00:00</time>
        <ele>3783.0</ele>
      </trkpt>
      <trkpt lat="46.026185" lon="7.880872">
        <time>1970-01-01T00:00:00+00:00</time>
        <ele>3781.0</ele>
      </trkpt>
      <trkpt lat="46.026185" lon="7.880872">
        <time>1970-01-01T00:00:00+00:00</time>
        <ele>3781.0</ele>
      </trkpt>
      <trkpt lat="46.026199" lon="7.880734">
        <time>1970-01-01T00:00:00+00:00</time>
        <ele>3777.0</ele>
      </trkpt>
      <trkpt lat="46.026199" lon="7.880734">
        <time>1970-01-01T00:00:00+00:00</time>
        <ele>3777.0</ele>
      </trkpt>
      <trkpt lat="46.026268" lon="7.880767">
        <time>1970-01-01T00:00:00+00:00</time>
        <ele>3775.0</ele>
      </trkpt>
      <trkpt lat="46.026268" lon="7.880767">
        <time>1970-01-01T00:00:00+00:00</time>
        <ele>3775.0</ele>
      </trkpt>
      <trkpt lat="46.026332" lon="7.880819">
        <time>1970-01-01T00:00:00+00:00</time>
        <ele>3773.0</ele>
      </trkpt>
      <trkpt lat="46.026332" lon="7.880819">
        <time>1970-01-01T00:00:00+00:00</time>
        <ele>3773.0</ele>
      </trkpt>
      <trkpt lat="46.026367" lon="7.880757">
        <time>1970-01-01T00:00:00+00:00</time>
        <ele>3770.0</ele>
      </trkpt>
      <trkpt lat="46.026367" lon="7.880757">
        <time>1970-01-01T00:00:00+00:00</time>
        <ele>3770.0</ele>
      </trkpt>
      <trkpt lat="46.026475" lon="7.880846">
        <time>1970-01-01T00:00:00+00:00</time>
        <ele>3767.0</ele>
      </trkpt>
      <trkpt lat="46.026475" lon="7.880846">
        <time>1970-01-01T00:00:00+00:00</time>
        <ele>3767.0</ele>
      </trkpt>
      <trkpt lat="46.026556" lon="7.880871">
        <time>1970-01-01T00:00:00+00:00</time>
        <ele>3764.0</ele>
      </trkpt>
      <trkpt lat="46.026556" lon="7.880871">
        <time>1970-01-01T00:00:00+00:00</time>
        <ele>3764.0</ele>
      </trkpt>
      <trkpt lat="46.026611" lon="7.880835">
        <time>1970-01-01T00:00:00+00:00</time>
        <ele>3760.0</ele>
      </trkpt>
      <trkpt lat="46.026611" lon="7.880835">
        <time>1970-01-01T00:00:00+00:00</time>
        <ele>3760.0</ele>
      </trkpt>
      <trkpt lat="46.026682" lon="7.880839">
        <time>1970-01-01T00:00:00+00:00</time>
        <ele>3757.0</ele>
      </trkpt>
      <trkpt lat="46.026682" lon="7.880839">
        <time>1970-01-01T00:00:00+00:00</time>
        <ele>3757.0</ele>
      </trkpt>
      <trkpt lat="46.02674" lon="7.88082">
        <time>1970-01-01T00:00:00+00:00</time>
        <ele>3754.0</ele>
      </trkpt>
      <trkpt lat="46.02674" lon="7.88082">
        <time>1970-01-01T00:00:00+00:00</time>
        <ele>3754.0</ele>
      </trkpt>
      <trkpt lat="46.026787" lon="7.880762">
        <time>1970-01-01T00:00:00+00:00</time>
        <ele>3752.0</ele>
      </trkpt>
      <trkpt lat="46.026787" lon="7.880762">
        <time>1970-01-01T00:00:00+00:00</time>
        <ele>3752.0</ele>
      </trkpt>
      <trkpt lat="46.026806" lon="7.880661">
        <time>1970-01-01T00:00:00+00:00</time>
        <ele>3749.0</ele>
      </trkpt>
      <trkpt lat="46.026806" lon="7.880661">
        <time>1970-01-01T00:00:00+00:00</time>
        <ele>3749.0</ele>
      </trkpt>
      <trkpt lat="46.026868" lon="7.880621">
        <time>1970-01-01T00:00:00+00:00</time>
        <ele>3746.0</ele>
      </trkpt>
      <trkpt lat="46.026868" lon="7.880621">
        <time>1970-01-01T00:00:00+00:00</time>
        <ele>3746.0</ele>
      </trkpt>
      <trkpt lat="46.026894" lon="7.880521">
        <time>1970-01-01T00:00:00+00:00</time>
        <ele>3744.0</ele>
      </trkpt>
      <trkpt lat="46.026894" lon="7.880521">
        <time>1970-01-01T00:00:00+00:00</time>
        <ele>3744.0</ele>
      </trkpt>
      <trkpt lat="46.026945" lon="7.880433">
        <time>1970-01-01T00:00:00+00:00</time>
        <ele>3741.0</ele>
      </trkpt>
      <trkpt lat="46.026945" lon="7.880433">
        <time>1970-01-01T00:00:00+00:00</time>
        <ele>3741.0</ele>
      </trkpt>
      <trkpt lat="46.02699" lon="7.880396">
        <time>1970-01-01T00:00:00+00:00</time>
        <ele>3738.0</ele>
      </trkpt>
      <trkpt lat="46.02699" lon="7.880396">
        <time>1970-01-01T00:00:00+00:00</time>
        <ele>3738.0</ele>
      </trkpt>
      <trkpt lat="46.027002" lon="7.880322">
        <time>1970-01-01T00:00:00+00:00</time>
        <ele>3736.0</ele>
      </trkpt>
      <trkpt lat="46.027002" lon="7.880322">
        <time>1970-01-01T00:00:00+00:00</time>
        <ele>3736.0</ele>
      </trkpt>
      <trkpt lat="46.027105" lon="7.880239">
        <time>1970-01-01T00:00:00+00:00</time>
        <ele>3731.0</ele>
      </trkpt>
      <trkpt lat="46.027105" lon="7.880239">
        <time>1970-01-01T00:00:00+00:00</time>
        <ele>3731.0</ele>
      </trkpt>
      <trkpt lat="46.027058" lon="7.880004">
        <time>1970-01-01T00:00:00+00:00</time>
        <ele>3728.0</ele>
      </trkpt>
      <trkpt lat="46.027058" lon="7.880004">
        <time>1970-01-01T00:00:00+00:00</time>
        <ele>3728.0</ele>
      </trkpt>
      <trkpt lat="46.027092" lon="7.879949">
        <time>1970-01-01T00:00:00+00:00</time>
        <ele>3725.0</ele>
      </trkpt>
      <trkpt lat="46.027092" lon="7.879949">
        <time>1970-01-01T00:00:00+00:00</time>
        <ele>3725.0</ele>
      </trkpt>
      <trkpt lat="46.027191" lon="7.87993">
        <time>1970-01-01T00:00:00+00:00</time>
        <ele>3721.0</ele>
      </trkpt>
      <trkpt lat="46.027191" lon="7.87993">
        <time>1970-01-01T00:00:00+00:00</time>
        <ele>3721.0</ele>
      </trkpt>
      <trkpt lat="46.027223" lon="7.87986">
        <time>1970-01-01T00:00:00+00:00</time>
        <ele>3718.0</ele>
      </trkpt>
      <trkpt lat="46.027223" lon="7.87986">
        <time>1970-01-01T00:00:00+00:00</time>
        <ele>3718.0</ele>
      </trkpt>
      <trkpt lat="46.027217" lon="7.879791">
        <time>1970-01-01T00:00:00+00:00</time>
        <ele>3716.0</ele>
      </trkpt>
      <trkpt lat="46.027217" lon="7.879791">
        <time>1970-01-01T00:00:00+00:00</time>
        <ele>3716.0</ele>
      </trkpt>
      <trkpt lat="46.027236" lon="7.879719">
        <time>1970-01-01T00:00:00+00:00</time>
        <ele>3713.0</ele>
      </trkpt>
      <trkpt lat="46.027236" lon="7.879719">
        <time>1970-01-01T00:00:00+00:00</time>
        <ele>3713.0</ele>
      </trkpt>
      <trkpt lat="46.027274" lon="7.879645">
        <time>1970-01-01T00:00:00+00:00</time>
        <ele>3710.0</ele>
      </trkpt>
      <trkpt lat="46.027274" lon="7.879645">
        <time>1970-01-01T00:00:00+00:00</time>
        <ele>3710.0</ele>
      </trkpt>
      <trkpt lat="46.027382" lon="7.879559">
        <time>1970-01-01T00:00:00+00:00</time>
        <ele>3705.0</ele>
      </trkpt>
      <trkpt lat="46.027382" lon="7.879559">
        <time>1970-01-01T00:00:00+00:00</time>
        <ele>3705.0</ele>
      </trkpt>
      <trkpt lat="46.027449" lon="7.879498">
        <time>1970-01-01T00:00:00+00:00</time>
        <ele>3701.0</ele>
      </trkpt>
      <trkpt lat="46.027449" lon="7.879498">
        <time>1970-01-01T00:00:00+00:00</time>
        <ele>3701.0</ele>
      </trkpt>
      <trkpt lat="46.02743" lon="7.879361">
        <time>1970-01-01T00:00:00+00:00</time>
        <ele>3698.0</ele>
      </trkpt>
      <trkpt lat="46.02743" lon="7.879361">
        <time>1970-01-01T00:00:00+00:00</time>
        <ele>3698.0</ele>
      </trkpt>
      <trkpt lat="46.027465" lon="7.879305">
        <time>1970-01-01T00:00:00+00:00</time>
        <ele>3696.0</ele>
      </trkpt>
      <trkpt lat="46.027465" lon="7.879305">
        <time>1970-01-01T00:00:00+00:00</time>
        <ele>3696.0</ele>
      </trkpt>
      <trkpt lat="46.027525" lon="7.879301">
        <time>1970-01-01T00:00:00+00:00</time>
        <ele>3695.0</ele>
      </trkpt>
      <trkpt lat="46.027525" lon="7.879301">
        <time>1970-01-01T00:00:00+00:00</time>
        <ele>3695.0</ele>
      </trkpt>
      <trkpt lat="46.02761" lon="7.879305">
        <time>1970-01-01T00:00:00+00:00</time>
        <ele>3694.0</ele>
      </trkpt>
      <trkpt lat="46.02761" lon="7.879305">
        <time>1970-01-01T00:00:00+00:00</time>
        <ele>3694.0</ele>
      </trkpt>
      <trkpt lat="46.027695" lon="7.879313">
        <time>1970-01-01T00:00:00+00:00</time>
        <ele>3694.0</ele>
      </trkpt>
      <trkpt lat="46.027695" lon="7.879313">
        <time>1970-01-01T00:00:00+00:00</time>
        <ele>3694.0</ele>
      </trkpt>
      <trkpt lat="46.027787" lon="7.879298">
        <time>1970-01-01T00:00:00+00:00</time>
        <ele>3692.0</ele>
      </trkpt>
      <trkpt lat="46.027787" lon="7.879298">
        <time>1970-01-01T00:00:00+00:00</time>
        <ele>3692.0</ele>
      </trkpt>
      <trkpt lat="46.027873" lon="7.879163">
        <time>1970-01-01T00:00:00+00:00</time>
        <ele>3690.0</ele>
      </trkpt>
      <trkpt lat="46.027873" lon="7.879163">
        <time>1970-01-01T00:00:00+00:00</time>
        <ele>3690.0</ele>
      </trkpt>
      <trkpt lat="46.027906" lon="7.879115">
        <time>1970-01-01T00:00:00+00:00</time>
        <ele>3689.0</ele>
      </trkpt>
      <trkpt lat="46.027906" lon="7.879115">
        <time>1970-01-01T00:00:00+00:00</time>
        <ele>3689.0</ele>
      </trkpt>
      <trkpt lat="46.028041" lon="7.879042">
        <time>1970-01-01T00:00:00+00:00</time>
        <ele>3689.0</ele>
      </trkpt>
      <trkpt lat="46.028041" lon="7.879042">
        <time>1970-01-01T00:00:00+00:00</time>
        <ele>3689.0</ele>
      </trkpt>
      <trkpt lat="46.0281" lon="7.878933">
        <time>1970-01-01T00:00:00+00:00</time>
        <ele>3687.0</ele>
      </trkpt>
      <trkpt lat="46.0281" lon="7.878933">
        <time>1970-01-01T00:00:00+00:00</time>
        <ele>3687.0</ele>
      </trkpt>
      <trkpt lat="46.028099" lon="7.878845">
        <time>1970-01-01T00:00:00+00:00</time>
        <ele>3684.0</ele>
      </trkpt>
      <trkpt lat="46.028099" lon="7.878845">
        <time>1970-01-01T00:00:00+00:00</time>
        <ele>3684.0</ele>
      </trkpt>
      <trkpt lat="46.028118" lon="7.87877">
        <time>1970-01-01T00:00:00+00:00</time>
        <ele>3682.0</ele>
      </trkpt>
      <trkpt lat="46.028118" lon="7.87877">
        <time>1970-01-01T00:00:00+00:00</time>
        <ele>3682.0</ele>
      </trkpt>
      <trkpt lat="46.028146" lon="7.878703">
        <time>1970-01-01T00:00:00+00:00</time>
        <ele>3680.0</ele>
      </trkpt>
      <trkpt lat="46.028146" lon="7.878703">
        <time>1970-01-01T00:00:00+00:00</time>
        <ele>3680.0</ele>
      </trkpt>
      <trkpt lat="46.028194" lon="7.878665">
        <time>1970-01-01T00:00:00+00:00</time>
        <ele>3679.0</ele>
      </trkpt>
      <trkpt lat="46.028194" lon="7.878665">
        <time>1970-01-01T00:00:00+00:00</time>
        <ele>3679.0</ele>
      </trkpt>
      <trkpt lat="46.028265" lon="7.878584">
        <time>1970-01-01T00:00:00+00:00</time>
        <ele>3678.0</ele>
      </trkpt>
      <trkpt lat="46.028265" lon="7.878584">
        <time>1970-01-01T00:00:00+00:00</time>
        <ele>3678.0</ele>
      </trkpt>
      <trkpt lat="46.028274" lon="7.878489">
        <time>1970-01-01T00:00:00+00:00</time>
        <ele>3675.0</ele>
      </trkpt>
      <trkpt lat="46.028274" lon="7.878489">
        <time>1970-01-01T00:00:00+00:00</time>
        <ele>3675.0</ele>
      </trkpt>
      <trkpt lat="46.028243" lon="7.878409">
        <time>1970-01-01T00:00:00+00:00</time>
        <ele>3672.0</ele>
      </trkpt>
      <trkpt lat="46.028243" lon="7.878409">
        <time>1970-01-01T00:00:00+00:00</time>
        <ele>3672.0</ele>
      </trkpt>
      <trkpt lat="46.028277" lon="7.878325">
        <time>1970-01-01T00:00:00+00:00</time>
        <ele>3671.0</ele>
      </trkpt>
      <trkpt lat="46.028277" lon="7.878325">
        <time>1970-01-01T00:00:00+00:00</time>
        <ele>3671.0</ele>
      </trkpt>
      <trkpt lat="46.028321" lon="7.8783">
        <time>1970-01-01T00:00:00+00:00</time>
        <ele>3671.0</ele>
      </trkpt>
      <trkpt lat="46.028321" lon="7.8783">
        <time>1970-01-01T00:00:00+00:00</time>
        <ele>3671.0</ele>
      </trkpt>
      <trkpt lat="46.028401" lon="7.878274">
        <time>1970-01-01T00:00:00+00:00</time>
        <ele>3671.0</ele>
      </trkpt>
      <trkpt lat="46.028401" lon="7.878274">
        <time>1970-01-01T00:00:00+00:00</time>
        <ele>3671.0</ele>
      </trkpt>
      <trkpt lat="46.028503" lon="7.878228">
        <time>1970-01-01T00:00:00+00:00</time>
        <ele>3672.0</ele>
      </trkpt>
      <trkpt lat="46.028503" lon="7.878228">
        <time>1970-01-01T00:00:00+00:00</time>
        <ele>3672.0</ele>
      </trkpt>
      <trkpt lat="46.028561" lon="7.878177">
        <time>1970-01-01T00:00:00+00:00</time>
        <ele>3672.0</ele>
      </trkpt>
      <trkpt lat="46.028561" lon="7.878177">
        <time>1970-01-01T00:00:00+00:00</time>
        <ele>3672.0</ele>
      </trkpt>
      <trkpt lat="46.028615" lon="7.878064">
        <time>1970-01-01T00:00:00+00:00</time>
        <ele>3669.0</ele>
      </trkpt>
      <trkpt lat="46.028615" lon="7.878064">
        <time>1970-01-01T00:00:00+00:00</time>
        <ele>3669.0</ele>
      </trkpt>
      <trkpt lat="46.028652" lon="7.878016">
        <time>1970-01-01T00:00:00+00:00</time>
        <ele>3668.0</ele>
      </trkpt>
      <trkpt lat="46.028652" lon="7.878016">
        <time>1970-01-01T00:00:00+00:00</time>
        <ele>3668.0</ele>
      </trkpt>
      <trkpt lat="46.02874" lon="7.877954">
        <time>1970-01-01T00:00:00+00:00</time>
        <ele>3668.0</ele>
      </trkpt>
      <trkpt lat="46.02874" lon="7.877954">
        <time>1970-01-01T00:00:00+00:00</time>
        <ele>3668.0</ele>
      </trkpt>
      <trkpt lat="46.028777" lon="7.877907">
        <time>1970-01-01T00:00:00+00:00</time>
        <ele>3666.0</ele>
      </trkpt>
      <trkpt lat="46.028777" lon="7.877907">
        <time>1970-01-01T00:00:00+00:00</time>
        <ele>3666.0</ele>
      </trkpt>
      <trkpt lat="46.028846" lon="7.877765">
        <time>1970-01-01T00:00:00+00:00</time>
        <ele>3663.0</ele>
      </trkpt>
      <trkpt lat="46.028846" lon="7.877765">
        <time>1970-01-01T00:00:00+00:00</time>
        <ele>3663.0</ele>
      </trkpt>
      <trkpt lat="46.028896" lon="7.877706">
        <time>1970-01-01T00:00:00+00:00</time>
        <ele>3662.0</ele>
      </trkpt>
      <trkpt lat="46.028896" lon="7.877706">
        <time>1970-01-01T00:00:00+00:00</time>
        <ele>3662.0</ele>
      </trkpt>
      <trkpt lat="46.028965" lon="7.877685">
        <time>1970-01-01T00:00:00+00:00</time>
        <ele>3663.0</ele>
      </trkpt>
      <trkpt lat="46.028965" lon="7.877685">
        <time>1970-01-01T00:00:00+00:00</time>
        <ele>3663.0</ele>
      </trkpt>
      <trkpt lat="46.029018" lon="7.877656">
        <time>1970-01-01T00:00:00+00:00</time>
        <ele>3663.0</ele>
      </trkpt>
      <trkpt lat="46.029018" lon="7.877656">
        <time>1970-01-01T00:00:00+00:00</time>
        <ele>3663.0</ele>
      </trkpt>
      <trkpt lat="46.029067" lon="7.877609">
        <time>1970-01-01T00:00:00+00:00</time>
        <ele>3663.0</ele>
      </trkpt>
      <trkpt lat="46.029067" lon="7.877609">
        <time>1970-01-01T00:00:00+00:00</time>
        <ele>3663.0</ele>
      </trkpt>
      <trkpt lat="46.029103" lon="7.877561">
        <time>1970-01-01T00:00:00+00:00</time>
        <ele>3662.0</ele>
      </trkpt>
      <trkpt lat="46.029103" lon="7.877561">
        <time>1970-01-01T00:00:00+00:00</time>
        <ele>3662.0</ele>
      </trkpt>
      <trkpt lat="46.029133" lon="7.877502">
        <time>1970-01-01T00:00:00+00:00</time>
        <ele>3661.0</ele>
      </trkpt>
      <trkpt lat="46.029133" lon="7.877502">
        <time>1970-01-01T00:00:00+00:00</time>
        <ele>3661.0</ele>
      </trkpt>
      <trkpt lat="46.029174" lon="7.877447">
        <time>1970-01-01T00:00:00+00:00</time>
        <ele>3660.0</ele>
      </trkpt>
      <trkpt lat="46.029174" lon="7.877447">
        <time>1970-01-01T00:00:00+00:00</time>
        <ele>3660.0</ele>
      </trkpt>
      <trkpt lat="46.029225" lon="7.877412">
        <time>1970-01-01T00:00:00+00:00</time>
        <ele>3660.0</ele>
      </trkpt>
      <trkpt lat="46.029225" lon="7.877412">
        <time>1970-01-01T00:00:00+00:00</time>
        <ele>3660.0</ele>
      </trkpt>
      <trkpt lat="46.029265" lon="7.877379">
        <time>1970-01-01T00:00:00+00:00</time>
        <ele>3660.0</ele>
      </trkpt>
      <trkpt lat="46.029265" lon="7.877379">
        <time>1970-01-01T00:00:00+00:00</time>
        <ele>3660.0</ele>
      </trkpt>
      <trkpt lat="46.029308" lon="7.877203">
        <time>1970-01-01T00:00:00+00:00</time>
        <ele>3656.0</ele>
      </trkpt>
      <trkpt lat="46.029308" lon="7.877203">
        <time>1970-01-01T00:00:00+00:00</time>
        <ele>3656.0</ele>
      </trkpt>
      <trkpt lat="46.029356" lon="7.877104">
        <time>1970-01-01T00:00:00+00:00</time>
        <ele>3653.0</ele>
      </trkpt>
      <trkpt lat="46.029356" lon="7.877104">
        <time>1970-01-01T00:00:00+00:00</time>
        <ele>3653.0</ele>
      </trkpt>
      <trkpt lat="46.029411" lon="7.876996">
        <time>1970-01-01T00:00:00+00:00</time>
        <ele>3651.0</ele>
      </trkpt>
      <trkpt lat="46.029411" lon="7.876996">
        <time>1970-01-01T00:00:00+00:00</time>
        <ele>3651.0</ele>
      </trkpt>
      <trkpt lat="46.029481" lon="7.87693">
        <time>1970-01-01T00:00:00+00:00</time>
        <ele>3649.0</ele>
      </trkpt>
      <trkpt lat="46.029481" lon="7.87693">
        <time>1970-01-01T00:00:00+00:00</time>
        <ele>3649.0</ele>
      </trkpt>
      <trkpt lat="46.029582" lon="7.876823">
        <time>1970-01-01T00:00:00+00:00</time>
        <ele>3644.0</ele>
      </trkpt>
      <trkpt lat="46.029582" lon="7.876823">
        <time>1970-01-01T00:00:00+00:00</time>
        <ele>3644.0</ele>
      </trkpt>
      <trkpt lat="46.029644" lon="7.87677">
        <time>1970-01-01T00:00:00+00:00</time>
        <ele>3641.0</ele>
      </trkpt>
      <trkpt lat="46.029644" lon="7.87677">
        <time>1970-01-01T00:00:00+00:00</time>
        <ele>3641.0</ele>
      </trkpt>
      <trkpt lat="46.029666" lon="7.876684">
        <time>1970-01-01T00:00:00+00:00</time>
        <ele>3638.0</ele>
      </trkpt>
      <trkpt lat="46.029666" lon="7.876684">
        <time>1970-01-01T00:00:00+00:00</time>
        <ele>3638.0</ele>
      </trkpt>
      <trkpt lat="46.029698" lon="7.876591">
        <time>1970-01-01T00:00:00+00:00</time>
        <ele>3635.0</ele>
      </trkpt>
      <trkpt lat="46.029698" lon="7.876591">
        <time>1970-01-01T00:00:00+00:00</time>
        <ele>3635.0</ele>
      </trkpt>
      <trkpt lat="46.029733" lon="7.876537">
        <time>1970-01-01T00:00:00+00:00</time>
        <ele>3632.0</ele>
      </trkpt>
      <trkpt lat="46.029733" lon="7.876537">
        <time>1970-01-01T00:00:00+00:00</time>
        <ele>3632.0</ele>
      </trkpt>
      <trkpt lat="46.029793" lon="7.876507">
        <time>1970-01-01T00:00:00+00:00</time>
        <ele>3629.0</ele>
      </trkpt>
      <trkpt lat="46.029793" lon="7.876507">
        <time>1970-01-01T00:00:00+00:00</time>
        <ele>3629.0</ele>
      </trkpt>
      <trkpt lat="46.029834" lon="7.876476">
        <time>1970-01-01T00:00:00+00:00</time>
        <ele>3627.0</ele>
      </trkpt>
      <trkpt lat="46.029834" lon="7.876476">
        <time>1970-01-01T00:00:00+00:00</time>
        <ele>3627.0</ele>
      </trkpt>
      <trkpt lat="46.029894" lon="7.876419">
        <time>1970-01-01T00:00:00+00:00</time>
        <ele>3623.0</ele>
      </trkpt>
      <trkpt lat="46.029894" lon="7.876419">
        <time>1970-01-01T00:00:00+00:00</time>
        <ele>3623.0</ele>
      </trkpt>
      <trkpt lat="46.029986" lon="7.876338">
        <time>1970-01-01T00:00:00+00:00</time>
        <ele>3619.0</ele>
      </trkpt>
      <trkpt lat="46.029986" lon="7.876338">
        <time>1970-01-01T00:00:00+00:00</time>
        <ele>3619.0</ele>
      </trkpt>
      <trkpt lat="46.030039" lon="7.876408">
        <time>1970-01-01T00:00:00+00:00</time>
        <ele>3619.0</ele>
      </trkpt>
      <trkpt lat="46.030039" lon="7.876408">
        <time>1970-01-01T00:00:00+00:00</time>
        <ele>3619.0</ele>
      </trkpt>
      <trkpt lat="46.030081" lon="7.876489">
        <time>1970-01-01T00:00:00+00:00</time>
        <ele>3620.0</ele>
      </trkpt>
      <trkpt lat="46.030081" lon="7.876489">
        <time>1970-01-01T00:00:00+00:00</time>
        <ele>3620.0</ele>
      </trkpt>
      <trkpt lat="46.030204" lon="7.876634">
        <time>1970-01-01T00:00:00+00:00</time>
        <ele>3617.0</ele>
      </trkpt>
      <trkpt lat="46.030204" lon="7.876634">
        <time>1970-01-01T00:00:00+00:00</time>
        <ele>3617.0</ele>
      </trkpt>
      <trkpt lat="46.0303" lon="7.876834">
        <time>1970-01-01T00:00:00+00:00</time>
        <ele>3617.0</ele>
      </trkpt>
      <trkpt lat="46.0303" lon="7.876834">
        <time>1970-01-01T00:00:00+00:00</time>
        <ele>3617.0</ele>
      </trkpt>
      <trkpt lat="46.030409" lon="7.877017">
        <time>1970-01-01T00:00:00+00:00</time>
        <ele>3617.0</ele>
      </trkpt>
      <trkpt lat="46.030409" lon="7.877017">
        <time>1970-01-01T00:00:00+00:00</time>
        <ele>3617.0</ele>
      </trkpt>
      <trkpt lat="46.03056661321878" lon="7.87714181509233">
        <time>1970-01-01T00:00:00+00:00</time>
        <ele>3614.0</ele>
      </trkpt>
      <trkpt lat="46.030724226437556" lon="7.877266630184657">
        <time>1970-01-01T00:00:00+00:00</time>
        <ele>3611.0</ele>
      </trkpt>
      <trkpt lat="46.030755" lon="7.877291">
        <time>1970-01-01T00:00:00+00:00</time>
        <ele>3611.0</ele>
      </trkpt>
      <trkpt lat="46.030755" lon="7.877291">
        <time>1970-01-01T00:00:00+00:00</time>
        <ele>3611.0</ele>
      </trkpt>
      <trkpt lat="46.030817" lon="7.877339">
        <time>1970-01-01T00:00:00+00:00</time>
        <ele>3610.0</ele>
      </trkpt>
      <trkpt lat="46.030817" lon="7.877339">
        <time>1970-01-01T00:00:00+00:00</time>
        <ele>3610.0</ele>
      </trkpt>
      <trkpt lat="46.03098058550521" lon="7.8774466999593145">
        <time>1970-01-01T00:00:00+00:00</time>
        <ele>3607.0</ele>
      </trkpt>
      <trkpt lat="46.031144171010425" lon="7.87755439991863">
        <time>1970-01-01T00:00:00+00:00</time>
        <ele>3606.0</ele>
      </trkpt>
      <trkpt lat="46.031259" lon="7.87763">
        <time>1970-01-01T00:00:00+00:00</time>
        <ele>3608.0</ele>
      </trkpt>
      <trkpt lat="46.031259" lon="7.87763">
        <time>1970-01-01T00:00:00+00:00</time>
        <ele>3608.0</ele>
      </trkpt>
      <trkpt lat="46.031349" lon="7.877703">
        <time>1970-01-01T00:00:00+00:00</time>
        <ele>3611.0</ele>
      </trkpt>
      <trkpt lat="46.031349" lon="7.877703">
        <time>1970-01-01T00:00:00+00:00</time>
        <ele>3611.0</ele>
      </trkpt>
      <trkpt lat="46.031435" lon="7.877637">
        <time>1970-01-01T00:00:00+00:00</time>
        <ele>3608.0</ele>
      </trkpt>
      <trkpt lat="46.031435" lon="7.877637">
        <time>1970-01-01T00:00:00+00:00</time>
        <ele>3608.0</ele>
      </trkpt>
      <trkpt lat="46.031483" lon="7.877613">
        <time>1970-01-01T00:00:00+00:00</time>
        <ele>3608.0</ele>
      </trkpt>
      <trkpt lat="46.031483" lon="7.877613">
        <time>1970-01-01T00:00:00+00:00</time>
        <ele>3608.0</ele>
      </trkpt>
      <trkpt lat="46.03166126215586" lon="7.877578497647254">
        <time>1970-01-01T00:00:00+00:00</time>
        <ele>3607.0</ele>
      </trkpt>
      <trkpt lat="46.0317" lon="7.877571">
        <time>1970-01-01T00:00:00+00:00</time>
        <ele>3607.0</ele>
      </trkpt>
      <trkpt lat="46.0317" lon="7.877571">
        <time>1970-01-01T00:00:00+00:00</time>
        <ele>3607.0</ele>
      </trkpt>
      <trkpt lat="46.031765" lon="7.877559">
        <time>1970-01-01T00:00:00+00:00</time>
        <ele>3607.0</ele>
      </trkpt>
      <trkpt lat="46.031765" lon="7.877559">
        <time>1970-01-01T00:00:00+00:00</time>
        <ele>3607.0</ele>
      </trkpt>
      <trkpt lat="46.031902" lon="7.877419">
        <time>1970-01-01T00:00:00+00:00</time>
        <ele>3600.0</ele>
      </trkpt>
      <trkpt lat="46.031902" lon="7.877419">
        <time>1970-01-01T00:00:00+00:00</time>
        <ele>3600.0</ele>
      </trkpt>
      <trkpt lat="46.031957" lon="7.877398">
        <time>1970-01-01T00:00:00+00:00</time>
        <ele>3598.0</ele>
      </trkpt>
      <trkpt lat="46.031957" lon="7.877398">
        <time>1970-01-01T00:00:00+00:00</time>
        <ele>3598.0</ele>
      </trkpt>
      <trkpt lat="46.03213669218216" lon="7.877386668060584">
        <time>1970-01-01T00:00:00+00:00</time>
        <ele>3594.0</ele>
      </trkpt>
      <trkpt lat="46.03229" lon="7.877377">
        <time>1970-01-01T00:00:00+00:00</time>
        <ele>3591.0</ele>
      </trkpt>
      <trkpt lat="46.03229" lon="7.877377">
        <time>1970-01-01T00:00:00+00:00</time>
        <ele>3591.0</ele>
      </trkpt>
      <trkpt lat="46.032333" lon="7.877327">
        <time>1970-01-01T00:00:00+00:00</time>
        <ele>3590.0</ele>
      </trkpt>
      <trkpt lat="46.032333" lon="7.877327">
        <time>1970-01-01T00:00:00+00:00</time>
        <ele>3590.0</ele>
      </trkpt>
      <trkpt lat="46.032316" lon="7.877257">
        <time>1970-01-01T00:00:00+00:00</time>
        <ele>3588.0</ele>
      </trkpt>
      <trkpt lat="46.032316" lon="7.877257">
        <time>1970-01-01T00:00:00+00:00</time>
        <ele>3588.0</ele>
      </trkpt>
      <trkpt lat="46.032219" lon="7.877105">
        <time>1970-01-01T00:00:00+00:00</time>
        <ele>3585.0</ele>
      </trkpt>
      <trkpt lat="46.032219" lon="7.877105">
        <time>1970-01-01T00:00:00+00:00</time>
        <ele>3585.0</ele>
      </trkpt>
      <trkpt lat="46.032272" lon="7.877095">
        <time>1970-01-01T00:00:00+00:00</time>
        <ele>3585.0</ele>
      </trkpt>
      <trkpt lat="46.032272" lon="7.877095">
        <time>1970-01-01T00:00:00+00:00</time>
        <ele>3585.0</ele>
      </trkpt>
      <trkpt lat="46.032202" lon="7.87712">
        <time>1970-01-01T00:00:00+00:00</time>
        <ele>3585.0</ele>
      </trkpt>
      <trkpt lat="46.032202" lon="7.87712">
        <time>1970-01-01T00:00:00+00:00</time>
        <ele>3585.0</ele>
      </trkpt>
      <trkpt lat="46.032135" lon="7.877099">
        <time>1970-01-01T00:00:00+00:00</time>
        <ele>3585.0</ele>
      </trkpt>
      <trkpt lat="46.032135" lon="7.877099">
        <time>1970-01-01T00:00:00+00:00</time>
        <ele>3585.0</ele>
      </trkpt>
      <trkpt lat="46.032196" lon="7.877076">
        <time>1970-01-01T00:00:00+00:00</time>
        <ele>3584.0</ele>
      </trkpt>
      <trkpt lat="46.032196" lon="7.877076">
        <time>1970-01-01T00:00:00+00:00</time>
        <ele>3584.0</ele>
      </trkpt>
      <trkpt lat="46.032295" lon="7.877086">
        <time>1970-01-01T00:00:00+00:00</time>
        <ele>3584.0</ele>
      </trkpt>
      <trkpt lat="46.032295" lon="7.877086">
        <time>1970-01-01T00:00:00+00:00</time>
        <ele>3584.0</ele>
      </trkpt>
      <trkpt lat="46.032244" lon="7.877136">
        <time>1970-01-01T00:00:00+00:00</time>
        <ele>3586.0</ele>
      </trkpt>
      <trkpt lat="46.032244" lon="7.877136">
        <time>1970-01-01T00:00:00+00:00</time>
        <ele>3586.0</ele>
      </trkpt>
      <trkpt lat="46.032323" lon="7.877077">
        <time>1970-01-01T00:00:00+00:00</time>
        <ele>3584.0</ele>
      </trkpt>
      <trkpt lat="46.032323" lon="7.877077">
        <time>1970-01-01T00:00:00+00:00</time>
        <ele>3584.0</ele>
      </trkpt>
      <trkpt lat="46.03250283523622" lon="7.877081658943943">
        <time>1970-01-01T00:00:00+00:00</time>
        <ele>3583.0</ele>
      </trkpt>
      <trkpt lat="46.032516" lon="7.877082">
        <time>1970-01-01T00:00:00+00:00</time>
        <ele>3582.0</ele>
      </trkpt>
      <trkpt lat="46.032516" lon="7.877082">
        <time>1970-01-01T00:00:00+00:00</time>
        <ele>3582.0</ele>
      </trkpt>
      <trkpt lat="46.032693735033476" lon="7.877121746653056">
        <time>1970-01-01T00:00:00+00:00</time>
        <ele>3581.0</ele>
      </trkpt>
      <trkpt lat="46.032753" lon="7.877135">
        <time>1970-01-01T00:00:00+00:00</time>
        <ele>3581.0</ele>
      </trkpt>
      <trkpt lat="46.032753" lon="7.877135">
        <time>1970-01-01T00:00:00+00:00</time>
        <ele>3581.0</ele>
      </trkpt>
      <trkpt lat="46.032824" lon="7.877131">
        <time>1970-01-01T00:00:00+00:00</time>
        <ele>3580.0</ele>
      </trkpt>
      <trkpt lat="46.032824" lon="7.877131">
        <time>1970-01-01T00:00:00+00:00</time>
        <ele>3580.0</ele>
      </trkpt>
      <trkpt lat="46.032868" lon="7.877061">
        <time>1970-01-01T00:00:00+00:00</time>
        <ele>3580.0</ele>
      </trkpt>
      <trkpt lat="46.032868" lon="7.877061">
        <time>1970-01-01T00:00:00+00:00</time>
        <ele>3580.0</ele>
      </trkpt>
      <trkpt lat="46.032918" lon="7.876976">
        <time>1970-01-01T00:00:00+00:00</time>
        <ele>3580.0</ele>
      </trkpt>
      <trkpt lat="46.032918" lon="7.876976">
        <time>1970-01-01T00:00:00+00:00</time>
        <ele>3580.0</ele>
      </trkpt>
      <trkpt lat="46.033" lon="7.876929">
        <time>1970-01-01T00:00:00+00:00</time>
        <ele>3579.0</ele>
      </trkpt>
      <trkpt lat="46.033" lon="7.876929">
        <time>1970-01-01T00:00:00+00:00</time>
        <ele>3579.0</ele>
      </trkpt>
      <trkpt lat="46.033046" lon="7.876916">
        <time>1970-01-01T00:00:00+00:00</time>
        <ele>3578.0</ele>
      </trkpt>
      <trkpt lat="46.033046" lon="7.876916">
        <time>1970-01-01T00:00:00+00:00</time>
        <ele>3578.0</ele>
      </trkpt>
      <trkpt lat="46.033219" lon="7.876892">
        <time>1970-01-01T00:00:00+00:00</time>
        <ele>3576.0</ele>
      </trkpt>
      <trkpt lat="46.033219" lon="7.876892">
        <time>1970-01-01T00:00:00+00:00</time>
        <ele>3576.0</ele>
      </trkpt>
      <trkpt lat="46.033266" lon="7.876889">
        <time>1970-01-01T00:00:00+00:00</time>
        <ele>3575.0</ele>
      </trkpt>
      <trkpt lat="46.033266" lon="7.876889">
        <time>1970-01-01T00:00:00+00:00</time>
        <ele>3575.0</ele>
      </trkpt>
      <trkpt lat="46.033354" lon="7.87689">
        <time>1970-01-01T00:00:00+00:00</time>
        <ele>3572.0</ele>
      </trkpt>
      <trkpt lat="46.033354" lon="7.87689">
        <time>1970-01-01T00:00:00+00:00</time>
        <ele>3572.0</ele>
      </trkpt>
      <trkpt lat="46.033456" lon="7.876906">
        <time>1970-01-01T00:00:00+00:00</time>
        <ele>3569.0</ele>
      </trkpt>
      <trkpt lat="46.033456" lon="7.876906">
        <time>1970-01-01T00:00:00+00:00</time>
        <ele>3569.0</ele>
      </trkpt>
      <trkpt lat="46.033398" lon="7.876803">
        <time>1970-01-01T00:00:00+00:00</time>
        <ele>3571.0</ele>
      </trkpt>
      <trkpt lat="46.033398" lon="7.876803">
        <time>1970-01-01T00:00:00+00:00</time>
        <ele>3571.0</ele>
      </trkpt>
      <trkpt lat="46.033392" lon="7.876724">
        <time>1970-01-01T00:00:00+00:00</time>
        <ele>3571.0</ele>
      </trkpt>
      <trkpt lat="46.033392" lon="7.876724">
        <time>1970-01-01T00:00:00+00:00</time>
        <ele>3571.0</ele>
      </trkpt>
      <trkpt lat="46.03356633317534" lon="7.876660243867304">
        <time>1970-01-01T00:00:00+00:00</time>
        <ele>3563.0</ele>
      </trkpt>
      <trkpt lat="46.033567" lon="7.87666">
        <time>1970-01-01T00:00:00+00:00</time>
        <ele>3563.0</ele>
      </trkpt>
      <trkpt lat="46.033567" lon="7.87666">
        <time>1970-01-01T00:00:00+00:00</time>
        <ele>3563.0</ele>
      </trkpt>
      <trkpt lat="46.03374493960363" lon="7.876697800641185">
        <time>1970-01-01T00:00:00+00:00</time>
        <ele>3555.0</ele>
      </trkpt>
      <trkpt lat="46.03376" lon="7.876701">
        <time>1970-01-01T00:00:00+00:00</time>
        <ele>3555.0</ele>
      </trkpt>
      <trkpt lat="46.03376" lon="7.876701">
        <time>1970-01-01T00:00:00+00:00</time>
        <ele>3555.0</ele>
      </trkpt>
      <trkpt lat="46.033821" lon="7.876708">
        <time>1970-01-01T00:00:00+00:00</time>
        <ele>3553.0</ele>
      </trkpt>
      <trkpt lat="46.033821" lon="7.876708">
        <time>1970-01-01T00:00:00+00:00</time>
        <ele>3553.0</ele>
      </trkpt>
      <trkpt lat="46.033986" lon="7.876742">
        <time>1970-01-01T00:00:00+00:00</time>
        <ele>3545.0</ele>
      </trkpt>
      <trkpt lat="46.033986" lon="7.876742">
        <time>1970-01-01T00:00:00+00:00</time>
        <ele>3545.0</ele>
      </trkpt>
      <trkpt lat="46.034138652481566" lon="7.876879019396105">
        <time>1970-01-01T00:00:00+00:00</time>
        <ele>3541.0</ele>
      </trkpt>
      <trkpt lat="46.034152" lon="7.876891">
        <time>1970-01-01T00:00:00+00:00</time>
        <ele>3541.0</ele>
      </trkpt>
      <trkpt lat="46.034152" lon="7.876891">
        <time>1970-01-01T00:00:00+00:00</time>
        <ele>3541.0</ele>
      </trkpt>
      <trkpt lat="46.03427" lon="7.876986">
        <time>1970-01-01T00:00:00+00:00</time>
        <ele>3540.0</ele>
      </trkpt>
      <trkpt lat="46.03427" lon="7.876986">
        <time>1970-01-01T00:00:00+00:00</time>
        <ele>3540.0</ele>
      </trkpt>
      <trkpt lat="46.034407739859475" lon="7.877152613163364">
        <time>1970-01-01T00:00:00+00:00</time>
        <ele>3540.0</ele>
      </trkpt>
      <trkpt lat="46.034545479718965" lon="7.877319226326728">
        <time>1970-01-01T00:00:00+00:00</time>
        <ele>3537.0</ele>
      </trkpt>
      <trkpt lat="46.034561" lon="7.877338">
        <time>1970-01-01T00:00:00+00:00</time>
        <ele>3537.0</ele>
      </trkpt>
      <trkpt lat="46.034561" lon="7.877338">
        <time>1970-01-01T00:00:00+00:00</time>
        <ele>3537.0</ele>
      </trkpt>
      <trkpt lat="46.034657" lon="7.877432">
        <time>1970-01-01T00:00:00+00:00</time>
        <ele>3534.0</ele>
      </trkpt>
      <trkpt lat="46.034657" lon="7.877432">
        <time>1970-01-01T00:00:00+00:00</time>
        <ele>3534.0</ele>
      </trkpt>
      <trkpt lat="46.034724" lon="7.877445">
        <time>1970-01-01T00:00:00+00:00</time>
        <ele>3531.0</ele>
      </trkpt>
      <trkpt lat="46.034724" lon="7.877445">
        <time>1970-01-01T00:00:00+00:00</time>
        <ele>3531.0</ele>
      </trkpt>
      <trkpt lat="46.034764" lon="7.877363">
        <time>1970-01-01T00:00:00+00:00</time>
        <ele>3529.0</ele>
      </trkpt>
      <trkpt lat="46.034764" lon="7.877363">
        <time>1970-01-01T00:00:00+00:00</time>
        <ele>3529.0</ele>
      </trkpt>
      <trkpt lat="46.034831" lon="7.877311">
        <time>1970-01-01T00:00:00+00:00</time>
        <ele>3527.0</ele>
      </trkpt>
      <trkpt lat="46.034831" lon="7.877311">
        <time>1970-01-01T00:00:00+00:00</time>
        <ele>3527.0</ele>
      </trkpt>
      <trkpt lat="46.034907" lon="7.87731">
        <time>1970-01-01T00:00:00+00:00</time>
        <ele>3525.0</ele>
      </trkpt>
      <trkpt lat="46.034907" lon="7.87731">
        <time>1970-01-01T00:00:00+00:00</time>
        <ele>3525.0</ele>
      </trkpt>
      <trkpt lat="46.034974" lon="7.877327">
        <time>1970-01-01T00:00:00+00:00</time>
        <ele>3523.0</ele>
      </trkpt>
      <trkpt lat="46.034974" lon="7.877327">
        <time>1970-01-01T00:00:00+00:00</time>
        <ele>3523.0</ele>
      </trkpt>
      <trkpt lat="46.035041" lon="7.877357">
        <time>1970-01-01T00:00:00+00:00</time>
        <ele>3521.0</ele>
      </trkpt>
      <trkpt lat="46.035041" lon="7.877357">
        <time>1970-01-01T00:00:00+00:00</time>
        <ele>3521.0</ele>
      </trkpt>
      <trkpt lat="46.035104" lon="7.877401">
        <time>1970-01-01T00:00:00+00:00</time>
        <ele>3519.0</ele>
      </trkpt>
      <trkpt lat="46.035104" lon="7.877401">
        <time>1970-01-01T00:00:00+00:00</time>
        <ele>3519.0</ele>
      </trkpt>
      <trkpt lat="46.035172" lon="7.877448">
        <time>1970-01-01T00:00:00+00:00</time>
        <ele>3517.0</ele>
      </trkpt>
      <trkpt lat="46.035172" lon="7.877448">
        <time>1970-01-01T00:00:00+00:00</time>
        <ele>3517.0</ele>
      </trkpt>
      <trkpt lat="46.035251" lon="7.877485">
        <time>1970-01-01T00:00:00+00:00</time>
        <ele>3514.0</ele>
      </trkpt>
      <trkpt lat="46.035251" lon="7.877485">
        <time>1970-01-01T00:00:00+00:00</time>
        <ele>3514.0</ele>
      </trkpt>
      <trkpt lat="46.035339" lon="7.877512">
        <time>1970-01-01T00:00:00+00:00</time>
        <ele>3511.0</ele>
      </trkpt>
      <trkpt lat="46.035339" lon="7.877512">
        <time>1970-01-01T00:00:00+00:00</time>
        <ele>3511.0</ele>
      </trkpt>
      <trkpt lat="46.03551858181028" lon="7.877526515850716">
        <time>1970-01-01T00:00:00+00:00</time>
        <ele>3509.0</ele>
      </trkpt>
      <trkpt lat="46.035698163620566" lon="7.877541031701432">
        <time>1970-01-01T00:00:00+00:00</time>
        <ele>3506.0</ele>
      </trkpt>
      <trkpt lat="46.035772" lon="7.877547">
        <time>1970-01-01T00:00:00+00:00</time>
        <ele>3504.0</ele>
      </trkpt>
      <trkpt lat="46.035772" lon="7.877547">
        <time>1970-01-01T00:00:00+00:00</time>
        <ele>3504.0</ele>
      </trkpt>
      <trkpt lat="46.035891" lon="7.87756">
        <time>1970-01-01T00:00:00+00:00</time>
        <ele>3502.0</ele>
      </trkpt>
      <trkpt lat="46.035891" lon="7.87756">
        <time>1970-01-01T00:00:00+00:00</time>
        <ele>3502.0</ele>
      </trkpt>
      <trkpt lat="46.036005" lon="7.877587">
        <time>1970-01-01T00:00:00+00:00</time>
        <ele>3500.0</ele>
      </trkpt>
      <trkpt lat="46.036005" lon="7.877587">
        <time>1970-01-01T00:00:00+00:00</time>
        <ele>3500.0</ele>
      </trkpt>
      <trkpt lat="46.036114" lon="7.877627">
        <time>1970-01-01T00:00:00+00:00</time>
        <ele>3499.0</ele>
      </trkpt>
      <trkpt lat="46.036114" lon="7.877627">
        <time>1970-01-01T00:00:00+00:00</time>
        <ele>3499.0</ele>
      </trkpt>
      <trkpt lat="46.03622" lon="7.877652">
        <time>1970-01-01T00:00:00+00:00</time>
        <ele>3498.0</ele>
      </trkpt>
      <trkpt lat="46.03622" lon="7.877652">
        <time>1970-01-01T00:00:00+00:00</time>
        <ele>3498.0</ele>
      </trkpt>
      <trkpt lat="46.036381" lon="7.877632">
        <time>1970-01-01T00:00:00+00:00</time>
        <ele>3496.0</ele>
      </trkpt>
      <trkpt lat="46.036381" lon="7.877632">
        <time>1970-01-01T00:00:00+00:00</time>
        <ele>3496.0</ele>
      </trkpt>
      <trkpt lat="46.036451" lon="7.877624">
        <time>1970-01-01T00:00:00+00:00</time>
        <ele>3495.0</ele>
      </trkpt>
      <trkpt lat="46.036451" lon="7.877624">
        <time>1970-01-01T00:00:00+00:00</time>
        <ele>3495.0</ele>
      </trkpt>
      <trkpt lat="46.03662964892385" lon="7.877654069620846">
        <time>1970-01-01T00:00:00+00:00</time>
        <ele>3493.0</ele>
      </trkpt>
      <trkpt lat="46.036754" lon="7.877675">
        <time>1970-01-01T00:00:00+00:00</time>
        <ele>3491.0</ele>
      </trkpt>
      <trkpt lat="46.036754" lon="7.877675">
        <time>1970-01-01T00:00:00+00:00</time>
        <ele>3491.0</ele>
      </trkpt>
      <trkpt lat="46.036832" lon="7.877685">
        <time>1970-01-01T00:00:00+00:00</time>
        <ele>3489.0</ele>
      </trkpt>
      <trkpt lat="46.036832" lon="7.877685">
        <time>1970-01-01T00:00:00+00:00</time>
        <ele>3489.0</ele>
      </trkpt>
      <trkpt lat="46.036912" lon="7.877702">
        <time>1970-01-01T00:00:00+00:00</time>
        <ele>3488.0</ele>
      </trkpt>
      <trkpt lat="46.036912" lon="7.877702">
        <time>1970-01-01T00:00:00+00:00</time>
        <ele>3488.0</ele>
      </trkpt>
      <trkpt lat="46.036997" lon="7.877724">
        <time>1970-01-01T00:00:00+00:00</time>
        <ele>3487.0</ele>
      </trkpt>
      <trkpt lat="46.036997" lon="7.877724">
        <time>1970-01-01T00:00:00+00:00</time>
        <ele>3487.0</ele>
      </trkpt>
      <trkpt lat="46.037168929420346" lon="7.877800108883527">
        <time>1970-01-01T00:00:00+00:00</time>
        <ele>3485.0</ele>
      </trkpt>
      <trkpt lat="46.037311" lon="7.877863">
        <time>1970-01-01T00:00:00+00:00</time>
        <ele>3483.0</ele>
      </trkpt>
      <trkpt lat="46.037311" lon="7.877863">
        <time>1970-01-01T00:00:00+00:00</time>
        <ele>3483.0</ele>
      </trkpt>
      <trkpt lat="46.037386" lon="7.877892">
        <time>1970-01-01T00:00:00+00:00</time>
        <ele>3482.0</ele>
      </trkpt>
      <trkpt lat="46.037386" lon="7.877892">
        <time>1970-01-01T00:00:00+00:00</time>
        <ele>3482.0</ele>
      </trkpt>
      <trkpt lat="46.037563450487326" lon="7.8779343060764475">
        <time>1970-01-01T00:00:00+00:00</time>
        <ele>3481.0</ele>
      </trkpt>
      <trkpt lat="46.037688" lon="7.877964">
        <time>1970-01-01T00:00:00+00:00</time>
        <ele>3480.0</ele>
      </trkpt>
      <trkpt lat="46.037688" lon="7.877964">
        <time>1970-01-01T00:00:00+00:00</time>
        <ele>3480.0</ele>
      </trkpt>
      <trkpt lat="46.037762" lon="7.877979">
        <time>1970-01-01T00:00:00+00:00</time>
        <ele>3480.0</ele>
      </trkpt>
      <trkpt lat="46.037762" lon="7.877979">
        <time>1970-01-01T00:00:00+00:00</time>
        <ele>3480.0</ele>
      </trkpt>
      <trkpt lat="46.03794079023746" lon="7.878007273804994">
        <time>1970-01-01T00:00:00+00:00</time>
        <ele>3480.0</ele>
      </trkpt>
      <trkpt lat="46.03811958047492" lon="7.878035547609987">
        <time>1970-01-01T00:00:00+00:00</time>
        <ele>3479.0</ele>
      </trkpt>
      <trkpt lat="46.038192" lon="7.878047">
        <time>1970-01-01T00:00:00+00:00</time>
        <ele>3479.0</ele>
      </trkpt>
      <trkpt lat="46.038192" lon="7.878047">
        <time>1970-01-01T00:00:00+00:00</time>
        <ele>3479.0</ele>
      </trkpt>
      <trkpt lat="46.038253" lon="7.878065">
        <time>1970-01-01T00:00:00+00:00</time>
        <ele>3479.0</ele>
      </trkpt>
      <trkpt lat="46.038253" lon="7.878065">
        <time>1970-01-01T00:00:00+00:00</time>
        <ele>3479.0</ele>
      </trkpt>
      <trkpt lat="46.038432717703735" lon="7.8780754597605345">
        <time>1970-01-01T00:00:00+00:00</time>
        <ele>3479.0</ele>
      </trkpt>
      <trkpt lat="46.038442" lon="7.878076">
        <time>1970-01-01T00:00:00+00:00</time>
        <ele>3479.0</ele>
      </trkpt>
      <trkpt lat="46.038442" lon="7.878076">
        <time>1970-01-01T00:00:00+00:00</time>
        <ele>3479.0</ele>
      </trkpt>
      <trkpt lat="46.038618" lon="7.878104">
        <time>1970-01-01T00:00:00+00:00</time>
        <ele>3478.0</ele>
      </trkpt>
      <trkpt lat="46.038618" lon="7.878104">
        <time>1970-01-01T00:00:00+00:00</time>
        <ele>3478.0</ele>
      </trkpt>
      <trkpt lat="46.03879786290615" lon="7.878105027788035">
        <time>1970-01-01T00:00:00+00:00</time>
        <ele>3476.0</ele>
      </trkpt>
      <trkpt lat="46.03897772581231" lon="7.878106055576071">
        <time>1970-01-01T00:00:00+00:00</time>
        <ele>3474.0</ele>
      </trkpt>
      <trkpt lat="46.039143" lon="7.878107">
        <time>1970-01-01T00:00:00+00:00</time>
        <ele>3473.0</ele>
      </trkpt>
      <trkpt lat="46.039143" lon="7.878107">
        <time>1970-01-01T00:00:00+00:00</time>
        <ele>3473.0</ele>
      </trkpt>
      <trkpt lat="46.039293" lon="7.878145">
        <time>1970-01-01T00:00:00+00:00</time>
        <ele>3472.0</ele>
      </trkpt>
      <trkpt lat="46.039293" lon="7.878145">
        <time>1970-01-01T00:00:00+00:00</time>
        <ele>3472.0</ele>
      </trkpt>
      <trkpt lat="46.039371" lon="7.878106">
        <time>1970-01-01T00:00:00+00:00</time>
        <ele>3470.0</ele>
      </trkpt>
      <trkpt lat="46.039371" lon="7.878106">
        <time>1970-01-01T00:00:00+00:00</time>
        <ele>3470.0</ele>
      </trkpt>
      <trkpt lat="46.039550047575325" lon="7.87813066471701">
        <time>1970-01-01T00:00:00+00:00</time>
        <ele>3467.0</ele>
      </trkpt>
      <trkpt lat="46.039567" lon="7.878133">
        <time>1970-01-01T00:00:00+00:00</time>
        <ele>3466.0</ele>
      </trkpt>
      <trkpt lat="46.039567" lon="7.878133">
        <time>1970-01-01T00:00:00+00:00</time>
        <ele>3466.0</ele>
      </trkpt>
      <trkpt lat="46.039622" lon="7.878149">
        <time>1970-01-01T00:00:00+00:00</time>
        <ele>3465.0</ele>
      </trkpt>
      <trkpt lat="46.039622" lon="7.878149">
        <time>1970-01-01T00:00:00+00:00</time>
        <ele>3465.0</ele>
      </trkpt>
      <trkpt lat="46.039795678351354" lon="7.878216369894295">
        <time>1970-01-01T00:00:00+00:00</time>
        <ele>3463.0</ele>
      </trkpt>
      <trkpt lat="46.039903" lon="7.878258">
        <time>1970-01-01T00:00:00+00:00</time>
        <ele>3462.0</ele>
      </trkpt>
      <trkpt lat="46.039903" lon="7.878258">
        <time>1970-01-01T00:00:00+00:00</time>
        <ele>3462.0</ele>
      </trkpt>
      <trkpt lat="46.039964" lon="7.878274">
        <time>1970-01-01T00:00:00+00:00</time>
        <ele>3461.0</ele>
      </trkpt>
      <trkpt lat="46.039964" lon="7.878274">
        <time>1970-01-01T00:00:00+00:00</time>
        <ele>3461.0</ele>
      </trkpt>
      <trkpt lat="46.04014188020234" lon="7.878312380790546">
        <time>1970-01-01T00:00:00+00:00</time>
        <ele>3459.0</ele>
      </trkpt>
      <trkpt lat="46.040205" lon="7.878326">
        <time>1970-01-01T00:00:00+00:00</time>
        <ele>3459.0</ele>
      </trkpt>
      <trkpt lat="46.040205" lon="7.878326">
        <time>1970-01-01T00:00:00+00:00</time>
        <ele>3459.0</ele>
      </trkpt>
      <trkpt lat="46.040262" lon="7.878338">
        <time>1970-01-01T00:00:00+00:00</time>
        <ele>3459.0</ele>
      </trkpt>
      <trkpt lat="46.040262" lon="7.878338">
        <time>1970-01-01T00:00:00+00:00</time>
        <ele>3459.0</ele>
      </trkpt>
      <trkpt lat="46.0404416952885" lon="7.878349230955531">
        <time>1970-01-01T00:00:00+00:00</time>
        <ele>3459.0</ele>
      </trkpt>
      <trkpt lat="46.040502" lon="7.878353">
        <time>1970-01-01T00:00:00+00:00</time>
        <ele>3459.0</ele>
      </trkpt>
      <trkpt lat="46.040502" lon="7.878353">
        <time>1970-01-01T00:00:00+00:00</time>
        <ele>3459.0</ele>
      </trkpt>
      <trkpt lat="46.040561" lon="7.878333">
        <time>1970-01-01T00:00:00+00:00</time>
        <ele>3459.0</ele>
      </trkpt>
      <trkpt lat="46.040561" lon="7.878333">
        <time>1970-01-01T00:00:00+00:00</time>
        <ele>3459.0</ele>
      </trkpt>
      <trkpt lat="46.040654" lon="7.878254">
        <time>1970-01-01T00:00:00+00:00</time>
        <ele>3458.0</ele>
      </trkpt>
      <trkpt lat="46.040654" lon="7.878254">
        <time>1970-01-01T00:00:00+00:00</time>
        <ele>3458.0</ele>
      </trkpt>
      <trkpt lat="46.040648" lon="7.878099">
        <time>1970-01-01T00:00:00+00:00</time>
        <ele>3455.0</ele>
      </trkpt>
      <trkpt lat="46.040648" lon="7.878099">
        <time>1970-01-01T00:00:00+00:00</time>
        <ele>3455.0</ele>
      </trkpt>
      <trkpt lat="46.040639" lon="7.87802">
        <time>1970-01-01T00:00:00+00:00</time>
        <ele>3454.0</ele>
      </trkpt>
      <trkpt lat="46.040639" lon="7.87802">
        <time>1970-01-01T00:00:00+00:00</time>
        <ele>3454.0</ele>
      </trkpt>
      <trkpt lat="46.040639" lon="7.877934">
        <time>1970-01-01T00:00:00+00:00</time>
        <ele>3452.0</ele>
      </trkpt>
      <trkpt lat="46.040639" lon="7.877934">
        <time>1970-01-01T00:00:00+00:00</time>
        <ele>3452.0</ele>
      </trkpt>
      <trkpt lat="46.040648" lon="7.877852">
        <time>1970-01-01T00:00:00+00:00</time>
        <ele>3450.0</ele>
      </trkpt>
      <trkpt lat="46.040648" lon="7.877852">
        <time>1970-01-01T00:00:00+00:00</time>
        <ele>3450.0</ele>
      </trkpt>
      <trkpt lat="46.040674" lon="7.877706">
        <time>1970-01-01T00:00:00+00:00</time>
        <ele>3448.0</ele>
      </trkpt>
      <trkpt lat="46.040674" lon="7.877706">
        <time>1970-01-01T00:00:00+00:00</time>
        <ele>3448.0</ele>
      </trkpt>
      <trkpt lat="46.04068" lon="7.877636">
        <time>1970-01-01T00:00:00+00:00</time>
        <ele>3447.0</ele>
      </trkpt>
      <trkpt lat="46.04068" lon="7.877636">
        <time>1970-01-01T00:00:00+00:00</time>
        <ele>3447.0</ele>
      </trkpt>
      <trkpt lat="46.040638" lon="7.877556">
        <time>1970-01-01T00:00:00+00:00</time>
        <ele>3446.0</ele>
      </trkpt>
      <trkpt lat="46.040638" lon="7.877556">
        <time>1970-01-01T00:00:00+00:00</time>
        <ele>3446.0</ele>
      </trkpt>
      <trkpt lat="46.040614" lon="7.877474">
        <time>1970-01-01T00:00:00+00:00</time>
        <ele>3445.0</ele>
      </trkpt>
      <trkpt lat="46.040614" lon="7.877474">
        <time>1970-01-01T00:00:00+00:00</time>
        <ele>3445.0</ele>
      </trkpt>
      <trkpt lat="46.04067" lon="7.877236">
        <time>1970-01-01T00:00:00+00:00</time>
        <ele>3442.0</ele>
      </trkpt>
      <trkpt lat="46.04067" lon="7.877236">
        <time>1970-01-01T00:00:00+00:00</time>
        <ele>3442.0</ele>
      </trkpt>
      <trkpt lat="46.040697" lon="7.877155">
        <time>1970-01-01T00:00:00+00:00</time>
        <ele>3441.0</ele>
      </trkpt>
      <trkpt lat="46.040697" lon="7.877155">
        <time>1970-01-01T00:00:00+00:00</time>
        <ele>3441.0</ele>
      </trkpt>
      <trkpt lat="46.040733" lon="7.877078">
        <time>1970-01-01T00:00:00+00:00</time>
        <ele>3439.0</ele>
      </trkpt>
      <trkpt lat="46.040733" lon="7.877078">
        <time>1970-01-01T00:00:00+00:00</time>
        <ele>3439.0</ele>
      </trkpt>
      <trkpt lat="46.040773" lon="7.877008">
        <time>1970-01-01T00:00:00+00:00</time>
        <ele>3438.0</ele>
      </trkpt>
      <trkpt lat="46.040773" lon="7.877008">
        <time>1970-01-01T00:00:00+00:00</time>
        <ele>3438.0</ele>
      </trkpt>
      <trkpt lat="46.040808" lon="7.876872">
        <time>1970-01-01T00:00:00+00:00</time>
        <ele>3436.0</ele>
      </trkpt>
      <trkpt lat="46.040808" lon="7.876872">
        <time>1970-01-01T00:00:00+00:00</time>
        <ele>3436.0</ele>
      </trkpt>
      <trkpt lat="46.040825" lon="7.87681">
        <time>1970-01-01T00:00:00+00:00</time>
        <ele>3435.0</ele>
      </trkpt>
      <trkpt lat="46.040825" lon="7.87681">
        <time>1970-01-01T00:00:00+00:00</time>
        <ele>3435.0</ele>
      </trkpt>
      <trkpt lat="46.040875" lon="7.876696">
        <time>1970-01-01T00:00:00+00:00</time>
        <ele>3433.0</ele>
      </trkpt>
      <trkpt lat="46.040875" lon="7.876696">
        <time>1970-01-01T00:00:00+00:00</time>
        <ele>3433.0</ele>
      </trkpt>
      <trkpt lat="46.0409" lon="7.876635">
        <time>1970-01-01T00:00:00+00:00</time>
        <ele>3433.0</ele>
      </trkpt>
      <trkpt lat="46.0409" lon="7.876635">
        <time>1970-01-01T00:00:00+00:00</time>
        <ele>3433.0</ele>
      </trkpt>
      <trkpt lat="46.040912" lon="7.876572">
        <time>1970-01-01T00:00:00+00:00</time>
        <ele>3432.0</ele>
      </trkpt>
      <trkpt lat="46.040912" lon="7.876572">
        <time>1970-01-01T00:00:00+00:00</time>
        <ele>3432.0</ele>
      </trkpt>
      <trkpt lat="46.040903" lon="7.87644">
        <time>1970-01-01T00:00:00+00:00</time>
        <ele>3431.0</ele>
      </trkpt>
      <trkpt lat="46.040903" lon="7.87644">
        <time>1970-01-01T00:00:00+00:00</time>
        <ele>3431.0</ele>
      </trkpt>
      <trkpt lat="46.040909" lon="7.876371">
        <time>1970-01-01T00:00:00+00:00</time>
        <ele>3430.0</ele>
      </trkpt>
      <trkpt lat="46.040909" lon="7.876371">
        <time>1970-01-01T00:00:00+00:00</time>
        <ele>3430.0</ele>
      </trkpt>
      <trkpt lat="46.041035" lon="7.876194">
        <time>1970-01-01T00:00:00+00:00</time>
        <ele>3429.0</ele>
      </trkpt>
      <trkpt lat="46.041035" lon="7.876194">
        <time>1970-01-01T00:00:00+00:00</time>
        <ele>3429.0</ele>
      </trkpt>
      <trkpt lat="46.041059" lon="7.876105">
        <time>1970-01-01T00:00:00+00:00</time>
        <ele>3428.0</ele>
      </trkpt>
      <trkpt lat="46.041059" lon="7.876105">
        <time>1970-01-01T00:00:00+00:00</time>
        <ele>3428.0</ele>
      </trkpt>
      <trkpt lat="46.041035" lon="7.87591">
        <time>1970-01-01T00:00:00+00:00</time>
        <ele>3427.0</ele>
      </trkpt>
      <trkpt lat="46.041035" lon="7.87591">
        <time>1970-01-01T00:00:00+00:00</time>
        <ele>3427.0</ele>
      </trkpt>
      <trkpt lat="46.041176" lon="7.875757">
        <time>1970-01-01T00:00:00+00:00</time>
        <ele>3426.0</ele>
      </trkpt>
      <trkpt lat="46.041176" lon="7.875757">
        <time>1970-01-01T00:00:00+00:00</time>
        <ele>3426.0</ele>
      </trkpt>
      <trkpt lat="46.041335272561476" lon="7.875636610880763">
        <time>1970-01-01T00:00:00+00:00</time>
        <ele>3424.0</ele>
      </trkpt>
      <trkpt lat="46.041389" lon="7.875596">
        <time>1970-01-01T00:00:00+00:00</time>
        <ele>3423.0</ele>
      </trkpt>
      <trkpt lat="46.041389" lon="7.875596">
        <time>1970-01-01T00:00:00+00:00</time>
        <ele>3423.0</ele>
      </trkpt>
      <trkpt lat="46.041428" lon="7.875527">
        <time>1970-01-01T00:00:00+00:00</time>
        <ele>3422.0</ele>
      </trkpt>
      <trkpt lat="46.041428" lon="7.875527">
        <time>1970-01-01T00:00:00+00:00</time>
        <ele>3422.0</ele>
      </trkpt>
      <trkpt lat="46.041403" lon="7.875385">
        <time>1970-01-01T00:00:00+00:00</time>
        <ele>3419.0</ele>
      </trkpt>
      <trkpt lat="46.041403" lon="7.875385">
        <time>1970-01-01T00:00:00+00:00</time>
        <ele>3419.0</ele>
      </trkpt>
      <trkpt lat="46.041425" lon="7.875292">
        <time>1970-01-01T00:00:00+00:00</time>
        <ele>3417.0</ele>
      </trkpt>
      <trkpt lat="46.041425" lon="7.875292">
        <time>1970-01-01T00:00:00+00:00</time>
        <ele>3417.0</ele>
      </trkpt>
      <trkpt lat="46.041429" lon="7.875147">
        <time>1970-01-01T00:00:00+00:00</time>
        <ele>3414.0</ele>
      </trkpt>
      <trkpt lat="46.041429" lon="7.875147">
        <time>1970-01-01T00:00:00+00:00</time>
        <ele>3414.0</ele>
      </trkpt>
      <trkpt lat="46.04145" lon="7.875057">
        <time>1970-01-01T00:00:00+00:00</time>
        <ele>3412.0</ele>
      </trkpt>
      <trkpt lat="46.04145" lon="7.875057">
        <time>1970-01-01T00:00:00+00:00</time>
        <ele>3412.0</ele>
      </trkpt>
      <trkpt lat="46.04147" lon="7.874911">
        <time>1970-01-01T00:00:00+00:00</time>
        <ele>3409.0</ele>
      </trkpt>
      <trkpt lat="46.04147" lon="7.874911">
        <time>1970-01-01T00:00:00+00:00</time>
        <ele>3409.0</ele>
      </trkpt>
      <trkpt lat="46.041531" lon="7.874745">
        <time>1970-01-01T00:00:00+00:00</time>
        <ele>3405.0</ele>
      </trkpt>
      <trkpt lat="46.041531" lon="7.874745">
        <time>1970-01-01T00:00:00+00:00</time>
        <ele>3405.0</ele>
      </trkpt>
      <trkpt lat="46.041532" lon="7.874513">
        <time>1970-01-01T00:00:00+00:00</time>
        <ele>3400.0</ele>
      </trkpt>
      <trkpt lat="46.041532" lon="7.874513">
        <time>1970-01-01T00:00:00+00:00</time>
        <ele>3400.0</ele>
      </trkpt>
      <trkpt lat="46.041542" lon="7.874448">
        <time>1970-01-01T00:00:00+00:00</time>
        <ele>3399.0</ele>
      </trkpt>
      <trkpt lat="46.041542" lon="7.874448">
        <time>1970-01-01T00:00:00+00:00</time>
        <ele>3399.0</ele>
      </trkpt>
      <trkpt lat="46.041615" lon="7.874351">
        <time>1970-01-01T00:00:00+00:00</time>
        <ele>3398.0</ele>
      </trkpt>
      <trkpt lat="46.041615" lon="7.874351">
        <time>1970-01-01T00:00:00+00:00</time>
        <ele>3398.0</ele>
      </trkpt>
      <trkpt lat="46.041649" lon="7.874293">
        <time>1970-01-01T00:00:00+00:00</time>
        <ele>3397.0</ele>
      </trkpt>
      <trkpt lat="46.041649" lon="7.874293">
        <time>1970-01-01T00:00:00+00:00</time>
        <ele>3397.0</ele>
      </trkpt>
      <trkpt lat="46.041755878020886" lon="7.87408458785928">
        <time>1970-01-01T00:00:00+00:00</time>
        <ele>3396.0</ele>
      </trkpt>
      <trkpt lat="46.041789" lon="7.87402">
        <time>1970-01-01T00:00:00+00:00</time>
        <ele>3395.0</ele>
      </trkpt>
      <trkpt lat="46.041789" lon="7.87402">
        <time>1970-01-01T00:00:00+00:00</time>
        <ele>3395.0</ele>
      </trkpt>
      <trkpt lat="46.04192024528628" lon="7.873842818863525">
        <time>1970-01-01T00:00:00+00:00</time>
        <ele>3393.0</ele>
      </trkpt>
      <trkpt lat="46.041949" lon="7.873804">
        <time>1970-01-01T00:00:00+00:00</time>
        <ele>3392.0</ele>
      </trkpt>
      <trkpt lat="46.041949" lon="7.873804">
        <time>1970-01-01T00:00:00+00:00</time>
        <ele>3392.0</ele>
      </trkpt>
      <trkpt lat="46.04207121598999" lon="7.873613886237795">
        <time>1970-01-01T00:00:00+00:00</time>
        <ele>3389.0</ele>
      </trkpt>
      <trkpt lat="46.042138" lon="7.87351">
        <time>1970-01-01T00:00:00+00:00</time>
        <ele>3388.0</ele>
      </trkpt>
      <trkpt lat="46.042138" lon="7.87351">
        <time>1970-01-01T00:00:00+00:00</time>
        <ele>3388.0</ele>
      </trkpt>
      <trkpt lat="46.042171" lon="7.873464">
        <time>1970-01-01T00:00:00+00:00</time>
        <ele>3387.0</ele>
      </trkpt>
      <trkpt lat="46.042171" lon="7.873464">
        <time>1970-01-01T00:00:00+00:00</time>
        <ele>3387.0</ele>
      </trkpt>
      <trkpt lat="46.042233" lon="7.873402">
        <time>1970-01-01T00:00:00+00:00</time>
        <ele>3386.0</ele>
      </trkpt>
      <trkpt lat="46.042233" lon="7.873402">
        <time>1970-01-01T00:00:00+00:00</time>
        <ele>3386.0</ele>
      </trkpt>
      <trkpt lat="46.042281" lon="7.873339">
        <time>1970-01-01T00:00:00+00:00</time>
        <ele>3385.0</ele>
      </trkpt>
      <trkpt lat="46.042281" lon="7.873339">
        <time>1970-01-01T00:00:00+00:00</time>
        <ele>3385.0</ele>
      </trkpt>
      <trkpt lat="46.042222" lon="7.873294">
        <time>1970-01-01T00:00:00+00:00</time>
        <ele>3384.0</ele>
      </trkpt>
      <trkpt lat="46.042222" lon="7.873294">
        <time>1970-01-01T00:00:00+00:00</time>
        <ele>3384.0</ele>
      </trkpt>
      <trkpt lat="46.042211" lon="7.873357">
        <time>1970-01-01T00:00:00+00:00</time>
        <ele>3385.0</ele>
      </trkpt>
      <trkpt lat="46.042211" lon="7.873357">
        <time>1970-01-01T00:00:00+00:00</time>
        <ele>3385.0</ele>
      </trkpt>
      <trkpt lat="46.042181" lon="7.873296">
        <time>1970-01-01T00:00:00+00:00</time>
        <ele>3383.0</ele>
      </trkpt>
      <trkpt lat="46.042181" lon="7.873296">
        <time>1970-01-01T00:00:00+00:00</time>
        <ele>3383.0</ele>
      </trkpt>
      <trkpt lat="46.042205" lon="7.873148">
        <time>1970-01-01T00:00:00+00:00</time>
        <ele>3381.0</ele>
      </trkpt>
      <trkpt lat="46.042205" lon="7.873148">
        <time>1970-01-01T00:00:00+00:00</time>
        <ele>3381.0</ele>
      </trkpt>
      <trkpt lat="46.042232" lon="7.873089">
        <time>1970-01-01T00:00:00+00:00</time>
        <ele>3380.0</ele>
      </trkpt>
      <trkpt lat="46.042232" lon="7.873089">
        <time>1970-01-01T00:00:00+00:00</time>
        <ele>3380.0</ele>
      </trkpt>
      <trkpt lat="46.042331" lon="7.872929">
        <time>1970-01-01T00:00:00+00:00</time>
        <ele>3378.0</ele>
      </trkpt>
      <trkpt lat="46.042331" lon="7.872929">
        <time>1970-01-01T00:00:00+00:00</time>
        <ele>3378.0</ele>
      </trkpt>
      <trkpt lat="46.042368" lon="7.872873">
        <time>1970-01-01T00:00:00+00:00</time>
        <ele>3377.0</ele>
      </trkpt>
      <trkpt lat="46.042368" lon="7.872873">
        <time>1970-01-01T00:00:00+00:00</time>
        <ele>3377.0</ele>
      </trkpt>
      <trkpt lat="46.042481" lon="7.872747">
        <time>1970-01-01T00:00:00+00:00</time>
        <ele>3376.0</ele>
      </trkpt>
      <trkpt lat="46.042481" lon="7.872747">
        <time>1970-01-01T00:00:00+00:00</time>
        <ele>3376.0</ele>
      </trkpt>
      <trkpt lat="46.042542" lon="7.872622">
        <time>1970-01-01T00:00:00+00:00</time>
        <ele>3374.0</ele>
      </trkpt>
      <trkpt lat="46.042542" lon="7.872622">
        <time>1970-01-01T00:00:00+00:00</time>
        <ele>3374.0</ele>
      </trkpt>
      <trkpt lat="46.04266277103927" lon="7.872429976798606">
        <time>1970-01-01T00:00:00+00:00</time>
        <ele>3371.0</ele>
      </trkpt>
      <trkpt lat="46.04278354207854" lon="7.872237953597214">
        <time>1970-01-01T00:00:00+00:00</time>
        <ele>3367.0</ele>
      </trkpt>
      <trkpt lat="46.042904313117816" lon="7.872045930395821">
        <time>1970-01-01T00:00:00+00:00</time>
        <ele>3365.0</ele>
      </trkpt>
      <trkpt lat="46.042981" lon="7.871924">
        <time>1970-01-01T00:00:00+00:00</time>
        <ele>3364.0</ele>
      </trkpt>
      <trkpt lat="46.042981" lon="7.871924">
        <time>1970-01-01T00:00:00+00:00</time>
        <ele>3364.0</ele>
      </trkpt>
      <trkpt lat="46.043014" lon="7.871869">
        <time>1970-01-01T00:00:00+00:00</time>
        <ele>3363.0</ele>
      </trkpt>
      <trkpt lat="46.043014" lon="7.871869">
        <time>1970-01-01T00:00:00+00:00</time>
        <ele>3363.0</ele>
      </trkpt>
      <trkpt lat="46.043115995455544" lon="7.871655565065247">
        <time>1970-01-01T00:00:00+00:00</time>
        <ele>3361.0</ele>
      </trkpt>
      <trkpt lat="46.043122" lon="7.871643">
        <time>1970-01-01T00:00:00+00:00</time>
        <ele>3361.0</ele>
      </trkpt>
      <trkpt lat="46.043122" lon="7.871643">
        <time>1970-01-01T00:00:00+00:00</time>
        <ele>3361.0</ele>
      </trkpt>
      <trkpt lat="46.043149" lon="7.871582">
        <time>1970-01-01T00:00:00+00:00</time>
        <ele>3361.0</ele>
      </trkpt>
      <trkpt lat="46.043149" lon="7.871582">
        <time>1970-01-01T00:00:00+00:00</time>
        <ele>3361.0</ele>
      </trkpt>
      <trkpt lat="46.04323141390029" lon="7.871351674836578">
        <time>1970-01-01T00:00:00+00:00</time>
        <ele>3360.0</ele>
      </trkpt>
      <trkpt lat="46.04331382780057" lon="7.871121349673158">
        <time>1970-01-01T00:00:00+00:00</time>
        <ele>3359.0</ele>
      </trkpt>
      <trkpt lat="46.043339" lon="7.871051">
        <time>1970-01-01T00:00:00+00:00</time>
        <ele>3358.0</ele>
      </trkpt>
      <trkpt lat="46.043339" lon="7.871051">
        <time>1970-01-01T00:00:00+00:00</time>
        <ele>3358.0</ele>
      </trkpt>
      <trkpt lat="46.043361" lon="7.870987">
        <time>1970-01-01T00:00:00+00:00</time>
        <ele>3358.0</ele>
      </trkpt>
      <trkpt lat="46.043361" lon="7.870987">
        <time>1970-01-01T00:00:00+00:00</time>
        <ele>3358.0</ele>
      </trkpt>
      <trkpt lat="46.04345090084374" lon="7.870762562229276">
        <time>1970-01-01T00:00:00+00:00</time>
        <ele>3356.0</ele>
      </trkpt>
      <trkpt lat="46.043504" lon="7.87063">
        <time>1970-01-01T00:00:00+00:00</time>
        <ele>3355.0</ele>
      </trkpt>
      <trkpt lat="46.043504" lon="7.87063">
        <time>1970-01-01T00:00:00+00:00</time>
        <ele>3355.0</ele>
      </trkpt>
      <trkpt lat="46.043528" lon="7.870573">
        <time>1970-01-01T00:00:00+00:00</time>
        <ele>3355.0</ele>
      </trkpt>
      <trkpt lat="46.043528" lon="7.870573">
        <time>1970-01-01T00:00:00+00:00</time>
        <ele>3355.0</ele>
      </trkpt>
      <trkpt lat="46.043640794923306" lon="7.870371156453038">
        <time>1970-01-01T00:00:00+00:00</time>
        <ele>3353.0</ele>
      </trkpt>
      <trkpt lat="46.04375358984661" lon="7.870169312906075">
        <time>1970-01-01T00:00:00+00:00</time>
        <ele>3350.0</ele>
      </trkpt>
      <trkpt lat="46.043756" lon="7.870165">
        <time>1970-01-01T00:00:00+00:00</time>
        <ele>3350.0</ele>
      </trkpt>
      <trkpt lat="46.043756" lon="7.870165">
        <time>1970-01-01T00:00:00+00:00</time>
        <ele>3350.0</ele>
      </trkpt>
      <trkpt lat="46.043851" lon="7.870076">
        <time>1970-01-01T00:00:00+00:00</time>
        <ele>3348.0</ele>
      </trkpt>
      <trkpt lat="46.043851" lon="7.870076">
        <time>1970-01-01T00:00:00+00:00</time>
        <ele>3348.0</ele>
      </trkpt>
      <trkpt lat="46.043965" lon="7.870005">
        <time>1970-01-01T00:00:00+00:00</time>
        <ele>3345.0</ele>
      </trkpt>
      <trkpt lat="46.043965" lon="7.870005">
        <time>1970-01-01T00:00:00+00:00</time>
        <ele>3345.0</ele>
      </trkpt>
      <trkpt lat="46.044073" lon="7.86984">
        <time>1970-01-01T00:00:00+00:00</time>
        <ele>3341.0</ele>
      </trkpt>
      <trkpt lat="46.044073" lon="7.86984">
        <time>1970-01-01T00:00:00+00:00</time>
        <ele>3341.0</ele>
      </trkpt>
      <trkpt lat="46.044115" lon="7.869807">
        <time>1970-01-01T00:00:00+00:00</time>
        <ele>3339.0</ele>
      </trkpt>
      <trkpt lat="46.044115" lon="7.869807">
        <time>1970-01-01T00:00:00+00:00</time>
        <ele>3339.0</ele>
      </trkpt>
      <trkpt lat="46.044185" lon="7.869795">
        <time>1970-01-01T00:00:00+00:00</time>
        <ele>3339.0</ele>
      </trkpt>
      <trkpt lat="46.044185" lon="7.869795">
        <time>1970-01-01T00:00:00+00:00</time>
        <ele>3339.0</ele>
      </trkpt>
      <trkpt lat="46.044359769426535" lon="7.869733760039219">
        <time>1970-01-01T00:00:00+00:00</time>
        <ele>3337.0</ele>
      </trkpt>
      <trkpt lat="46.044534538853064" lon="7.869672520078439">
        <time>1970-01-01T00:00:00+00:00</time>
        <ele>3336.0</ele>
      </trkpt>
      <trkpt lat="46.044556" lon="7.869665">
        <time>1970-01-01T00:00:00+00:00</time>
        <ele>3336.0</ele>
      </trkpt>
      <trkpt lat="46.044556" lon="7.869665">
        <time>1970-01-01T00:00:00+00:00</time>
        <ele>3336.0</ele>
      </trkpt>
      <trkpt lat="46.044601" lon="7.869635">
        <time>1970-01-01T00:00:00+00:00</time>
        <ele>3336.0</ele>
      </trkpt>
      <trkpt lat="46.044601" lon="7.869635">
        <time>1970-01-01T00:00:00+00:00</time>
        <ele>3336.0</ele>
      </trkpt>
      <trkpt lat="46.044647" lon="7.869595">
        <time>1970-01-01T00:00:00+00:00</time>
        <ele>3336.0</ele>
      </trkpt>
      <trkpt lat="46.044647" lon="7.869595">
        <time>1970-01-01T00:00:00+00:00</time>
        <ele>3336.0</ele>
      </trkpt>
      <trkpt lat="46.044695" lon="7.869546">
        <time>1970-01-01T00:00:00+00:00</time>
        <ele>3336.0</ele>
      </trkpt>
      <trkpt lat="46.044695" lon="7.869546">
        <time>1970-01-01T00:00:00+00:00</time>
        <ele>3336.0</ele>
      </trkpt>
      <trkpt lat="46.04482711296317" lon="7.86937015309041">
        <time>1970-01-01T00:00:00+00:00</time>
        <ele>3334.0</ele>
      </trkpt>
      <trkpt lat="46.04484" lon="7.869353">
        <time>1970-01-01T00:00:00+00:00</time>
        <ele>3334.0</ele>
      </trkpt>
      <trkpt lat="46.04484" lon="7.869353">
        <time>1970-01-01T00:00:00+00:00</time>
        <ele>3334.0</ele>
      </trkpt>
      <trkpt lat="46.04489" lon="7.869266">
        <time>1970-01-01T00:00:00+00:00</time>
        <ele>3334.0</ele>
      </trkpt>
      <trkpt lat="46.04489" lon="7.869266">
        <time>1970-01-01T00:00:00+00:00</time>
        <ele>3334.0</ele>
      </trkpt>
      <trkpt lat="46.044939" lon="7.869172">
        <time>1970-01-01T00:00:00+00:00</time>
        <ele>3333.0</ele>
      </trkpt>
      <trkpt lat="46.044939" lon="7.869172">
        <time>1970-01-01T00:00:00+00:00</time>
        <ele>3333.0</ele>
      </trkpt>
      <trkpt lat="46.045005" lon="7.868965">
        <time>1970-01-01T00:00:00+00:00</time>
        <ele>3331.0</ele>
      </trkpt>
      <trkpt lat="46.045005" lon="7.868965">
        <time>1970-01-01T00:00:00+00:00</time>
        <ele>3331.0</ele>
      </trkpt>
      <trkpt lat="46.045024" lon="7.868874">
        <time>1970-01-01T00:00:00+00:00</time>
        <ele>3331.0</ele>
      </trkpt>
      <trkpt lat="46.045024" lon="7.868874">
        <time>1970-01-01T00:00:00+00:00</time>
        <ele>3331.0</ele>
      </trkpt>
      <trkpt lat="46.04504887884947" lon="7.868617355026522">
        <time>1970-01-01T00:00:00+00:00</time>
        <ele>3328.0</ele>
      </trkpt>
      <trkpt lat="46.045062" lon="7.868482">
        <time>1970-01-01T00:00:00+00:00</time>
        <ele>3327.0</ele>
      </trkpt>
      <trkpt lat="46.045062" lon="7.868482">
        <time>1970-01-01T00:00:00+00:00</time>
        <ele>3327.0</ele>
      </trkpt>
      <trkpt lat="46.045063" lon="7.868327">
        <time>1970-01-01T00:00:00+00:00</time>
        <ele>3326.0</ele>
      </trkpt>
      <trkpt lat="46.045063" lon="7.868327">
        <time>1970-01-01T00:00:00+00:00</time>
        <ele>3326.0</ele>
      </trkpt>
      <trkpt lat="46.045104" lon="7.868264">
        <time>1970-01-01T00:00:00+00:00</time>
        <ele>3327.0</ele>
      </trkpt>
      <trkpt lat="46.045104" lon="7.868264">
        <time>1970-01-01T00:00:00+00:00</time>
        <ele>3327.0</ele>
      </trkpt>
      <trkpt lat="46.045106" lon="7.86818">
        <time>1970-01-01T00:00:00+00:00</time>
        <ele>3326.0</ele>
      </trkpt>
      <trkpt lat="46.045106" lon="7.86818">
        <time>1970-01-01T00:00:00+00:00</time>
        <ele>3326.0</ele>
      </trkpt>
      <trkpt lat="46.045109" lon="7.868245">
        <time>1970-01-01T00:00:00+00:00</time>
        <ele>3327.0</ele>
      </trkpt>
      <trkpt lat="46.045109" lon="7.868245">
        <time>1970-01-01T00:00:00+00:00</time>
        <ele>3327.0</ele>
      </trkpt>
      <trkpt lat="46.045109" lon="7.868111">
        <time>1970-01-01T00:00:00+00:00</time>
        <ele>3326.0</ele>
      </trkpt>
      <trkpt lat="46.045109" lon="7.868111">
        <time>1970-01-01T00:00:00+00:00</time>
        <ele>3326.0</ele>
      </trkpt>
      <trkpt lat="46.045131" lon="7.867992">
        <time>1970-01-01T00:00:00+00:00</time>
        <ele>3325.0</ele>
      </trkpt>
      <trkpt lat="46.045131" lon="7.867992">
        <time>1970-01-01T00:00:00+00:00</time>
        <ele>3325.0</ele>
      </trkpt>
      <trkpt lat="46.045194" lon="7.867945">
        <time>1970-01-01T00:00:00+00:00</time>
        <ele>3327.0</ele>
      </trkpt>
      <trkpt lat="46.045194" lon="7.867945">
        <time>1970-01-01T00:00:00+00:00</time>
        <ele>3327.0</ele>
      </trkpt>
      <trkpt lat="46.04524" lon="7.867942">
        <time>1970-01-01T00:00:00+00:00</time>
        <ele>3329.0</ele>
      </trkpt>
      <trkpt lat="46.04524" lon="7.867942">
        <time>1970-01-01T00:00:00+00:00</time>
        <ele>3329.0</ele>
      </trkpt>
      <trkpt lat="46.04529" lon="7.867925">
        <time>1970-01-01T00:00:00+00:00</time>
        <ele>3330.0</ele>
      </trkpt>
      <trkpt lat="46.04529" lon="7.867925">
        <time>1970-01-01T00:00:00+00:00</time>
        <ele>3330.0</ele>
      </trkpt>
      <trkpt lat="46.045363" lon="7.867983">
        <time>1970-01-01T00:00:00+00:00</time>
        <ele>3333.0</ele>
      </trkpt>
      <trkpt lat="46.045363" lon="7.867983">
        <time>1970-01-01T00:00:00+00:00</time>
        <ele>3333.0</ele>
      </trkpt>
      <trkpt lat="46.045384" lon="7.868044">
        <time>1970-01-01T00:00:00+00:00</time>
        <ele>3334.0</ele>
      </trkpt>
      <trkpt lat="46.045384" lon="7.868044">
        <time>1970-01-01T00:00:00+00:00</time>
        <ele>3334.0</ele>
      </trkpt>
      <trkpt lat="46.045455" lon="7.868196">
        <time>1970-01-01T00:00:00+00:00</time>
        <ele>3336.0</ele>
      </trkpt>
      <trkpt lat="46.045455" lon="7.868196">
        <time>1970-01-01T00:00:00+00:00</time>
        <ele>3336.0</ele>
      </trkpt>
      <trkpt lat="46.045467" lon="7.86827">
        <time>1970-01-01T00:00:00+00:00</time>
        <ele>3336.0</ele>
      </trkpt>
      <trkpt lat="46.045467" lon="7.86827">
        <time>1970-01-01T00:00:00+00:00</time>
        <ele>3336.0</ele>
      </trkpt>
      <trkpt lat="46.045456" lon="7.868334">
        <time>1970-01-01T00:00:00+00:00</time>
        <ele>3337.0</ele>
      </trkpt>
      <trkpt lat="46.045456" lon="7.868334">
        <time>1970-01-01T00:00:00+00:00</time>
        <ele>3337.0</ele>
      </trkpt>
      <trkpt lat="46.045497" lon="7.868436">
        <time>1970-01-01T00:00:00+00:00</time>
        <ele>3338.0</ele>
      </trkpt>
      <trkpt lat="46.045497" lon="7.868436">
        <time>1970-01-01T00:00:00+00:00</time>
        <ele>3338.0</ele>
      </trkpt>
      <trkpt lat="46.045531" lon="7.868592">
        <time>1970-01-01T00:00:00+00:00</time>
        <ele>3341.0</ele>
      </trkpt>
      <trkpt lat="46.045531" lon="7.868592">
        <time>1970-01-01T00:00:00+00:00</time>
        <ele>3341.0</ele>
      </trkpt>
      <trkpt lat="46.045572" lon="7.868649">
        <time>1970-01-01T00:00:00+00:00</time>
        <ele>3342.0</ele>
      </trkpt>
      <trkpt lat="46.045572" lon="7.868649">
        <time>1970-01-01T00:00:00+00:00</time>
        <ele>3342.0</ele>
      </trkpt>
      <trkpt lat="46.045557" lon="7.868719">
        <time>1970-01-01T00:00:00+00:00</time>
        <ele>3344.0</ele>
      </trkpt>
      <trkpt lat="46.045557" lon="7.868719">
        <time>1970-01-01T00:00:00+00:00</time>
        <ele>3344.0</ele>
      </trkpt>
      <trkpt lat="46.045511" lon="7.868731">
        <time>1970-01-01T00:00:00+00:00</time>
        <ele>3343.0</ele>
      </trkpt>
      <trkpt lat="46.045511" lon="7.868731">
        <time>1970-01-01T00:00:00+00:00</time>
        <ele>3343.0</ele>
      </trkpt>
      <trkpt lat="46.04546" lon="7.868706">
        <time>1970-01-01T00:00:00+00:00</time>
        <ele>3342.0</ele>
      </trkpt>
      <trkpt lat="46.04546" lon="7.868706">
        <time>1970-01-01T00:00:00+00:00</time>
        <ele>3342.0</ele>
      </trkpt>
      <trkpt lat="46.045414" lon="7.86873">
        <time>1970-01-01T00:00:00+00:00</time>
        <ele>3342.0</ele>
      </trkpt>
      <trkpt lat="46.045414" lon="7.86873">
        <time>1970-01-01T00:00:00+00:00</time>
        <ele>3342.0</ele>
      </trkpt>
      <trkpt lat="46.045365" lon="7.868766">
        <time>1970-01-01T00:00:00+00:00</time>
        <ele>3341.0</ele>
      </trkpt>
      <trkpt lat="46.045365" lon="7.868766">
        <time>1970-01-01T00:00:00+00:00</time>
        <ele>3341.0</ele>
      </trkpt>
      <trkpt lat="46.045301" lon="7.868805">
        <time>1970-01-01T00:00:00+00:00</time>
        <ele>3339.0</ele>
      </trkpt>
      <trkpt lat="46.045301" lon="7.868805">
        <time>1970-01-01T00:00:00+00:00</time>
        <ele>3339.0</ele>
      </trkpt>
      <trkpt lat="46.045261" lon="7.868873">
        <time>1970-01-01T00:00:00+00:00</time>
        <ele>3339.0</ele>
      </trkpt>
      <trkpt lat="46.045261" lon="7.868873">
        <time>1970-01-01T00:00:00+00:00</time>
        <ele>3339.0</ele>
      </trkpt>
      <trkpt lat="46.045265" lon="7.868946">
        <time>1970-01-01T00:00:00+00:00</time>
        <ele>3340.0</ele>
      </trkpt>
      <trkpt lat="46.045265" lon="7.868946">
        <time>1970-01-01T00:00:00+00:00</time>
        <ele>3340.0</ele>
      </trkpt>
      <trkpt lat="46.045293" lon="7.869018">
        <time>1970-01-01T00:00:00+00:00</time>
        <ele>3342.0</ele>
      </trkpt>
      <trkpt lat="46.045293" lon="7.869018">
        <time>1970-01-01T00:00:00+00:00</time>
        <ele>3342.0</ele>
      </trkpt>
      <trkpt lat="46.045349" lon="7.869061">
        <time>1970-01-01T00:00:00+00:00</time>
        <ele>3345.0</ele>
      </trkpt>
      <trkpt lat="46.045349" lon="7.869061">
        <time>1970-01-01T00:00:00+00:00</time>
        <ele>3345.0</ele>
      </trkpt>
      <trkpt lat="46.045369" lon="7.869219">
        <time>1970-01-01T00:00:00+00:00</time>
        <ele>3350.0</ele>
      </trkpt>
      <trkpt lat="46.045369" lon="7.869219">
        <time>1970-01-01T00:00:00+00:00</time>
        <ele>3350.0</ele>
      </trkpt>
      <trkpt lat="46.045407" lon="7.869293">
        <time>1970-01-01T00:00:00+00:00</time>
        <ele>3353.0</ele>
      </trkpt>
      <trkpt lat="46.045407" lon="7.869293">
        <time>1970-01-01T00:00:00+00:00</time>
        <ele>3353.0</ele>
      </trkpt>
      <trkpt lat="46.045488" lon="7.869303">
        <time>1970-01-01T00:00:00+00:00</time>
        <ele>3356.0</ele>
      </trkpt>
      <trkpt lat="46.045488" lon="7.869303">
        <time>1970-01-01T00:00:00+00:00</time>
        <ele>3356.0</ele>
      </trkpt>
      <trkpt lat="46.045563" lon="7.869322">
        <time>1970-01-01T00:00:00+00:00</time>
        <ele>3358.0</ele>
      </trkpt>
      <trkpt lat="46.045563" lon="7.869322">
        <time>1970-01-01T00:00:00+00:00</time>
        <ele>3358.0</ele>
      </trkpt>
      <trkpt lat="46.045654" lon="7.869317">
        <time>1970-01-01T00:00:00+00:00</time>
        <ele>3361.0</ele>
      </trkpt>
      <trkpt lat="46.045654" lon="7.869317">
        <time>1970-01-01T00:00:00+00:00</time>
        <ele>3361.0</ele>
      </trkpt>
      <trkpt lat="46.045816" lon="7.869309">
        <time>1970-01-01T00:00:00+00:00</time>
        <ele>3367.0</ele>
      </trkpt>
      <trkpt lat="46.045816" lon="7.869309">
        <time>1970-01-01T00:00:00+00:00</time>
        <ele>3367.0</ele>
      </trkpt>
      <trkpt lat="46.045878" lon="7.869279">
        <time>1970-01-01T00:00:00+00:00</time>
        <ele>3370.0</ele>
      </trkpt>
      <trkpt lat="46.045878" lon="7.869279">
        <time>1970-01-01T00:00:00+00:00</time>
        <ele>3370.0</ele>
      </trkpt>
      <trkpt lat="46.045924" lon="7.869305">
        <time>1970-01-01T00:00:00+00:00</time>
        <ele>3374.0</ele>
      </trkpt>
      <trkpt lat="46.045924" lon="7.869305">
        <time>1970-01-01T00:00:00+00:00</time>
        <ele>3374.0</ele>
      </trkpt>
      <trkpt lat="46.045939" lon="7.869371">
        <time>1970-01-01T00:00:00+00:00</time>
        <ele>3376.0</ele>
      </trkpt>
      <trkpt lat="46.045939" lon="7.869371">
        <time>1970-01-01T00:00:00+00:00</time>
        <ele>3376.0</ele>
      </trkpt>
      <trkpt lat="46.046011" lon="7.869236">
        <time>1970-01-01T00:00:00+00:00</time>
        <ele>3376.0</ele>
      </trkpt>
      <trkpt lat="46.046011" lon="7.869236">
        <time>1970-01-01T00:00:00+00:00</time>
        <ele>3376.0</ele>
      </trkpt>
      <trkpt lat="46.04606" lon="7.869172">
        <time>1970-01-01T00:00:00+00:00</time>
        <ele>3376.0</ele>
      </trkpt>
      <trkpt lat="46.04606" lon="7.869172">
        <time>1970-01-01T00:00:00+00:00</time>
        <ele>3376.0</ele>
      </trkpt>
      <trkpt lat="46.04614" lon="7.869127">
        <time>1970-01-01T00:00:00+00:00</time>
        <ele>3379.0</ele>
      </trkpt>
      <trkpt lat="46.04614" lon="7.869127">
        <time>1970-01-01T00:00:00+00:00</time>
        <ele>3379.0</ele>
      </trkpt>
      <trkpt lat="46.046191" lon="7.869094">
        <time>1970-01-01T00:00:00+00:00</time>
        <ele>3380.0</ele>
      </trkpt>
      <trkpt lat="46.046191" lon="7.869094">
        <time>1970-01-01T00:00:00+00:00</time>
        <ele>3380.0</ele>
      </trkpt>
      <trkpt lat="46.04624" lon="7.869076">
        <time>1970-01-01T00:00:00+00:00</time>
        <ele>3381.0</ele>
      </trkpt>
      <trkpt lat="46.04624" lon="7.869076">
        <time>1970-01-01T00:00:00+00:00</time>
        <ele>3381.0</ele>
      </trkpt>
      <trkpt lat="46.046298" lon="7.869014">
        <time>1970-01-01T00:00:00+00:00</time>
        <ele>3382.0</ele>
      </trkpt>
      <trkpt lat="46.046298" lon="7.869014">
        <time>1970-01-01T00:00:00+00:00</time>
        <ele>3382.0</ele>
      </trkpt>
      <trkpt lat="46.046347" lon="7.868971">
        <time>1970-01-01T00:00:00+00:00</time>
        <ele>3383.0</ele>
      </trkpt>
      <trkpt lat="46.046347" lon="7.868971">
        <time>1970-01-01T00:00:00+00:00</time>
        <ele>3383.0</ele>
      </trkpt>
      <trkpt lat="46.046407" lon="7.868928">
        <time>1970-01-01T00:00:00+00:00</time>
        <ele>3385.0</ele>
      </trkpt>
      <trkpt lat="46.046407" lon="7.868928">
        <time>1970-01-01T00:00:00+00:00</time>
        <ele>3385.0</ele>
      </trkpt>
      <trkpt lat="46.046401" lon="7.868856">
        <time>1970-01-01T00:00:00+00:00</time>
        <ele>3383.0</ele>
      </trkpt>
      <trkpt lat="46.046401" lon="7.868856">
        <time>1970-01-01T00:00:00+00:00</time>
        <ele>3383.0</ele>
      </trkpt>
      <trkpt lat="46.046461" lon="7.868864">
        <time>1970-01-01T00:00:00+00:00</time>
        <ele>3386.0</ele>
      </trkpt>
      <trkpt lat="46.046461" lon="7.868864">
        <time>1970-01-01T00:00:00+00:00</time>
        <ele>3386.0</ele>
      </trkpt>
      <trkpt lat="46.046508" lon="7.868923">
        <time>1970-01-01T00:00:00+00:00</time>
        <ele>3390.0</ele>
      </trkpt>
      <trkpt lat="46.046508" lon="7.868923">
        <time>1970-01-01T00:00:00+00:00</time>
        <ele>3390.0</ele>
      </trkpt>
      <trkpt lat="46.046516" lon="7.868993">
        <time>1970-01-01T00:00:00+00:00</time>
        <ele>3392.0</ele>
      </trkpt>
      <trkpt lat="46.046516" lon="7.868993">
        <time>1970-01-01T00:00:00+00:00</time>
        <ele>3392.0</ele>
      </trkpt>
      <trkpt lat="46.046542" lon="7.869067">
        <time>1970-01-01T00:00:00+00:00</time>
        <ele>3395.0</ele>
      </trkpt>
      <trkpt lat="46.046542" lon="7.869067">
        <time>1970-01-01T00:00:00+00:00</time>
        <ele>3395.0</ele>
      </trkpt>
      <trkpt lat="46.046549" lon="7.869132">
        <time>1970-01-01T00:00:00+00:00</time>
        <ele>3397.0</ele>
      </trkpt>
      <trkpt lat="46.046549" lon="7.869132">
        <time>1970-01-01T00:00:00+00:00</time>
        <ele>3397.0</ele>
      </trkpt>
      <trkpt lat="46.046591" lon="7.869195">
        <time>1970-01-01T00:00:00+00:00</time>
        <ele>3400.0</ele>
      </trkpt>
      <trkpt lat="46.046591" lon="7.869195">
        <time>1970-01-01T00:00:00+00:00</time>
        <ele>3400.0</ele>
      </trkpt>
      <trkpt lat="46.046562" lon="7.869249">
        <time>1970-01-01T00:00:00+00:00</time>
        <ele>3400.0</ele>
      </trkpt>
      <trkpt lat="46.046562" lon="7.869249">
        <time>1970-01-01T00:00:00+00:00</time>
        <ele>3400.0</ele>
      </trkpt>
      <trkpt lat="46.046547" lon="7.869348">
        <time>1970-01-01T00:00:00+00:00</time>
        <ele>3402.0</ele>
      </trkpt>
      <trkpt lat="46.046547" lon="7.869348">
        <time>1970-01-01T00:00:00+00:00</time>
        <ele>3402.0</ele>
      </trkpt>
      <trkpt lat="46.046632" lon="7.869283">
        <time>1970-01-01T00:00:00+00:00</time>
        <ele>3403.0</ele>
      </trkpt>
      <trkpt lat="46.046632" lon="7.869283">
        <time>1970-01-01T00:00:00+00:00</time>
        <ele>3403.0</ele>
      </trkpt>
      <trkpt lat="46.046674" lon="7.869237">
        <time>1970-01-01T00:00:00+00:00</time>
        <ele>3404.0</ele>
      </trkpt>
      <trkpt lat="46.046674" lon="7.869237">
        <time>1970-01-01T00:00:00+00:00</time>
        <ele>3404.0</ele>
      </trkpt>
      <trkpt lat="46.046707" lon="7.869289">
        <time>1970-01-01T00:00:00+00:00</time>
        <ele>3406.0</ele>
      </trkpt>
      <trkpt lat="46.046707" lon="7.869289">
        <time>1970-01-01T00:00:00+00:00</time>
        <ele>3406.0</ele>
      </trkpt>
      <trkpt lat="46.046713" lon="7.869372">
        <time>1970-01-01T00:00:00+00:00</time>
        <ele>3408.0</ele>
      </trkpt>
      <trkpt lat="46.046713" lon="7.869372">
        <time>1970-01-01T00:00:00+00:00</time>
        <ele>3408.0</ele>
      </trkpt>
      <trkpt lat="46.046673" lon="7.869494">
        <time>1970-01-01T00:00:00+00:00</time>
        <ele>3409.0</ele>
      </trkpt>
      <trkpt lat="46.046673" lon="7.869494">
        <time>1970-01-01T00:00:00+00:00</time>
        <ele>3409.0</ele>
      </trkpt>
      <trkpt lat="46.046716" lon="7.869403">
        <time>1970-01-01T00:00:00+00:00</time>
        <ele>3409.0</ele>
      </trkpt>
      <trkpt lat="46.046716" lon="7.869403">
        <time>1970-01-01T00:00:00+00:00</time>
        <ele>3409.0</ele>
      </trkpt>
      <trkpt lat="46.046772" lon="7.869311">
        <time>1970-01-01T00:00:00+00:00</time>
        <ele>3409.0</ele>
      </trkpt>
      <trkpt lat="46.046772" lon="7.869311">
        <time>1970-01-01T00:00:00+00:00</time>
        <ele>3409.0</ele>
      </trkpt>
      <trkpt lat="46.0468" lon="7.869207">
        <time>1970-01-01T00:00:00+00:00</time>
        <ele>3408.0</ele>
      </trkpt>
      <trkpt lat="46.0468" lon="7.869207">
        <time>1970-01-01T00:00:00+00:00</time>
        <ele>3408.0</ele>
      </trkpt>
      <trkpt lat="46.046849" lon="7.869174">
        <time>1970-01-01T00:00:00+00:00</time>
        <ele>3411.0</ele>
      </trkpt>
      <trkpt lat="46.046849" lon="7.869174">
        <time>1970-01-01T00:00:00+00:00</time>
        <ele>3411.0</ele>
      </trkpt>
      <trkpt lat="46.046882" lon="7.869125">
        <time>1970-01-01T00:00:00+00:00</time>
        <ele>3411.0</ele>
      </trkpt>
      <trkpt lat="46.046882" lon="7.869125">
        <time>1970-01-01T00:00:00+00:00</time>
        <ele>3411.0</ele>
      </trkpt>
      <trkpt lat="46.046922" lon="7.869087">
        <time>1970-01-01T00:00:00+00:00</time>
        <ele>3413.0</ele>
      </trkpt>
      <trkpt lat="46.046922" lon="7.869087">
        <time>1970-01-01T00:00:00+00:00</time>
        <ele>3413.0</ele>
      </trkpt>
      <trkpt lat="46.04697" lon="7.869093">
        <time>1970-01-01T00:00:00+00:00</time>
        <ele>3416.0</ele>
      </trkpt>
      <trkpt lat="46.04697" lon="7.869093">
        <time>1970-01-01T00:00:00+00:00</time>
        <ele>3416.0</ele>
      </trkpt>
      <trkpt lat="46.047015" lon="7.86908">
        <time>1970-01-01T00:00:00+00:00</time>
        <ele>3418.0</ele>
      </trkpt>
      <trkpt lat="46.047015" lon="7.86908">
        <time>1970-01-01T00:00:00+00:00</time>
        <ele>3418.0</ele>
      </trkpt>
      <trkpt lat="46.047066" lon="7.869105">
        <time>1970-01-01T00:00:00+00:00</time>
        <ele>3421.0</ele>
      </trkpt>
      <trkpt lat="46.047066" lon="7.869105">
        <time>1970-01-01T00:00:00+00:00</time>
        <ele>3421.0</ele>
      </trkpt>
      <trkpt lat="46.047159" lon="7.869093">
        <time>1970-01-01T00:00:00+00:00</time>
        <ele>3425.0</ele>
      </trkpt>
      <trkpt lat="46.047159" lon="7.869093">
        <time>1970-01-01T00:00:00+00:00</time>
        <ele>3425.0</ele>
      </trkpt>
      <trkpt lat="46.047317" lon="7.8691">
        <time>1970-01-01T00:00:00+00:00</time>
        <ele>3433.0</ele>
      </trkpt>
      <trkpt lat="46.047317" lon="7.8691">
        <time>1970-01-01T00:00:00+00:00</time>
        <ele>3433.0</ele>
      </trkpt>
      <trkpt lat="46.047378" lon="7.869106">
        <time>1970-01-01T00:00:00+00:00</time>
        <ele>3437.0</ele>
      </trkpt>
      <trkpt lat="46.047378" lon="7.869106">
        <time>1970-01-01T00:00:00+00:00</time>
        <ele>3437.0</ele>
      </trkpt>
      <trkpt lat="46.047437" lon="7.869042">
        <time>1970-01-01T00:00:00+00:00</time>
        <ele>3441.0</ele>
      </trkpt>
      <trkpt lat="46.047437" lon="7.869042">
        <time>1970-01-01T00:00:00+00:00</time>
        <ele>3441.0</ele>
      </trkpt>
      <trkpt lat="46.047496" lon="7.868993">
        <time>1970-01-01T00:00:00+00:00</time>
        <ele>3444.0</ele>
      </trkpt>
      <trkpt lat="46.047496" lon="7.868993">
        <time>1970-01-01T00:00:00+00:00</time>
        <ele>3444.0</ele>
      </trkpt>
      <trkpt lat="46.047547" lon="7.868913">
        <time>1970-01-01T00:00:00+00:00</time>
        <ele>3446.0</ele>
      </trkpt>
      <trkpt lat="46.047547" lon="7.868913">
        <time>1970-01-01T00:00:00+00:00</time>
        <ele>3446.0</ele>
      </trkpt>
      <trkpt lat="46.047583" lon="7.868859">
        <time>1970-01-01T00:00:00+00:00</time>
        <ele>3448.0</ele>
      </trkpt>
      <trkpt lat="46.047583" lon="7.868859">
        <time>1970-01-01T00:00:00+00:00</time>
        <ele>3448.0</ele>
      </trkpt>
      <trkpt lat="46.047641" lon="7.868837">
        <time>1970-01-01T00:00:00+00:00</time>
        <ele>3452.0</ele>
      </trkpt>
      <trkpt lat="46.047641" lon="7.868837">
        <time>1970-01-01T00:00:00+00:00</time>
        <ele>3452.0</ele>
      </trkpt>
      <trkpt lat="46.047681" lon="7.868802">
        <time>1970-01-01T00:00:00+00:00</time>
        <ele>3454.0</ele>
      </trkpt>
      <trkpt lat="46.047681" lon="7.868802">
        <time>1970-01-01T00:00:00+00:00</time>
        <ele>3454.0</ele>
      </trkpt>
      <trkpt lat="46.047762" lon="7.868768">
        <time>1970-01-01T00:00:00+00:00</time>
        <ele>3457.0</ele>
      </trkpt>
      <trkpt lat="46.047762" lon="7.868768">
        <time>1970-01-01T00:00:00+00:00</time>
        <ele>3457.0</ele>
      </trkpt>
      <trkpt lat="46.047808" lon="7.868773">
        <time>1970-01-01T00:00:00+00:00</time>
        <ele>3459.0</ele>
      </trkpt>
      <trkpt lat="46.047808" lon="7.868773">
        <time>1970-01-01T00:00:00+00:00</time>
        <ele>3459.0</ele>
      </trkpt>
      <trkpt lat="46.047857" lon="7.868764">
        <time>1970-01-01T00:00:00+00:00</time>
        <ele>3462.0</ele>
      </trkpt>
      <trkpt lat="46.047857" lon="7.868764">
        <time>1970-01-01T00:00:00+00:00</time>
        <ele>3462.0</ele>
      </trkpt>
      <trkpt lat="46.047869" lon="7.868701">
        <time>1970-01-01T00:00:00+00:00</time>
        <ele>3462.0</ele>
      </trkpt>
      <trkpt lat="46.047869" lon="7.868701">
        <time>1970-01-01T00:00:00+00:00</time>
        <ele>3462.0</ele>
      </trkpt>
      <trkpt lat="46.04787" lon="7.868602">
        <time>1970-01-01T00:00:00+00:00</time>
        <ele>3461.0</ele>
      </trkpt>
      <trkpt lat="46.04787" lon="7.868602">
        <time>1970-01-01T00:00:00+00:00</time>
        <ele>3461.0</ele>
      </trkpt>
      <trkpt lat="46.047852" lon="7.868492">
        <time>1970-01-01T00:00:00+00:00</time>
        <ele>3459.0</ele>
      </trkpt>
      <trkpt lat="46.047852" lon="7.868492">
        <time>1970-01-01T00:00:00+00:00</time>
        <ele>3459.0</ele>
      </trkpt>
      <trkpt lat="46.047899" lon="7.868459">
        <time>1970-01-01T00:00:00+00:00</time>
        <ele>3462.0</ele>
      </trkpt>
      <trkpt lat="46.047899" lon="7.868459">
        <time>1970-01-01T00:00:00+00:00</time>
        <ele>3462.0</ele>
      </trkpt>
      <trkpt lat="46.047898" lon="7.868389">
        <time>1970-01-01T00:00:00+00:00</time>
        <ele>3462.0</ele>
      </trkpt>
      <trkpt lat="46.047898" lon="7.868389">
        <time>1970-01-01T00:00:00+00:00</time>
        <ele>3462.0</ele>
      </trkpt>
      <trkpt lat="46.047886" lon="7.868326">
        <time>1970-01-01T00:00:00+00:00</time>
        <ele>3461.0</ele>
      </trkpt>
      <trkpt lat="46.047886" lon="7.868326">
        <time>1970-01-01T00:00:00+00:00</time>
        <ele>3461.0</ele>
      </trkpt>
      <trkpt lat="46.0479" lon="7.868263">
        <time>1970-01-01T00:00:00+00:00</time>
        <ele>3462.0</ele>
      </trkpt>
      <trkpt lat="46.0479" lon="7.868263">
        <time>1970-01-01T00:00:00+00:00</time>
        <ele>3462.0</ele>
      </trkpt>
      <trkpt lat="46.047947" lon="7.868259">
        <time>1970-01-01T00:00:00+00:00</time>
        <ele>3464.0</ele>
      </trkpt>
      <trkpt lat="46.047947" lon="7.868259">
        <time>1970-01-01T00:00:00+00:00</time>
        <ele>3464.0</ele>
      </trkpt>
      <trkpt lat="46.04802" lon="7.868284">
        <time>1970-01-01T00:00:00+00:00</time>
        <ele>3468.0</ele>
      </trkpt>
      <trkpt lat="46.04802" lon="7.868284">
        <time>1970-01-01T00:00:00+00:00</time>
        <ele>3468.0</ele>
      </trkpt>
      <trkpt lat="46.048046" lon="7.868069">
        <time>1970-01-01T00:00:00+00:00</time>
        <ele>3468.0</ele>
      </trkpt>
      <trkpt lat="46.048046" lon="7.868069">
        <time>1970-01-01T00:00:00+00:00</time>
        <ele>3468.0</ele>
      </trkpt>
      <trkpt lat="46.04805" lon="7.867896">
        <time>1970-01-01T00:00:00+00:00</time>
        <ele>3469.0</ele>
      </trkpt>
      <trkpt lat="46.04805" lon="7.867896">
        <time>1970-01-01T00:00:00+00:00</time>
        <ele>3469.0</ele>
      </trkpt>
      <trkpt lat="46.048079" lon="7.867842">
        <time>1970-01-01T00:00:00+00:00</time>
        <ele>3470.0</ele>
      </trkpt>
      <trkpt lat="46.048079" lon="7.867842">
        <time>1970-01-01T00:00:00+00:00</time>
        <ele>3470.0</ele>
      </trkpt>
      <trkpt lat="46.048113" lon="7.867747">
        <time>1970-01-01T00:00:00+00:00</time>
        <ele>3472.0</ele>
      </trkpt>
      <trkpt lat="46.048113" lon="7.867747">
        <time>1970-01-01T00:00:00+00:00</time>
        <ele>3472.0</ele>
      </trkpt>
      <trkpt lat="46.048125" lon="7.867617">
        <time>1970-01-01T00:00:00+00:00</time>
        <ele>3472.0</ele>
      </trkpt>
      <trkpt lat="46.048125" lon="7.867617">
        <time>1970-01-01T00:00:00+00:00</time>
        <ele>3472.0</ele>
      </trkpt>
      <trkpt lat="46.048114" lon="7.867414">
        <time>1970-01-01T00:00:00+00:00</time>
        <ele>3472.0</ele>
      </trkpt>
      <trkpt lat="46.048114" lon="7.867414">
        <time>1970-01-01T00:00:00+00:00</time>
        <ele>3472.0</ele>
      </trkpt>
      <trkpt lat="46.048075" lon="7.867253">
        <time>1970-01-01T00:00:00+00:00</time>
        <ele>3470.0</ele>
      </trkpt>
      <trkpt lat="46.048075" lon="7.867253">
        <time>1970-01-01T00:00:00+00:00</time>
        <ele>3470.0</ele>
      </trkpt>
      <trkpt lat="46.048056" lon="7.867175">
        <time>1970-01-01T00:00:00+00:00</time>
        <ele>3470.0</ele>
      </trkpt>
      <trkpt lat="46.048056" lon="7.867175">
        <time>1970-01-01T00:00:00+00:00</time>
        <ele>3470.0</ele>
      </trkpt>
      <trkpt lat="46.048014" lon="7.86706">
        <time>1970-01-01T00:00:00+00:00</time>
        <ele>3468.0</ele>
      </trkpt>
      <trkpt lat="46.048014" lon="7.86706">
        <time>1970-01-01T00:00:00+00:00</time>
        <ele>3468.0</ele>
      </trkpt>
      <trkpt lat="46.047962" lon="7.866851">
        <time>1970-01-01T00:00:00+00:00</time>
        <ele>3465.0</ele>
      </trkpt>
      <trkpt lat="46.047962" lon="7.866851">
        <time>1970-01-01T00:00:00+00:00</time>
        <ele>3465.0</ele>
      </trkpt>
      <trkpt lat="46.04794713593587" lon="7.866592736885716">
        <time>1970-01-01T00:00:00+00:00</time>
        <ele>3463.0</ele>
      </trkpt>
      <trkpt lat="46.047946" lon="7.866573">
        <time>1970-01-01T00:00:00+00:00</time>
        <ele>3463.0</ele>
      </trkpt>
      <trkpt lat="46.047946" lon="7.866573">
        <time>1970-01-01T00:00:00+00:00</time>
        <ele>3463.0</ele>
      </trkpt>
      <trkpt lat="46.047962431164606" lon="7.866314934061761">
        <time>1970-01-01T00:00:00+00:00</time>
        <ele>3462.0</ele>
      </trkpt>
      <trkpt lat="46.047963" lon="7.866306">
        <time>1970-01-01T00:00:00+00:00</time>
        <ele>3462.0</ele>
      </trkpt>
      <trkpt lat="46.047963" lon="7.866306">
        <time>1970-01-01T00:00:00+00:00</time>
        <ele>3462.0</ele>
      </trkpt>
      <trkpt lat="46.047971" lon="7.866231">
        <time>1970-01-01T00:00:00+00:00</time>
        <ele>3462.0</ele>
      </trkpt>
      <trkpt lat="46.047971" lon="7.866231">
        <time>1970-01-01T00:00:00+00:00</time>
        <ele>3462.0</ele>
      </trkpt>
      <trkpt lat="46.048014" lon="7.866012">
        <time>1970-01-01T00:00:00+00:00</time>
        <ele>3461.0</ele>
      </trkpt>
      <trkpt lat="46.048014" lon="7.866012">
        <time>1970-01-01T00:00:00+00:00</time>
        <ele>3461.0</ele>
      </trkpt>
      <trkpt lat="46.048032" lon="7.865947">
        <time>1970-01-01T00:00:00+00:00</time>
        <ele>3461.0</ele>
      </trkpt>
      <trkpt lat="46.048032" lon="7.865947">
        <time>1970-01-01T00:00:00+00:00</time>
        <ele>3461.0</ele>
      </trkpt>
      <trkpt lat="46.04810902448611" lon="7.865712814441208">
        <time>1970-01-01T00:00:00+00:00</time>
        <ele>3461.0</ele>
      </trkpt>
      <trkpt lat="46.04818604897223" lon="7.8654786288824186">
        <time>1970-01-01T00:00:00+00:00</time>
        <ele>3458.0</ele>
      </trkpt>
      <trkpt lat="46.04823" lon="7.865345">
        <time>1970-01-01T00:00:00+00:00</time>
        <ele>3457.0</ele>
      </trkpt>
      <trkpt lat="46.04823" lon="7.865345">
        <time>1970-01-01T00:00:00+00:00</time>
        <ele>3457.0</ele>
      </trkpt>
      <trkpt lat="46.048248" lon="7.865275">
        <time>1970-01-01T00:00:00+00:00</time>
        <ele>3456.0</ele>
      </trkpt>
      <trkpt lat="46.048248" lon="7.865275">
        <time>1970-01-01T00:00:00+00:00</time>
        <ele>3456.0</ele>
      </trkpt>
      <trkpt lat="46.048271" lon="7.865208">
        <time>1970-01-01T00:00:00+00:00</time>
        <ele>3455.0</ele>
      </trkpt>
      <trkpt lat="46.048271" lon="7.865208">
        <time>1970-01-01T00:00:00+00:00</time>
        <ele>3455.0</ele>
      </trkpt>
      <trkpt lat="46.048296" lon="7.86514">
        <time>1970-01-01T00:00:00+00:00</time>
        <ele>3454.0</ele>
      </trkpt>
      <trkpt lat="46.048296" lon="7.86514">
        <time>1970-01-01T00:00:00+00:00</time>
        <ele>3454.0</ele>
      </trkpt>
      <trkpt lat="46.04839757368768" lon="7.8649261274526365">
        <time>1970-01-01T00:00:00+00:00</time>
        <ele>3454.0</ele>
      </trkpt>
      <trkpt lat="46.048457" lon="7.864801">
        <time>1970-01-01T00:00:00+00:00</time>
        <ele>3453.0</ele>
      </trkpt>
      <trkpt lat="46.048457" lon="7.864801">
        <time>1970-01-01T00:00:00+00:00</time>
        <ele>3453.0</ele>
      </trkpt>
      <trkpt lat="46.048491" lon="7.864677">
        <time>1970-01-01T00:00:00+00:00</time>
        <ele>3451.0</ele>
      </trkpt>
      <trkpt lat="46.048491" lon="7.864677">
        <time>1970-01-01T00:00:00+00:00</time>
        <ele>3451.0</ele>
      </trkpt>
      <trkpt lat="46.048488" lon="7.864606">
        <time>1970-01-01T00:00:00+00:00</time>
        <ele>3450.0</ele>
      </trkpt>
      <trkpt lat="46.048488" lon="7.864606">
        <time>1970-01-01T00:00:00+00:00</time>
        <ele>3450.0</ele>
      </trkpt>
      <trkpt lat="46.048459" lon="7.864538">
        <time>1970-01-01T00:00:00+00:00</time>
        <ele>3448.0</ele>
      </trkpt>
      <trkpt lat="46.048459" lon="7.864538">
        <time>1970-01-01T00:00:00+00:00</time>
        <ele>3448.0</ele>
      </trkpt>
      <trkpt lat="46.048439" lon="7.864459">
        <time>1970-01-01T00:00:00+00:00</time>
        <ele>3446.0</ele>
      </trkpt>
      <trkpt lat="46.048439" lon="7.864459">
        <time>1970-01-01T00:00:00+00:00</time>
        <ele>3446.0</ele>
      </trkpt>
      <trkpt lat="46.048436" lon="7.864377">
        <time>1970-01-01T00:00:00+00:00</time>
        <ele>3445.0</ele>
      </trkpt>
      <trkpt lat="46.048436" lon="7.864377">
        <time>1970-01-01T00:00:00+00:00</time>
        <ele>3445.0</ele>
      </trkpt>
      <trkpt lat="46.048451" lon="7.8643">
        <time>1970-01-01T00:00:00+00:00</time>
        <ele>3443.0</ele>
      </trkpt>
      <trkpt lat="46.048451" lon="7.8643">
        <time>1970-01-01T00:00:00+00:00</time>
        <ele>3443.0</ele>
      </trkpt>
      <trkpt lat="46.048476" lon="7.86423">
        <time>1970-01-01T00:00:00+00:00</time>
        <ele>3442.0</ele>
      </trkpt>
      <trkpt lat="46.048476" lon="7.86423">
        <time>1970-01-01T00:00:00+00:00</time>
        <ele>3442.0</ele>
      </trkpt>
      <trkpt lat="46.048583" lon="7.864025">
        <time>1970-01-01T00:00:00+00:00</time>
        <ele>3438.0</ele>
      </trkpt>
      <trkpt lat="46.048583" lon="7.864025">
        <time>1970-01-01T00:00:00+00:00</time>
        <ele>3438.0</ele>
      </trkpt>
      <trkpt lat="46.048625" lon="7.863966">
        <time>1970-01-01T00:00:00+00:00</time>
        <ele>3437.0</ele>
      </trkpt>
      <trkpt lat="46.048625" lon="7.863966">
        <time>1970-01-01T00:00:00+00:00</time>
        <ele>3437.0</ele>
      </trkpt>
      <trkpt lat="46.04877139647237" lon="7.8638154405947684">
        <time>1970-01-01T00:00:00+00:00</time>
        <ele>3435.0</ele>
      </trkpt>
      <trkpt lat="46.048836" lon="7.863749">
        <time>1970-01-01T00:00:00+00:00</time>
        <ele>3434.0</ele>
      </trkpt>
      <trkpt lat="46.048836" lon="7.863749">
        <time>1970-01-01T00:00:00+00:00</time>
        <ele>3434.0</ele>
      </trkpt>
      <trkpt lat="46.048876" lon="7.863707">
        <time>1970-01-01T00:00:00+00:00</time>
        <ele>3433.0</ele>
      </trkpt>
      <trkpt lat="46.048876" lon="7.863707">
        <time>1970-01-01T00:00:00+00:00</time>
        <ele>3433.0</ele>
      </trkpt>
      <trkpt lat="46.04901578538141" lon="7.863543917055023">
        <time>1970-01-01T00:00:00+00:00</time>
        <ele>3431.0</ele>
      </trkpt>
      <trkpt lat="46.049026" lon="7.863532">
        <time>1970-01-01T00:00:00+00:00</time>
        <ele>3431.0</ele>
      </trkpt>
      <trkpt lat="46.049026" lon="7.863532">
        <time>1970-01-01T00:00:00+00:00</time>
        <ele>3431.0</ele>
      </trkpt>
      <trkpt lat="46.049064" lon="7.863493">
        <time>1970-01-01T00:00:00+00:00</time>
        <ele>3431.0</ele>
      </trkpt>
      <trkpt lat="46.049064" lon="7.863493">
        <time>1970-01-01T00:00:00+00:00</time>
        <ele>3431.0</ele>
      </trkpt>
      <trkpt lat="46.049172" lon="7.863428">
        <time>1970-01-01T00:00:00+00:00</time>
        <ele>3431.0</ele>
      </trkpt>
      <trkpt lat="46.049172" lon="7.863428">
        <time>1970-01-01T00:00:00+00:00</time>
        <ele>3431.0</ele>
      </trkpt>
      <trkpt lat="46.04928" lon="7.863302">
        <time>1970-01-01T00:00:00+00:00</time>
        <ele>3430.0</ele>
      </trkpt>
      <trkpt lat="46.04928" lon="7.863302">
        <time>1970-01-01T00:00:00+00:00</time>
        <ele>3430.0</ele>
      </trkpt>
      <trkpt lat="46.049435599812" lon="7.863172005220353">
        <time>1970-01-01T00:00:00+00:00</time>
        <ele>3428.0</ele>
      </trkpt>
      <trkpt lat="46.049591199624004" lon="7.863042010440705">
        <time>1970-01-01T00:00:00+00:00</time>
        <ele>3426.0</ele>
      </trkpt>
      <trkpt lat="46.049596" lon="7.863038">
        <time>1970-01-01T00:00:00+00:00</time>
        <ele>3426.0</ele>
      </trkpt>
      <trkpt lat="46.049596" lon="7.863038">
        <time>1970-01-01T00:00:00+00:00</time>
        <ele>3426.0</ele>
      </trkpt>
      <trkpt lat="46.049738" lon="7.862947">
        <time>1970-01-01T00:00:00+00:00</time>
        <ele>3425.0</ele>
      </trkpt>
      <trkpt lat="46.049738" lon="7.862947">
        <time>1970-01-01T00:00:00+00:00</time>
        <ele>3425.0</ele>
      </trkpt>
      <trkpt lat="46.04989687521012" lon="7.862825507192258">
        <time>1970-01-01T00:00:00+00:00</time>
        <ele>3423.0</ele>
      </trkpt>
      <trkpt lat="46.050027" lon="7.862726">
        <time>1970-01-01T00:00:00+00:00</time>
        <ele>3421.0</ele>
      </trkpt>
      <trkpt lat="46.050027" lon="7.862726">
        <time>1970-01-01T00:00:00+00:00</time>
        <ele>3421.0</ele>
      </trkpt>
      <trkpt lat="46.050081" lon="7.862687">
        <time>1970-01-01T00:00:00+00:00</time>
        <ele>3421.0</ele>
      </trkpt>
      <trkpt lat="46.050081" lon="7.862687">
        <time>1970-01-01T00:00:00+00:00</time>
        <ele>3421.0</ele>
      </trkpt>
      <trkpt lat="46.050244854538136" lon="7.862580114754923">
        <time>1970-01-01T00:00:00+00:00</time>
        <ele>3420.0</ele>
      </trkpt>
      <trkpt lat="46.050383" lon="7.86249">
        <time>1970-01-01T00:00:00+00:00</time>
        <ele>3419.0</ele>
      </trkpt>
      <trkpt lat="46.050383" lon="7.86249">
        <time>1970-01-01T00:00:00+00:00</time>
        <ele>3419.0</ele>
      </trkpt>
      <trkpt lat="46.05042" lon="7.86245">
        <time>1970-01-01T00:00:00+00:00</time>
        <ele>3418.0</ele>
      </trkpt>
      <trkpt lat="46.05042" lon="7.86245">
        <time>1970-01-01T00:00:00+00:00</time>
        <ele>3418.0</ele>
      </trkpt>
      <trkpt lat="46.050563373537265" lon="7.862293513029445">
        <time>1970-01-01T00:00:00+00:00</time>
        <ele>3414.0</ele>
      </trkpt>
      <trkpt lat="46.050584" lon="7.862271">
        <time>1970-01-01T00:00:00+00:00</time>
        <ele>3413.0</ele>
      </trkpt>
      <trkpt lat="46.050584" lon="7.862271">
        <time>1970-01-01T00:00:00+00:00</time>
        <ele>3413.0</ele>
      </trkpt>
      <trkpt lat="46.050677" lon="7.862197">
        <time>1970-01-01T00:00:00+00:00</time>
        <ele>3411.0</ele>
      </trkpt>
      <trkpt lat="46.050677" lon="7.862197">
        <time>1970-01-01T00:00:00+00:00</time>
        <ele>3411.0</ele>
      </trkpt>
      <trkpt lat="46.050701" lon="7.862129">
        <time>1970-01-01T00:00:00+00:00</time>
        <ele>3409.0</ele>
      </trkpt>
      <trkpt lat="46.050701" lon="7.862129">
        <time>1970-01-01T00:00:00+00:00</time>
        <ele>3409.0</ele>
      </trkpt>
      <trkpt lat="46.05067" lon="7.862034">
        <time>1970-01-01T00:00:00+00:00</time>
        <ele>3406.0</ele>
      </trkpt>
      <trkpt lat="46.05067" lon="7.862034">
        <time>1970-01-01T00:00:00+00:00</time>
        <ele>3406.0</ele>
      </trkpt>
      <trkpt lat="46.050689" lon="7.861906">
        <time>1970-01-01T00:00:00+00:00</time>
        <ele>3403.0</ele>
      </trkpt>
      <trkpt lat="46.050689" lon="7.861906">
        <time>1970-01-01T00:00:00+00:00</time>
        <ele>3403.0</ele>
      </trkpt>
      <trkpt lat="46.050727" lon="7.861769">
        <time>1970-01-01T00:00:00+00:00</time>
        <ele>3399.0</ele>
      </trkpt>
      <trkpt lat="46.050727" lon="7.861769">
        <time>1970-01-01T00:00:00+00:00</time>
        <ele>3399.0</ele>
      </trkpt>
      <trkpt lat="46.050796" lon="7.86164">
        <time>1970-01-01T00:00:00+00:00</time>
        <ele>3396.0</ele>
      </trkpt>
      <trkpt lat="46.050796" lon="7.86164">
        <time>1970-01-01T00:00:00+00:00</time>
        <ele>3396.0</ele>
      </trkpt>
      <trkpt lat="46.050779" lon="7.861537">
        <time>1970-01-01T00:00:00+00:00</time>
        <ele>3393.0</ele>
      </trkpt>
      <trkpt lat="46.050779" lon="7.861537">
        <time>1970-01-01T00:00:00+00:00</time>
        <ele>3393.0</ele>
      </trkpt>
      <trkpt lat="46.050794" lon="7.861423">
        <time>1970-01-01T00:00:00+00:00</time>
        <ele>3390.0</ele>
      </trkpt>
      <trkpt lat="46.050794" lon="7.861423">
        <time>1970-01-01T00:00:00+00:00</time>
        <ele>3390.0</ele>
      </trkpt>
      <trkpt lat="46.050808" lon="7.861316">
        <time>1970-01-01T00:00:00+00:00</time>
        <ele>3387.0</ele>
      </trkpt>
      <trkpt lat="46.050808" lon="7.861316">
        <time>1970-01-01T00:00:00+00:00</time>
        <ele>3387.0</ele>
      </trkpt>
      <trkpt lat="46.050857" lon="7.861229">
        <time>1970-01-01T00:00:00+00:00</time>
        <ele>3384.0</ele>
      </trkpt>
      <trkpt lat="46.050857" lon="7.861229">
        <time>1970-01-01T00:00:00+00:00</time>
        <ele>3384.0</ele>
      </trkpt>
      <trkpt lat="46.050878" lon="7.861155">
        <time>1970-01-01T00:00:00+00:00</time>
        <ele>3382.0</ele>
      </trkpt>
      <trkpt lat="46.050878" lon="7.861155">
        <time>1970-01-01T00:00:00+00:00</time>
        <ele>3382.0</ele>
      </trkpt>
      <trkpt lat="46.050804" lon="7.860993">
        <time>1970-01-01T00:00:00+00:00</time>
        <ele>3377.0</ele>
      </trkpt>
      <trkpt lat="46.050804" lon="7.860993">
        <time>1970-01-01T00:00:00+00:00</time>
        <ele>3377.0</ele>
      </trkpt>
      <trkpt lat="46.050813" lon="7.860929">
        <time>1970-01-01T00:00:00+00:00</time>
        <ele>3375.0</ele>
      </trkpt>
      <trkpt lat="46.050813" lon="7.860929">
        <time>1970-01-01T00:00:00+00:00</time>
        <ele>3375.0</ele>
      </trkpt>
      <trkpt lat="46.05086" lon="7.860938">
        <time>1970-01-01T00:00:00+00:00</time>
        <ele>3375.0</ele>
      </trkpt>
      <trkpt lat="46.05086" lon="7.860938">
        <time>1970-01-01T00:00:00+00:00</time>
        <ele>3375.0</ele>
      </trkpt>
      <trkpt lat="46.050866" lon="7.860869">
        <time>1970-01-01T00:00:00+00:00</time>
        <ele>3373.0</ele>
      </trkpt>
      <trkpt lat="46.050866" lon="7.860869">
        <time>1970-01-01T00:00:00+00:00</time>
        <ele>3373.0</ele>
      </trkpt>
      <trkpt lat="46.050851" lon="7.86077">
        <time>1970-01-01T00:00:00+00:00</time>
        <ele>3369.0</ele>
      </trkpt>
      <trkpt lat="46.050851" lon="7.86077">
        <time>1970-01-01T00:00:00+00:00</time>
        <ele>3369.0</ele>
      </trkpt>
      <trkpt lat="46.050865" lon="7.860696">
        <time>1970-01-01T00:00:00+00:00</time>
        <ele>3366.0</ele>
      </trkpt>
      <trkpt lat="46.050865" lon="7.860696">
        <time>1970-01-01T00:00:00+00:00</time>
        <ele>3366.0</ele>
      </trkpt>
      <trkpt lat="46.05094" lon="7.86066">
        <time>1970-01-01T00:00:00+00:00</time>
        <ele>3364.0</ele>
      </trkpt>
      <trkpt lat="46.05094" lon="7.86066">
        <time>1970-01-01T00:00:00+00:00</time>
        <ele>3364.0</ele>
      </trkpt>
      <trkpt lat="46.050972" lon="7.860588">
        <time>1970-01-01T00:00:00+00:00</time>
        <ele>3361.0</ele>
      </trkpt>
      <trkpt lat="46.050972" lon="7.860588">
        <time>1970-01-01T00:00:00+00:00</time>
        <ele>3361.0</ele>
      </trkpt>
      <trkpt lat="46.050945" lon="7.860495">
        <time>1970-01-01T00:00:00+00:00</time>
        <ele>3358.0</ele>
      </trkpt>
      <trkpt lat="46.050945" lon="7.860495">
        <time>1970-01-01T00:00:00+00:00</time>
        <ele>3358.0</ele>
      </trkpt>
      <trkpt lat="46.050982" lon="7.860441">
        <time>1970-01-01T00:00:00+00:00</time>
        <ele>3356.0</ele>
      </trkpt>
      <trkpt lat="46.050982" lon="7.860441">
        <time>1970-01-01T00:00:00+00:00</time>
        <ele>3356.0</ele>
      </trkpt>
      <trkpt lat="46.051033" lon="7.860426">
        <time>1970-01-01T00:00:00+00:00</time>
        <ele>3354.0</ele>
      </trkpt>
      <trkpt lat="46.051033" lon="7.860426">
        <time>1970-01-01T00:00:00+00:00</time>
        <ele>3354.0</ele>
      </trkpt>
      <trkpt lat="46.051075" lon="7.86033">
        <time>1970-01-01T00:00:00+00:00</time>
        <ele>3352.0</ele>
      </trkpt>
      <trkpt lat="46.051075" lon="7.86033">
        <time>1970-01-01T00:00:00+00:00</time>
        <ele>3352.0</ele>
      </trkpt>
      <trkpt lat="46.051133" lon="7.860256">
        <time>1970-01-01T00:00:00+00:00</time>
        <ele>3350.0</ele>
      </trkpt>
      <trkpt lat="46.051133" lon="7.860256">
        <time>1970-01-01T00:00:00+00:00</time>
        <ele>3350.0</ele>
      </trkpt>
      <trkpt lat="46.051166" lon="7.860086">
        <time>1970-01-01T00:00:00+00:00</time>
        <ele>3344.0</ele>
      </trkpt>
      <trkpt lat="46.051166" lon="7.860086">
        <time>1970-01-01T00:00:00+00:00</time>
        <ele>3344.0</ele>
      </trkpt>
      <trkpt lat="46.051282" lon="7.859983">
        <time>1970-01-01T00:00:00+00:00</time>
        <ele>3342.0</ele>
      </trkpt>
      <trkpt lat="46.051282" lon="7.859983">
        <time>1970-01-01T00:00:00+00:00</time>
        <ele>3342.0</ele>
      </trkpt>
      <trkpt lat="46.051397" lon="7.859793">
        <time>1970-01-01T00:00:00+00:00</time>
        <ele>3336.0</ele>
      </trkpt>
      <trkpt lat="46.051397" lon="7.859793">
        <time>1970-01-01T00:00:00+00:00</time>
        <ele>3336.0</ele>
      </trkpt>
      <trkpt lat="46.051516" lon="7.859642">
        <time>1970-01-01T00:00:00+00:00</time>
        <ele>3333.0</ele>
      </trkpt>
      <trkpt lat="46.051516" lon="7.859642">
        <time>1970-01-01T00:00:00+00:00</time>
        <ele>3333.0</ele>
      </trkpt>
      <trkpt lat="46.051552" lon="7.859598">
        <time>1970-01-01T00:00:00+00:00</time>
        <ele>3332.0</ele>
      </trkpt>
      <trkpt lat="46.051552" lon="7.859598">
        <time>1970-01-01T00:00:00+00:00</time>
        <ele>3332.0</ele>
      </trkpt>
      <trkpt lat="46.051661" lon="7.859505">
        <time>1970-01-01T00:00:00+00:00</time>
        <ele>3330.0</ele>
      </trkpt>
      <trkpt lat="46.051661" lon="7.859505">
        <time>1970-01-01T00:00:00+00:00</time>
        <ele>3330.0</ele>
      </trkpt>
      <trkpt lat="46.051751" lon="7.859372">
        <time>1970-01-01T00:00:00+00:00</time>
        <ele>3326.0</ele>
      </trkpt>
      <trkpt lat="46.051751" lon="7.859372">
        <time>1970-01-01T00:00:00+00:00</time>
        <ele>3326.0</ele>
      </trkpt>
      <trkpt lat="46.051782" lon="7.859318">
        <time>1970-01-01T00:00:00+00:00</time>
        <ele>3324.0</ele>
      </trkpt>
      <trkpt lat="46.051782" lon="7.859318">
        <time>1970-01-01T00:00:00+00:00</time>
        <ele>3324.0</ele>
      </trkpt>
      <trkpt lat="46.051869" lon="7.859123">
        <time>1970-01-01T00:00:00+00:00</time>
        <ele>3318.0</ele>
      </trkpt>
      <trkpt lat="46.051869" lon="7.859123">
        <time>1970-01-01T00:00:00+00:00</time>
        <ele>3318.0</ele>
      </trkpt>
      <trkpt lat="46.051894" lon="7.859064">
        <time>1970-01-01T00:00:00+00:00</time>
        <ele>3317.0</ele>
      </trkpt>
      <trkpt lat="46.051894" lon="7.859064">
        <time>1970-01-01T00:00:00+00:00</time>
        <ele>3317.0</ele>
      </trkpt>
      <trkpt lat="46.051931" lon="7.858959">
        <time>1970-01-01T00:00:00+00:00</time>
        <ele>3315.0</ele>
      </trkpt>
      <trkpt lat="46.051931" lon="7.858959">
        <time>1970-01-01T00:00:00+00:00</time>
        <ele>3315.0</ele>
      </trkpt>
      <trkpt lat="46.05194" lon="7.858859">
        <time>1970-01-01T00:00:00+00:00</time>
        <ele>3313.0</ele>
      </trkpt>
      <trkpt lat="46.05194" lon="7.858859">
        <time>1970-01-01T00:00:00+00:00</time>
        <ele>3313.0</ele>
      </trkpt>
      <trkpt lat="46.051894" lon="7.858837">
        <time>1970-01-01T00:00:00+00:00</time>
        <ele>3311.0</ele>
      </trkpt>
      <trkpt lat="46.051894" lon="7.858837">
        <time>1970-01-01T00:00:00+00:00</time>
        <ele>3311.0</ele>
      </trkpt>
      <trkpt lat="46.051873" lon="7.858675">
        <time>1970-01-01T00:00:00+00:00</time>
        <ele>3306.0</ele>
      </trkpt>
      <trkpt lat="46.051873" lon="7.858675">
        <time>1970-01-01T00:00:00+00:00</time>
        <ele>3306.0</ele>
      </trkpt>
      <trkpt lat="46.051863" lon="7.858597">
        <time>1970-01-01T00:00:00+00:00</time>
        <ele>3304.0</ele>
      </trkpt>
      <trkpt lat="46.051863" lon="7.858597">
        <time>1970-01-01T00:00:00+00:00</time>
        <ele>3304.0</ele>
      </trkpt>
      <trkpt lat="46.05184" lon="7.858531">
        <time>1970-01-01T00:00:00+00:00</time>
        <ele>3301.0</ele>
      </trkpt>
      <trkpt lat="46.05184" lon="7.858531">
        <time>1970-01-01T00:00:00+00:00</time>
        <ele>3301.0</ele>
      </trkpt>
      <trkpt lat="46.051808" lon="7.858484">
        <time>1970-01-01T00:00:00+00:00</time>
        <ele>3300.0</ele>
      </trkpt>
      <trkpt lat="46.051808" lon="7.858484">
        <time>1970-01-01T00:00:00+00:00</time>
        <ele>3300.0</ele>
      </trkpt>
      <trkpt lat="46.051761" lon="7.858466">
        <time>1970-01-01T00:00:00+00:00</time>
        <ele>3298.0</ele>
      </trkpt>
      <trkpt lat="46.051761" lon="7.858466">
        <time>1970-01-01T00:00:00+00:00</time>
        <ele>3298.0</ele>
      </trkpt>
      <trkpt lat="46.051704" lon="7.8585">
        <time>1970-01-01T00:00:00+00:00</time>
        <ele>3298.0</ele>
      </trkpt>
      <trkpt lat="46.051704" lon="7.8585">
        <time>1970-01-01T00:00:00+00:00</time>
        <ele>3298.0</ele>
      </trkpt>
      <trkpt lat="46.051674" lon="7.858443">
        <time>1970-01-01T00:00:00+00:00</time>
        <ele>3296.0</ele>
      </trkpt>
      <trkpt lat="46.051674" lon="7.858443">
        <time>1970-01-01T00:00:00+00:00</time>
        <ele>3296.0</ele>
      </trkpt>
      <trkpt lat="46.051686" lon="7.858348">
        <time>1970-01-01T00:00:00+00:00</time>
        <ele>3294.0</ele>
      </trkpt>
      <trkpt lat="46.051686" lon="7.858348">
        <time>1970-01-01T00:00:00+00:00</time>
        <ele>3294.0</ele>
      </trkpt>
      <trkpt lat="46.051743" lon="7.858198">
        <time>1970-01-01T00:00:00+00:00</time>
        <ele>3292.0</ele>
      </trkpt>
      <trkpt lat="46.051743" lon="7.858198">
        <time>1970-01-01T00:00:00+00:00</time>
        <ele>3292.0</ele>
      </trkpt>
      <trkpt lat="46.051842" lon="7.858076">
        <time>1970-01-01T00:00:00+00:00</time>
        <ele>3290.0</ele>
      </trkpt>
      <trkpt lat="46.051842" lon="7.858076">
        <time>1970-01-01T00:00:00+00:00</time>
        <ele>3290.0</ele>
      </trkpt>
      <trkpt lat="46.051865" lon="7.85788">
        <time>1970-01-01T00:00:00+00:00</time>
        <ele>3286.0</ele>
      </trkpt>
      <trkpt lat="46.051865" lon="7.85788">
        <time>1970-01-01T00:00:00+00:00</time>
        <ele>3286.0</ele>
      </trkpt>
      <trkpt lat="46.051915" lon="7.857806">
        <time>1970-01-01T00:00:00+00:00</time>
        <ele>3284.0</ele>
      </trkpt>
      <trkpt lat="46.051915" lon="7.857806">
        <time>1970-01-01T00:00:00+00:00</time>
        <ele>3284.0</ele>
      </trkpt>
      <trkpt lat="46.052026" lon="7.857784">
        <time>1970-01-01T00:00:00+00:00</time>
        <ele>3284.0</ele>
      </trkpt>
      <trkpt lat="46.052026" lon="7.857784">
        <time>1970-01-01T00:00:00+00:00</time>
        <ele>3284.0</ele>
      </trkpt>
      <trkpt lat="46.05207" lon="7.857769">
        <time>1970-01-01T00:00:00+00:00</time>
        <ele>3284.0</ele>
      </trkpt>
      <trkpt lat="46.05207" lon="7.857769">
        <time>1970-01-01T00:00:00+00:00</time>
        <ele>3284.0</ele>
      </trkpt>
      <trkpt lat="46.052108" lon="7.857676">
        <time>1970-01-01T00:00:00+00:00</time>
        <ele>3281.0</ele>
      </trkpt>
      <trkpt lat="46.052108" lon="7.857676">
        <time>1970-01-01T00:00:00+00:00</time>
        <ele>3281.0</ele>
      </trkpt>
      <trkpt lat="46.052179" lon="7.857571">
        <time>1970-01-01T00:00:00+00:00</time>
        <ele>3277.0</ele>
      </trkpt>
      <trkpt lat="46.052179" lon="7.857571">
        <time>1970-01-01T00:00:00+00:00</time>
        <ele>3277.0</ele>
      </trkpt>
      <trkpt lat="46.052229" lon="7.85748">
        <time>1970-01-01T00:00:00+00:00</time>
        <ele>3274.0</ele>
      </trkpt>
      <trkpt lat="46.052229" lon="7.85748">
        <time>1970-01-01T00:00:00+00:00</time>
        <ele>3274.0</ele>
      </trkpt>
      <trkpt lat="46.052299" lon="7.857385">
        <time>1970-01-01T00:00:00+00:00</time>
        <ele>3272.0</ele>
      </trkpt>
      <trkpt lat="46.052299" lon="7.857385">
        <time>1970-01-01T00:00:00+00:00</time>
        <ele>3272.0</ele>
      </trkpt>
      <trkpt lat="46.05232" lon="7.857324">
        <time>1970-01-01T00:00:00+00:00</time>
        <ele>3270.0</ele>
      </trkpt>
      <trkpt lat="46.05232" lon="7.857324">
        <time>1970-01-01T00:00:00+00:00</time>
        <ele>3270.0</ele>
      </trkpt>
      <trkpt lat="46.052335" lon="7.857203">
        <time>1970-01-01T00:00:00+00:00</time>
        <ele>3267.0</ele>
      </trkpt>
      <trkpt lat="46.052335" lon="7.857203">
        <time>1970-01-01T00:00:00+00:00</time>
        <ele>3267.0</ele>
      </trkpt>
      <trkpt lat="46.052397" lon="7.857104">
        <time>1970-01-01T00:00:00+00:00</time>
        <ele>3266.0</ele>
      </trkpt>
      <trkpt lat="46.052397" lon="7.857104">
        <time>1970-01-01T00:00:00+00:00</time>
        <ele>3266.0</ele>
      </trkpt>
      <trkpt lat="46.052409" lon="7.857036">
        <time>1970-01-01T00:00:00+00:00</time>
        <ele>3264.0</ele>
      </trkpt>
      <trkpt lat="46.052409" lon="7.857036">
        <time>1970-01-01T00:00:00+00:00</time>
        <ele>3264.0</ele>
      </trkpt>
      <trkpt lat="46.052403" lon="7.856964">
        <time>1970-01-01T00:00:00+00:00</time>
        <ele>3262.0</ele>
      </trkpt>
      <trkpt lat="46.052403" lon="7.856964">
        <time>1970-01-01T00:00:00+00:00</time>
        <ele>3262.0</ele>
      </trkpt>
      <trkpt lat="46.052374" lon="7.856854">
        <time>1970-01-01T00:00:00+00:00</time>
        <ele>3258.0</ele>
      </trkpt>
      <trkpt lat="46.052374" lon="7.856854">
        <time>1970-01-01T00:00:00+00:00</time>
        <ele>3258.0</ele>
      </trkpt>
      <trkpt lat="46.052391" lon="7.856772">
        <time>1970-01-01T00:00:00+00:00</time>
        <ele>3256.0</ele>
      </trkpt>
      <trkpt lat="46.052391" lon="7.856772">
        <time>1970-01-01T00:00:00+00:00</time>
        <ele>3256.0</ele>
      </trkpt>
      <trkpt lat="46.052457" lon="7.856683">
        <time>1970-01-01T00:00:00+00:00</time>
        <ele>3256.0</ele>
      </trkpt>
      <trkpt lat="46.052457" lon="7.856683">
        <time>1970-01-01T00:00:00+00:00</time>
        <ele>3256.0</ele>
      </trkpt>
      <trkpt lat="46.052474" lon="7.856612">
        <time>1970-01-01T00:00:00+00:00</time>
        <ele>3254.0</ele>
      </trkpt>
      <trkpt lat="46.052474" lon="7.856612">
        <time>1970-01-01T00:00:00+00:00</time>
        <ele>3254.0</ele>
      </trkpt>
      <trkpt lat="46.052435" lon="7.856455">
        <time>1970-01-01T00:00:00+00:00</time>
        <ele>3250.0</ele>
      </trkpt>
      <trkpt lat="46.052435" lon="7.856455">
        <time>1970-01-01T00:00:00+00:00</time>
        <ele>3250.0</ele>
      </trkpt>
      <trkpt lat="46.052455" lon="7.856369">
        <time>1970-01-01T00:00:00+00:00</time>
        <ele>3248.0</ele>
      </trkpt>
      <trkpt lat="46.052455" lon="7.856369">
        <time>1970-01-01T00:00:00+00:00</time>
        <ele>3248.0</ele>
      </trkpt>
      <trkpt lat="46.052507" lon="7.85633">
        <time>1970-01-01T00:00:00+00:00</time>
        <ele>3249.0</ele>
      </trkpt>
      <trkpt lat="46.052507" lon="7.85633">
        <time>1970-01-01T00:00:00+00:00</time>
        <ele>3249.0</ele>
      </trkpt>
      <trkpt lat="46.052543" lon="7.856291">
        <time>1970-01-01T00:00:00+00:00</time>
        <ele>3248.0</ele>
      </trkpt>
      <trkpt lat="46.052543" lon="7.856291">
        <time>1970-01-01T00:00:00+00:00</time>
        <ele>3248.0</ele>
      </trkpt>
      <trkpt lat="46.052576" lon="7.856232">
        <time>1970-01-01T00:00:00+00:00</time>
        <ele>3245.0</ele>
      </trkpt>
      <trkpt lat="46.052576" lon="7.856232">
        <time>1970-01-01T00:00:00+00:00</time>
        <ele>3245.0</ele>
      </trkpt>
      <trkpt lat="46.05259" lon="7.856153">
        <time>1970-01-01T00:00:00+00:00</time>
        <ele>3242.0</ele>
      </trkpt>
      <trkpt lat="46.05259" lon="7.856153">
        <time>1970-01-01T00:00:00+00:00</time>
        <ele>3242.0</ele>
      </trkpt>
      <trkpt lat="46.052587" lon="7.856074">
        <time>1970-01-01T00:00:00+00:00</time>
        <ele>3238.0</ele>
      </trkpt>
      <trkpt lat="46.052587" lon="7.856074">
        <time>1970-01-01T00:00:00+00:00</time>
        <ele>3238.0</ele>
      </trkpt>
      <trkpt lat="46.052511" lon="7.855881">
        <time>1970-01-01T00:00:00+00:00</time>
        <ele>3229.0</ele>
      </trkpt>
      <trkpt lat="46.052511" lon="7.855881">
        <time>1970-01-01T00:00:00+00:00</time>
        <ele>3229.0</ele>
      </trkpt>
      <trkpt lat="46.052534" lon="7.855783">
        <time>1970-01-01T00:00:00+00:00</time>
        <ele>3225.0</ele>
      </trkpt>
      <trkpt lat="46.052534" lon="7.855783">
        <time>1970-01-01T00:00:00+00:00</time>
        <ele>3225.0</ele>
      </trkpt>
      <trkpt lat="46.052633" lon="7.85565">
        <time>1970-01-01T00:00:00+00:00</time>
        <ele>3225.0</ele>
      </trkpt>
      <trkpt lat="46.052633" lon="7.85565">
        <time>1970-01-01T00:00:00+00:00</time>
        <ele>3225.0</ele>
      </trkpt>
      <trkpt lat="46.052675" lon="7.855586">
        <time>1970-01-01T00:00:00+00:00</time>
        <ele>3225.0</ele>
      </trkpt>
      <trkpt lat="46.052675" lon="7.855586">
        <time>1970-01-01T00:00:00+00:00</time>
        <ele>3225.0</ele>
      </trkpt>
      <trkpt lat="46.05277160000777" lon="7.855367378929772">
        <time>1970-01-01T00:00:00+00:00</time>
        <ele>3223.0</ele>
      </trkpt>
      <trkpt lat="46.052789" lon="7.855328">
        <time>1970-01-01T00:00:00+00:00</time>
        <ele>3223.0</ele>
      </trkpt>
      <trkpt lat="46.052789" lon="7.855328">
        <time>1970-01-01T00:00:00+00:00</time>
        <ele>3223.0</ele>
      </trkpt>
      <trkpt lat="46.052837" lon="7.855245">
        <time>1970-01-01T00:00:00+00:00</time>
        <ele>3223.0</ele>
      </trkpt>
      <trkpt lat="46.052837" lon="7.855245">
        <time>1970-01-01T00:00:00+00:00</time>
        <ele>3223.0</ele>
      </trkpt>
      <trkpt lat="46.052939" lon="7.855137">
        <time>1970-01-01T00:00:00+00:00</time>
        <ele>3224.0</ele>
      </trkpt>
      <trkpt lat="46.052939" lon="7.855137">
        <time>1970-01-01T00:00:00+00:00</time>
        <ele>3224.0</ele>
      </trkpt>
      <trkpt lat="46.052963" lon="7.855031">
        <time>1970-01-01T00:00:00+00:00</time>
        <ele>3223.0</ele>
      </trkpt>
      <trkpt lat="46.052963" lon="7.855031">
        <time>1970-01-01T00:00:00+00:00</time>
        <ele>3223.0</ele>
      </trkpt>
      <trkpt lat="46.052899" lon="7.85497">
        <time>1970-01-01T00:00:00+00:00</time>
        <ele>3220.0</ele>
      </trkpt>
      <trkpt lat="46.052899" lon="7.85497">
        <time>1970-01-01T00:00:00+00:00</time>
        <ele>3220.0</ele>
      </trkpt>
      <trkpt lat="46.05285" lon="7.854883">
        <time>1970-01-01T00:00:00+00:00</time>
        <ele>3218.0</ele>
      </trkpt>
      <trkpt lat="46.05285" lon="7.854883">
        <time>1970-01-01T00:00:00+00:00</time>
        <ele>3218.0</ele>
      </trkpt>
      <trkpt lat="46.052882" lon="7.854686">
        <time>1970-01-01T00:00:00+00:00</time>
        <ele>3216.0</ele>
      </trkpt>
      <trkpt lat="46.052882" lon="7.854686">
        <time>1970-01-01T00:00:00+00:00</time>
        <ele>3216.0</ele>
      </trkpt>
      <trkpt lat="46.052884" lon="7.854612">
        <time>1970-01-01T00:00:00+00:00</time>
        <ele>3215.0</ele>
      </trkpt>
      <trkpt lat="46.052884" lon="7.854612">
        <time>1970-01-01T00:00:00+00:00</time>
        <ele>3215.0</ele>
      </trkpt>
      <trkpt lat="46.05286" lon="7.854506">
        <time>1970-01-01T00:00:00+00:00</time>
        <ele>3212.0</ele>
      </trkpt>
      <trkpt lat="46.05286" lon="7.854506">
        <time>1970-01-01T00:00:00+00:00</time>
        <ele>3212.0</ele>
      </trkpt>
      <trkpt lat="46.052823" lon="7.854463">
        <time>1970-01-01T00:00:00+00:00</time>
        <ele>3211.0</ele>
      </trkpt>
      <trkpt lat="46.052823" lon="7.854463">
        <time>1970-01-01T00:00:00+00:00</time>
        <ele>3211.0</ele>
      </trkpt>
      <trkpt lat="46.052819" lon="7.854361">
        <time>1970-01-01T00:00:00+00:00</time>
        <ele>3208.0</ele>
      </trkpt>
      <trkpt lat="46.052819" lon="7.854361">
        <time>1970-01-01T00:00:00+00:00</time>
        <ele>3208.0</ele>
      </trkpt>
      <trkpt lat="46.052877" lon="7.854262">
        <time>1970-01-01T00:00:00+00:00</time>
        <ele>3206.0</ele>
      </trkpt>
      <trkpt lat="46.052877" lon="7.854262">
        <time>1970-01-01T00:00:00+00:00</time>
        <ele>3206.0</ele>
      </trkpt>
      <trkpt lat="46.052865" lon="7.854168">
        <time>1970-01-01T00:00:00+00:00</time>
        <ele>3203.0</ele>
      </trkpt>
      <trkpt lat="46.052865" lon="7.854168">
        <time>1970-01-01T00:00:00+00:00</time>
        <ele>3203.0</ele>
      </trkpt>
      <trkpt lat="46.052809" lon="7.854122">
        <time>1970-01-01T00:00:00+00:00</time>
        <ele>3201.0</ele>
      </trkpt>
      <trkpt lat="46.052809" lon="7.854122">
        <time>1970-01-01T00:00:00+00:00</time>
        <ele>3201.0</ele>
      </trkpt>
      <trkpt lat="46.052788" lon="7.854056">
        <time>1970-01-01T00:00:00+00:00</time>
        <ele>3199.0</ele>
      </trkpt>
      <trkpt lat="46.052788" lon="7.854056">
        <time>1970-01-01T00:00:00+00:00</time>
        <ele>3199.0</ele>
      </trkpt>
      <trkpt lat="46.052884" lon="7.853932">
        <time>1970-01-01T00:00:00+00:00</time>
        <ele>3197.0</ele>
      </trkpt>
      <trkpt lat="46.052884" lon="7.853932">
        <time>1970-01-01T00:00:00+00:00</time>
        <ele>3197.0</ele>
      </trkpt>
      <trkpt lat="46.052931" lon="7.853848">
        <time>1970-01-01T00:00:00+00:00</time>
        <ele>3196.0</ele>
      </trkpt>
      <trkpt lat="46.052931" lon="7.853848">
        <time>1970-01-01T00:00:00+00:00</time>
        <ele>3196.0</ele>
      </trkpt>
      <trkpt lat="46.052907" lon="7.853769">
        <time>1970-01-01T00:00:00+00:00</time>
        <ele>3193.0</ele>
      </trkpt>
      <trkpt lat="46.052907" lon="7.853769">
        <time>1970-01-01T00:00:00+00:00</time>
        <ele>3193.0</ele>
      </trkpt>
      <trkpt lat="46.052735" lon="7.853734">
        <time>1970-01-01T00:00:00+00:00</time>
        <ele>3189.0</ele>
      </trkpt>
      <trkpt lat="46.052735" lon="7.853734">
        <time>1970-01-01T00:00:00+00:00</time>
        <ele>3189.0</ele>
      </trkpt>
      <trkpt lat="46.052697" lon="7.853669">
        <time>1970-01-01T00:00:00+00:00</time>
        <ele>3187.0</ele>
      </trkpt>
      <trkpt lat="46.052697" lon="7.853669">
        <time>1970-01-01T00:00:00+00:00</time>
        <ele>3187.0</ele>
      </trkpt>
      <trkpt lat="46.052718" lon="7.853562">
        <time>1970-01-01T00:00:00+00:00</time>
        <ele>3186.0</ele>
      </trkpt>
      <trkpt lat="46.052718" lon="7.853562">
        <time>1970-01-01T00:00:00+00:00</time>
        <ele>3186.0</ele>
      </trkpt>
      <trkpt lat="46.052688" lon="7.853458">
        <time>1970-01-01T00:00:00+00:00</time>
        <ele>3184.0</ele>
      </trkpt>
      <trkpt lat="46.052688" lon="7.853458">
        <time>1970-01-01T00:00:00+00:00</time>
        <ele>3184.0</ele>
      </trkpt>
      <trkpt lat="46.052614" lon="7.853398">
        <time>1970-01-01T00:00:00+00:00</time>
        <ele>3183.0</ele>
      </trkpt>
      <trkpt lat="46.052614" lon="7.853398">
        <time>1970-01-01T00:00:00+00:00</time>
        <ele>3183.0</ele>
      </trkpt>
      <trkpt lat="46.052602" lon="7.853272">
        <time>1970-01-01T00:00:00+00:00</time>
        <ele>3181.0</ele>
      </trkpt>
      <trkpt lat="46.052602" lon="7.853272">
        <time>1970-01-01T00:00:00+00:00</time>
        <ele>3181.0</ele>
      </trkpt>
      <trkpt lat="46.052626" lon="7.853207">
        <time>1970-01-01T00:00:00+00:00</time>
        <ele>3180.0</ele>
      </trkpt>
      <trkpt lat="46.052626" lon="7.853207">
        <time>1970-01-01T00:00:00+00:00</time>
        <ele>3180.0</ele>
      </trkpt>
      <trkpt lat="46.052731441785774" lon="7.8529970333135495">
        <time>1970-01-01T00:00:00+00:00</time>
        <ele>3177.0</ele>
      </trkpt>
      <trkpt lat="46.052741" lon="7.852978">
        <time>1970-01-01T00:00:00+00:00</time>
        <ele>3177.0</ele>
      </trkpt>
      <trkpt lat="46.052741" lon="7.852978">
        <time>1970-01-01T00:00:00+00:00</time>
        <ele>3177.0</ele>
      </trkpt>
      <trkpt lat="46.052772" lon="7.852911">
        <time>1970-01-01T00:00:00+00:00</time>
        <ele>3176.0</ele>
      </trkpt>
      <trkpt lat="46.052772" lon="7.852911">
        <time>1970-01-01T00:00:00+00:00</time>
        <ele>3176.0</ele>
      </trkpt>
      <trkpt lat="46.05286774046026" lon="7.852691594778581">
        <time>1970-01-01T00:00:00+00:00</time>
        <ele>3173.0</ele>
      </trkpt>
      <trkpt lat="46.05294" lon="7.852526">
        <time>1970-01-01T00:00:00+00:00</time>
        <ele>3172.0</ele>
      </trkpt>
      <trkpt lat="46.05294" lon="7.852526">
        <time>1970-01-01T00:00:00+00:00</time>
        <ele>3172.0</ele>
      </trkpt>
      <trkpt lat="46.052947" lon="7.852461">
        <time>1970-01-01T00:00:00+00:00</time>
        <ele>3171.0</ele>
      </trkpt>
      <trkpt lat="46.052947" lon="7.852461">
        <time>1970-01-01T00:00:00+00:00</time>
        <ele>3171.0</ele>
      </trkpt>
      <trkpt lat="46.052891" lon="7.852381">
        <time>1970-01-01T00:00:00+00:00</time>
        <ele>3168.0</ele>
      </trkpt>
      <trkpt lat="46.052891" lon="7.852381">
        <time>1970-01-01T00:00:00+00:00</time>
        <ele>3168.0</ele>
      </trkpt>
      <trkpt lat="46.052845" lon="7.852392">
        <time>1970-01-01T00:00:00+00:00</time>
        <ele>3167.0</ele>
      </trkpt>
      <trkpt lat="46.052845" lon="7.852392">
        <time>1970-01-01T00:00:00+00:00</time>
        <ele>3167.0</ele>
      </trkpt>
      <trkpt lat="46.052772" lon="7.852441">
        <time>1970-01-01T00:00:00+00:00</time>
        <ele>3167.0</ele>
      </trkpt>
      <trkpt lat="46.052772" lon="7.852441">
        <time>1970-01-01T00:00:00+00:00</time>
        <ele>3167.0</ele>
      </trkpt>
      <trkpt lat="46.052705" lon="7.852427">
        <time>1970-01-01T00:00:00+00:00</time>
        <ele>3166.0</ele>
      </trkpt>
      <trkpt lat="46.052705" lon="7.852427">
        <time>1970-01-01T00:00:00+00:00</time>
        <ele>3166.0</ele>
      </trkpt>
      <trkpt lat="46.052624" lon="7.852328">
        <time>1970-01-01T00:00:00+00:00</time>
        <ele>3165.0</ele>
      </trkpt>
      <trkpt lat="46.052624" lon="7.852328">
        <time>1970-01-01T00:00:00+00:00</time>
        <ele>3165.0</ele>
      </trkpt>
      <trkpt lat="46.052604" lon="7.852259">
        <time>1970-01-01T00:00:00+00:00</time>
        <ele>3163.0</ele>
      </trkpt>
      <trkpt lat="46.052604" lon="7.852259">
        <time>1970-01-01T00:00:00+00:00</time>
        <ele>3163.0</ele>
      </trkpt>
      <trkpt lat="46.052639" lon="7.852161">
        <time>1970-01-01T00:00:00+00:00</time>
        <ele>3162.0</ele>
      </trkpt>
      <trkpt lat="46.052639" lon="7.852161">
        <time>1970-01-01T00:00:00+00:00</time>
        <ele>3162.0</ele>
      </trkpt>
      <trkpt lat="46.052756" lon="7.852019">
        <time>1970-01-01T00:00:00+00:00</time>
        <ele>3160.0</ele>
      </trkpt>
      <trkpt lat="46.052756" lon="7.852019">
        <time>1970-01-01T00:00:00+00:00</time>
        <ele>3160.0</ele>
      </trkpt>
      <trkpt lat="46.05285782386147" lon="7.851805357296794">
        <time>1970-01-01T00:00:00+00:00</time>
        <ele>3158.0</ele>
      </trkpt>
      <trkpt lat="46.052919" lon="7.851677">
        <time>1970-01-01T00:00:00+00:00</time>
        <ele>3156.0</ele>
      </trkpt>
      <trkpt lat="46.052919" lon="7.851677">
        <time>1970-01-01T00:00:00+00:00</time>
        <ele>3156.0</ele>
      </trkpt>
      <trkpt lat="46.052913" lon="7.851577">
        <time>1970-01-01T00:00:00+00:00</time>
        <ele>3154.0</ele>
      </trkpt>
      <trkpt lat="46.052913" lon="7.851577">
        <time>1970-01-01T00:00:00+00:00</time>
        <ele>3154.0</ele>
      </trkpt>
      <trkpt lat="46.052872" lon="7.851505">
        <time>1970-01-01T00:00:00+00:00</time>
        <ele>3152.0</ele>
      </trkpt>
      <trkpt lat="46.052872" lon="7.851505">
        <time>1970-01-01T00:00:00+00:00</time>
        <ele>3152.0</ele>
      </trkpt>
      <trkpt lat="46.052906" lon="7.851363">
        <time>1970-01-01T00:00:00+00:00</time>
        <ele>3149.0</ele>
      </trkpt>
      <trkpt lat="46.052906" lon="7.851363">
        <time>1970-01-01T00:00:00+00:00</time>
        <ele>3149.0</ele>
      </trkpt>
      <trkpt lat="46.052904" lon="7.851239">
        <time>1970-01-01T00:00:00+00:00</time>
        <ele>3146.0</ele>
      </trkpt>
      <trkpt lat="46.052904" lon="7.851239">
        <time>1970-01-01T00:00:00+00:00</time>
        <ele>3146.0</ele>
      </trkpt>
      <trkpt lat="46.052868" lon="7.851148">
        <time>1970-01-01T00:00:00+00:00</time>
        <ele>3144.0</ele>
      </trkpt>
      <trkpt lat="46.052868" lon="7.851148">
        <time>1970-01-01T00:00:00+00:00</time>
        <ele>3144.0</ele>
      </trkpt>
      <trkpt lat="46.052859" lon="7.851034">
        <time>1970-01-01T00:00:00+00:00</time>
        <ele>3142.0</ele>
      </trkpt>
      <trkpt lat="46.052859" lon="7.851034">
        <time>1970-01-01T00:00:00+00:00</time>
        <ele>3142.0</ele>
      </trkpt>
      <trkpt lat="46.052841" lon="7.85093">
        <time>1970-01-01T00:00:00+00:00</time>
        <ele>3139.0</ele>
      </trkpt>
      <trkpt lat="46.052841" lon="7.85093">
        <time>1970-01-01T00:00:00+00:00</time>
        <ele>3139.0</ele>
      </trkpt>
      <trkpt lat="46.052769" lon="7.850882">
        <time>1970-01-01T00:00:00+00:00</time>
        <ele>3138.0</ele>
      </trkpt>
      <trkpt lat="46.052769" lon="7.850882">
        <time>1970-01-01T00:00:00+00:00</time>
        <ele>3138.0</ele>
      </trkpt>
      <trkpt lat="46.0527" lon="7.850849">
        <time>1970-01-01T00:00:00+00:00</time>
        <ele>3137.0</ele>
      </trkpt>
      <trkpt lat="46.0527" lon="7.850849">
        <time>1970-01-01T00:00:00+00:00</time>
        <ele>3137.0</ele>
      </trkpt>
      <trkpt lat="46.052765" lon="7.850749">
        <time>1970-01-01T00:00:00+00:00</time>
        <ele>3135.0</ele>
      </trkpt>
      <trkpt lat="46.052765" lon="7.850749">
        <time>1970-01-01T00:00:00+00:00</time>
        <ele>3135.0</ele>
      </trkpt>
      <trkpt lat="46.052756" lon="7.850671">
        <time>1970-01-01T00:00:00+00:00</time>
        <ele>3133.0</ele>
      </trkpt>
      <trkpt lat="46.052756" lon="7.850671">
        <time>1970-01-01T00:00:00+00:00</time>
        <ele>3133.0</ele>
      </trkpt>
      <trkpt lat="46.052751" lon="7.850587">
        <time>1970-01-01T00:00:00+00:00</time>
        <ele>3131.0</ele>
      </trkpt>
      <trkpt lat="46.052751" lon="7.850587">
        <time>1970-01-01T00:00:00+00:00</time>
        <ele>3131.0</ele>
      </trkpt>
      <trkpt lat="46.052723" lon="7.850507">
        <time>1970-01-01T00:00:00+00:00</time>
        <ele>3129.0</ele>
      </trkpt>
      <trkpt lat="46.052723" lon="7.850507">
        <time>1970-01-01T00:00:00+00:00</time>
        <ele>3129.0</ele>
      </trkpt>
      <trkpt lat="46.052729" lon="7.850424">
        <time>1970-01-01T00:00:00+00:00</time>
        <ele>3128.0</ele>
      </trkpt>
      <trkpt lat="46.052729" lon="7.850424">
        <time>1970-01-01T00:00:00+00:00</time>
        <ele>3128.0</ele>
      </trkpt>
      <trkpt lat="46.05267" lon="7.85036">
        <time>1970-01-01T00:00:00+00:00</time>
        <ele>3127.0</ele>
      </trkpt>
      <trkpt lat="46.05267" lon="7.85036">
        <time>1970-01-01T00:00:00+00:00</time>
        <ele>3127.0</ele>
      </trkpt>
      <trkpt lat="46.052729" lon="7.850263">
        <time>1970-01-01T00:00:00+00:00</time>
        <ele>3125.0</ele>
      </trkpt>
      <trkpt lat="46.052729" lon="7.850263">
        <time>1970-01-01T00:00:00+00:00</time>
        <ele>3125.0</ele>
      </trkpt>
      <trkpt lat="46.052751" lon="7.850186">
        <time>1970-01-01T00:00:00+00:00</time>
        <ele>3124.0</ele>
      </trkpt>
      <trkpt lat="46.052751" lon="7.850186">
        <time>1970-01-01T00:00:00+00:00</time>
        <ele>3124.0</ele>
      </trkpt>
      <trkpt lat="46.052714" lon="7.850122">
        <time>1970-01-01T00:00:00+00:00</time>
        <ele>3122.0</ele>
      </trkpt>
      <trkpt lat="46.052714" lon="7.850122">
        <time>1970-01-01T00:00:00+00:00</time>
        <ele>3122.0</ele>
      </trkpt>
      <trkpt lat="46.052697" lon="7.850051">
        <time>1970-01-01T00:00:00+00:00</time>
        <ele>3121.0</ele>
      </trkpt>
      <trkpt lat="46.052697" lon="7.850051">
        <time>1970-01-01T00:00:00+00:00</time>
        <ele>3121.0</ele>
      </trkpt>
      <trkpt lat="46.052727" lon="7.849965">
        <time>1970-01-01T00:00:00+00:00</time>
        <ele>3119.0</ele>
      </trkpt>
      <trkpt lat="46.052727" lon="7.849965">
        <time>1970-01-01T00:00:00+00:00</time>
        <ele>3119.0</ele>
      </trkpt>
      <trkpt lat="46.052678" lon="7.849841">
        <time>1970-01-01T00:00:00+00:00</time>
        <ele>3117.0</ele>
      </trkpt>
      <trkpt lat="46.052678" lon="7.849841">
        <time>1970-01-01T00:00:00+00:00</time>
        <ele>3117.0</ele>
      </trkpt>
      <trkpt lat="46.052709" lon="7.849725">
        <time>1970-01-01T00:00:00+00:00</time>
        <ele>3113.0</ele>
      </trkpt>
      <trkpt lat="46.052709" lon="7.849725">
        <time>1970-01-01T00:00:00+00:00</time>
        <ele>3113.0</ele>
      </trkpt>
      <trkpt lat="46.052745" lon="7.849594">
        <time>1970-01-01T00:00:00+00:00</time>
        <ele>3110.0</ele>
      </trkpt>
      <trkpt lat="46.052745" lon="7.849594">
        <time>1970-01-01T00:00:00+00:00</time>
        <ele>3110.0</ele>
      </trkpt>
      <trkpt lat="46.052711" lon="7.849464">
        <time>1970-01-01T00:00:00+00:00</time>
        <ele>3108.0</ele>
      </trkpt>
      <trkpt lat="46.052711" lon="7.849464">
        <time>1970-01-01T00:00:00+00:00</time>
        <ele>3108.0</ele>
      </trkpt>
      <trkpt lat="46.052643" lon="7.849367">
        <time>1970-01-01T00:00:00+00:00</time>
        <ele>3105.0</ele>
      </trkpt>
      <trkpt lat="46.052643" lon="7.849367">
        <time>1970-01-01T00:00:00+00:00</time>
        <ele>3105.0</ele>
      </trkpt>
      <trkpt lat="46.052613" lon="7.849313">
        <time>1970-01-01T00:00:00+00:00</time>
        <ele>3104.0</ele>
      </trkpt>
      <trkpt lat="46.052613" lon="7.849313">
        <time>1970-01-01T00:00:00+00:00</time>
        <ele>3104.0</ele>
      </trkpt>
      <trkpt lat="46.052544" lon="7.84924">
        <time>1970-01-01T00:00:00+00:00</time>
        <ele>3102.0</ele>
      </trkpt>
      <trkpt lat="46.052544" lon="7.84924">
        <time>1970-01-01T00:00:00+00:00</time>
        <ele>3102.0</ele>
      </trkpt>
      <trkpt lat="46.052676" lon="7.849195">
        <time>1970-01-01T00:00:00+00:00</time>
        <ele>3101.0</ele>
      </trkpt>
      <trkpt lat="46.052676" lon="7.849195">
        <time>1970-01-01T00:00:00+00:00</time>
        <ele>3101.0</ele>
      </trkpt>
      <trkpt lat="46.052705" lon="7.849112">
        <time>1970-01-01T00:00:00+00:00</time>
        <ele>3099.0</ele>
      </trkpt>
      <trkpt lat="46.052705" lon="7.849112">
        <time>1970-01-01T00:00:00+00:00</time>
        <ele>3099.0</ele>
      </trkpt>
      <trkpt lat="46.052638" lon="7.848974">
        <time>1970-01-01T00:00:00+00:00</time>
        <ele>3095.0</ele>
      </trkpt>
      <trkpt lat="46.052638" lon="7.848974">
        <time>1970-01-01T00:00:00+00:00</time>
        <ele>3095.0</ele>
      </trkpt>
      <trkpt lat="46.052586" lon="7.848874">
        <time>1970-01-01T00:00:00+00:00</time>
        <ele>3093.0</ele>
      </trkpt>
      <trkpt lat="46.052586" lon="7.848874">
        <time>1970-01-01T00:00:00+00:00</time>
        <ele>3093.0</ele>
      </trkpt>
      <trkpt lat="46.05263" lon="7.84874">
        <time>1970-01-01T00:00:00+00:00</time>
        <ele>3091.0</ele>
      </trkpt>
      <trkpt lat="46.05263" lon="7.84874">
        <time>1970-01-01T00:00:00+00:00</time>
        <ele>3091.0</ele>
      </trkpt>
      <trkpt lat="46.0526" lon="7.848657">
        <time>1970-01-01T00:00:00+00:00</time>
        <ele>3090.0</ele>
      </trkpt>
      <trkpt lat="46.0526" lon="7.848657">
        <time>1970-01-01T00:00:00+00:00</time>
        <ele>3090.0</ele>
      </trkpt>
      <trkpt lat="46.052528" lon="7.848604">
        <time>1970-01-01T00:00:00+00:00</time>
        <ele>3088.0</ele>
      </trkpt>
      <trkpt lat="46.052528" lon="7.848604">
        <time>1970-01-01T00:00:00+00:00</time>
        <ele>3088.0</ele>
      </trkpt>
      <trkpt lat="46.052471" lon="7.848561">
        <time>1970-01-01T00:00:00+00:00</time>
        <ele>3086.0</ele>
      </trkpt>
      <trkpt lat="46.052471" lon="7.848561">
        <time>1970-01-01T00:00:00+00:00</time>
        <ele>3086.0</ele>
      </trkpt>
      <trkpt lat="46.052442" lon="7.84844">
        <time>1970-01-01T00:00:00+00:00</time>
        <ele>3084.0</ele>
      </trkpt>
      <trkpt lat="46.052442" lon="7.84844">
        <time>1970-01-01T00:00:00+00:00</time>
        <ele>3084.0</ele>
      </trkpt>
      <trkpt lat="46.052361" lon="7.848339">
        <time>1970-01-01T00:00:00+00:00</time>
        <ele>3080.0</ele>
      </trkpt>
      <trkpt lat="46.052361" lon="7.848339">
        <time>1970-01-01T00:00:00+00:00</time>
        <ele>3080.0</ele>
      </trkpt>
      <trkpt lat="46.052304" lon="7.848275">
        <time>1970-01-01T00:00:00+00:00</time>
        <ele>3078.0</ele>
      </trkpt>
      <trkpt lat="46.052304" lon="7.848275">
        <time>1970-01-01T00:00:00+00:00</time>
        <ele>3078.0</ele>
      </trkpt>
      <trkpt lat="46.052228" lon="7.848216">
        <time>1970-01-01T00:00:00+00:00</time>
        <ele>3076.0</ele>
      </trkpt>
      <trkpt lat="46.052228" lon="7.848216">
        <time>1970-01-01T00:00:00+00:00</time>
        <ele>3076.0</ele>
      </trkpt>
      <trkpt lat="46.052183" lon="7.848154">
        <time>1970-01-01T00:00:00+00:00</time>
        <ele>3075.0</ele>
      </trkpt>
      <trkpt lat="46.052183" lon="7.848154">
        <time>1970-01-01T00:00:00+00:00</time>
        <ele>3075.0</ele>
      </trkpt>
      <trkpt lat="46.052169" lon="7.848072">
        <time>1970-01-01T00:00:00+00:00</time>
        <ele>3074.0</ele>
      </trkpt>
      <trkpt lat="46.052169" lon="7.848072">
        <time>1970-01-01T00:00:00+00:00</time>
        <ele>3074.0</ele>
      </trkpt>
      <trkpt lat="46.052181" lon="7.847886">
        <time>1970-01-01T00:00:00+00:00</time>
        <ele>3072.0</ele>
      </trkpt>
      <trkpt lat="46.052181" lon="7.847886">
        <time>1970-01-01T00:00:00+00:00</time>
        <ele>3072.0</ele>
      </trkpt>
      <trkpt lat="46.052162" lon="7.847791">
        <time>1970-01-01T00:00:00+00:00</time>
        <ele>3071.0</ele>
      </trkpt>
      <trkpt lat="46.052162" lon="7.847791">
        <time>1970-01-01T00:00:00+00:00</time>
        <ele>3071.0</ele>
      </trkpt>
      <trkpt lat="46.052122" lon="7.847717">
        <time>1970-01-01T00:00:00+00:00</time>
        <ele>3070.0</ele>
      </trkpt>
      <trkpt lat="46.052122" lon="7.847717">
        <time>1970-01-01T00:00:00+00:00</time>
        <ele>3070.0</ele>
      </trkpt>
      <trkpt lat="46.052087" lon="7.847637">
        <time>1970-01-01T00:00:00+00:00</time>
        <ele>3069.0</ele>
      </trkpt>
      <trkpt lat="46.052087" lon="7.847637">
        <time>1970-01-01T00:00:00+00:00</time>
        <ele>3069.0</ele>
      </trkpt>
      <trkpt lat="46.05199975772285" lon="7.847410359736526">
        <time>1970-01-01T00:00:00+00:00</time>
        <ele>3064.0</ele>
      </trkpt>
      <trkpt lat="46.051995" lon="7.847398">
        <time>1970-01-01T00:00:00+00:00</time>
        <ele>3064.0</ele>
      </trkpt>
      <trkpt lat="46.051995" lon="7.847398">
        <time>1970-01-01T00:00:00+00:00</time>
        <ele>3064.0</ele>
      </trkpt>
      <trkpt lat="46.051968" lon="7.847323">
        <time>1970-01-01T00:00:00+00:00</time>
        <ele>3062.0</ele>
      </trkpt>
      <trkpt lat="46.051968" lon="7.847323">
        <time>1970-01-01T00:00:00+00:00</time>
        <ele>3062.0</ele>
      </trkpt>
      <trkpt lat="46.051936" lon="7.847264">
        <time>1970-01-01T00:00:00+00:00</time>
        <ele>3061.0</ele>
      </trkpt>
      <trkpt lat="46.051936" lon="7.847264">
        <time>1970-01-01T00:00:00+00:00</time>
        <ele>3061.0</ele>
      </trkpt>
      <trkpt lat="46.051901" lon="7.847211">
        <time>1970-01-01T00:00:00+00:00</time>
        <ele>3059.0</ele>
      </trkpt>
      <trkpt lat="46.051901" lon="7.847211">
        <time>1970-01-01T00:00:00+00:00</time>
        <ele>3059.0</ele>
      </trkpt>
      <trkpt lat="46.051866" lon="7.847025">
        <time>1970-01-01T00:00:00+00:00</time>
        <ele>3055.0</ele>
      </trkpt>
      <trkpt lat="46.051866" lon="7.847025">
        <time>1970-01-01T00:00:00+00:00</time>
        <ele>3055.0</ele>
      </trkpt>
      <trkpt lat="46.051792" lon="7.846934">
        <time>1970-01-01T00:00:00+00:00</time>
        <ele>3049.0</ele>
      </trkpt>
      <trkpt lat="46.051792" lon="7.846934">
        <time>1970-01-01T00:00:00+00:00</time>
        <ele>3049.0</ele>
      </trkpt>
      <trkpt lat="46.051682" lon="7.846869">
        <time>1970-01-01T00:00:00+00:00</time>
        <ele>3044.0</ele>
      </trkpt>
      <trkpt lat="46.051682" lon="7.846869">
        <time>1970-01-01T00:00:00+00:00</time>
        <ele>3044.0</ele>
      </trkpt>
      <trkpt lat="46.051634" lon="7.846846">
        <time>1970-01-01T00:00:00+00:00</time>
        <ele>3042.0</ele>
      </trkpt>
      <trkpt lat="46.051634" lon="7.846846">
        <time>1970-01-01T00:00:00+00:00</time>
        <ele>3042.0</ele>
      </trkpt>
      <trkpt lat="46.05158" lon="7.846837">
        <time>1970-01-01T00:00:00+00:00</time>
        <ele>3040.0</ele>
      </trkpt>
      <trkpt lat="46.05158" lon="7.846837">
        <time>1970-01-01T00:00:00+00:00</time>
        <ele>3040.0</ele>
      </trkpt>
      <trkpt lat="46.051593" lon="7.846753">
        <time>1970-01-01T00:00:00+00:00</time>
        <ele>3038.0</ele>
      </trkpt>
      <trkpt lat="46.051593" lon="7.846753">
        <time>1970-01-01T00:00:00+00:00</time>
        <ele>3038.0</ele>
      </trkpt>
      <trkpt lat="46.051586" lon="7.84666">
        <time>1970-01-01T00:00:00+00:00</time>
        <ele>3036.0</ele>
      </trkpt>
      <trkpt lat="46.051586" lon="7.84666">
        <time>1970-01-01T00:00:00+00:00</time>
        <ele>3036.0</ele>
      </trkpt>
      <trkpt lat="46.051652" lon="7.846558">
        <time>1970-01-01T00:00:00+00:00</time>
        <ele>3036.0</ele>
      </trkpt>
      <trkpt lat="46.051652" lon="7.846558">
        <time>1970-01-01T00:00:00+00:00</time>
        <ele>3036.0</ele>
      </trkpt>
      <trkpt lat="46.051676" lon="7.846451">
        <time>1970-01-01T00:00:00+00:00</time>
        <ele>3035.0</ele>
      </trkpt>
      <trkpt lat="46.051676" lon="7.846451">
        <time>1970-01-01T00:00:00+00:00</time>
        <ele>3035.0</ele>
      </trkpt>
      <trkpt lat="46.051627" lon="7.846377">
        <time>1970-01-01T00:00:00+00:00</time>
        <ele>3031.0</ele>
      </trkpt>
      <trkpt lat="46.051627" lon="7.846377">
        <time>1970-01-01T00:00:00+00:00</time>
        <ele>3031.0</ele>
      </trkpt>
      <trkpt lat="46.051524" lon="7.846338">
        <time>1970-01-01T00:00:00+00:00</time>
        <ele>3026.0</ele>
      </trkpt>
      <trkpt lat="46.051524" lon="7.846338">
        <time>1970-01-01T00:00:00+00:00</time>
        <ele>3026.0</ele>
      </trkpt>
      <trkpt lat="46.051524" lon="7.846269">
        <time>1970-01-01T00:00:00+00:00</time>
        <ele>3024.0</ele>
      </trkpt>
      <trkpt lat="46.051524" lon="7.846269">
        <time>1970-01-01T00:00:00+00:00</time>
        <ele>3024.0</ele>
      </trkpt>
      <trkpt lat="46.051567" lon="7.846182">
        <time>1970-01-01T00:00:00+00:00</time>
        <ele>3022.0</ele>
      </trkpt>
      <trkpt lat="46.051567" lon="7.846182">
        <time>1970-01-01T00:00:00+00:00</time>
        <ele>3022.0</ele>
      </trkpt>
      <trkpt lat="46.051599" lon="7.846043">
        <time>1970-01-01T00:00:00+00:00</time>
        <ele>3019.0</ele>
      </trkpt>
      <trkpt lat="46.051599" lon="7.846043">
        <time>1970-01-01T00:00:00+00:00</time>
        <ele>3019.0</ele>
      </trkpt>
      <trkpt lat="46.051548" lon="7.845994">
        <time>1970-01-01T00:00:00+00:00</time>
        <ele>3016.0</ele>
      </trkpt>
      <trkpt lat="46.051548" lon="7.845994">
        <time>1970-01-01T00:00:00+00:00</time>
        <ele>3016.0</ele>
      </trkpt>
      <trkpt lat="46.051499" lon="7.845995">
        <time>1970-01-01T00:00:00+00:00</time>
        <ele>3014.0</ele>
      </trkpt>
      <trkpt lat="46.051499" lon="7.845995">
        <time>1970-01-01T00:00:00+00:00</time>
        <ele>3014.0</ele>
      </trkpt>
      <trkpt lat="46.051397" lon="7.846029">
        <time>1970-01-01T00:00:00+00:00</time>
        <ele>3011.0</ele>
      </trkpt>
      <trkpt lat="46.051397" lon="7.846029">
        <time>1970-01-01T00:00:00+00:00</time>
        <ele>3011.0</ele>
      </trkpt>
      <trkpt lat="46.051345" lon="7.846043">
        <time>1970-01-01T00:00:00+00:00</time>
        <ele>3010.0</ele>
      </trkpt>
      <trkpt lat="46.051345" lon="7.846043">
        <time>1970-01-01T00:00:00+00:00</time>
        <ele>3010.0</ele>
      </trkpt>
      <trkpt lat="46.051284" lon="7.845994">
        <time>1970-01-01T00:00:00+00:00</time>
        <ele>3007.0</ele>
      </trkpt>
      <trkpt lat="46.051284" lon="7.845994">
        <time>1970-01-01T00:00:00+00:00</time>
        <ele>3007.0</ele>
      </trkpt>
      <trkpt lat="46.05126" lon="7.845888">
        <time>1970-01-01T00:00:00+00:00</time>
        <ele>3002.0</ele>
      </trkpt>
      <trkpt lat="46.05126" lon="7.845888">
        <time>1970-01-01T00:00:00+00:00</time>
        <ele>3002.0</ele>
      </trkpt>
      <trkpt lat="46.051195" lon="7.845814">
        <time>1970-01-01T00:00:00+00:00</time>
        <ele>2997.0</ele>
      </trkpt>
      <trkpt lat="46.051195" lon="7.845814">
        <time>1970-01-01T00:00:00+00:00</time>
        <ele>2997.0</ele>
      </trkpt>
      <trkpt lat="46.051027" lon="7.845815">
        <time>1970-01-01T00:00:00+00:00</time>
        <ele>2993.0</ele>
      </trkpt>
      <trkpt lat="46.051027" lon="7.845815">
        <time>1970-01-01T00:00:00+00:00</time>
        <ele>2993.0</ele>
      </trkpt>
      <trkpt lat="46.050954" lon="7.845774">
        <time>1970-01-01T00:00:00+00:00</time>
        <ele>2993.0</ele>
      </trkpt>
      <trkpt lat="46.050954" lon="7.845774">
        <time>1970-01-01T00:00:00+00:00</time>
        <ele>2993.0</ele>
      </trkpt>
      <trkpt lat="46.050995" lon="7.845655">
        <time>1970-01-01T00:00:00+00:00</time>
        <ele>2990.0</ele>
      </trkpt>
      <trkpt lat="46.050995" lon="7.845655">
        <time>1970-01-01T00:00:00+00:00</time>
        <ele>2990.0</ele>
      </trkpt>
      <trkpt lat="46.051025" lon="7.845573">
        <time>1970-01-01T00:00:00+00:00</time>
        <ele>2989.0</ele>
      </trkpt>
      <trkpt lat="46.051025" lon="7.845573">
        <time>1970-01-01T00:00:00+00:00</time>
        <ele>2989.0</ele>
      </trkpt>
      <trkpt lat="46.051" lon="7.845473">
        <time>1970-01-01T00:00:00+00:00</time>
        <ele>2986.0</ele>
      </trkpt>
      <trkpt lat="46.051" lon="7.845473">
        <time>1970-01-01T00:00:00+00:00</time>
        <ele>2986.0</ele>
      </trkpt>
      <trkpt lat="46.050924" lon="7.84544">
        <time>1970-01-01T00:00:00+00:00</time>
        <ele>2985.0</ele>
      </trkpt>
      <trkpt lat="46.050924" lon="7.84544">
        <time>1970-01-01T00:00:00+00:00</time>
        <ele>2985.0</ele>
      </trkpt>
      <trkpt lat="46.050878" lon="7.845377">
        <time>1970-01-01T00:00:00+00:00</time>
        <ele>2984.0</ele>
      </trkpt>
      <trkpt lat="46.050878" lon="7.845377">
        <time>1970-01-01T00:00:00+00:00</time>
        <ele>2984.0</ele>
      </trkpt>
      <trkpt lat="46.050942" lon="7.845315">
        <time>1970-01-01T00:00:00+00:00</time>
        <ele>2982.0</ele>
      </trkpt>
      <trkpt lat="46.050942" lon="7.845315">
        <time>1970-01-01T00:00:00+00:00</time>
        <ele>2982.0</ele>
      </trkpt>
      <trkpt lat="46.050987" lon="7.845172">
        <time>1970-01-01T00:00:00+00:00</time>
        <ele>2979.0</ele>
      </trkpt>
      <trkpt lat="46.050987" lon="7.845172">
        <time>1970-01-01T00:00:00+00:00</time>
        <ele>2979.0</ele>
      </trkpt>
      <trkpt lat="46.051012" lon="7.845056">
        <time>1970-01-01T00:00:00+00:00</time>
        <ele>2976.0</ele>
      </trkpt>
      <trkpt lat="46.051012" lon="7.845056">
        <time>1970-01-01T00:00:00+00:00</time>
        <ele>2976.0</ele>
      </trkpt>
      <trkpt lat="46.050995" lon="7.844964">
        <time>1970-01-01T00:00:00+00:00</time>
        <ele>2974.0</ele>
      </trkpt>
      <trkpt lat="46.050995" lon="7.844964">
        <time>1970-01-01T00:00:00+00:00</time>
        <ele>2974.0</ele>
      </trkpt>
      <trkpt lat="46.050864" lon="7.844908">
        <time>1970-01-01T00:00:00+00:00</time>
        <ele>2973.0</ele>
      </trkpt>
      <trkpt lat="46.050864" lon="7.844908">
        <time>1970-01-01T00:00:00+00:00</time>
        <ele>2973.0</ele>
      </trkpt>
      <trkpt lat="46.05088" lon="7.844844">
        <time>1970-01-01T00:00:00+00:00</time>
        <ele>2972.0</ele>
      </trkpt>
      <trkpt lat="46.05088" lon="7.844844">
        <time>1970-01-01T00:00:00+00:00</time>
        <ele>2972.0</ele>
      </trkpt>
      <trkpt lat="46.05101157281488" lon="7.844667294649783">
        <time>1970-01-01T00:00:00+00:00</time>
        <ele>2967.0</ele>
      </trkpt>
      <trkpt lat="46.051052" lon="7.844613">
        <time>1970-01-01T00:00:00+00:00</time>
        <ele>2965.0</ele>
      </trkpt>
      <trkpt lat="46.051052" lon="7.844613">
        <time>1970-01-01T00:00:00+00:00</time>
        <ele>2965.0</ele>
      </trkpt>
      <trkpt lat="46.051088" lon="7.8445">
        <time>1970-01-01T00:00:00+00:00</time>
        <ele>2962.0</ele>
      </trkpt>
      <trkpt lat="46.051088" lon="7.8445">
        <time>1970-01-01T00:00:00+00:00</time>
        <ele>2962.0</ele>
      </trkpt>
      <trkpt lat="46.051066" lon="7.844331">
        <time>1970-01-01T00:00:00+00:00</time>
        <ele>2957.0</ele>
      </trkpt>
      <trkpt lat="46.051066" lon="7.844331">
        <time>1970-01-01T00:00:00+00:00</time>
        <ele>2957.0</ele>
      </trkpt>
      <trkpt lat="46.051103" lon="7.844227">
        <time>1970-01-01T00:00:00+00:00</time>
        <ele>2955.0</ele>
      </trkpt>
      <trkpt lat="46.051103" lon="7.844227">
        <time>1970-01-01T00:00:00+00:00</time>
        <ele>2955.0</ele>
      </trkpt>
      <trkpt lat="46.05118" lon="7.844118">
        <time>1970-01-01T00:00:00+00:00</time>
        <ele>2955.0</ele>
      </trkpt>
      <trkpt lat="46.05118" lon="7.844118">
        <time>1970-01-01T00:00:00+00:00</time>
        <ele>2955.0</ele>
      </trkpt>
      <trkpt lat="46.051198" lon="7.844007">
        <time>1970-01-01T00:00:00+00:00</time>
        <ele>2953.0</ele>
      </trkpt>
      <trkpt lat="46.051198" lon="7.844007">
        <time>1970-01-01T00:00:00+00:00</time>
        <ele>2953.0</ele>
      </trkpt>
      <trkpt lat="46.051161" lon="7.843944">
        <time>1970-01-01T00:00:00+00:00</time>
        <ele>2951.0</ele>
      </trkpt>
      <trkpt lat="46.051161" lon="7.843944">
        <time>1970-01-01T00:00:00+00:00</time>
        <ele>2951.0</ele>
      </trkpt>
      <trkpt lat="46.05101" lon="7.843918">
        <time>1970-01-01T00:00:00+00:00</time>
        <ele>2948.0</ele>
      </trkpt>
      <trkpt lat="46.05101" lon="7.843918">
        <time>1970-01-01T00:00:00+00:00</time>
        <ele>2948.0</ele>
      </trkpt>
      <trkpt lat="46.051001" lon="7.843843">
        <time>1970-01-01T00:00:00+00:00</time>
        <ele>2946.0</ele>
      </trkpt>
      <trkpt lat="46.051001" lon="7.843843">
        <time>1970-01-01T00:00:00+00:00</time>
        <ele>2946.0</ele>
      </trkpt>
      <trkpt lat="46.051097767711816" lon="7.843624539559682">
        <time>1970-01-01T00:00:00+00:00</time>
        <ele>2940.0</ele>
      </trkpt>
      <trkpt lat="46.051133" lon="7.843545">
        <time>1970-01-01T00:00:00+00:00</time>
        <ele>2939.0</ele>
      </trkpt>
      <trkpt lat="46.051133" lon="7.843545">
        <time>1970-01-01T00:00:00+00:00</time>
        <ele>2939.0</ele>
      </trkpt>
      <trkpt lat="46.05111" lon="7.843444">
        <time>1970-01-01T00:00:00+00:00</time>
        <ele>2934.0</ele>
      </trkpt>
      <trkpt lat="46.05111" lon="7.843444">
        <time>1970-01-01T00:00:00+00:00</time>
        <ele>2934.0</ele>
      </trkpt>
      <trkpt lat="46.05113" lon="7.843225">
        <time>1970-01-01T00:00:00+00:00</time>
        <ele>2929.0</ele>
      </trkpt>
      <trkpt lat="46.05113" lon="7.843225">
        <time>1970-01-01T00:00:00+00:00</time>
        <ele>2929.0</ele>
      </trkpt>
      <trkpt lat="46.051085" lon="7.843093">
        <time>1970-01-01T00:00:00+00:00</time>
        <ele>2924.0</ele>
      </trkpt>
      <trkpt lat="46.051085" lon="7.843093">
        <time>1970-01-01T00:00:00+00:00</time>
        <ele>2924.0</ele>
      </trkpt>
      <trkpt lat="46.051042" lon="7.843015">
        <time>1970-01-01T00:00:00+00:00</time>
        <ele>2922.0</ele>
      </trkpt>
      <trkpt lat="46.051042" lon="7.843015">
        <time>1970-01-01T00:00:00+00:00</time>
        <ele>2922.0</ele>
      </trkpt>
      <trkpt lat="46.050982" lon="7.843035">
        <time>1970-01-01T00:00:00+00:00</time>
        <ele>2922.0</ele>
      </trkpt>
      <trkpt lat="46.050982" lon="7.843035">
        <time>1970-01-01T00:00:00+00:00</time>
        <ele>2922.0</ele>
      </trkpt>
      <trkpt lat="46.051005" lon="7.842972">
        <time>1970-01-01T00:00:00+00:00</time>
        <ele>2920.0</ele>
      </trkpt>
      <trkpt lat="46.051005" lon="7.842972">
        <time>1970-01-01T00:00:00+00:00</time>
        <ele>2920.0</ele>
      </trkpt>
      <trkpt lat="46.050989" lon="7.842861">
        <time>1970-01-01T00:00:00+00:00</time>
        <ele>2917.0</ele>
      </trkpt>
      <trkpt lat="46.050989" lon="7.842861">
        <time>1970-01-01T00:00:00+00:00</time>
        <ele>2917.0</ele>
      </trkpt>
      <trkpt lat="46.051016" lon="7.842741">
        <time>1970-01-01T00:00:00+00:00</time>
        <ele>2914.0</ele>
      </trkpt>
      <trkpt lat="46.051016" lon="7.842741">
        <time>1970-01-01T00:00:00+00:00</time>
        <ele>2914.0</ele>
      </trkpt>
      <trkpt lat="46.051108" lon="7.842563">
        <time>1970-01-01T00:00:00+00:00</time>
        <ele>2912.0</ele>
      </trkpt>
      <trkpt lat="46.051108" lon="7.842563">
        <time>1970-01-01T00:00:00+00:00</time>
        <ele>2912.0</ele>
      </trkpt>
      <trkpt lat="46.051129" lon="7.842491">
        <time>1970-01-01T00:00:00+00:00</time>
        <ele>2911.0</ele>
      </trkpt>
      <trkpt lat="46.051129" lon="7.842491">
        <time>1970-01-01T00:00:00+00:00</time>
        <ele>2911.0</ele>
      </trkpt>
      <trkpt lat="46.051125" lon="7.842421">
        <time>1970-01-01T00:00:00+00:00</time>
        <ele>2910.0</ele>
      </trkpt>
      <trkpt lat="46.051125" lon="7.842421">
        <time>1970-01-01T00:00:00+00:00</time>
        <ele>2910.0</ele>
      </trkpt>
      <trkpt lat="46.05109" lon="7.842285">
        <time>1970-01-01T00:00:00+00:00</time>
        <ele>2907.0</ele>
      </trkpt>
      <trkpt lat="46.05109" lon="7.842285">
        <time>1970-01-01T00:00:00+00:00</time>
        <ele>2907.0</ele>
      </trkpt>
      <trkpt lat="46.051097" lon="7.842203">
        <time>1970-01-01T00:00:00+00:00</time>
        <ele>2905.0</ele>
      </trkpt>
      <trkpt lat="46.051097" lon="7.842203">
        <time>1970-01-01T00:00:00+00:00</time>
        <ele>2905.0</ele>
      </trkpt>
      <trkpt lat="46.051167" lon="7.842">
        <time>1970-01-01T00:00:00+00:00</time>
        <ele>2903.0</ele>
      </trkpt>
      <trkpt lat="46.051167" lon="7.842">
        <time>1970-01-01T00:00:00+00:00</time>
        <ele>2903.0</ele>
      </trkpt>
      <trkpt lat="46.051203" lon="7.841927">
        <time>1970-01-01T00:00:00+00:00</time>
        <ele>2902.0</ele>
      </trkpt>
      <trkpt lat="46.051203" lon="7.841927">
        <time>1970-01-01T00:00:00+00:00</time>
        <ele>2902.0</ele>
      </trkpt>
      <trkpt lat="46.051339665005536" lon="7.8417585088972865">
        <time>1970-01-01T00:00:00+00:00</time>
        <ele>2900.0</ele>
      </trkpt>
      <trkpt lat="46.051349" lon="7.841747">
        <time>1970-01-01T00:00:00+00:00</time>
        <ele>2900.0</ele>
      </trkpt>
      <trkpt lat="46.051349" lon="7.841747">
        <time>1970-01-01T00:00:00+00:00</time>
        <ele>2900.0</ele>
      </trkpt>
      <trkpt lat="46.051382" lon="7.84164">
        <time>1970-01-01T00:00:00+00:00</time>
        <ele>2899.0</ele>
      </trkpt>
      <trkpt lat="46.051382" lon="7.84164">
        <time>1970-01-01T00:00:00+00:00</time>
        <ele>2899.0</ele>
      </trkpt>
      <trkpt lat="46.051358" lon="7.841539">
        <time>1970-01-01T00:00:00+00:00</time>
        <ele>2897.0</ele>
      </trkpt>
      <trkpt lat="46.051358" lon="7.841539">
        <time>1970-01-01T00:00:00+00:00</time>
        <ele>2897.0</ele>
      </trkpt>
      <trkpt lat="46.051308" lon="7.841444">
        <time>1970-01-01T00:00:00+00:00</time>
        <ele>2894.0</ele>
      </trkpt>
      <trkpt lat="46.051308" lon="7.841444">
        <time>1970-01-01T00:00:00+00:00</time>
        <ele>2894.0</ele>
      </trkpt>
      <trkpt lat="46.051335" lon="7.841331">
        <time>1970-01-01T00:00:00+00:00</time>
        <ele>2891.0</ele>
      </trkpt>
      <trkpt lat="46.051335" lon="7.841331">
        <time>1970-01-01T00:00:00+00:00</time>
        <ele>2891.0</ele>
      </trkpt>
      <trkpt lat="46.05143653542781" lon="7.841117078029951">
        <time>1970-01-01T00:00:00+00:00</time>
        <ele>2886.0</ele>
      </trkpt>
      <trkpt lat="46.051466" lon="7.841055">
        <time>1970-01-01T00:00:00+00:00</time>
        <ele>2885.0</ele>
      </trkpt>
      <trkpt lat="46.051466" lon="7.841055">
        <time>1970-01-01T00:00:00+00:00</time>
        <ele>2885.0</ele>
      </trkpt>
      <trkpt lat="46.051503" lon="7.840997">
        <time>1970-01-01T00:00:00+00:00</time>
        <ele>2884.0</ele>
      </trkpt>
      <trkpt lat="46.051503" lon="7.840997">
        <time>1970-01-01T00:00:00+00:00</time>
        <ele>2884.0</ele>
      </trkpt>
      <trkpt lat="46.051537" lon="7.840951">
        <time>1970-01-01T00:00:00+00:00</time>
        <ele>2883.0</ele>
      </trkpt>
      <trkpt lat="46.051537" lon="7.840951">
        <time>1970-01-01T00:00:00+00:00</time>
        <ele>2883.0</ele>
      </trkpt>
      <trkpt lat="46.051641" lon="7.840864">
        <time>1970-01-01T00:00:00+00:00</time>
        <ele>2883.0</ele>
      </trkpt>
      <trkpt lat="46.051641" lon="7.840864">
        <time>1970-01-01T00:00:00+00:00</time>
        <ele>2883.0</ele>
      </trkpt>
      <trkpt lat="46.051735" lon="7.840732">
        <time>1970-01-01T00:00:00+00:00</time>
        <ele>2883.0</ele>
      </trkpt>
      <trkpt lat="46.051735" lon="7.840732">
        <time>1970-01-01T00:00:00+00:00</time>
        <ele>2883.0</ele>
      </trkpt>
      <trkpt lat="46.05176" lon="7.840642">
        <time>1970-01-01T00:00:00+00:00</time>
        <ele>2882.0</ele>
      </trkpt>
      <trkpt lat="46.05176" lon="7.840642">
        <time>1970-01-01T00:00:00+00:00</time>
        <ele>2882.0</ele>
      </trkpt>
      <trkpt lat="46.051777" lon="7.840532">
        <time>1970-01-01T00:00:00+00:00</time>
        <ele>2880.0</ele>
      </trkpt>
      <trkpt lat="46.051777" lon="7.840532">
        <time>1970-01-01T00:00:00+00:00</time>
        <ele>2880.0</ele>
      </trkpt>
      <trkpt lat="46.051777" lon="7.840272832508801">
        <time>1970-01-01T00:00:00+00:00</time>
        <ele>2878.0</ele>
      </trkpt>
      <trkpt lat="46.051777" lon="7.840262">
        <time>1970-01-01T00:00:00+00:00</time>
        <ele>2878.0</ele>
      </trkpt>
      <trkpt lat="46.051777" lon="7.840262">
        <time>1970-01-01T00:00:00+00:00</time>
        <ele>2878.0</ele>
      </trkpt>
      <trkpt lat="46.051757" lon="7.840132">
        <time>1970-01-01T00:00:00+00:00</time>
        <ele>2876.0</ele>
      </trkpt>
      <trkpt lat="46.051757" lon="7.840132">
        <time>1970-01-01T00:00:00+00:00</time>
        <ele>2876.0</ele>
      </trkpt>
      <trkpt lat="46.051715" lon="7.840028">
        <time>1970-01-01T00:00:00+00:00</time>
        <ele>2875.0</ele>
      </trkpt>
      <trkpt lat="46.051715" lon="7.840028">
        <time>1970-01-01T00:00:00+00:00</time>
        <ele>2875.0</ele>
      </trkpt>
      <trkpt lat="46.051655" lon="7.839967">
        <time>1970-01-01T00:00:00+00:00</time>
        <ele>2874.0</ele>
      </trkpt>
      <trkpt lat="46.051655" lon="7.839967">
        <time>1970-01-01T00:00:00+00:00</time>
        <ele>2874.0</ele>
      </trkpt>
      <trkpt lat="46.051613" lon="7.839925">
        <time>1970-01-01T00:00:00+00:00</time>
        <ele>2873.0</ele>
      </trkpt>
      <trkpt lat="46.051613" lon="7.839925">
        <time>1970-01-01T00:00:00+00:00</time>
        <ele>2873.0</ele>
      </trkpt>
      <trkpt lat="46.051595" lon="7.839862">
        <time>1970-01-01T00:00:00+00:00</time>
        <ele>2872.0</ele>
      </trkpt>
      <trkpt lat="46.051595" lon="7.839862">
        <time>1970-01-01T00:00:00+00:00</time>
        <ele>2872.0</ele>
      </trkpt>
      <trkpt lat="46.05158" lon="7.839924">
        <time>1970-01-01T00:00:00+00:00</time>
        <ele>2873.0</ele>
      </trkpt>
      <trkpt lat="46.05158" lon="7.839924">
        <time>1970-01-01T00:00:00+00:00</time>
        <ele>2873.0</ele>
      </trkpt>
      <trkpt lat="46.051628" lon="7.839872">
        <time>1970-01-01T00:00:00+00:00</time>
        <ele>2872.0</ele>
      </trkpt>
      <trkpt lat="46.051628" lon="7.839872">
        <time>1970-01-01T00:00:00+00:00</time>
        <ele>2872.0</ele>
      </trkpt>
      <trkpt lat="46.051653" lon="7.839807">
        <time>1970-01-01T00:00:00+00:00</time>
        <ele>2871.0</ele>
      </trkpt>
      <trkpt lat="46.051653" lon="7.839807">
        <time>1970-01-01T00:00:00+00:00</time>
        <ele>2871.0</ele>
      </trkpt>
      <trkpt lat="46.051675" lon="7.83965">
        <time>1970-01-01T00:00:00+00:00</time>
        <ele>2869.0</ele>
      </trkpt>
      <trkpt lat="46.051675" lon="7.83965">
        <time>1970-01-01T00:00:00+00:00</time>
        <ele>2869.0</ele>
      </trkpt>
      <trkpt lat="46.051729" lon="7.839659">
        <time>1970-01-01T00:00:00+00:00</time>
        <ele>2869.0</ele>
      </trkpt>
      <trkpt lat="46.051729" lon="7.839659">
        <time>1970-01-01T00:00:00+00:00</time>
        <ele>2869.0</ele>
      </trkpt>
      <trkpt lat="46.051796" lon="7.8397">
        <time>1970-01-01T00:00:00+00:00</time>
        <ele>2871.0</ele>
      </trkpt>
      <trkpt lat="46.051796" lon="7.8397">
        <time>1970-01-01T00:00:00+00:00</time>
        <ele>2871.0</ele>
      </trkpt>
      <trkpt lat="46.051843" lon="7.839677">
        <time>1970-01-01T00:00:00+00:00</time>
        <ele>2870.0</ele>
      </trkpt>
      <trkpt lat="46.051843" lon="7.839677">
        <time>1970-01-01T00:00:00+00:00</time>
        <ele>2870.0</ele>
      </trkpt>
      <trkpt lat="46.05186" lon="7.839597">
        <time>1970-01-01T00:00:00+00:00</time>
        <ele>2869.0</ele>
      </trkpt>
      <trkpt lat="46.05186" lon="7.839597">
        <time>1970-01-01T00:00:00+00:00</time>
        <ele>2869.0</ele>
      </trkpt>
      <trkpt lat="46.05185" lon="7.839504">
        <time>1970-01-01T00:00:00+00:00</time>
        <ele>2868.0</ele>
      </trkpt>
      <trkpt lat="46.05185" lon="7.839504">
        <time>1970-01-01T00:00:00+00:00</time>
        <ele>2868.0</ele>
      </trkpt>
      <trkpt lat="46.051781" lon="7.839369">
        <time>1970-01-01T00:00:00+00:00</time>
        <ele>2867.0</ele>
      </trkpt>
      <trkpt lat="46.051781" lon="7.839369">
        <time>1970-01-01T00:00:00+00:00</time>
        <ele>2867.0</ele>
      </trkpt>
      <trkpt lat="46.051802" lon="7.839295">
        <time>1970-01-01T00:00:00+00:00</time>
        <ele>2866.0</ele>
      </trkpt>
      <trkpt lat="46.051802" lon="7.839295">
        <time>1970-01-01T00:00:00+00:00</time>
        <ele>2866.0</ele>
      </trkpt>
      <trkpt lat="46.051807" lon="7.83922">
        <time>1970-01-01T00:00:00+00:00</time>
        <ele>2865.0</ele>
      </trkpt>
      <trkpt lat="46.051807" lon="7.83922">
        <time>1970-01-01T00:00:00+00:00</time>
        <ele>2865.0</ele>
      </trkpt>
      <trkpt lat="46.051824" lon="7.839149">
        <time>1970-01-01T00:00:00+00:00</time>
        <ele>2864.0</ele>
      </trkpt>
      <trkpt lat="46.051824" lon="7.839149">
        <time>1970-01-01T00:00:00+00:00</time>
        <ele>2864.0</ele>
      </trkpt>
      <trkpt lat="46.051899" lon="7.839044">
        <time>1970-01-01T00:00:00+00:00</time>
        <ele>2863.0</ele>
      </trkpt>
      <trkpt lat="46.051899" lon="7.839044">
        <time>1970-01-01T00:00:00+00:00</time>
        <ele>2863.0</ele>
      </trkpt>
      <trkpt lat="46.05204862341128" lon="7.8389001684626995">
        <time>1970-01-01T00:00:00+00:00</time>
        <ele>2861.0</ele>
      </trkpt>
      <trkpt lat="46.052054" lon="7.838895">
        <time>1970-01-01T00:00:00+00:00</time>
        <ele>2861.0</ele>
      </trkpt>
      <trkpt lat="46.052054" lon="7.838895">
        <time>1970-01-01T00:00:00+00:00</time>
        <ele>2861.0</ele>
      </trkpt>
      <trkpt lat="46.05212" lon="7.838813">
        <time>1970-01-01T00:00:00+00:00</time>
        <ele>2860.0</ele>
      </trkpt>
      <trkpt lat="46.05212" lon="7.838813">
        <time>1970-01-01T00:00:00+00:00</time>
        <ele>2860.0</ele>
      </trkpt>
      <trkpt lat="46.052128" lon="7.838698">
        <time>1970-01-01T00:00:00+00:00</time>
        <ele>2858.0</ele>
      </trkpt>
      <trkpt lat="46.052128" lon="7.838698">
        <time>1970-01-01T00:00:00+00:00</time>
        <ele>2858.0</ele>
      </trkpt>
      <trkpt lat="46.052121" lon="7.838631">
        <time>1970-01-01T00:00:00+00:00</time>
        <ele>2858.0</ele>
      </trkpt>
      <trkpt lat="46.052121" lon="7.838631">
        <time>1970-01-01T00:00:00+00:00</time>
        <ele>2858.0</ele>
      </trkpt>
      <trkpt lat="46.052096" lon="7.838515">
        <time>1970-01-01T00:00:00+00:00</time>
        <ele>2856.0</ele>
      </trkpt>
      <trkpt lat="46.052096" lon="7.838515">
        <time>1970-01-01T00:00:00+00:00</time>
        <ele>2856.0</ele>
      </trkpt>
      <trkpt lat="46.052075" lon="7.838455">
        <time>1970-01-01T00:00:00+00:00</time>
        <ele>2855.0</ele>
      </trkpt>
      <trkpt lat="46.052075" lon="7.838455">
        <time>1970-01-01T00:00:00+00:00</time>
        <ele>2855.0</ele>
      </trkpt>
      <trkpt lat="46.051965" lon="7.838304">
        <time>1970-01-01T00:00:00+00:00</time>
        <ele>2853.0</ele>
      </trkpt>
      <trkpt lat="46.051965" lon="7.838304">
        <time>1970-01-01T00:00:00+00:00</time>
        <ele>2853.0</ele>
      </trkpt>
      <trkpt lat="46.051937" lon="7.838236">
        <time>1970-01-01T00:00:00+00:00</time>
        <ele>2851.0</ele>
      </trkpt>
      <trkpt lat="46.051937" lon="7.838236">
        <time>1970-01-01T00:00:00+00:00</time>
        <ele>2851.0</ele>
      </trkpt>
      <trkpt lat="46.051928" lon="7.838156">
        <time>1970-01-01T00:00:00+00:00</time>
        <ele>2849.0</ele>
      </trkpt>
      <trkpt lat="46.051928" lon="7.838156">
        <time>1970-01-01T00:00:00+00:00</time>
        <ele>2849.0</ele>
      </trkpt>
      <trkpt lat="46.05195" lon="7.838066">
        <time>1970-01-01T00:00:00+00:00</time>
        <ele>2848.0</ele>
      </trkpt>
      <trkpt lat="46.05195" lon="7.838066">
        <time>1970-01-01T00:00:00+00:00</time>
        <ele>2848.0</ele>
      </trkpt>
      <trkpt lat="46.051975" lon="7.837991">
        <time>1970-01-01T00:00:00+00:00</time>
        <ele>2846.0</ele>
      </trkpt>
      <trkpt lat="46.051975" lon="7.837991">
        <time>1970-01-01T00:00:00+00:00</time>
        <ele>2846.0</ele>
      </trkpt>
      <trkpt lat="46.051989" lon="7.837858">
        <time>1970-01-01T00:00:00+00:00</time>
        <ele>2844.0</ele>
      </trkpt>
      <trkpt lat="46.051989" lon="7.837858">
        <time>1970-01-01T00:00:00+00:00</time>
        <ele>2844.0</ele>
      </trkpt>
      <trkpt lat="46.051899" lon="7.837727">
        <time>1970-01-01T00:00:00+00:00</time>
        <ele>2842.0</ele>
      </trkpt>
      <trkpt lat="46.051899" lon="7.837727">
        <time>1970-01-01T00:00:00+00:00</time>
        <ele>2842.0</ele>
      </trkpt>
      <trkpt lat="46.051859" lon="7.837688">
        <time>1970-01-01T00:00:00+00:00</time>
        <ele>2841.0</ele>
      </trkpt>
      <trkpt lat="46.051859" lon="7.837688">
        <time>1970-01-01T00:00:00+00:00</time>
        <ele>2841.0</ele>
      </trkpt>
      <trkpt lat="46.051763" lon="7.837628">
        <time>1970-01-01T00:00:00+00:00</time>
        <ele>2840.0</ele>
      </trkpt>
      <trkpt lat="46.051763" lon="7.837628">
        <time>1970-01-01T00:00:00+00:00</time>
        <ele>2840.0</ele>
      </trkpt>
      <trkpt lat="46.051713" lon="7.837602">
        <time>1970-01-01T00:00:00+00:00</time>
        <ele>2840.0</ele>
      </trkpt>
      <trkpt lat="46.051713" lon="7.837602">
        <time>1970-01-01T00:00:00+00:00</time>
        <ele>2840.0</ele>
      </trkpt>
      <trkpt lat="46.051671" lon="7.83757">
        <time>1970-01-01T00:00:00+00:00</time>
        <ele>2839.0</ele>
      </trkpt>
      <trkpt lat="46.051671" lon="7.83757">
        <time>1970-01-01T00:00:00+00:00</time>
        <ele>2839.0</ele>
      </trkpt>
      <trkpt lat="46.051645" lon="7.83749">
        <time>1970-01-01T00:00:00+00:00</time>
        <ele>2838.0</ele>
      </trkpt>
      <trkpt lat="46.051645" lon="7.83749">
        <time>1970-01-01T00:00:00+00:00</time>
        <ele>2838.0</ele>
      </trkpt>
      <trkpt lat="46.051761" lon="7.837338">
        <time>1970-01-01T00:00:00+00:00</time>
        <ele>2835.0</ele>
      </trkpt>
      <trkpt lat="46.051761" lon="7.837338">
        <time>1970-01-01T00:00:00+00:00</time>
        <ele>2835.0</ele>
      </trkpt>
      <trkpt lat="46.051799" lon="7.8373">
        <time>1970-01-01T00:00:00+00:00</time>
        <ele>2834.0</ele>
      </trkpt>
      <trkpt lat="46.051799" lon="7.8373">
        <time>1970-01-01T00:00:00+00:00</time>
        <ele>2834.0</ele>
      </trkpt>
      <trkpt lat="46.051822" lon="7.837207">
        <time>1970-01-01T00:00:00+00:00</time>
        <ele>2832.0</ele>
      </trkpt>
      <trkpt lat="46.051822" lon="7.837207">
        <time>1970-01-01T00:00:00+00:00</time>
        <ele>2832.0</ele>
      </trkpt>
      <trkpt lat="46.05193740402699" lon="7.8370082115604465">
        <time>1970-01-01T00:00:00+00:00</time>
        <ele>2829.0</ele>
      </trkpt>
      <trkpt lat="46.051995" lon="7.836909">
        <time>1970-01-01T00:00:00+00:00</time>
        <ele>2828.0</ele>
      </trkpt>
      <trkpt lat="46.051995" lon="7.836909">
        <time>1970-01-01T00:00:00+00:00</time>
        <ele>2828.0</ele>
      </trkpt>
      <trkpt lat="46.052037" lon="7.836841">
        <time>1970-01-01T00:00:00+00:00</time>
        <ele>2826.0</ele>
      </trkpt>
      <trkpt lat="46.052037" lon="7.836841">
        <time>1970-01-01T00:00:00+00:00</time>
        <ele>2826.0</ele>
      </trkpt>
      <trkpt lat="46.05213" lon="7.836623">
        <time>1970-01-01T00:00:00+00:00</time>
        <ele>2819.0</ele>
      </trkpt>
      <trkpt lat="46.05213" lon="7.836623">
        <time>1970-01-01T00:00:00+00:00</time>
        <ele>2819.0</ele>
      </trkpt>
      <trkpt lat="46.052158" lon="7.836568">
        <time>1970-01-01T00:00:00+00:00</time>
        <ele>2818.0</ele>
      </trkpt>
      <trkpt lat="46.052158" lon="7.836568">
        <time>1970-01-01T00:00:00+00:00</time>
        <ele>2818.0</ele>
      </trkpt>
      <trkpt lat="46.052211" lon="7.836522">
        <time>1970-01-01T00:00:00+00:00</time>
        <ele>2817.0</ele>
      </trkpt>
      <trkpt lat="46.052211" lon="7.836522">
        <time>1970-01-01T00:00:00+00:00</time>
        <ele>2817.0</ele>
      </trkpt>
      <trkpt lat="46.052301" lon="7.836509">
        <time>1970-01-01T00:00:00+00:00</time>
        <ele>2818.0</ele>
      </trkpt>
      <trkpt lat="46.052301" lon="7.836509">
        <time>1970-01-01T00:00:00+00:00</time>
        <ele>2818.0</ele>
      </trkpt>
      <trkpt lat="46.052344" lon="7.836435">
        <time>1970-01-01T00:00:00+00:00</time>
        <ele>2816.0</ele>
      </trkpt>
      <trkpt lat="46.052344" lon="7.836435">
        <time>1970-01-01T00:00:00+00:00</time>
        <ele>2816.0</ele>
      </trkpt>
      <trkpt lat="46.052412" lon="7.836328">
        <time>1970-01-01T00:00:00+00:00</time>
        <ele>2816.0</ele>
      </trkpt>
      <trkpt lat="46.052412" lon="7.836328">
        <time>1970-01-01T00:00:00+00:00</time>
        <ele>2816.0</ele>
      </trkpt>
      <trkpt lat="46.052428" lon="7.836226">
        <time>1970-01-01T00:00:00+00:00</time>
        <ele>2816.0</ele>
      </trkpt>
      <trkpt lat="46.052428" lon="7.836226">
        <time>1970-01-01T00:00:00+00:00</time>
        <ele>2816.0</ele>
      </trkpt>
      <trkpt lat="46.05238" lon="7.836125">
        <time>1970-01-01T00:00:00+00:00</time>
        <ele>2813.0</ele>
      </trkpt>
      <trkpt lat="46.05238" lon="7.836125">
        <time>1970-01-01T00:00:00+00:00</time>
        <ele>2813.0</ele>
      </trkpt>
      <trkpt lat="46.052327" lon="7.836049">
        <time>1970-01-01T00:00:00+00:00</time>
        <ele>2810.0</ele>
      </trkpt>
      <trkpt lat="46.052327" lon="7.836049">
        <time>1970-01-01T00:00:00+00:00</time>
        <ele>2810.0</ele>
      </trkpt>
      <trkpt lat="46.052279" lon="7.836044">
        <time>1970-01-01T00:00:00+00:00</time>
        <ele>2810.0</ele>
      </trkpt>
      <trkpt lat="46.052279" lon="7.836044">
        <time>1970-01-01T00:00:00+00:00</time>
        <ele>2810.0</ele>
      </trkpt>
      <trkpt lat="46.052242" lon="7.835951">
        <time>1970-01-01T00:00:00+00:00</time>
        <ele>2807.0</ele>
      </trkpt>
      <trkpt lat="46.052242" lon="7.835951">
        <time>1970-01-01T00:00:00+00:00</time>
        <ele>2807.0</ele>
      </trkpt>
      <trkpt lat="46.052193" lon="7.835874">
        <time>1970-01-01T00:00:00+00:00</time>
        <ele>2805.0</ele>
      </trkpt>
      <trkpt lat="46.052193" lon="7.835874">
        <time>1970-01-01T00:00:00+00:00</time>
        <ele>2805.0</ele>
      </trkpt>
      <trkpt lat="46.05219" lon="7.835755">
        <time>1970-01-01T00:00:00+00:00</time>
        <ele>2802.0</ele>
      </trkpt>
      <trkpt lat="46.05219" lon="7.835755">
        <time>1970-01-01T00:00:00+00:00</time>
        <ele>2802.0</ele>
      </trkpt>
      <trkpt lat="46.052143" lon="7.835677">
        <time>1970-01-01T00:00:00+00:00</time>
        <ele>2799.0</ele>
      </trkpt>
      <trkpt lat="46.052143" lon="7.835677">
        <time>1970-01-01T00:00:00+00:00</time>
        <ele>2799.0</ele>
      </trkpt>
      <trkpt lat="46.052155" lon="7.835497">
        <time>1970-01-01T00:00:00+00:00</time>
        <ele>2796.0</ele>
      </trkpt>
      <trkpt lat="46.052155" lon="7.835497">
        <time>1970-01-01T00:00:00+00:00</time>
        <ele>2796.0</ele>
      </trkpt>
      <trkpt lat="46.052143" lon="7.835414">
        <time>1970-01-01T00:00:00+00:00</time>
        <ele>2795.0</ele>
      </trkpt>
      <trkpt lat="46.052143" lon="7.835414">
        <time>1970-01-01T00:00:00+00:00</time>
        <ele>2795.0</ele>
      </trkpt>
      <trkpt lat="46.052097" lon="7.835351">
        <time>1970-01-01T00:00:00+00:00</time>
        <ele>2794.0</ele>
      </trkpt>
      <trkpt lat="46.052097" lon="7.835351">
        <time>1970-01-01T00:00:00+00:00</time>
        <ele>2794.0</ele>
      </trkpt>
      <trkpt lat="46.052027" lon="7.835118">
        <time>1970-01-01T00:00:00+00:00</time>
        <ele>2790.0</ele>
      </trkpt>
      <trkpt lat="46.052027" lon="7.835118">
        <time>1970-01-01T00:00:00+00:00</time>
        <ele>2790.0</ele>
      </trkpt>
      <trkpt lat="46.052006" lon="7.834946">
        <time>1970-01-01T00:00:00+00:00</time>
        <ele>2788.0</ele>
      </trkpt>
      <trkpt lat="46.052006" lon="7.834946">
        <time>1970-01-01T00:00:00+00:00</time>
        <ele>2788.0</ele>
      </trkpt>
      <trkpt lat="46.052041271632504" lon="7.834691863365778">
        <time>1970-01-01T00:00:00+00:00</time>
        <ele>2787.0</ele>
      </trkpt>
      <trkpt lat="46.05207654326502" lon="7.834437726731556">
        <time>1970-01-01T00:00:00+00:00</time>
        <ele>2786.0</ele>
      </trkpt>
      <trkpt lat="46.052084" lon="7.834384">
        <time>1970-01-01T00:00:00+00:00</time>
        <ele>2786.0</ele>
      </trkpt>
      <trkpt lat="46.052084" lon="7.834384">
        <time>1970-01-01T00:00:00+00:00</time>
        <ele>2786.0</ele>
      </trkpt>
      <trkpt lat="46.052104" lon="7.834198">
        <time>1970-01-01T00:00:00+00:00</time>
        <ele>2785.0</ele>
      </trkpt>
      <trkpt lat="46.052104" lon="7.834198">
        <time>1970-01-01T00:00:00+00:00</time>
        <ele>2785.0</ele>
      </trkpt>
      <trkpt lat="46.052075" lon="7.834103">
        <time>1970-01-01T00:00:00+00:00</time>
        <ele>2784.0</ele>
      </trkpt>
      <trkpt lat="46.052075" lon="7.834103">
        <time>1970-01-01T00:00:00+00:00</time>
        <ele>2784.0</ele>
      </trkpt>
      <trkpt lat="46.051997" lon="7.834039">
        <time>1970-01-01T00:00:00+00:00</time>
        <ele>2782.0</ele>
      </trkpt>
      <trkpt lat="46.051997" lon="7.834039">
        <time>1970-01-01T00:00:00+00:00</time>
        <ele>2782.0</ele>
      </trkpt>
      <trkpt lat="46.051969" lon="7.833961">
        <time>1970-01-01T00:00:00+00:00</time>
        <ele>2780.0</ele>
      </trkpt>
      <trkpt lat="46.051969" lon="7.833961">
        <time>1970-01-01T00:00:00+00:00</time>
        <ele>2780.0</ele>
      </trkpt>
      <trkpt lat="46.051983" lon="7.833896">
        <time>1970-01-01T00:00:00+00:00</time>
        <ele>2780.0</ele>
      </trkpt>
      <trkpt lat="46.051983" lon="7.833896">
        <time>1970-01-01T00:00:00+00:00</time>
        <ele>2780.0</ele>
      </trkpt>
      <trkpt lat="46.051949" lon="7.833824">
        <time>1970-01-01T00:00:00+00:00</time>
        <ele>2778.0</ele>
      </trkpt>
      <trkpt lat="46.051949" lon="7.833824">
        <time>1970-01-01T00:00:00+00:00</time>
        <ele>2778.0</ele>
      </trkpt>
      <trkpt lat="46.051968" lon="7.833692">
        <time>1970-01-01T00:00:00+00:00</time>
        <ele>2776.0</ele>
      </trkpt>
      <trkpt lat="46.051968" lon="7.833692">
        <time>1970-01-01T00:00:00+00:00</time>
        <ele>2776.0</ele>
      </trkpt>
      <trkpt lat="46.051857" lon="7.833573">
        <time>1970-01-01T00:00:00+00:00</time>
        <ele>2771.0</ele>
      </trkpt>
      <trkpt lat="46.051857" lon="7.833573">
        <time>1970-01-01T00:00:00+00:00</time>
        <ele>2771.0</ele>
      </trkpt>
      <trkpt lat="46.051837" lon="7.833464">
        <time>1970-01-01T00:00:00+00:00</time>
        <ele>2768.0</ele>
      </trkpt>
      <trkpt lat="46.051837" lon="7.833464">
        <time>1970-01-01T00:00:00+00:00</time>
        <ele>2768.0</ele>
      </trkpt>
      <trkpt lat="46.051786" lon="7.833322">
        <time>1970-01-01T00:00:00+00:00</time>
        <ele>2763.0</ele>
      </trkpt>
      <trkpt lat="46.051786" lon="7.833322">
        <time>1970-01-01T00:00:00+00:00</time>
        <ele>2763.0</ele>
      </trkpt>
      <trkpt lat="46.051721" lon="7.833164">
        <time>1970-01-01T00:00:00+00:00</time>
        <ele>2758.0</ele>
      </trkpt>
      <trkpt lat="46.051721" lon="7.833164">
        <time>1970-01-01T00:00:00+00:00</time>
        <ele>2758.0</ele>
      </trkpt>
      <trkpt lat="46.051742" lon="7.83304">
        <time>1970-01-01T00:00:00+00:00</time>
        <ele>2754.0</ele>
      </trkpt>
      <trkpt lat="46.051742" lon="7.83304">
        <time>1970-01-01T00:00:00+00:00</time>
        <ele>2754.0</ele>
      </trkpt>
      <trkpt lat="46.051767" lon="7.832952">
        <time>1970-01-01T00:00:00+00:00</time>
        <ele>2752.0</ele>
      </trkpt>
      <trkpt lat="46.051767" lon="7.832952">
        <time>1970-01-01T00:00:00+00:00</time>
        <ele>2752.0</ele>
      </trkpt>
      <trkpt lat="46.051833" lon="7.832859">
        <time>1970-01-01T00:00:00+00:00</time>
        <ele>2751.0</ele>
      </trkpt>
      <trkpt lat="46.051833" lon="7.832859">
        <time>1970-01-01T00:00:00+00:00</time>
        <ele>2751.0</ele>
      </trkpt>
      <trkpt lat="46.051878" lon="7.832758">
        <time>1970-01-01T00:00:00+00:00</time>
        <ele>2751.0</ele>
      </trkpt>
      <trkpt lat="46.051878" lon="7.832758">
        <time>1970-01-01T00:00:00+00:00</time>
        <ele>2751.0</ele>
      </trkpt>
      <trkpt lat="46.051821" lon="7.832706">
        <time>1970-01-01T00:00:00+00:00</time>
        <ele>2747.0</ele>
      </trkpt>
      <trkpt lat="46.051821" lon="7.832706">
        <time>1970-01-01T00:00:00+00:00</time>
        <ele>2747.0</ele>
      </trkpt>
      <trkpt lat="46.051845" lon="7.832581">
        <time>1970-01-01T00:00:00+00:00</time>
        <ele>2745.0</ele>
      </trkpt>
      <trkpt lat="46.051845" lon="7.832581">
        <time>1970-01-01T00:00:00+00:00</time>
        <ele>2745.0</ele>
      </trkpt>
      <trkpt lat="46.051813" lon="7.832524">
        <time>1970-01-01T00:00:00+00:00</time>
        <ele>2743.0</ele>
      </trkpt>
      <trkpt lat="46.051813" lon="7.832524">
        <time>1970-01-01T00:00:00+00:00</time>
        <ele>2743.0</ele>
      </trkpt>
      <trkpt lat="46.051757" lon="7.832502">
        <time>1970-01-01T00:00:00+00:00</time>
        <ele>2740.0</ele>
      </trkpt>
      <trkpt lat="46.051757" lon="7.832502">
        <time>1970-01-01T00:00:00+00:00</time>
        <ele>2740.0</ele>
      </trkpt>
      <trkpt lat="46.051853" lon="7.832331">
        <time>1970-01-01T00:00:00+00:00</time>
        <ele>2741.0</ele>
      </trkpt>
      <trkpt lat="46.051853" lon="7.832331">
        <time>1970-01-01T00:00:00+00:00</time>
        <ele>2741.0</ele>
      </trkpt>
      <trkpt lat="46.051793" lon="7.832295">
        <time>1970-01-01T00:00:00+00:00</time>
        <ele>2738.0</ele>
      </trkpt>
      <trkpt lat="46.051793" lon="7.832295">
        <time>1970-01-01T00:00:00+00:00</time>
        <ele>2738.0</ele>
      </trkpt>
      <trkpt lat="46.051797" lon="7.832122">
        <time>1970-01-01T00:00:00+00:00</time>
        <ele>2734.0</ele>
      </trkpt>
      <trkpt lat="46.051797" lon="7.832122">
        <time>1970-01-01T00:00:00+00:00</time>
        <ele>2734.0</ele>
      </trkpt>
      <trkpt lat="46.051796" lon="7.832056">
        <time>1970-01-01T00:00:00+00:00</time>
        <ele>2732.0</ele>
      </trkpt>
      <trkpt lat="46.051796" lon="7.832056">
        <time>1970-01-01T00:00:00+00:00</time>
        <ele>2732.0</ele>
      </trkpt>
      <trkpt lat="46.051777" lon="7.831941">
        <time>1970-01-01T00:00:00+00:00</time>
        <ele>2729.0</ele>
      </trkpt>
      <trkpt lat="46.051777" lon="7.831941">
        <time>1970-01-01T00:00:00+00:00</time>
        <ele>2729.0</ele>
      </trkpt>
      <trkpt lat="46.051734" lon="7.831788">
        <time>1970-01-01T00:00:00+00:00</time>
        <ele>2724.0</ele>
      </trkpt>
      <trkpt lat="46.051734" lon="7.831788">
        <time>1970-01-01T00:00:00+00:00</time>
        <ele>2724.0</ele>
      </trkpt>
      <trkpt lat="46.051728" lon="7.831645">
        <time>1970-01-01T00:00:00+00:00</time>
        <ele>2722.0</ele>
      </trkpt>
      <trkpt lat="46.051728" lon="7.831645">
        <time>1970-01-01T00:00:00+00:00</time>
        <ele>2722.0</ele>
      </trkpt>
      <trkpt lat="46.05171043498145" lon="7.831387071569708">
        <time>1970-01-01T00:00:00+00:00</time>
        <ele>2717.0</ele>
      </trkpt>
      <trkpt lat="46.051709" lon="7.831366">
        <time>1970-01-01T00:00:00+00:00</time>
        <ele>2716.0</ele>
      </trkpt>
      <trkpt lat="46.051709" lon="7.831366">
        <time>1970-01-01T00:00:00+00:00</time>
        <ele>2716.0</ele>
      </trkpt>
      <trkpt lat="46.051691" lon="7.831298">
        <time>1970-01-01T00:00:00+00:00</time>
        <ele>2714.0</ele>
      </trkpt>
      <trkpt lat="46.051691" lon="7.831298">
        <time>1970-01-01T00:00:00+00:00</time>
        <ele>2714.0</ele>
      </trkpt>
      <trkpt lat="46.051631" lon="7.831289">
        <time>1970-01-01T00:00:00+00:00</time>
        <ele>2711.0</ele>
      </trkpt>
      <trkpt lat="46.051631" lon="7.831289">
        <time>1970-01-01T00:00:00+00:00</time>
        <ele>2711.0</ele>
      </trkpt>
      <trkpt lat="46.051564" lon="7.83129">
        <time>1970-01-01T00:00:00+00:00</time>
        <ele>2708.0</ele>
      </trkpt>
      <trkpt lat="46.051564" lon="7.83129">
        <time>1970-01-01T00:00:00+00:00</time>
        <ele>2708.0</ele>
      </trkpt>
      <trkpt lat="46.0515030427799" lon="7.831046171119617">
        <time>1970-01-01T00:00:00+00:00</time>
        <ele>2702.0</ele>
      </trkpt>
      <trkpt lat="46.051502" lon="7.831042">
        <time>1970-01-01T00:00:00+00:00</time>
        <ele>2702.0</ele>
      </trkpt>
      <trkpt lat="46.051502" lon="7.831042">
        <time>1970-01-01T00:00:00+00:00</time>
        <ele>2702.0</ele>
      </trkpt>
      <trkpt lat="46.051467" lon="7.830949">
        <time>1970-01-01T00:00:00+00:00</time>
        <ele>2700.0</ele>
      </trkpt>
      <trkpt lat="46.051467" lon="7.830949">
        <time>1970-01-01T00:00:00+00:00</time>
        <ele>2700.0</ele>
      </trkpt>
      <trkpt lat="46.05143521348994" lon="7.830693913256775">
        <time>1970-01-01T00:00:00+00:00</time>
        <ele>2695.0</ele>
      </trkpt>
      <trkpt lat="46.051427" lon="7.830628">
        <time>1970-01-01T00:00:00+00:00</time>
        <ele>2693.0</ele>
      </trkpt>
      <trkpt lat="46.051427" lon="7.830628">
        <time>1970-01-01T00:00:00+00:00</time>
        <ele>2693.0</ele>
      </trkpt>
      <trkpt lat="46.05147189139146" lon="7.830377035744876">
        <time>1970-01-01T00:00:00+00:00</time>
        <ele>2688.0</ele>
      </trkpt>
      <trkpt lat="46.051516782782926" lon="7.830126071489753">
        <time>1970-01-01T00:00:00+00:00</time>
        <ele>2681.0</ele>
      </trkpt>
      <trkpt lat="46.051532" lon="7.830041">
        <time>1970-01-01T00:00:00+00:00</time>
        <ele>2679.0</ele>
      </trkpt>
      <trkpt lat="46.051532" lon="7.830041">
        <time>1970-01-01T00:00:00+00:00</time>
        <ele>2679.0</ele>
      </trkpt>
      <trkpt lat="46.05158" lon="7.830011">
        <time>1970-01-01T00:00:00+00:00</time>
        <ele>2680.0</ele>
      </trkpt>
      <trkpt lat="46.05158" lon="7.830011">
        <time>1970-01-01T00:00:00+00:00</time>
        <ele>2680.0</ele>
      </trkpt>
      <trkpt lat="46.051492" lon="7.830051">
        <time>1970-01-01T00:00:00+00:00</time>
        <ele>2678.0</ele>
      </trkpt>
      <trkpt lat="46.051492" lon="7.830051">
        <time>1970-01-01T00:00:00+00:00</time>
        <ele>2678.0</ele>
      </trkpt>
      <trkpt lat="46.051514" lon="7.829978">
        <time>1970-01-01T00:00:00+00:00</time>
        <ele>2676.0</ele>
      </trkpt>
      <trkpt lat="46.051514" lon="7.829978">
        <time>1970-01-01T00:00:00+00:00</time>
        <ele>2676.0</ele>
      </trkpt>
      <trkpt lat="46.051547" lon="7.829915">
        <time>1970-01-01T00:00:00+00:00</time>
        <ele>2675.0</ele>
      </trkpt>
      <trkpt lat="46.051547" lon="7.829915">
        <time>1970-01-01T00:00:00+00:00</time>
        <ele>2675.0</ele>
      </trkpt>
      <trkpt lat="46.051567" lon="7.829852">
        <time>1970-01-01T00:00:00+00:00</time>
        <ele>2673.0</ele>
      </trkpt>
      <trkpt lat="46.051567" lon="7.829852">
        <time>1970-01-01T00:00:00+00:00</time>
        <ele>2673.0</ele>
      </trkpt>
      <trkpt lat="46.051559" lon="7.829951">
        <time>1970-01-01T00:00:00+00:00</time>
        <ele>2677.0</ele>
      </trkpt>
      <trkpt lat="46.051559" lon="7.829951">
        <time>1970-01-01T00:00:00+00:00</time>
        <ele>2677.0</ele>
      </trkpt>
      <trkpt lat="46.051519" lon="7.82999">
        <time>1970-01-01T00:00:00+00:00</time>
        <ele>2677.0</ele>
      </trkpt>
      <trkpt lat="46.051519" lon="7.82999">
        <time>1970-01-01T00:00:00+00:00</time>
        <ele>2677.0</ele>
      </trkpt>
      <trkpt lat="46.051547" lon="7.830089">
        <time>1970-01-01T00:00:00+00:00</time>
        <ele>2681.0</ele>
      </trkpt>
      <trkpt lat="46.051547" lon="7.830089">
        <time>1970-01-01T00:00:00+00:00</time>
        <ele>2681.0</ele>
      </trkpt>
      <trkpt lat="46.051543" lon="7.829999">
        <time>1970-01-01T00:00:00+00:00</time>
        <ele>2678.0</ele>
      </trkpt>
    </trkseg>
  </trk>
</gpx>
